<?xml version='1.0' encoding='UTF-8'?><gpx version="1.1" creator="JPX - https://github.com/jenetics/jpx" xmlns="http://www.topografix.com/GPX/1/1"><trk><trkseg><trkpt lat="43.7450087" lon="12.8265237"><ele>275.0</ele><time>2026-04-06T12:33:33.152Z</time></trkpt><trkpt lat="43.7450213" lon="12.8264144"><ele>275.0</ele><time>2026-04-06T12:33:34.155Z</time></trkpt><trkpt lat="43.7450273" lon="12.8263073"><ele>275.0</ele><time>2026-04-06T12:33:35.153Z</time></trkpt><trkpt lat="43.7450372" lon="12.8261935"><ele>275.0</ele><time>2026-04-06T12:33:36.146Z</time></trkpt><trkpt lat="43.7450444" lon="12.8260754"><ele>275.0</ele><time>2026-04-06T12:33:37.148Z</time></trkpt><trkpt lat="43.7450461" lon="12.8259488"><ele>275.0</ele><time>2026-04-06T12:33:38.152Z</time></trkpt><trkpt lat="43.7450415" lon="12.8258209"><ele>276.6</ele><time>2026-04-06T12:33:39.152Z</time></trkpt><trkpt lat="43.7450231" lon="12.8257009"><ele>278.2</ele><time>2026-04-06T12:33:40.152Z</time></trkpt><trkpt lat="43.7449981" lon="12.8255833"><ele>279.8</ele><time>2026-04-06T12:33:41.15Z</time></trkpt><trkpt lat="43.7449702" lon="12.8254629"><ele>281.4</ele><time>2026-04-06T12:33:42.146Z</time></trkpt><trkpt lat="43.7449295" lon="12.8253421"><ele>283.0</ele><time>2026-04-06T12:33:43.15Z</time></trkpt><trkpt lat="43.7448886" lon="12.8252227"><ele>285.0</ele><time>2026-04-06T12:33:44.15Z</time></trkpt><trkpt lat="43.7448447" lon="12.8251011"><ele>287.0</ele><time>2026-04-06T12:33:45.15Z</time></trkpt><trkpt lat="43.7447987" lon="12.8249698"><ele>289.0</ele><time>2026-04-06T12:33:46.15Z</time></trkpt><trkpt lat="43.7447406" lon="12.8248328"><ele>291.0</ele><time>2026-04-06T12:33:47.15Z</time></trkpt><trkpt lat="43.7446722" lon="12.8246842"><ele>293.0</ele><time>2026-04-06T12:33:48.148Z</time></trkpt><trkpt lat="43.7445974" lon="12.8245377"><ele>293.0</ele><time>2026-04-06T12:33:49.148Z</time></trkpt><trkpt lat="43.744523" lon="12.8244243"><ele>293.0</ele><time>2026-04-06T12:33:50.147Z</time></trkpt><trkpt lat="43.7444407" lon="12.8243463"><ele>293.0</ele><time>2026-04-06T12:33:51.145Z</time></trkpt><trkpt lat="43.7443423" lon="12.8243058"><ele>293.0</ele><time>2026-04-06T12:33:52.13Z</time></trkpt><trkpt lat="43.7442118" lon="12.8242977"><ele>293.0</ele><time>2026-04-06T12:33:53.148Z</time></trkpt><trkpt lat="43.7440588" lon="12.8243036"><ele>295.33333333333337</ele><time>2026-04-06T12:33:54.138Z</time></trkpt><trkpt lat="43.7438763" lon="12.8243188"><ele>297.6666666666667</ele><time>2026-04-06T12:33:55.148Z</time></trkpt><trkpt lat="43.7437039" lon="12.8243023"><ele>300.0</ele><time>2026-04-06T12:33:56.132Z</time></trkpt><trkpt lat="43.7435312" lon="12.8242972"><ele>301.0</ele><time>2026-04-06T12:33:57.141Z</time></trkpt><trkpt lat="43.743367" lon="12.8242708"><ele>302.0</ele><time>2026-04-06T12:33:58.146Z</time></trkpt><trkpt lat="43.7432105" lon="12.824223"><ele>303.0</ele><time>2026-04-06T12:33:59.142Z</time></trkpt><trkpt lat="43.7430593" lon="12.8241425"><ele>303.0</ele><time>2026-04-06T12:34:00.134Z</time></trkpt><trkpt lat="43.7429266" lon="12.8240497"><ele>303.0</ele><time>2026-04-06T12:34:01.144Z</time></trkpt><trkpt lat="43.7428041" lon="12.8239473"><ele>303.0</ele><time>2026-04-06T12:34:02.155Z</time></trkpt><trkpt lat="43.7426972" lon="12.8238731"><ele>303.0</ele><time>2026-04-06T12:34:03.146Z</time></trkpt><trkpt lat="43.7426272" lon="12.8237986"><ele>303.0</ele><time>2026-04-06T12:34:04.142Z</time></trkpt><trkpt lat="43.7425536" lon="12.8236603"><ele>303.0</ele><time>2026-04-06T12:34:05.139Z</time></trkpt><trkpt lat="43.7424761" lon="12.8234734"><ele>303.0</ele><time>2026-04-06T12:34:06.144Z</time></trkpt><trkpt lat="43.7423823" lon="12.82332"><ele>303.0</ele><time>2026-04-06T12:34:07.147Z</time></trkpt><trkpt lat="43.742295" lon="12.8231983"><ele>303.0</ele><time>2026-04-06T12:34:08.145Z</time></trkpt><trkpt lat="43.7422054" lon="12.8230831"><ele>303.0</ele><time>2026-04-06T12:34:09.152Z</time></trkpt><trkpt lat="43.7421217" lon="12.8229574"><ele>303.0</ele><time>2026-04-06T12:34:10.142Z</time></trkpt><trkpt lat="43.7420357" lon="12.8228587"><ele>303.0</ele><time>2026-04-06T12:34:11.148Z</time></trkpt><trkpt lat="43.7419256" lon="12.8227804"><ele>302.5</ele><time>2026-04-06T12:34:12.141Z</time></trkpt><trkpt lat="43.7417977" lon="12.8227145"><ele>302.0</ele><time>2026-04-06T12:34:13.152Z</time></trkpt><trkpt lat="43.7416615" lon="12.8226681"><ele>301.5</ele><time>2026-04-06T12:34:14.145Z</time></trkpt><trkpt lat="43.7415439" lon="12.8226241"><ele>301.0</ele><time>2026-04-06T12:34:15.144Z</time></trkpt><trkpt lat="43.7414485" lon="12.8225678"><ele>301.0</ele><time>2026-04-06T12:34:16.15Z</time></trkpt><trkpt lat="43.741372" lon="12.8225323"><ele>301.0</ele><time>2026-04-06T12:34:17.152Z</time></trkpt><trkpt lat="43.7412897" lon="12.8225197"><ele>301.0</ele><time>2026-04-06T12:34:18.147Z</time></trkpt><trkpt lat="43.7411713" lon="12.8225015"><ele>301.0</ele><time>2026-04-06T12:34:19.141Z</time></trkpt><trkpt lat="43.741042" lon="12.8224617"><ele>301.0</ele><time>2026-04-06T12:34:20.139Z</time></trkpt><trkpt lat="43.740922" lon="12.8223999"><ele>298.0</ele><time>2026-04-06T12:34:21.136Z</time></trkpt><trkpt lat="43.7408014" lon="12.8223138"><ele>295.0</ele><time>2026-04-06T12:34:22.137Z</time></trkpt><trkpt lat="43.7406822" lon="12.8222058"><ele>292.0</ele><time>2026-04-06T12:34:23.132Z</time></trkpt><trkpt lat="43.7405952" lon="12.8220819"><ele>289.0</ele><time>2026-04-06T12:34:24.131Z</time></trkpt><trkpt lat="43.7405069" lon="12.8219802"><ele>289.0</ele><time>2026-04-06T12:34:25.131Z</time></trkpt><trkpt lat="43.7404178" lon="12.8218962"><ele>289.0</ele><time>2026-04-06T12:34:26.132Z</time></trkpt><trkpt lat="43.7403107" lon="12.8218194"><ele>289.0</ele><time>2026-04-06T12:34:27.131Z</time></trkpt><trkpt lat="43.7402023" lon="12.8217989"><ele>289.0</ele><time>2026-04-06T12:34:28.135Z</time></trkpt><trkpt lat="43.7400696" lon="12.8217935"><ele>286.0</ele><time>2026-04-06T12:34:29.134Z</time></trkpt><trkpt lat="43.7399207" lon="12.8218124"><ele>283.0</ele><time>2026-04-06T12:34:30.135Z</time></trkpt><trkpt lat="43.7397865" lon="12.8218183"><ele>280.0</ele><time>2026-04-06T12:34:31.134Z</time></trkpt><trkpt lat="43.7396734" lon="12.8218507"><ele>277.0</ele><time>2026-04-06T12:34:32.151Z</time></trkpt><trkpt lat="43.7395443" lon="12.8219004"><ele>275.8</ele><time>2026-04-06T12:34:33.132Z</time></trkpt><trkpt lat="43.7394383" lon="12.8219644"><ele>274.6</ele><time>2026-04-06T12:34:34.145Z</time></trkpt><trkpt lat="43.739333" lon="12.8219733"><ele>273.40000000000003</ele><time>2026-04-06T12:34:35.155Z</time></trkpt><trkpt lat="43.7392369" lon="12.8219213"><ele>272.2</ele><time>2026-04-06T12:34:36.151Z</time></trkpt><trkpt lat="43.7391435" lon="12.8218362"><ele>271.0</ele><time>2026-04-06T12:34:37.146Z</time></trkpt><trkpt lat="43.7390383" lon="12.8217284"><ele>269.75</ele><time>2026-04-06T12:34:38.147Z</time></trkpt><trkpt lat="43.7389493" lon="12.8216281"><ele>268.5</ele><time>2026-04-06T12:34:39.147Z</time></trkpt><trkpt lat="43.7388584" lon="12.8215099"><ele>267.25</ele><time>2026-04-06T12:34:40.14Z</time></trkpt><trkpt lat="43.73877" lon="12.8213933"><ele>266.0</ele><time>2026-04-06T12:34:41.141Z</time></trkpt><trkpt lat="43.7386836" lon="12.8212918"><ele>266.0</ele><time>2026-04-06T12:34:42.136Z</time></trkpt><trkpt lat="43.7385845" lon="12.8212055"><ele>266.0</ele><time>2026-04-06T12:34:43.143Z</time></trkpt><trkpt lat="43.7384739" lon="12.8211128"><ele>266.0</ele><time>2026-04-06T12:34:44.136Z</time></trkpt><trkpt lat="43.7383552" lon="12.8210183"><ele>266.0</ele><time>2026-04-06T12:34:45.14Z</time></trkpt><trkpt lat="43.738234" lon="12.8209445"><ele>261.75</ele><time>2026-04-06T12:34:46.138Z</time></trkpt><trkpt lat="43.7381145" lon="12.8209011"><ele>257.5</ele><time>2026-04-06T12:34:47.133Z</time></trkpt><trkpt lat="43.737991" lon="12.8208814"><ele>253.25</ele><time>2026-04-06T12:34:48.137Z</time></trkpt><trkpt lat="43.7378534" lon="12.8208727"><ele>249.0</ele><time>2026-04-06T12:34:49.134Z</time></trkpt><trkpt lat="43.7377098" lon="12.8208685"><ele>246.0</ele><time>2026-04-06T12:34:50.128Z</time></trkpt><trkpt lat="43.7375449" lon="12.820883"><ele>243.0</ele><time>2026-04-06T12:34:51.132Z</time></trkpt><trkpt lat="43.7373606" lon="12.8209259"><ele>240.0</ele><time>2026-04-06T12:34:52.137Z</time></trkpt><trkpt lat="43.7371878" lon="12.8209775"><ele>239.33333333333331</ele><time>2026-04-06T12:34:53.142Z</time></trkpt><trkpt lat="43.7370188" lon="12.8210123"><ele>238.66666666666666</ele><time>2026-04-06T12:34:54.136Z</time></trkpt><trkpt lat="43.7368587" lon="12.8210077"><ele>238.0</ele><time>2026-04-06T12:34:55.135Z</time></trkpt><trkpt lat="43.7367039" lon="12.8209689"><ele>236.0</ele><time>2026-04-06T12:34:56.137Z</time></trkpt><trkpt lat="43.7365529" lon="12.8209678"><ele>234.0</ele><time>2026-04-06T12:34:57.133Z</time></trkpt><trkpt lat="43.736396" lon="12.8209688"><ele>232.0</ele><time>2026-04-06T12:34:58.141Z</time></trkpt><trkpt lat="43.7362467" lon="12.8209715"><ele>232.0</ele><time>2026-04-06T12:34:59.141Z</time></trkpt><trkpt lat="43.7360998" lon="12.8209612"><ele>232.0</ele><time>2026-04-06T12:35:00.14Z</time></trkpt><trkpt lat="43.7359846" lon="12.8209533"><ele>232.0</ele><time>2026-04-06T12:35:01.138Z</time></trkpt><trkpt lat="43.7358899" lon="12.8209328"><ele>232.0</ele><time>2026-04-06T12:35:02.162Z</time></trkpt><trkpt lat="43.7357707" lon="12.8209428"><ele>230.25</ele><time>2026-04-06T12:35:03.143Z</time></trkpt><trkpt lat="43.7356432" lon="12.8209672"><ele>228.5</ele><time>2026-04-06T12:35:04.134Z</time></trkpt><trkpt lat="43.735492" lon="12.8210159"><ele>226.75</ele><time>2026-04-06T12:35:05.138Z</time></trkpt><trkpt lat="43.7353701" lon="12.8210324"><ele>225.0</ele><time>2026-04-06T12:35:06.14Z</time></trkpt><trkpt lat="43.7352663" lon="12.8210624"><ele>223.16666666666666</ele><time>2026-04-06T12:35:07.139Z</time></trkpt><trkpt lat="43.7351626" lon="12.8211307"><ele>221.33333333333331</ele><time>2026-04-06T12:35:08.139Z</time></trkpt><trkpt lat="43.7350865" lon="12.8211829"><ele>219.5</ele><time>2026-04-06T12:35:09.145Z</time></trkpt><trkpt lat="43.7350171" lon="12.8211681"><ele>217.66666666666666</ele><time>2026-04-06T12:35:18.162Z</time></trkpt><trkpt lat="43.7350599" lon="12.8210806"><ele>215.83333333333331</ele><time>2026-04-06T12:35:25.172Z</time></trkpt><trkpt lat="43.7351267" lon="12.821021"><ele>214.0</ele><time>2026-04-06T12:35:27.18Z</time></trkpt><trkpt lat="43.7352058" lon="12.8209706"><ele>215.57142857142858</ele><time>2026-04-06T12:35:29.17Z</time></trkpt><trkpt lat="43.7352584" lon="12.8209114"><ele>217.14285714285717</ele><time>2026-04-06T12:35:31.177Z</time></trkpt><trkpt lat="43.7353263" lon="12.8208664"><ele>218.71428571428572</ele><time>2026-04-06T12:35:41.193Z</time></trkpt><trkpt lat="43.7354047" lon="12.8208384"><ele>220.2857142857143</ele><time>2026-04-06T12:35:43.192Z</time></trkpt><trkpt lat="43.7354734" lon="12.8208317"><ele>221.85714285714286</ele><time>2026-04-06T12:35:45.185Z</time></trkpt><trkpt lat="43.7355467" lon="12.8208251"><ele>223.42857142857147</ele><time>2026-04-06T12:35:47.195Z</time></trkpt><trkpt lat="43.7356151" lon="12.8208576"><ele>225.00000000000003</ele><time>2026-04-06T12:35:49.194Z</time></trkpt><trkpt lat="43.7356763" lon="12.8208852"><ele>225.0</ele><time>2026-04-06T12:35:51.191Z</time></trkpt><trkpt lat="43.7357377" lon="12.8209351"><ele>225.0</ele><time>2026-04-06T12:35:57.194Z</time></trkpt><trkpt lat="43.7358152" lon="12.8209916"><ele>225.0</ele><time>2026-04-06T12:36:25.178Z</time></trkpt><trkpt lat="43.7358902" lon="12.8210449"><ele>225.0</ele><time>2026-04-06T12:36:29.181Z</time></trkpt><trkpt lat="43.7358469" lon="12.8211292"><ele>225.0</ele><time>2026-04-06T12:36:34.171Z</time></trkpt><trkpt lat="43.7357379" lon="12.8211839"><ele>225.0</ele><time>2026-04-06T12:36:35.147Z</time></trkpt><trkpt lat="43.735607" lon="12.8212305"><ele>224.5</ele><time>2026-04-06T12:36:36.144Z</time></trkpt><trkpt lat="43.7354678" lon="12.8212846"><ele>224.0</ele><time>2026-04-06T12:36:37.141Z</time></trkpt><trkpt lat="43.7353281" lon="12.8213452"><ele>223.5</ele><time>2026-04-06T12:36:38.15Z</time></trkpt><trkpt lat="43.7351898" lon="12.8214"><ele>223.0</ele><time>2026-04-06T12:36:39.143Z</time></trkpt><trkpt lat="43.7350446" lon="12.8214563"><ele>220.0</ele><time>2026-04-06T12:36:40.144Z</time></trkpt><trkpt lat="43.7348869" lon="12.8215089"><ele>217.0</ele><time>2026-04-06T12:36:41.147Z</time></trkpt><trkpt lat="43.7346596" lon="12.8215307"><ele>214.0</ele><time>2026-04-06T12:36:42.156Z</time></trkpt><trkpt lat="43.7344184" lon="12.8215788"><ele>208.5</ele><time>2026-04-06T12:36:43.148Z</time></trkpt><trkpt lat="43.7341584" lon="12.8216169"><ele>203.0</ele><time>2026-04-06T12:36:44.152Z</time></trkpt><trkpt lat="43.7338203" lon="12.8216681"><ele>203.0</ele><time>2026-04-06T12:36:45.162Z</time></trkpt><trkpt lat="43.7335838" lon="12.8216875"><ele>203.0</ele><time>2026-04-06T12:36:46.161Z</time></trkpt><trkpt lat="43.7333601" lon="12.8216747"><ele>199.0</ele><time>2026-04-06T12:36:47.171Z</time></trkpt><trkpt lat="43.7331652" lon="12.8216236"><ele>195.0</ele><time>2026-04-06T12:36:48.173Z</time></trkpt><trkpt lat="43.7329876" lon="12.8215583"><ele>191.0</ele><time>2026-04-06T12:36:49.165Z</time></trkpt><trkpt lat="43.732844" lon="12.8215248"><ele>187.33333333333331</ele><time>2026-04-06T12:36:50.176Z</time></trkpt><trkpt lat="43.7327037" lon="12.8214879"><ele>183.66666666666666</ele><time>2026-04-06T12:36:51.168Z</time></trkpt><trkpt lat="43.7325546" lon="12.8214979"><ele>180.0</ele><time>2026-04-06T12:36:52.17Z</time></trkpt><trkpt lat="43.7323801" lon="12.82153"><ele>180.0</ele><time>2026-04-06T12:36:53.169Z</time></trkpt><trkpt lat="43.7322361" lon="12.8215366"><ele>180.0</ele><time>2026-04-06T12:36:54.168Z</time></trkpt><trkpt lat="43.732132" lon="12.8215469"><ele>180.0</ele><time>2026-04-06T12:36:55.16Z</time></trkpt><trkpt lat="43.7320301" lon="12.8216143"><ele>180.0</ele><time>2026-04-06T12:36:56.162Z</time></trkpt><trkpt lat="43.7319248" lon="12.8217012"><ele>177.75</ele><time>2026-04-06T12:36:57.156Z</time></trkpt><trkpt lat="43.7318314" lon="12.8217899"><ele>175.5</ele><time>2026-04-06T12:36:58.158Z</time></trkpt><trkpt lat="43.7317317" lon="12.8218893"><ele>173.25</ele><time>2026-04-06T12:36:59.15Z</time></trkpt><trkpt lat="43.7316319" lon="12.8220059"><ele>171.0</ele><time>2026-04-06T12:37:00.15Z</time></trkpt><trkpt lat="43.7315258" lon="12.8221257"><ele>171.0</ele><time>2026-04-06T12:37:01.148Z</time></trkpt><trkpt lat="43.731413" lon="12.822247"><ele>171.0</ele><time>2026-04-06T12:37:02.162Z</time></trkpt><trkpt lat="43.7313048" lon="12.8223557"><ele>171.0</ele><time>2026-04-06T12:37:03.149Z</time></trkpt><trkpt lat="43.7312115" lon="12.8224637"><ele>171.0</ele><time>2026-04-06T12:37:04.142Z</time></trkpt><trkpt lat="43.7311402" lon="12.8225579"><ele>171.0</ele><time>2026-04-06T12:37:05.151Z</time></trkpt><trkpt lat="43.7310851" lon="12.8226056"><ele>171.0</ele><time>2026-04-06T12:37:06.163Z</time></trkpt><trkpt lat="43.7310114" lon="12.8226152"><ele>171.0</ele><time>2026-04-06T12:37:07.162Z</time></trkpt><trkpt lat="43.7308923" lon="12.8226059"><ele>171.0</ele><time>2026-04-06T12:37:08.168Z</time></trkpt><trkpt lat="43.7307714" lon="12.8225538"><ele>171.0</ele><time>2026-04-06T12:37:09.163Z</time></trkpt><trkpt lat="43.7306586" lon="12.8224671"><ele>168.4</ele><time>2026-04-06T12:37:10.156Z</time></trkpt><trkpt lat="43.7305525" lon="12.8223778"><ele>165.8</ele><time>2026-04-06T12:37:11.166Z</time></trkpt><trkpt lat="43.730457" lon="12.8222901"><ele>163.20000000000002</ele><time>2026-04-06T12:37:12.151Z</time></trkpt><trkpt lat="43.7303658" lon="12.8222275"><ele>160.60000000000002</ele><time>2026-04-06T12:37:13.149Z</time></trkpt><trkpt lat="43.7302703" lon="12.8221887"><ele>158.0</ele><time>2026-04-06T12:37:14.156Z</time></trkpt><trkpt lat="43.7301661" lon="12.8221637"><ele>155.0</ele><time>2026-04-06T12:37:15.157Z</time></trkpt><trkpt lat="43.7300653" lon="12.8221658"><ele>152.0</ele><time>2026-04-06T12:37:16.159Z</time></trkpt><trkpt lat="43.7299571" lon="12.822197"><ele>149.0</ele><time>2026-04-06T12:37:17.147Z</time></trkpt><trkpt lat="43.7298219" lon="12.8222491"><ele>146.0</ele><time>2026-04-06T12:37:18.146Z</time></trkpt><trkpt lat="43.729675" lon="12.8223082"><ele>146.0</ele><time>2026-04-06T12:37:19.135Z</time></trkpt><trkpt lat="43.729502" lon="12.8223731"><ele>146.0</ele><time>2026-04-06T12:37:20.144Z</time></trkpt><trkpt lat="43.7293585" lon="12.8223964"><ele>146.0</ele><time>2026-04-06T12:37:21.142Z</time></trkpt><trkpt lat="43.7292355" lon="12.8224134"><ele>146.0</ele><time>2026-04-06T12:37:22.148Z</time></trkpt><trkpt lat="43.7291045" lon="12.822443"><ele>143.33333333333331</ele><time>2026-04-06T12:37:23.151Z</time></trkpt><trkpt lat="43.7289658" lon="12.8224944"><ele>140.66666666666666</ele><time>2026-04-06T12:37:24.156Z</time></trkpt><trkpt lat="43.7288022" lon="12.8225577"><ele>138.0</ele><time>2026-04-06T12:37:25.158Z</time></trkpt><trkpt lat="43.7286245" lon="12.8226209"><ele>137.33333333333334</ele><time>2026-04-06T12:37:26.162Z</time></trkpt><trkpt lat="43.7284469" lon="12.8226869"><ele>136.66666666666669</ele><time>2026-04-06T12:37:27.161Z</time></trkpt><trkpt lat="43.7282672" lon="12.8227512"><ele>136.0</ele><time>2026-04-06T12:37:28.159Z</time></trkpt><trkpt lat="43.728084" lon="12.8228223"><ele>136.0</ele><time>2026-04-06T12:37:29.157Z</time></trkpt><trkpt lat="43.7279151" lon="12.8229009"><ele>136.0</ele><time>2026-04-06T12:37:30.159Z</time></trkpt><trkpt lat="43.7277704" lon="12.8229772"><ele>136.0</ele><time>2026-04-06T12:37:31.156Z</time></trkpt><trkpt lat="43.7276396" lon="12.8230602"><ele>137.0</ele><time>2026-04-06T12:37:32.169Z</time></trkpt><trkpt lat="43.7275278" lon="12.8231246"><ele>138.0</ele><time>2026-04-06T12:37:33.144Z</time></trkpt><trkpt lat="43.7274439" lon="12.8231651"><ele>139.0</ele><time>2026-04-06T12:37:34.151Z</time></trkpt><trkpt lat="43.727376" lon="12.8231335"><ele>140.0</ele><time>2026-04-06T12:37:36.158Z</time></trkpt><trkpt lat="43.7273872" lon="12.8230177"><ele>141.0</ele><time>2026-04-06T12:37:38.173Z</time></trkpt><trkpt lat="43.7274097" lon="12.8229319"><ele>142.0</ele><time>2026-04-06T12:37:39.18Z</time></trkpt><trkpt lat="43.7274466" lon="12.8228448"><ele>142.0</ele><time>2026-04-06T12:37:40.168Z</time></trkpt><trkpt lat="43.7274981" lon="12.8227639"><ele>142.0</ele><time>2026-04-06T12:37:41.168Z</time></trkpt><trkpt lat="43.7275715" lon="12.8226731"><ele>142.0</ele><time>2026-04-06T12:37:42.163Z</time></trkpt><trkpt lat="43.7276691" lon="12.8225549"><ele>142.0</ele><time>2026-04-06T12:37:43.162Z</time></trkpt><trkpt lat="43.7277757" lon="12.8224231"><ele>142.0</ele><time>2026-04-06T12:37:44.161Z</time></trkpt><trkpt lat="43.7278903" lon="12.822278"><ele>142.33333333333334</ele><time>2026-04-06T12:37:45.166Z</time></trkpt><trkpt lat="43.7280194" lon="12.8221159"><ele>142.66666666666666</ele><time>2026-04-06T12:37:46.167Z</time></trkpt><trkpt lat="43.7281353" lon="12.8219849"><ele>143.0</ele><time>2026-04-06T12:37:47.173Z</time></trkpt><trkpt lat="43.7282395" lon="12.8218447"><ele>143.75</ele><time>2026-04-06T12:37:48.172Z</time></trkpt><trkpt lat="43.7283504" lon="12.8217214"><ele>144.5</ele><time>2026-04-06T12:37:49.171Z</time></trkpt><trkpt lat="43.728451" lon="12.8215823"><ele>145.25</ele><time>2026-04-06T12:37:50.166Z</time></trkpt><trkpt lat="43.7285545" lon="12.8214553"><ele>146.0</ele><time>2026-04-06T12:37:51.16Z</time></trkpt><trkpt lat="43.7286452" lon="12.8213175"><ele>146.0</ele><time>2026-04-06T12:37:52.165Z</time></trkpt><trkpt lat="43.7287296" lon="12.8211912"><ele>146.0</ele><time>2026-04-06T12:37:53.165Z</time></trkpt><trkpt lat="43.7288255" lon="12.8210806"><ele>146.0</ele><time>2026-04-06T12:37:54.155Z</time></trkpt><trkpt lat="43.7289135" lon="12.8210114"><ele>146.0</ele><time>2026-04-06T12:37:55.164Z</time></trkpt><trkpt lat="43.7289947" lon="12.8209187"><ele>150.0</ele><time>2026-04-06T12:37:56.175Z</time></trkpt><trkpt lat="43.7290474" lon="12.8208273"><ele>154.0</ele><time>2026-04-06T12:37:57.17Z</time></trkpt><trkpt lat="43.7290961" lon="12.8207093"><ele>158.0</ele><time>2026-04-06T12:37:58.182Z</time></trkpt><trkpt lat="43.729146" lon="12.8205276"><ele>162.0</ele><time>2026-04-06T12:37:59.17Z</time></trkpt><trkpt lat="43.7292059" lon="12.8203614"><ele>162.0</ele><time>2026-04-06T12:38:00.168Z</time></trkpt><trkpt lat="43.7292671" lon="12.8201818"><ele>162.0</ele><time>2026-04-06T12:38:01.159Z</time></trkpt><trkpt lat="43.7293113" lon="12.8199848"><ele>162.0</ele><time>2026-04-06T12:38:02.182Z</time></trkpt><trkpt lat="43.7293803" lon="12.8198019"><ele>162.0</ele><time>2026-04-06T12:38:03.162Z</time></trkpt><trkpt lat="43.7294439" lon="12.8196487"><ele>161.25</ele><time>2026-04-06T12:38:04.158Z</time></trkpt><trkpt lat="43.7295181" lon="12.8195047"><ele>160.5</ele><time>2026-04-06T12:38:05.159Z</time></trkpt><trkpt lat="43.7296204" lon="12.8193455"><ele>159.75</ele><time>2026-04-06T12:38:06.161Z</time></trkpt><trkpt lat="43.7297239" lon="12.8191744"><ele>159.0</ele><time>2026-04-06T12:38:07.16Z</time></trkpt><trkpt lat="43.7298013" lon="12.8190307"><ele>163.66666666666666</ele><time>2026-04-06T12:38:08.167Z</time></trkpt><trkpt lat="43.7298884" lon="12.8188448"><ele>168.33333333333331</ele><time>2026-04-06T12:38:09.163Z</time></trkpt><trkpt lat="43.7299711" lon="12.8186587"><ele>173.0</ele><time>2026-04-06T12:38:10.169Z</time></trkpt><trkpt lat="43.7300339" lon="12.8184985"><ele>172.75</ele><time>2026-04-06T12:38:11.17Z</time></trkpt><trkpt lat="43.7300937" lon="12.8183334"><ele>172.5</ele><time>2026-04-06T12:38:12.165Z</time></trkpt><trkpt lat="43.730169" lon="12.8181552"><ele>172.25</ele><time>2026-04-06T12:38:13.167Z</time></trkpt><trkpt lat="43.730243" lon="12.8179901"><ele>172.0</ele><time>2026-04-06T12:38:14.168Z</time></trkpt><trkpt lat="43.7303247" lon="12.8178501"><ele>172.0</ele><time>2026-04-06T12:38:15.169Z</time></trkpt><trkpt lat="43.7304125" lon="12.8177128"><ele>172.0</ele><time>2026-04-06T12:38:16.165Z</time></trkpt><trkpt lat="43.7304853" lon="12.8175861"><ele>172.0</ele><time>2026-04-06T12:38:17.169Z</time></trkpt><trkpt lat="43.7305622" lon="12.8174798"><ele>172.0</ele><time>2026-04-06T12:38:18.157Z</time></trkpt><trkpt lat="43.7306513" lon="12.8173683"><ele>176.5</ele><time>2026-04-06T12:38:19.166Z</time></trkpt><trkpt lat="43.7307417" lon="12.8172533"><ele>181.0</ele><time>2026-04-06T12:38:20.161Z</time></trkpt><trkpt lat="43.730831" lon="12.8171288"><ele>185.5</ele><time>2026-04-06T12:38:21.166Z</time></trkpt><trkpt lat="43.7309104" lon="12.8169893"><ele>190.0</ele><time>2026-04-06T12:38:22.164Z</time></trkpt><trkpt lat="43.7309767" lon="12.8168605"><ele>189.8</ele><time>2026-04-06T12:38:23.163Z</time></trkpt><trkpt lat="43.7310305" lon="12.816747"><ele>189.6</ele><time>2026-04-06T12:38:24.162Z</time></trkpt><trkpt lat="43.7310858" lon="12.816651"><ele>189.39999999999998</ele><time>2026-04-06T12:38:25.158Z</time></trkpt><trkpt lat="43.7311317" lon="12.8165334"><ele>189.2</ele><time>2026-04-06T12:38:26.159Z</time></trkpt><trkpt lat="43.7311794" lon="12.8163803"><ele>189.0</ele><time>2026-04-06T12:38:27.172Z</time></trkpt><trkpt lat="43.7312354" lon="12.8162251"><ele>189.0</ele><time>2026-04-06T12:38:28.157Z</time></trkpt><trkpt lat="43.7312877" lon="12.8161086"><ele>189.0</ele><time>2026-04-06T12:38:29.161Z</time></trkpt><trkpt lat="43.7313384" lon="12.816029"><ele>189.0</ele><time>2026-04-06T12:38:30.164Z</time></trkpt><trkpt lat="43.7314131" lon="12.8159581"><ele>189.0</ele><time>2026-04-06T12:38:31.163Z</time></trkpt><trkpt lat="43.7315004" lon="12.8159072"><ele>189.0</ele><time>2026-04-06T12:38:32.179Z</time></trkpt><trkpt lat="43.7315842" lon="12.8158476"><ele>190.25</ele><time>2026-04-06T12:38:33.164Z</time></trkpt><trkpt lat="43.7316628" lon="12.8157593"><ele>191.5</ele><time>2026-04-06T12:38:34.164Z</time></trkpt><trkpt lat="43.7317448" lon="12.8156491"><ele>192.75</ele><time>2026-04-06T12:38:35.168Z</time></trkpt><trkpt lat="43.7318333" lon="12.8155321"><ele>194.0</ele><time>2026-04-06T12:38:36.166Z</time></trkpt><trkpt lat="43.7319387" lon="12.8154099"><ele>194.0</ele><time>2026-04-06T12:38:37.164Z</time></trkpt><trkpt lat="43.7320439" lon="12.8152939"><ele>194.0</ele><time>2026-04-06T12:38:38.163Z</time></trkpt><trkpt lat="43.7321511" lon="12.8151793"><ele>194.0</ele><time>2026-04-06T12:38:39.163Z</time></trkpt><trkpt lat="43.7322596" lon="12.8150553"><ele>194.0</ele><time>2026-04-06T12:38:40.173Z</time></trkpt><trkpt lat="43.7323527" lon="12.8149243"><ele>198.5</ele><time>2026-04-06T12:38:41.168Z</time></trkpt><trkpt lat="43.7324198" lon="12.8148087"><ele>203.0</ele><time>2026-04-06T12:38:42.17Z</time></trkpt><trkpt lat="43.7324659" lon="12.8146852"><ele>207.5</ele><time>2026-04-06T12:38:43.173Z</time></trkpt><trkpt lat="43.7324992" lon="12.8145097"><ele>212.0</ele><time>2026-04-06T12:38:44.166Z</time></trkpt><trkpt lat="43.7325345" lon="12.814334"><ele>211.0</ele><time>2026-04-06T12:38:45.17Z</time></trkpt><trkpt lat="43.7325758" lon="12.8141809"><ele>210.0</ele><time>2026-04-06T12:38:46.177Z</time></trkpt><trkpt lat="43.7326341" lon="12.8140058"><ele>209.0</ele><time>2026-04-06T12:38:47.173Z</time></trkpt><trkpt lat="43.732688" lon="12.8138425"><ele>208.0</ele><time>2026-04-06T12:38:48.172Z</time></trkpt><trkpt lat="43.7327588" lon="12.8136779"><ele>208.0</ele><time>2026-04-06T12:38:49.165Z</time></trkpt><trkpt lat="43.7328296" lon="12.8135411"><ele>208.0</ele><time>2026-04-06T12:38:50.171Z</time></trkpt><trkpt lat="43.7328754" lon="12.813413"><ele>208.0</ele><time>2026-04-06T12:38:51.173Z</time></trkpt><trkpt lat="43.7329233" lon="12.8132558"><ele>208.0</ele><time>2026-04-06T12:38:52.173Z</time></trkpt><trkpt lat="43.7329824" lon="12.8131065"><ele>212.5</ele><time>2026-04-06T12:38:53.165Z</time></trkpt><trkpt lat="43.7330395" lon="12.8129594"><ele>217.0</ele><time>2026-04-06T12:38:54.176Z</time></trkpt><trkpt lat="43.7330898" lon="12.8128118"><ele>221.5</ele><time>2026-04-06T12:38:55.171Z</time></trkpt><trkpt lat="43.7331621" lon="12.812692"><ele>226.0</ele><time>2026-04-06T12:38:56.169Z</time></trkpt><trkpt lat="43.7332522" lon="12.8125426"><ele>228.5</ele><time>2026-04-06T12:38:57.166Z</time></trkpt><trkpt lat="43.7333218" lon="12.8124046"><ele>231.0</ele><time>2026-04-06T12:38:58.171Z</time></trkpt><trkpt lat="43.7333731" lon="12.8122879"><ele>233.5</ele><time>2026-04-06T12:38:59.168Z</time></trkpt><trkpt lat="43.7334392" lon="12.812154"><ele>236.0</ele><time>2026-04-06T12:39:00.181Z</time></trkpt><trkpt lat="43.7335094" lon="12.812013"><ele>235.25</ele><time>2026-04-06T12:39:01.179Z</time></trkpt><trkpt lat="43.7335783" lon="12.8118748"><ele>234.5</ele><time>2026-04-06T12:39:02.178Z</time></trkpt><trkpt lat="43.7336486" lon="12.8117316"><ele>233.75</ele><time>2026-04-06T12:39:03.163Z</time></trkpt><trkpt lat="43.733734" lon="12.811601"><ele>233.0</ele><time>2026-04-06T12:39:04.164Z</time></trkpt><trkpt lat="43.7338068" lon="12.8114951"><ele>235.00000000000003</ele><time>2026-04-06T12:39:05.158Z</time></trkpt><trkpt lat="43.7338678" lon="12.8114141"><ele>237.0</ele><time>2026-04-06T12:39:06.166Z</time></trkpt><trkpt lat="43.7339299" lon="12.8113576"><ele>239.0</ele><time>2026-04-06T12:39:07.165Z</time></trkpt><trkpt lat="43.7340017" lon="12.8113066"><ele>241.0</ele><time>2026-04-06T12:39:08.167Z</time></trkpt><trkpt lat="43.7340883" lon="12.8112647"><ele>243.00000000000003</ele><time>2026-04-06T12:39:09.165Z</time></trkpt><trkpt lat="43.7341848" lon="12.8112313"><ele>245.0</ele><time>2026-04-06T12:39:10.17Z</time></trkpt><trkpt lat="43.7342625" lon="12.8112283"><ele>245.0</ele><time>2026-04-06T12:39:11.165Z</time></trkpt><trkpt lat="43.7343345" lon="12.8112456"><ele>245.0</ele><time>2026-04-06T12:39:12.163Z</time></trkpt><trkpt lat="43.7344201" lon="12.8112891"><ele>245.0</ele><time>2026-04-06T12:39:13.158Z</time></trkpt><trkpt lat="43.7345207" lon="12.8113579"><ele>245.0</ele><time>2026-04-06T12:39:14.164Z</time></trkpt><trkpt lat="43.7346337" lon="12.811424"><ele>245.0</ele><time>2026-04-06T12:39:15.158Z</time></trkpt><trkpt lat="43.734743" lon="12.8114644"><ele>248.0</ele><time>2026-04-06T12:39:16.147Z</time></trkpt><trkpt lat="43.7348678" lon="12.8114646"><ele>251.0</ele><time>2026-04-06T12:39:17.159Z</time></trkpt><trkpt lat="43.7350132" lon="12.8114539"><ele>254.0</ele><time>2026-04-06T12:39:18.155Z</time></trkpt><trkpt lat="43.7351838" lon="12.8114319"><ele>257.0</ele><time>2026-04-06T12:39:19.154Z</time></trkpt><trkpt lat="43.7353363" lon="12.8114286"><ele>258.75</ele><time>2026-04-06T12:39:20.159Z</time></trkpt><trkpt lat="43.7354734" lon="12.8114299"><ele>260.5</ele><time>2026-04-06T12:39:21.173Z</time></trkpt><trkpt lat="43.7356147" lon="12.8114314"><ele>262.25</ele><time>2026-04-06T12:39:22.161Z</time></trkpt><trkpt lat="43.7357464" lon="12.8114373"><ele>264.0</ele><time>2026-04-06T12:39:23.162Z</time></trkpt><trkpt lat="43.7358885" lon="12.8114804"><ele>264.0</ele><time>2026-04-06T12:39:24.162Z</time></trkpt><trkpt lat="43.7360334" lon="12.8115151"><ele>264.0</ele><time>2026-04-06T12:39:25.166Z</time></trkpt><trkpt lat="43.7361853" lon="12.8115446"><ele>264.0</ele><time>2026-04-06T12:39:26.16Z</time></trkpt><trkpt lat="43.7363589" lon="12.8115439"><ele>268.3333333333333</ele><time>2026-04-06T12:39:27.164Z</time></trkpt><trkpt lat="43.7365538" lon="12.8115431"><ele>272.66666666666663</ele><time>2026-04-06T12:39:28.164Z</time></trkpt><trkpt lat="43.7367416" lon="12.8115669"><ele>277.0</ele><time>2026-04-06T12:39:29.161Z</time></trkpt><trkpt lat="43.7368783" lon="12.8116018"><ele>277.8</ele><time>2026-04-06T12:39:30.161Z</time></trkpt><trkpt lat="43.7369889" lon="12.8116166"><ele>278.6</ele><time>2026-04-06T12:39:31.165Z</time></trkpt><trkpt lat="43.7370912" lon="12.8116636"><ele>279.40000000000003</ele><time>2026-04-06T12:39:32.175Z</time></trkpt><trkpt lat="43.7371817" lon="12.8116882"><ele>280.2</ele><time>2026-04-06T12:39:33.162Z</time></trkpt><trkpt lat="43.7372581" lon="12.8116747"><ele>281.0</ele><time>2026-04-06T12:39:34.162Z</time></trkpt><trkpt lat="43.7373366" lon="12.8116117"><ele>281.0</ele><time>2026-04-06T12:39:35.165Z</time></trkpt><trkpt lat="43.7373908" lon="12.8115507"><ele>281.0</ele><time>2026-04-06T12:39:36.162Z</time></trkpt><trkpt lat="43.7374652" lon="12.8114684"><ele>281.0</ele><time>2026-04-06T12:39:37.166Z</time></trkpt><trkpt lat="43.7375409" lon="12.8113944"><ele>281.0</ele><time>2026-04-06T12:39:38.164Z</time></trkpt><trkpt lat="43.7376237" lon="12.8113554"><ele>281.0</ele><time>2026-04-06T12:39:39.17Z</time></trkpt><trkpt lat="43.7377174" lon="12.8113375"><ele>281.0</ele><time>2026-04-06T12:39:40.166Z</time></trkpt><trkpt lat="43.7378167" lon="12.8113428"><ele>279.5</ele><time>2026-04-06T12:39:41.163Z</time></trkpt><trkpt lat="43.7379438" lon="12.8113886"><ele>278.0</ele><time>2026-04-06T12:39:42.165Z</time></trkpt><trkpt lat="43.7380755" lon="12.8114482"><ele>276.5</ele><time>2026-04-06T12:39:43.168Z</time></trkpt><trkpt lat="43.738207" lon="12.8115073"><ele>275.0</ele><time>2026-04-06T12:39:44.17Z</time></trkpt><trkpt lat="43.7383296" lon="12.8115533"><ele>275.0</ele><time>2026-04-06T12:39:45.17Z</time></trkpt><trkpt lat="43.7384583" lon="12.8115789"><ele>275.0</ele><time>2026-04-06T12:39:46.157Z</time></trkpt><trkpt lat="43.7386002" lon="12.8115682"><ele>275.0</ele><time>2026-04-06T12:39:47.161Z</time></trkpt><trkpt lat="43.7387666" lon="12.8115323"><ele>275.0</ele><time>2026-04-06T12:39:48.155Z</time></trkpt><trkpt lat="43.7389945" lon="12.8114652"><ele>274.6666666666667</ele><time>2026-04-06T12:39:49.148Z</time></trkpt><trkpt lat="43.7392127" lon="12.8114002"><ele>274.3333333333333</ele><time>2026-04-06T12:39:50.165Z</time></trkpt><trkpt lat="43.7394343" lon="12.8113422"><ele>274.0</ele><time>2026-04-06T12:39:51.182Z</time></trkpt><trkpt lat="43.7396601" lon="12.8112796"><ele>274.66666666666663</ele><time>2026-04-06T12:39:52.173Z</time></trkpt><trkpt lat="43.7398725" lon="12.8112241"><ele>275.3333333333333</ele><time>2026-04-06T12:39:53.17Z</time></trkpt><trkpt lat="43.7400743" lon="12.8111651"><ele>276.0</ele><time>2026-04-06T12:39:54.163Z</time></trkpt><trkpt lat="43.7402545" lon="12.8111157"><ele>276.0</ele><time>2026-04-06T12:39:55.169Z</time></trkpt><trkpt lat="43.7404341" lon="12.8110687"><ele>276.0</ele><time>2026-04-06T12:39:56.172Z</time></trkpt><trkpt lat="43.7406277" lon="12.8110023"><ele>276.0</ele><time>2026-04-06T12:39:57.176Z</time></trkpt><trkpt lat="43.7408006" lon="12.8109526"><ele>280.0</ele><time>2026-04-06T12:39:58.163Z</time></trkpt><trkpt lat="43.740978" lon="12.810893"><ele>284.0</ele><time>2026-04-06T12:39:59.166Z</time></trkpt><trkpt lat="43.7411527" lon="12.8108535"><ele>288.0</ele><time>2026-04-06T12:40:00.167Z</time></trkpt><trkpt lat="43.7414586" lon="12.8108509"><ele>289.5</ele><time>2026-04-06T12:40:02.172Z</time></trkpt><trkpt lat="43.7416271" lon="12.810927"><ele>291.0</ele><time>2026-04-06T12:40:03.156Z</time></trkpt><trkpt lat="43.7417712" lon="12.8109779"><ele>292.5</ele><time>2026-04-06T12:40:04.162Z</time></trkpt><trkpt lat="43.7418922" lon="12.811003"><ele>294.0</ele><time>2026-04-06T12:40:05.153Z</time></trkpt><trkpt lat="43.7420347" lon="12.8109964"><ele>294.0</ele><time>2026-04-06T12:40:06.164Z</time></trkpt><trkpt lat="43.7422013" lon="12.8109964"><ele>294.0</ele><time>2026-04-06T12:40:07.169Z</time></trkpt><trkpt lat="43.7423864" lon="12.8110578"><ele>294.0</ele><time>2026-04-06T12:40:08.166Z</time></trkpt><trkpt lat="43.7425688" lon="12.8111553"><ele>295.5</ele><time>2026-04-06T12:40:09.155Z</time></trkpt><trkpt lat="43.7427268" lon="12.8112465"><ele>297.0</ele><time>2026-04-06T12:40:10.162Z</time></trkpt><trkpt lat="43.7428494" lon="12.8113279"><ele>298.5</ele><time>2026-04-06T12:40:11.163Z</time></trkpt><trkpt lat="43.7429489" lon="12.8114115"><ele>300.0</ele><time>2026-04-06T12:40:12.156Z</time></trkpt><trkpt lat="43.7430335" lon="12.8114695"><ele>300.0</ele><time>2026-04-06T12:40:13.159Z</time></trkpt><trkpt lat="43.7431142" lon="12.8115173"><ele>300.0</ele><time>2026-04-06T12:40:14.167Z</time></trkpt><trkpt lat="43.7432129" lon="12.8115461"><ele>300.0</ele><time>2026-04-06T12:40:15.168Z</time></trkpt><trkpt lat="43.7433144" lon="12.8115718"><ele>300.0</ele><time>2026-04-06T12:40:16.16Z</time></trkpt><trkpt lat="43.7434294" lon="12.8115576"><ele>300.0</ele><time>2026-04-06T12:40:17.149Z</time></trkpt><trkpt lat="43.7435458" lon="12.8115213"><ele>298.4</ele><time>2026-04-06T12:40:18.155Z</time></trkpt><trkpt lat="43.7436538" lon="12.8114574"><ele>296.8</ele><time>2026-04-06T12:40:19.163Z</time></trkpt><trkpt lat="43.7437526" lon="12.8113708"><ele>295.2</ele><time>2026-04-06T12:40:20.155Z</time></trkpt><trkpt lat="43.7438342" lon="12.811276"><ele>293.6</ele><time>2026-04-06T12:40:21.153Z</time></trkpt><trkpt lat="43.7438992" lon="12.8111988"><ele>292.0</ele><time>2026-04-06T12:40:28.191Z</time></trkpt><trkpt lat="43.7439485" lon="12.8111383"><ele>292.0</ele><time>2026-04-06T12:40:31.192Z</time></trkpt><trkpt lat="43.7439406" lon="12.8110268"><ele>292.0</ele><time>2026-04-06T12:40:34.191Z</time></trkpt><trkpt lat="43.7439619" lon="12.8109031"><ele>292.0</ele><time>2026-04-06T12:40:36.174Z</time></trkpt><trkpt lat="43.744018" lon="12.8108413"><ele>292.0</ele><time>2026-04-06T12:40:37.162Z</time></trkpt><trkpt lat="43.7440952" lon="12.8107796"><ele>292.0</ele><time>2026-04-06T12:40:38.164Z</time></trkpt><trkpt lat="43.7441807" lon="12.8107072"><ele>292.0</ele><time>2026-04-06T12:40:39.169Z</time></trkpt><trkpt lat="43.744292" lon="12.810622"><ele>294.5</ele><time>2026-04-06T12:40:40.174Z</time></trkpt><trkpt lat="43.7443784" lon="12.8105076"><ele>297.0</ele><time>2026-04-06T12:40:41.17Z</time></trkpt><trkpt lat="43.7445081" lon="12.8104179"><ele>299.5</ele><time>2026-04-06T12:40:42.155Z</time></trkpt><trkpt lat="43.7446441" lon="12.8103297"><ele>302.0</ele><time>2026-04-06T12:40:43.165Z</time></trkpt><trkpt lat="43.7447915" lon="12.8102503"><ele>302.0</ele><time>2026-04-06T12:40:44.164Z</time></trkpt><trkpt lat="43.7449132" lon="12.8101775"><ele>302.0</ele><time>2026-04-06T12:40:45.155Z</time></trkpt><trkpt lat="43.7450165" lon="12.8100801"><ele>302.0</ele><time>2026-04-06T12:40:46.153Z</time></trkpt><trkpt lat="43.7451245" lon="12.809927"><ele>302.0</ele><time>2026-04-06T12:40:47.139Z</time></trkpt><trkpt lat="43.7452266" lon="12.8097383"><ele>303.0</ele><time>2026-04-06T12:40:48.137Z</time></trkpt><trkpt lat="43.7453465" lon="12.8095252"><ele>304.0</ele><time>2026-04-06T12:40:49.151Z</time></trkpt><trkpt lat="43.7454335" lon="12.809344"><ele>305.0</ele><time>2026-04-06T12:40:50.148Z</time></trkpt><trkpt lat="43.7455165" lon="12.8091804"><ele>311.6666666666667</ele><time>2026-04-06T12:40:51.152Z</time></trkpt><trkpt lat="43.7455717" lon="12.8089769"><ele>318.3333333333333</ele><time>2026-04-06T12:40:52.156Z</time></trkpt><trkpt lat="43.745612" lon="12.8087573"><ele>325.0</ele><time>2026-04-06T12:40:53.156Z</time></trkpt><trkpt lat="43.7456512" lon="12.8085412"><ele>327.66666666666663</ele><time>2026-04-06T12:40:54.15Z</time></trkpt><trkpt lat="43.7456757" lon="12.8083437"><ele>330.3333333333333</ele><time>2026-04-06T12:40:55.162Z</time></trkpt><trkpt lat="43.7456764" lon="12.8081431"><ele>333.0</ele><time>2026-04-06T12:40:56.152Z</time></trkpt><trkpt lat="43.7456325" lon="12.8079285"><ele>333.0</ele><time>2026-04-06T12:40:57.168Z</time></trkpt><trkpt lat="43.745578" lon="12.8077426"><ele>333.0</ele><time>2026-04-06T12:40:58.164Z</time></trkpt><trkpt lat="43.7455497" lon="12.8075675"><ele>333.0</ele><time>2026-04-06T12:40:59.159Z</time></trkpt><trkpt lat="43.7455674" lon="12.8074099"><ele>333.0</ele><time>2026-04-06T12:41:00.171Z</time></trkpt><trkpt lat="43.7456186" lon="12.8072332"><ele>334.4</ele><time>2026-04-06T12:41:01.182Z</time></trkpt><trkpt lat="43.7456698" lon="12.8070932"><ele>335.79999999999995</ele><time>2026-04-06T12:41:02.194Z</time></trkpt><trkpt lat="43.745675" lon="12.8069495"><ele>337.2</ele><time>2026-04-06T12:41:03.162Z</time></trkpt><trkpt lat="43.7456497" lon="12.806814"><ele>338.6</ele><time>2026-04-06T12:41:04.172Z</time></trkpt><trkpt lat="43.7455961" lon="12.8066741"><ele>340.0</ele><time>2026-04-06T12:41:05.165Z</time></trkpt><trkpt lat="43.7455219" lon="12.8065387"><ele>341.0</ele><time>2026-04-06T12:41:06.156Z</time></trkpt><trkpt lat="43.7454313" lon="12.8063976"><ele>342.0</ele><time>2026-04-06T12:41:07.165Z</time></trkpt><trkpt lat="43.7453196" lon="12.8062385"><ele>343.0</ele><time>2026-04-06T12:41:08.161Z</time></trkpt><trkpt lat="43.7451987" lon="12.8060918"><ele>343.0</ele><time>2026-04-06T12:41:09.168Z</time></trkpt><trkpt lat="43.7451011" lon="12.805951"><ele>343.0</ele><time>2026-04-06T12:41:10.167Z</time></trkpt><trkpt lat="43.7450135" lon="12.8058118"><ele>343.0</ele><time>2026-04-06T12:41:11.172Z</time></trkpt><trkpt lat="43.7449301" lon="12.8056805"><ele>343.0</ele><time>2026-04-06T12:41:12.172Z</time></trkpt><trkpt lat="43.7448544" lon="12.8055389"><ele>343.0</ele><time>2026-04-06T12:41:13.172Z</time></trkpt><trkpt lat="43.7448172" lon="12.8053744"><ele>343.0</ele><time>2026-04-06T12:41:14.173Z</time></trkpt><trkpt lat="43.7448095" lon="12.8051803"><ele>343.0</ele><time>2026-04-06T12:41:15.173Z</time></trkpt><trkpt lat="43.7448223" lon="12.8049697"><ele>343.0</ele><time>2026-04-06T12:41:16.17Z</time></trkpt><trkpt lat="43.7448331" lon="12.8047706"><ele>341.5</ele><time>2026-04-06T12:41:17.168Z</time></trkpt><trkpt lat="43.7448347" lon="12.8045821"><ele>340.0</ele><time>2026-04-06T12:41:18.17Z</time></trkpt><trkpt lat="43.7448316" lon="12.8044164"><ele>338.5</ele><time>2026-04-06T12:41:19.177Z</time></trkpt><trkpt lat="43.7448489" lon="12.804266"><ele>337.0</ele><time>2026-04-06T12:41:20.164Z</time></trkpt><trkpt lat="43.7448591" lon="12.804131"><ele>336.40000000000003</ele><time>2026-04-06T12:41:21.169Z</time></trkpt><trkpt lat="43.7448582" lon="12.8040206"><ele>335.8</ele><time>2026-04-06T12:41:22.172Z</time></trkpt><trkpt lat="43.7448198" lon="12.8039132"><ele>335.2</ele><time>2026-04-06T12:41:23.169Z</time></trkpt><trkpt lat="43.7447722" lon="12.8038098"><ele>334.6</ele><time>2026-04-06T12:41:24.174Z</time></trkpt><trkpt lat="43.7446889" lon="12.803744"><ele>334.0</ele><time>2026-04-06T12:41:25.171Z</time></trkpt><trkpt lat="43.7445736" lon="12.8037161"><ele>334.0</ele><time>2026-04-06T12:41:26.175Z</time></trkpt><trkpt lat="43.7444381" lon="12.8037196"><ele>334.0</ele><time>2026-04-06T12:41:27.16Z</time></trkpt><trkpt lat="43.7442861" lon="12.8037291"><ele>334.0</ele><time>2026-04-06T12:41:28.163Z</time></trkpt><trkpt lat="43.7441111" lon="12.8037436"><ele>334.0</ele><time>2026-04-06T12:41:29.159Z</time></trkpt><trkpt lat="43.7439442" lon="12.8037733"><ele>334.0</ele><time>2026-04-06T12:41:30.155Z</time></trkpt><trkpt lat="43.7438038" lon="12.8037598"><ele>334.0</ele><time>2026-04-06T12:41:31.161Z</time></trkpt><trkpt lat="43.743681" lon="12.8037344"><ele>334.0</ele><time>2026-04-06T12:41:32.173Z</time></trkpt><trkpt lat="43.7435781" lon="12.803726"><ele>331.25</ele><time>2026-04-06T12:41:33.154Z</time></trkpt><trkpt lat="43.7434717" lon="12.8037674"><ele>328.5</ele><time>2026-04-06T12:41:34.17Z</time></trkpt><trkpt lat="43.7433768" lon="12.8038618"><ele>325.75</ele><time>2026-04-06T12:41:35.166Z</time></trkpt><trkpt lat="43.7432987" lon="12.8039953"><ele>323.0</ele><time>2026-04-06T12:41:36.161Z</time></trkpt><trkpt lat="43.7432195" lon="12.8041061"><ele>323.0</ele><time>2026-04-06T12:41:37.161Z</time></trkpt><trkpt lat="43.7431106" lon="12.8041731"><ele>323.0</ele><time>2026-04-06T12:41:38.172Z</time></trkpt><trkpt lat="43.7429515" lon="12.8042261"><ele>323.0</ele><time>2026-04-06T12:41:39.16Z</time></trkpt><trkpt lat="43.7428083" lon="12.8042753"><ele>323.0</ele><time>2026-04-06T12:41:40.153Z</time></trkpt><trkpt lat="43.742689" lon="12.8043015"><ele>319.59999999999997</ele><time>2026-04-06T12:41:41.156Z</time></trkpt><trkpt lat="43.7425908" lon="12.8043046"><ele>316.2</ele><time>2026-04-06T12:41:42.164Z</time></trkpt><trkpt lat="43.7425179" lon="12.8042713"><ele>312.8</ele><time>2026-04-06T12:41:43.159Z</time></trkpt><trkpt lat="43.742475" lon="12.8041145"><ele>309.4</ele><time>2026-04-06T12:41:45.166Z</time></trkpt><trkpt lat="43.7424848" lon="12.804012"><ele>306.0</ele><time>2026-04-06T12:41:46.172Z</time></trkpt><trkpt lat="43.7425242" lon="12.8038704"><ele>306.0</ele><time>2026-04-06T12:41:47.166Z</time></trkpt><trkpt lat="43.7425908" lon="12.8037114"><ele>306.0</ele><time>2026-04-06T12:41:48.16Z</time></trkpt><trkpt lat="43.7426568" lon="12.8035251"><ele>306.0</ele><time>2026-04-06T12:41:49.17Z</time></trkpt><trkpt lat="43.7426981" lon="12.8032828"><ele>306.0</ele><time>2026-04-06T12:41:50.16Z</time></trkpt><trkpt lat="43.7427418" lon="12.8030773"><ele>306.0</ele><time>2026-04-06T12:41:51.16Z</time></trkpt><trkpt lat="43.7428038" lon="12.8028907"><ele>306.0</ele><time>2026-04-06T12:41:52.158Z</time></trkpt><trkpt lat="43.7428794" lon="12.8027492"><ele>306.0</ele><time>2026-04-06T12:41:53.157Z</time></trkpt><trkpt lat="43.74298" lon="12.8026438"><ele>306.0</ele><time>2026-04-06T12:41:54.157Z</time></trkpt><trkpt lat="43.7430762" lon="12.8025684"><ele>306.0</ele><time>2026-04-06T12:41:55.151Z</time></trkpt><trkpt lat="43.7431916" lon="12.8025026"><ele>306.0</ele><time>2026-04-06T12:41:56.145Z</time></trkpt><trkpt lat="43.7432833" lon="12.802434"><ele>306.0</ele><time>2026-04-06T12:41:57.149Z</time></trkpt><trkpt lat="43.7433623" lon="12.8023538"><ele>306.0</ele><time>2026-04-06T12:41:58.161Z</time></trkpt><trkpt lat="43.7433884" lon="12.8022137"><ele>306.0</ele><time>2026-04-06T12:41:59.163Z</time></trkpt><trkpt lat="43.7433889" lon="12.8020356"><ele>306.0</ele><time>2026-04-06T12:42:00.154Z</time></trkpt><trkpt lat="43.7433635" lon="12.801841"><ele>306.0</ele><time>2026-04-06T12:42:01.157Z</time></trkpt><trkpt lat="43.7433252" lon="12.8016028"><ele>306.0</ele><time>2026-04-06T12:42:02.157Z</time></trkpt><trkpt lat="43.7432757" lon="12.8013494"><ele>305.3333333333333</ele><time>2026-04-06T12:42:03.155Z</time></trkpt><trkpt lat="43.7432127" lon="12.801155"><ele>304.66666666666663</ele><time>2026-04-06T12:42:04.153Z</time></trkpt><trkpt lat="43.7431438" lon="12.8009755"><ele>304.0</ele><time>2026-04-06T12:42:05.156Z</time></trkpt><trkpt lat="43.7430471" lon="12.8008122"><ele>304.0</ele><time>2026-04-06T12:42:06.158Z</time></trkpt><trkpt lat="43.7429513" lon="12.8006616"><ele>304.0</ele><time>2026-04-06T12:42:07.153Z</time></trkpt><trkpt lat="43.742884" lon="12.8004518"><ele>304.0</ele><time>2026-04-06T12:42:08.158Z</time></trkpt><trkpt lat="43.7428154" lon="12.8002335"><ele>306.3333333333333</ele><time>2026-04-06T12:42:09.152Z</time></trkpt><trkpt lat="43.7427382" lon="12.8000413"><ele>308.6666666666667</ele><time>2026-04-06T12:42:10.154Z</time></trkpt><trkpt lat="43.7426422" lon="12.7998402"><ele>311.0</ele><time>2026-04-06T12:42:11.163Z</time></trkpt><trkpt lat="43.7425259" lon="12.7996668"><ele>309.75</ele><time>2026-04-06T12:42:12.159Z</time></trkpt><trkpt lat="43.7424155" lon="12.7995252"><ele>308.5</ele><time>2026-04-06T12:42:13.164Z</time></trkpt><trkpt lat="43.7423195" lon="12.7994062"><ele>307.25</ele><time>2026-04-06T12:42:14.153Z</time></trkpt><trkpt lat="43.742219" lon="12.7993329"><ele>306.0</ele><time>2026-04-06T12:42:15.159Z</time></trkpt><trkpt lat="43.7421185" lon="12.7992769"><ele>306.0</ele><time>2026-04-06T12:42:16.152Z</time></trkpt><trkpt lat="43.741994" lon="12.7992593"><ele>306.0</ele><time>2026-04-06T12:42:17.149Z</time></trkpt><trkpt lat="43.7418485" lon="12.7992766"><ele>306.0</ele><time>2026-04-06T12:42:18.156Z</time></trkpt><trkpt lat="43.7417147" lon="12.7992727"><ele>306.0</ele><time>2026-04-06T12:42:19.156Z</time></trkpt><trkpt lat="43.741558" lon="12.7992892"><ele>303.75</ele><time>2026-04-06T12:42:20.156Z</time></trkpt><trkpt lat="43.7414083" lon="12.7992798"><ele>301.5</ele><time>2026-04-06T12:42:21.155Z</time></trkpt><trkpt lat="43.7412545" lon="12.7992693"><ele>299.25</ele><time>2026-04-06T12:42:22.157Z</time></trkpt><trkpt lat="43.7411172" lon="12.79923"><ele>297.0</ele><time>2026-04-06T12:42:23.15Z</time></trkpt><trkpt lat="43.740998" lon="12.7992125"><ele>294.25</ele><time>2026-04-06T12:42:24.156Z</time></trkpt><trkpt lat="43.7408697" lon="12.7992079"><ele>291.5</ele><time>2026-04-06T12:42:25.153Z</time></trkpt><trkpt lat="43.7407354" lon="12.7991705"><ele>288.75</ele><time>2026-04-06T12:42:26.154Z</time></trkpt><trkpt lat="43.7406529" lon="12.7990909"><ele>286.0</ele><time>2026-04-06T12:42:27.168Z</time></trkpt><trkpt lat="43.7406161" lon="12.7989869"><ele>286.0</ele><time>2026-04-06T12:42:28.166Z</time></trkpt><trkpt lat="43.7405855" lon="12.7988356"><ele>286.0</ele><time>2026-04-06T12:42:29.153Z</time></trkpt><trkpt lat="43.740553" lon="12.7986493"><ele>286.0</ele><time>2026-04-06T12:42:30.16Z</time></trkpt><trkpt lat="43.740527" lon="12.7984588"><ele>286.0</ele><time>2026-04-06T12:42:31.155Z</time></trkpt><trkpt lat="43.7405148" lon="12.7982555"><ele>286.40000000000003</ele><time>2026-04-06T12:42:32.168Z</time></trkpt><trkpt lat="43.740519" lon="12.7980899"><ele>286.8</ele><time>2026-04-06T12:42:33.161Z</time></trkpt><trkpt lat="43.7405101" lon="12.7979387"><ele>287.20000000000005</ele><time>2026-04-06T12:42:34.155Z</time></trkpt><trkpt lat="43.7405015" lon="12.7978027"><ele>287.6</ele><time>2026-04-06T12:42:35.155Z</time></trkpt><trkpt lat="43.7404669" lon="12.7976782"><ele>288.0</ele><time>2026-04-06T12:42:36.154Z</time></trkpt><trkpt lat="43.7404226" lon="12.7975871"><ele>285.25</ele><time>2026-04-06T12:42:37.151Z</time></trkpt><trkpt lat="43.7403294" lon="12.7975457"><ele>282.5</ele><time>2026-04-06T12:42:38.155Z</time></trkpt><trkpt lat="43.740217" lon="12.7975521"><ele>279.75</ele><time>2026-04-06T12:42:39.153Z</time></trkpt><trkpt lat="43.7400955" lon="12.7975852"><ele>277.0</ele><time>2026-04-06T12:42:40.167Z</time></trkpt><trkpt lat="43.7399676" lon="12.7976444"><ele>275.75</ele><time>2026-04-06T12:42:41.16Z</time></trkpt><trkpt lat="43.7398234" lon="12.7977165"><ele>274.5</ele><time>2026-04-06T12:42:42.161Z</time></trkpt><trkpt lat="43.7397047" lon="12.7977922"><ele>273.25</ele><time>2026-04-06T12:42:43.157Z</time></trkpt><trkpt lat="43.739578" lon="12.7978448"><ele>272.0</ele><time>2026-04-06T12:42:44.161Z</time></trkpt><trkpt lat="43.7394765" lon="12.7978949"><ele>272.0</ele><time>2026-04-06T12:42:45.16Z</time></trkpt><trkpt lat="43.7393887" lon="12.797948"><ele>272.0</ele><time>2026-04-06T12:42:46.156Z</time></trkpt><trkpt lat="43.7393055" lon="12.7980374"><ele>272.0</ele><time>2026-04-06T12:42:47.156Z</time></trkpt><trkpt lat="43.739251" lon="12.7981648"><ele>272.0</ele><time>2026-04-06T12:42:48.163Z</time></trkpt><trkpt lat="43.7392529" lon="12.7982917"><ele>272.0</ele><time>2026-04-06T12:42:49.164Z</time></trkpt><trkpt lat="43.7392688" lon="12.7984241"><ele>269.5</ele><time>2026-04-06T12:42:50.162Z</time></trkpt><trkpt lat="43.7392807" lon="12.7985378"><ele>267.0</ele><time>2026-04-06T12:42:51.164Z</time></trkpt><trkpt lat="43.7392531" lon="12.7986269"><ele>264.5</ele><time>2026-04-06T12:42:52.165Z</time></trkpt><trkpt lat="43.7391895" lon="12.798676"><ele>262.0</ele><time>2026-04-06T12:42:53.167Z</time></trkpt><trkpt lat="43.739109" lon="12.7986612"><ele>259.5</ele><time>2026-04-06T12:42:54.167Z</time></trkpt><trkpt lat="43.7390248" lon="12.7985867"><ele>257.0</ele><time>2026-04-06T12:42:55.166Z</time></trkpt><trkpt lat="43.738927" lon="12.7984852"><ele>257.0</ele><time>2026-04-06T12:42:56.163Z</time></trkpt><trkpt lat="43.7388452" lon="12.798349"><ele>257.0</ele><time>2026-04-06T12:42:57.158Z</time></trkpt><trkpt lat="43.7387819" lon="12.7981872"><ele>257.0</ele><time>2026-04-06T12:42:58.165Z</time></trkpt><trkpt lat="43.7387548" lon="12.7979832"><ele>257.0</ele><time>2026-04-06T12:42:59.164Z</time></trkpt><trkpt lat="43.7387725" lon="12.7977396"><ele>255.66666666666669</ele><time>2026-04-06T12:43:00.159Z</time></trkpt><trkpt lat="43.7387845" lon="12.7975121"><ele>254.33333333333331</ele><time>2026-04-06T12:43:01.167Z</time></trkpt><trkpt lat="43.7388405" lon="12.7972879"><ele>253.0</ele><time>2026-04-06T12:43:02.168Z</time></trkpt><trkpt lat="43.7388862" lon="12.797055"><ele>253.0</ele><time>2026-04-06T12:43:03.159Z</time></trkpt><trkpt lat="43.7389259" lon="12.7968497"><ele>253.0</ele><time>2026-04-06T12:43:04.156Z</time></trkpt><trkpt lat="43.7389829" lon="12.7966438"><ele>253.0</ele><time>2026-04-06T12:43:05.162Z</time></trkpt><trkpt lat="43.7390477" lon="12.7964468"><ele>250.33333333333331</ele><time>2026-04-06T12:43:06.156Z</time></trkpt><trkpt lat="43.739121" lon="12.7962508"><ele>247.66666666666669</ele><time>2026-04-06T12:43:07.162Z</time></trkpt><trkpt lat="43.739195" lon="12.7960543"><ele>245.0</ele><time>2026-04-06T12:43:08.159Z</time></trkpt><trkpt lat="43.7392629" lon="12.7958504"><ele>245.66666666666669</ele><time>2026-04-06T12:43:09.154Z</time></trkpt><trkpt lat="43.7393267" lon="12.7956362"><ele>246.33333333333331</ele><time>2026-04-06T12:43:10.156Z</time></trkpt><trkpt lat="43.739389" lon="12.7954541"><ele>247.0</ele><time>2026-04-06T12:43:11.156Z</time></trkpt><trkpt lat="43.7394505" lon="12.7952396"><ele>245.0</ele><time>2026-04-06T12:43:12.16Z</time></trkpt><trkpt lat="43.7394932" lon="12.7950422"><ele>243.0</ele><time>2026-04-06T12:43:13.154Z</time></trkpt><trkpt lat="43.7395057" lon="12.794862"><ele>241.0</ele><time>2026-04-06T12:43:14.149Z</time></trkpt><trkpt lat="43.7394906" lon="12.7946998"><ele>239.0</ele><time>2026-04-06T12:43:15.169Z</time></trkpt><trkpt lat="43.7394345" lon="12.794559"><ele>234.25</ele><time>2026-04-06T12:43:16.155Z</time></trkpt><trkpt lat="43.739342" lon="12.7944419"><ele>229.5</ele><time>2026-04-06T12:43:17.16Z</time></trkpt><trkpt lat="43.7392393" lon="12.7943484"><ele>224.75</ele><time>2026-04-06T12:43:18.159Z</time></trkpt><trkpt lat="43.7391465" lon="12.7942427"><ele>220.0</ele><time>2026-04-06T12:43:19.159Z</time></trkpt><trkpt lat="43.7390573" lon="12.7941303"><ele>218.8</ele><time>2026-04-06T12:43:20.16Z</time></trkpt><trkpt lat="43.7389822" lon="12.7940084"><ele>217.6</ele><time>2026-04-06T12:43:21.152Z</time></trkpt><trkpt lat="43.7389133" lon="12.7938966"><ele>216.39999999999998</ele><time>2026-04-06T12:43:22.16Z</time></trkpt><trkpt lat="43.7388316" lon="12.793832"><ele>215.2</ele><time>2026-04-06T12:43:23.154Z</time></trkpt><trkpt lat="43.7387386" lon="12.7938096"><ele>214.0</ele><time>2026-04-06T12:43:24.159Z</time></trkpt><trkpt lat="43.7386309" lon="12.7938487"><ele>212.33333333333331</ele><time>2026-04-06T12:43:25.155Z</time></trkpt><trkpt lat="43.7385433" lon="12.793864"><ele>210.66666666666666</ele><time>2026-04-06T12:43:26.162Z</time></trkpt><trkpt lat="43.7384753" lon="12.7938296"><ele>209.0</ele><time>2026-04-06T12:43:27.159Z</time></trkpt><trkpt lat="43.7384461" lon="12.7937507"><ele>207.33333333333331</ele><time>2026-04-06T12:43:28.145Z</time></trkpt><trkpt lat="43.738457" lon="12.7936615"><ele>205.66666666666666</ele><time>2026-04-06T12:43:29.154Z</time></trkpt><trkpt lat="43.7384959" lon="12.7935603"><ele>204.0</ele><time>2026-04-06T12:43:30.155Z</time></trkpt><trkpt lat="43.738541" lon="12.7934389"><ele>202.83333333333334</ele><time>2026-04-06T12:43:31.159Z</time></trkpt><trkpt lat="43.7385465" lon="12.7933296"><ele>201.66666666666669</ele><time>2026-04-06T12:43:32.176Z</time></trkpt><trkpt lat="43.7385065" lon="12.79324"><ele>200.5</ele><time>2026-04-06T12:43:33.167Z</time></trkpt><trkpt lat="43.7384461" lon="12.7931991"><ele>199.33333333333334</ele><time>2026-04-06T12:43:34.168Z</time></trkpt><trkpt lat="43.7383601" lon="12.7932293"><ele>198.16666666666669</ele><time>2026-04-06T12:43:35.163Z</time></trkpt><trkpt lat="43.738255" lon="12.7932892"><ele>197.0</ele><time>2026-04-06T12:43:36.158Z</time></trkpt><trkpt lat="43.7381388" lon="12.7933464"><ele>197.0</ele><time>2026-04-06T12:43:37.16Z</time></trkpt><trkpt lat="43.7380243" lon="12.793372"><ele>197.0</ele><time>2026-04-06T12:43:38.164Z</time></trkpt><trkpt lat="43.7379149" lon="12.7933689"><ele>197.0</ele><time>2026-04-06T12:43:39.16Z</time></trkpt><trkpt lat="43.7378032" lon="12.7933098"><ele>197.0</ele><time>2026-04-06T12:43:40.161Z</time></trkpt><trkpt lat="43.7377145" lon="12.7932001"><ele>195.33333333333334</ele><time>2026-04-06T12:43:41.154Z</time></trkpt><trkpt lat="43.7376418" lon="12.7930971"><ele>193.66666666666669</ele><time>2026-04-06T12:43:42.144Z</time></trkpt><trkpt lat="43.7375799" lon="12.7930236"><ele>192.0</ele><time>2026-04-06T12:43:43.152Z</time></trkpt><trkpt lat="43.7375322" lon="12.7929634"><ele>190.33333333333334</ele><time>2026-04-06T12:43:44.153Z</time></trkpt><trkpt lat="43.7375001" lon="12.7928847"><ele>188.66666666666669</ele><time>2026-04-06T12:43:46.178Z</time></trkpt><trkpt lat="43.7375059" lon="12.7927932"><ele>187.0</ele><time>2026-04-06T12:43:48.184Z</time></trkpt><trkpt lat="43.7375519" lon="12.7926974"><ele>187.0</ele><time>2026-04-06T12:43:49.164Z</time></trkpt><trkpt lat="43.7376255" lon="12.7925898"><ele>187.0</ele><time>2026-04-06T12:43:50.166Z</time></trkpt><trkpt lat="43.7377137" lon="12.7924614"><ele>187.0</ele><time>2026-04-06T12:43:51.168Z</time></trkpt><trkpt lat="43.7378291" lon="12.7923062"><ele>187.0</ele><time>2026-04-06T12:43:52.167Z</time></trkpt><trkpt lat="43.7379708" lon="12.7921116"><ele>187.0</ele><time>2026-04-06T12:43:53.162Z</time></trkpt><trkpt lat="43.7381051" lon="12.791913"><ele>187.0</ele><time>2026-04-06T12:43:54.151Z</time></trkpt><trkpt lat="43.7382167" lon="12.7917336"><ele>187.0</ele><time>2026-04-06T12:43:55.16Z</time></trkpt><trkpt lat="43.7383024" lon="12.791527"><ele>183.33333333333334</ele><time>2026-04-06T12:43:56.163Z</time></trkpt><trkpt lat="43.7383547" lon="12.791318"><ele>179.66666666666666</ele><time>2026-04-06T12:43:57.15Z</time></trkpt><trkpt lat="43.7383749" lon="12.7910937"><ele>176.0</ele><time>2026-04-06T12:43:58.144Z</time></trkpt><trkpt lat="43.7383849" lon="12.7908623"><ele>173.0</ele><time>2026-04-06T12:43:59.149Z</time></trkpt><trkpt lat="43.7383625" lon="12.7906282"><ele>170.0</ele><time>2026-04-06T12:44:00.153Z</time></trkpt><trkpt lat="43.7383286" lon="12.7903962"><ele>167.0</ele><time>2026-04-06T12:44:01.155Z</time></trkpt><trkpt lat="43.7382971" lon="12.7901956"><ele>166.33333333333331</ele><time>2026-04-06T12:44:02.167Z</time></trkpt><trkpt lat="43.7382686" lon="12.7899849"><ele>165.66666666666666</ele><time>2026-04-06T12:44:03.158Z</time></trkpt><trkpt lat="43.7382635" lon="12.7897494"><ele>165.0</ele><time>2026-04-06T12:44:04.156Z</time></trkpt><trkpt lat="43.738245" lon="12.7895213"><ele>165.5</ele><time>2026-04-06T12:44:05.16Z</time></trkpt><trkpt lat="43.7382344" lon="12.7893204"><ele>166.0</ele><time>2026-04-06T12:44:06.161Z</time></trkpt><trkpt lat="43.7382357" lon="12.7891159"><ele>166.5</ele><time>2026-04-06T12:44:07.151Z</time></trkpt><trkpt lat="43.7382693" lon="12.7889217"><ele>167.0</ele><time>2026-04-06T12:44:08.152Z</time></trkpt><trkpt lat="43.7383311" lon="12.7887366"><ele>167.0</ele><time>2026-04-06T12:44:09.147Z</time></trkpt><trkpt lat="43.7384234" lon="12.7885597"><ele>167.0</ele><time>2026-04-06T12:44:10.142Z</time></trkpt><trkpt lat="43.7385197" lon="12.7883962"><ele>167.0</ele><time>2026-04-06T12:44:11.149Z</time></trkpt><trkpt lat="43.7385758" lon="12.7881845"><ele>173.33333333333331</ele><time>2026-04-06T12:44:12.141Z</time></trkpt><trkpt lat="43.7386033" lon="12.7879641"><ele>179.66666666666666</ele><time>2026-04-06T12:44:13.141Z</time></trkpt><trkpt lat="43.7386228" lon="12.7877208"><ele>186.0</ele><time>2026-04-06T12:44:14.143Z</time></trkpt><trkpt lat="43.7386163" lon="12.7874791"><ele>186.0</ele><time>2026-04-06T12:44:15.143Z</time></trkpt><trkpt lat="43.7386076" lon="12.7872464"><ele>186.0</ele><time>2026-04-06T12:44:16.143Z</time></trkpt><trkpt lat="43.738577" lon="12.7870163"><ele>186.0</ele><time>2026-04-06T12:44:17.151Z</time></trkpt><trkpt lat="43.7385492" lon="12.7867887"><ele>179.66666666666666</ele><time>2026-04-06T12:44:18.145Z</time></trkpt><trkpt lat="43.7385174" lon="12.7865493"><ele>173.33333333333331</ele><time>2026-04-06T12:44:19.156Z</time></trkpt><trkpt lat="43.7385099" lon="12.786322"><ele>167.0</ele><time>2026-04-06T12:44:20.16Z</time></trkpt><trkpt lat="43.7385102" lon="12.7860751"><ele>172.33333333333331</ele><time>2026-04-06T12:44:21.159Z</time></trkpt><trkpt lat="43.738563" lon="12.7858488"><ele>177.66666666666666</ele><time>2026-04-06T12:44:22.161Z</time></trkpt><trkpt lat="43.7386062" lon="12.7856584"><ele>183.0</ele><time>2026-04-06T12:44:23.169Z</time></trkpt><trkpt lat="43.7386595" lon="12.7853103"><ele>183.0</ele><time>2026-04-06T12:44:25.157Z</time></trkpt><trkpt lat="43.7386618" lon="12.7851791"><ele>183.0</ele><time>2026-04-06T12:44:26.17Z</time></trkpt><trkpt lat="43.7386198" lon="12.7850769"><ele>183.0</ele><time>2026-04-06T12:44:27.165Z</time></trkpt><trkpt lat="43.7385587" lon="12.7850287"><ele>183.0</ele><time>2026-04-06T12:44:28.163Z</time></trkpt><trkpt lat="43.7384677" lon="12.7849944"><ele>183.0</ele><time>2026-04-06T12:44:29.165Z</time></trkpt><trkpt lat="43.7383701" lon="12.7849781"><ele>183.0</ele><time>2026-04-06T12:44:30.167Z</time></trkpt><trkpt lat="43.7382798" lon="12.7849718"><ele>180.5</ele><time>2026-04-06T12:44:31.166Z</time></trkpt><trkpt lat="43.7382135" lon="12.7850219"><ele>178.0</ele><time>2026-04-06T12:44:32.168Z</time></trkpt><trkpt lat="43.7381358" lon="12.7851531"><ele>175.5</ele><time>2026-04-06T12:44:33.158Z</time></trkpt><trkpt lat="43.7380732" lon="12.7853246"><ele>173.0</ele><time>2026-04-06T12:44:34.16Z</time></trkpt><trkpt lat="43.7380204" lon="12.7854661"><ele>173.0</ele><time>2026-04-06T12:44:35.167Z</time></trkpt><trkpt lat="43.737963" lon="12.7855445"><ele>173.0</ele><time>2026-04-06T12:44:36.159Z</time></trkpt><trkpt lat="43.7378936" lon="12.7855528"><ele>173.0</ele><time>2026-04-06T12:44:37.165Z</time></trkpt><trkpt lat="43.7378255" lon="12.7854434"><ele>173.0</ele><time>2026-04-06T12:44:39.154Z</time></trkpt><trkpt lat="43.7378797" lon="12.7852713"><ele>173.0</ele><time>2026-04-06T12:44:41.176Z</time></trkpt><trkpt lat="43.7379597" lon="12.7851678"><ele>173.0</ele><time>2026-04-06T12:44:42.169Z</time></trkpt><trkpt lat="43.7380525" lon="12.7850538"><ele>173.0</ele><time>2026-04-06T12:44:43.176Z</time></trkpt><trkpt lat="43.7381333" lon="12.7848999"><ele>173.0</ele><time>2026-04-06T12:44:44.178Z</time></trkpt><trkpt lat="43.7381757" lon="12.7847249"><ele>173.0</ele><time>2026-04-06T12:44:45.176Z</time></trkpt><trkpt lat="43.7381901" lon="12.784533"><ele>174.2</ele><time>2026-04-06T12:44:46.166Z</time></trkpt><trkpt lat="43.7381897" lon="12.7843144"><ele>175.4</ele><time>2026-04-06T12:44:47.174Z</time></trkpt><trkpt lat="43.7382001" lon="12.7841323"><ele>176.6</ele><time>2026-04-06T12:44:48.177Z</time></trkpt><trkpt lat="43.7382489" lon="12.7840265"><ele>177.79999999999998</ele><time>2026-04-06T12:44:49.162Z</time></trkpt><trkpt lat="43.7382499" lon="12.7839375"><ele>179.0</ele><time>2026-04-06T12:44:50.158Z</time></trkpt><trkpt lat="43.7382455" lon="12.783834"><ele>179.0</ele><time>2026-04-06T12:44:51.159Z</time></trkpt><trkpt lat="43.7382336" lon="12.783701"><ele>179.0</ele><time>2026-04-06T12:44:52.164Z</time></trkpt><trkpt lat="43.7382334" lon="12.7835543"><ele>179.0</ele><time>2026-04-06T12:44:53.176Z</time></trkpt><trkpt lat="43.7382297" lon="12.7832359"><ele>179.0</ele><time>2026-04-06T12:44:55.176Z</time></trkpt><trkpt lat="43.7382446" lon="12.7830809"><ele>179.0</ele><time>2026-04-06T12:44:56.174Z</time></trkpt><trkpt lat="43.7382416" lon="12.7829413"><ele>179.0</ele><time>2026-04-06T12:44:57.178Z</time></trkpt><trkpt lat="43.7382016" lon="12.7828234"><ele>179.0</ele><time>2026-04-06T12:44:58.166Z</time></trkpt><trkpt lat="43.7381392" lon="12.7827172"><ele>179.0</ele><time>2026-04-06T12:44:59.178Z</time></trkpt><trkpt lat="43.7380157" lon="12.7826322"><ele>179.0</ele><time>2026-04-06T12:45:00.176Z</time></trkpt><trkpt lat="43.7378792" lon="12.782566"><ele>179.0</ele><time>2026-04-06T12:45:01.187Z</time></trkpt><trkpt lat="43.7377193" lon="12.7825012"><ele>179.0</ele><time>2026-04-06T12:45:02.187Z</time></trkpt><trkpt lat="43.7375175" lon="12.7824335"><ele>179.0</ele><time>2026-04-06T12:45:03.178Z</time></trkpt><trkpt lat="43.7373394" lon="12.7823459"><ele>185.66666666666666</ele><time>2026-04-06T12:45:04.177Z</time></trkpt><trkpt lat="43.7371638" lon="12.7822393"><ele>192.33333333333331</ele><time>2026-04-06T12:45:05.176Z</time></trkpt><trkpt lat="43.736973" lon="12.7821452"><ele>199.0</ele><time>2026-04-06T12:45:06.179Z</time></trkpt><trkpt lat="43.7368115" lon="12.7820733"><ele>200.66666666666666</ele><time>2026-04-06T12:45:07.169Z</time></trkpt><trkpt lat="43.7366431" lon="12.7819619"><ele>202.33333333333331</ele><time>2026-04-06T12:45:08.178Z</time></trkpt><trkpt lat="43.7364911" lon="12.7818211"><ele>204.0</ele><time>2026-04-06T12:45:09.174Z</time></trkpt><trkpt lat="43.7363604" lon="12.781725"><ele>204.0</ele><time>2026-04-06T12:45:10.181Z</time></trkpt><trkpt lat="43.7362275" lon="12.7817024"><ele>204.0</ele><time>2026-04-06T12:45:11.188Z</time></trkpt><trkpt lat="43.7361258" lon="12.7817428"><ele>204.0</ele><time>2026-04-06T12:45:12.174Z</time></trkpt><trkpt lat="43.7360207" lon="12.7818339"><ele>204.0</ele><time>2026-04-06T12:45:13.191Z</time></trkpt><trkpt lat="43.7359471" lon="12.78193"><ele>204.0</ele><time>2026-04-06T12:45:14.183Z</time></trkpt><trkpt lat="43.7358626" lon="12.7819825"><ele>204.0</ele><time>2026-04-06T12:45:15.184Z</time></trkpt><trkpt lat="43.7357946" lon="12.7819721"><ele>204.0</ele><time>2026-04-06T12:45:16.175Z</time></trkpt><trkpt lat="43.735693" lon="12.7818429"><ele>204.0</ele><time>2026-04-06T12:45:18.177Z</time></trkpt><trkpt lat="43.7356325" lon="12.7817068"><ele>204.0</ele><time>2026-04-06T12:45:19.176Z</time></trkpt><trkpt lat="43.7355722" lon="12.7815717"><ele>204.0</ele><time>2026-04-06T12:45:20.184Z</time></trkpt><trkpt lat="43.7355334" lon="12.7814393"><ele>204.0</ele><time>2026-04-06T12:45:21.176Z</time></trkpt><trkpt lat="43.7354805" lon="12.7813188"><ele>204.0</ele><time>2026-04-06T12:45:22.178Z</time></trkpt><trkpt lat="43.7354105" lon="12.7812226"><ele>204.0</ele><time>2026-04-06T12:45:23.175Z</time></trkpt><trkpt lat="43.7353162" lon="12.7811262"><ele>204.0</ele><time>2026-04-06T12:45:24.176Z</time></trkpt><trkpt lat="43.7352104" lon="12.7810197"><ele>206.0</ele><time>2026-04-06T12:45:25.17Z</time></trkpt><trkpt lat="43.7351102" lon="12.780903"><ele>208.0</ele><time>2026-04-06T12:45:26.184Z</time></trkpt><trkpt lat="43.7350059" lon="12.7807879"><ele>210.0</ele><time>2026-04-06T12:45:27.18Z</time></trkpt><trkpt lat="43.734926" lon="12.7806411"><ele>212.0</ele><time>2026-04-06T12:45:28.172Z</time></trkpt><trkpt lat="43.7348659" lon="12.780467"><ele>212.0</ele><time>2026-04-06T12:45:29.182Z</time></trkpt><trkpt lat="43.7348208" lon="12.7802575"><ele>212.0</ele><time>2026-04-06T12:45:30.168Z</time></trkpt><trkpt lat="43.7347577" lon="12.780012"><ele>212.0</ele><time>2026-04-06T12:45:31.173Z</time></trkpt><trkpt lat="43.734681" lon="12.7797953"><ele>212.0</ele><time>2026-04-06T12:45:32.181Z</time></trkpt><trkpt lat="43.7346171" lon="12.7795943"><ele>212.0</ele><time>2026-04-06T12:45:33.175Z</time></trkpt><trkpt lat="43.7345782" lon="12.7794"><ele>212.0</ele><time>2026-04-06T12:45:34.173Z</time></trkpt><trkpt lat="43.7345384" lon="12.7792084"><ele>212.0</ele><time>2026-04-06T12:45:35.17Z</time></trkpt><trkpt lat="43.7344944" lon="12.7790382"><ele>211.33333333333334</ele><time>2026-04-06T12:45:36.165Z</time></trkpt><trkpt lat="43.7344085" lon="12.7788915"><ele>210.66666666666669</ele><time>2026-04-06T12:45:37.161Z</time></trkpt><trkpt lat="43.7343025" lon="12.7787476"><ele>210.0</ele><time>2026-04-06T12:45:38.171Z</time></trkpt><trkpt lat="43.7341499" lon="12.7786449"><ele>207.66666666666669</ele><time>2026-04-06T12:45:39.168Z</time></trkpt><trkpt lat="43.7339983" lon="12.7785155"><ele>205.33333333333334</ele><time>2026-04-06T12:45:40.167Z</time></trkpt><trkpt lat="43.733853" lon="12.7783755"><ele>203.0</ele><time>2026-04-06T12:45:41.171Z</time></trkpt><trkpt lat="43.7336869" lon="12.7782606"><ele>204.33333333333334</ele><time>2026-04-06T12:45:42.184Z</time></trkpt><trkpt lat="43.7335242" lon="12.778136"><ele>205.66666666666669</ele><time>2026-04-06T12:45:43.182Z</time></trkpt><trkpt lat="43.7333475" lon="12.7780056"><ele>207.0</ele><time>2026-04-06T12:45:44.184Z</time></trkpt><trkpt lat="43.7331925" lon="12.7778988"><ele>207.0</ele><time>2026-04-06T12:45:45.171Z</time></trkpt><trkpt lat="43.7330632" lon="12.7777864"><ele>207.0</ele><time>2026-04-06T12:45:46.174Z</time></trkpt><trkpt lat="43.732954" lon="12.7776511"><ele>207.0</ele><time>2026-04-06T12:45:47.179Z</time></trkpt><trkpt lat="43.7328646" lon="12.7774875"><ele>207.0</ele><time>2026-04-06T12:45:48.174Z</time></trkpt><trkpt lat="43.732788" lon="12.7773144"><ele>208.66666666666669</ele><time>2026-04-06T12:45:49.176Z</time></trkpt><trkpt lat="43.7327047" lon="12.7771277"><ele>210.33333333333334</ele><time>2026-04-06T12:45:50.173Z</time></trkpt><trkpt lat="43.7326268" lon="12.7769459"><ele>212.0</ele><time>2026-04-06T12:45:51.169Z</time></trkpt><trkpt lat="43.7325483" lon="12.7767409"><ele>217.33333333333334</ele><time>2026-04-06T12:45:52.177Z</time></trkpt><trkpt lat="43.732475" lon="12.7765398"><ele>222.66666666666669</ele><time>2026-04-06T12:45:53.178Z</time></trkpt><trkpt lat="43.7323937" lon="12.7763284"><ele>228.0</ele><time>2026-04-06T12:45:54.17Z</time></trkpt><trkpt lat="43.732306" lon="12.7761353"><ele>228.66666666666669</ele><time>2026-04-06T12:45:55.175Z</time></trkpt><trkpt lat="43.732194" lon="12.7759396"><ele>229.33333333333334</ele><time>2026-04-06T12:45:56.183Z</time></trkpt><trkpt lat="43.732085" lon="12.7757509"><ele>230.0</ele><time>2026-04-06T12:45:57.18Z</time></trkpt><trkpt lat="43.7319799" lon="12.7755546"><ele>229.33333333333334</ele><time>2026-04-06T12:45:58.176Z</time></trkpt><trkpt lat="43.7318592" lon="12.7753817"><ele>228.66666666666669</ele><time>2026-04-06T12:45:59.176Z</time></trkpt><trkpt lat="43.7317173" lon="12.7752388"><ele>228.0</ele><time>2026-04-06T12:46:00.179Z</time></trkpt><trkpt lat="43.7315637" lon="12.7751187"><ele>230.33333333333331</ele><time>2026-04-06T12:46:01.185Z</time></trkpt><trkpt lat="43.7313942" lon="12.7750011"><ele>232.66666666666666</ele><time>2026-04-06T12:46:02.196Z</time></trkpt><trkpt lat="43.7312266" lon="12.7748704"><ele>235.0</ele><time>2026-04-06T12:46:03.188Z</time></trkpt><trkpt lat="43.7310868" lon="12.7747321"><ele>237.33333333333331</ele><time>2026-04-06T12:46:04.178Z</time></trkpt><trkpt lat="43.7309369" lon="12.7745721"><ele>239.66666666666669</ele><time>2026-04-06T12:46:05.179Z</time></trkpt><trkpt lat="43.7307918" lon="12.7744003"><ele>242.0</ele><time>2026-04-06T12:46:06.187Z</time></trkpt><trkpt lat="43.730646" lon="12.7742312"><ele>242.66666666666669</ele><time>2026-04-06T12:46:07.186Z</time></trkpt><trkpt lat="43.7305134" lon="12.7740348"><ele>243.33333333333331</ele><time>2026-04-06T12:46:08.183Z</time></trkpt><trkpt lat="43.7303709" lon="12.7738562"><ele>244.0</ele><time>2026-04-06T12:46:09.188Z</time></trkpt><trkpt lat="43.7302239" lon="12.7736859"><ele>246.66666666666666</ele><time>2026-04-06T12:46:10.181Z</time></trkpt><trkpt lat="43.7300794" lon="12.7735094"><ele>249.33333333333331</ele><time>2026-04-06T12:46:11.187Z</time></trkpt><trkpt lat="43.729948" lon="12.7733351"><ele>252.0</ele><time>2026-04-06T12:46:12.186Z</time></trkpt><trkpt lat="43.7297983" lon="12.7731645"><ele>252.0</ele><time>2026-04-06T12:46:13.185Z</time></trkpt><trkpt lat="43.7296516" lon="12.7729863"><ele>252.0</ele><time>2026-04-06T12:46:14.184Z</time></trkpt><trkpt lat="43.7295135" lon="12.7727918"><ele>252.0</ele><time>2026-04-06T12:46:15.185Z</time></trkpt><trkpt lat="43.7293872" lon="12.7725924"><ele>254.0</ele><time>2026-04-06T12:46:16.188Z</time></trkpt><trkpt lat="43.7292812" lon="12.7723756"><ele>256.0</ele><time>2026-04-06T12:46:17.171Z</time></trkpt><trkpt lat="43.7291658" lon="12.7721598"><ele>258.0</ele><time>2026-04-06T12:46:18.177Z</time></trkpt><trkpt lat="43.7290412" lon="12.7719436"><ele>259.3333333333333</ele><time>2026-04-06T12:46:19.182Z</time></trkpt><trkpt lat="43.7289209" lon="12.7717174"><ele>260.66666666666663</ele><time>2026-04-06T12:46:20.18Z</time></trkpt><trkpt lat="43.7288048" lon="12.7715153"><ele>262.0</ele><time>2026-04-06T12:46:21.173Z</time></trkpt><trkpt lat="43.7286798" lon="12.7713055"><ele>262.0</ele><time>2026-04-06T12:46:22.176Z</time></trkpt><trkpt lat="43.7285544" lon="12.7711085"><ele>262.0</ele><time>2026-04-06T12:46:23.176Z</time></trkpt><trkpt lat="43.7284464" lon="12.7709065"><ele>262.0</ele><time>2026-04-06T12:46:24.175Z</time></trkpt><trkpt lat="43.7283422" lon="12.770706"><ele>264.66666666666663</ele><time>2026-04-06T12:46:25.171Z</time></trkpt><trkpt lat="43.7282222" lon="12.7705011"><ele>267.3333333333333</ele><time>2026-04-06T12:46:26.17Z</time></trkpt><trkpt lat="43.7281076" lon="12.7703107"><ele>270.0</ele><time>2026-04-06T12:46:27.172Z</time></trkpt><trkpt lat="43.7280021" lon="12.7701236"><ele>270.0</ele><time>2026-04-06T12:46:28.169Z</time></trkpt><trkpt lat="43.7278973" lon="12.7699437"><ele>270.0</ele><time>2026-04-06T12:46:29.169Z</time></trkpt><trkpt lat="43.7277798" lon="12.7697462"><ele>270.0</ele><time>2026-04-06T12:46:30.175Z</time></trkpt><trkpt lat="43.7276833" lon="12.7695462"><ele>271.6666666666667</ele><time>2026-04-06T12:46:31.182Z</time></trkpt><trkpt lat="43.7275892" lon="12.7693536"><ele>273.33333333333337</ele><time>2026-04-06T12:46:32.184Z</time></trkpt><trkpt lat="43.7274811" lon="12.7691668"><ele>275.0</ele><time>2026-04-06T12:46:33.176Z</time></trkpt><trkpt lat="43.7273587" lon="12.7689687"><ele>275.0</ele><time>2026-04-06T12:46:34.177Z</time></trkpt><trkpt lat="43.7272449" lon="12.768786"><ele>275.0</ele><time>2026-04-06T12:46:35.177Z</time></trkpt><trkpt lat="43.7271394" lon="12.7686104"><ele>275.0</ele><time>2026-04-06T12:46:36.176Z</time></trkpt><trkpt lat="43.7270305" lon="12.7684299"><ele>275.0</ele><time>2026-04-06T12:46:37.178Z</time></trkpt><trkpt lat="43.7269067" lon="12.7682233"><ele>275.0</ele><time>2026-04-06T12:46:38.179Z</time></trkpt><trkpt lat="43.7267885" lon="12.7680177"><ele>275.0</ele><time>2026-04-06T12:46:39.17Z</time></trkpt><trkpt lat="43.7266893" lon="12.767835"><ele>277.33333333333337</ele><time>2026-04-06T12:46:40.182Z</time></trkpt><trkpt lat="43.7265749" lon="12.7676406"><ele>279.6666666666667</ele><time>2026-04-06T12:46:41.183Z</time></trkpt><trkpt lat="43.7264519" lon="12.7674418"><ele>282.0</ele><time>2026-04-06T12:46:42.179Z</time></trkpt><trkpt lat="43.7263241" lon="12.7672554"><ele>282.0</ele><time>2026-04-06T12:46:43.181Z</time></trkpt><trkpt lat="43.7262094" lon="12.7670729"><ele>282.0</ele><time>2026-04-06T12:46:44.179Z</time></trkpt><trkpt lat="43.7260937" lon="12.7668719"><ele>282.0</ele><time>2026-04-06T12:46:45.179Z</time></trkpt><trkpt lat="43.725981" lon="12.7667068"><ele>283.3333333333333</ele><time>2026-04-06T12:46:46.175Z</time></trkpt><trkpt lat="43.7258669" lon="12.7665296"><ele>284.66666666666663</ele><time>2026-04-06T12:46:47.176Z</time></trkpt><trkpt lat="43.7257621" lon="12.7663742"><ele>286.0</ele><time>2026-04-06T12:46:48.177Z</time></trkpt><trkpt lat="43.7256646" lon="12.7662335"><ele>286.0</ele><time>2026-04-06T12:46:49.173Z</time></trkpt><trkpt lat="43.7255849" lon="12.7661243"><ele>286.0</ele><time>2026-04-06T12:46:50.18Z</time></trkpt><trkpt lat="43.7255175" lon="12.7660171"><ele>286.0</ele><time>2026-04-06T12:46:51.175Z</time></trkpt><trkpt lat="43.7254865" lon="12.7659327"><ele>286.0</ele><time>2026-04-06T12:46:52.175Z</time></trkpt><trkpt lat="43.7254775" lon="12.7658307"><ele>286.0</ele><time>2026-04-06T12:46:54.177Z</time></trkpt><trkpt lat="43.7254193" lon="12.7657617"><ele>286.0</ele><time>2026-04-06T12:46:57.196Z</time></trkpt><trkpt lat="43.7253499" lon="12.7657224"><ele>286.8</ele><time>2026-04-06T12:46:59.189Z</time></trkpt><trkpt lat="43.7252896" lon="12.7656919"><ele>287.6</ele><time>2026-04-06T12:47:00.173Z</time></trkpt><trkpt lat="43.7252043" lon="12.7656564"><ele>288.4</ele><time>2026-04-06T12:47:01.169Z</time></trkpt><trkpt lat="43.7251038" lon="12.7656277"><ele>289.2</ele><time>2026-04-06T12:47:02.184Z</time></trkpt><trkpt lat="43.7249899" lon="12.7656152"><ele>290.0</ele><time>2026-04-06T12:47:03.172Z</time></trkpt><trkpt lat="43.7248553" lon="12.765612"><ele>292.0</ele><time>2026-04-06T12:47:04.176Z</time></trkpt><trkpt lat="43.7247047" lon="12.7656122"><ele>294.0</ele><time>2026-04-06T12:47:05.169Z</time></trkpt><trkpt lat="43.7245375" lon="12.7656227"><ele>296.0</ele><time>2026-04-06T12:47:06.177Z</time></trkpt><trkpt lat="43.7244042" lon="12.7656432"><ele>296.6666666666667</ele><time>2026-04-06T12:47:07.172Z</time></trkpt><trkpt lat="43.7242919" lon="12.7656498"><ele>297.33333333333337</ele><time>2026-04-06T12:47:08.17Z</time></trkpt><trkpt lat="43.7241938" lon="12.7656601"><ele>298.0</ele><time>2026-04-06T12:47:09.176Z</time></trkpt><trkpt lat="43.7241288" lon="12.7656638"><ele>298.6666666666667</ele><time>2026-04-06T12:47:10.172Z</time></trkpt><trkpt lat="43.7240588" lon="12.7656707"><ele>299.3333333333333</ele><time>2026-04-06T12:47:13.202Z</time></trkpt><trkpt lat="43.7239644" lon="12.7656394"><ele>300.0</ele><time>2026-04-06T12:47:16.206Z</time></trkpt><trkpt lat="43.7238635" lon="12.7655581"><ele>300.0</ele><time>2026-04-06T12:47:18.183Z</time></trkpt><trkpt lat="43.7237968" lon="12.7655211"><ele>300.0</ele><time>2026-04-06T12:47:19.174Z</time></trkpt><trkpt lat="43.7237105" lon="12.765494"><ele>300.0</ele><time>2026-04-06T12:47:20.173Z</time></trkpt><trkpt lat="43.7236085" lon="12.7654547"><ele>300.0</ele><time>2026-04-06T12:47:21.17Z</time></trkpt><trkpt lat="43.723509" lon="12.7654218"><ele>300.0</ele><time>2026-04-06T12:47:22.174Z</time></trkpt><trkpt lat="43.7234125" lon="12.7653935"><ele>301.6666666666667</ele><time>2026-04-06T12:47:23.172Z</time></trkpt><trkpt lat="43.7233296" lon="12.7653644"><ele>303.3333333333333</ele><time>2026-04-06T12:47:24.186Z</time></trkpt><trkpt lat="43.7232307" lon="12.7653301"><ele>305.0</ele><time>2026-04-06T12:47:26.176Z</time></trkpt><trkpt lat="43.7231661" lon="12.7653111"><ele>306.66666666666663</ele><time>2026-04-06T12:47:37.2Z</time></trkpt><trkpt lat="43.7231014" lon="12.7652907"><ele>308.3333333333333</ele><time>2026-04-06T12:47:58.187Z</time></trkpt><trkpt lat="43.7230294" lon="12.7652712"><ele>310.0</ele><time>2026-04-06T12:48:02.204Z</time></trkpt><trkpt lat="43.7231669" lon="12.765302"><ele>310.0</ele><time>2026-04-06T12:48:04.16Z</time></trkpt><trkpt lat="43.7232616" lon="12.7653453"><ele>310.0</ele><time>2026-04-06T12:48:05.164Z</time></trkpt><trkpt lat="43.7233479" lon="12.7653827"><ele>310.0</ele><time>2026-04-06T12:48:06.176Z</time></trkpt><trkpt lat="43.7234228" lon="12.7654169"><ele>310.0</ele><time>2026-04-06T12:48:07.182Z</time></trkpt><trkpt lat="43.7235005" lon="12.7654596"><ele>310.0</ele><time>2026-04-06T12:48:08.183Z</time></trkpt><trkpt lat="43.723569" lon="12.765496"><ele>310.0</ele><time>2026-04-06T12:48:09.182Z</time></trkpt><trkpt lat="43.7236302" lon="12.7655261"><ele>308.0</ele><time>2026-04-06T12:48:10.185Z</time></trkpt><trkpt lat="43.7237337" lon="12.7655745"><ele>306.0</ele><time>2026-04-06T12:48:12.197Z</time></trkpt><trkpt lat="43.7238045" lon="12.7656187"><ele>304.0</ele><time>2026-04-06T12:48:14.198Z</time></trkpt><trkpt lat="43.7238286" lon="12.7657118"><ele>302.0</ele><time>2026-04-06T12:48:18.204Z</time></trkpt><trkpt lat="43.7237204" lon="12.7657918"><ele>300.0</ele><time>2026-04-06T12:48:21.181Z</time></trkpt><trkpt lat="43.7236476" lon="12.7658761"><ele>300.0</ele><time>2026-04-06T12:48:22.18Z</time></trkpt><trkpt lat="43.7235792" lon="12.7659942"><ele>300.0</ele><time>2026-04-06T12:48:23.185Z</time></trkpt><trkpt lat="43.7235034" lon="12.7661025"><ele>300.0</ele><time>2026-04-06T12:48:24.171Z</time></trkpt><trkpt lat="43.7234255" lon="12.7661854"><ele>300.0</ele><time>2026-04-06T12:48:25.175Z</time></trkpt><trkpt lat="43.723344" lon="12.7662338"><ele>300.0</ele><time>2026-04-06T12:48:26.187Z</time></trkpt><trkpt lat="43.7232511" lon="12.7662591"><ele>300.8</ele><time>2026-04-06T12:48:27.176Z</time></trkpt><trkpt lat="43.7231499" lon="12.7662575"><ele>301.6</ele><time>2026-04-06T12:48:28.176Z</time></trkpt><trkpt lat="43.7230608" lon="12.7662413"><ele>302.4</ele><time>2026-04-06T12:48:29.181Z</time></trkpt><trkpt lat="43.7229791" lon="12.7662366"><ele>303.2</ele><time>2026-04-06T12:48:30.178Z</time></trkpt><trkpt lat="43.7228977" lon="12.7662582"><ele>304.0</ele><time>2026-04-06T12:48:32.181Z</time></trkpt><trkpt lat="43.7227851" lon="12.76619"><ele>308.0</ele><time>2026-04-06T12:48:58.189Z</time></trkpt><trkpt lat="43.722707" lon="12.7661378"><ele>312.0</ele><time>2026-04-06T12:48:59.17Z</time></trkpt><trkpt lat="43.7226168" lon="12.7661024"><ele>316.0</ele><time>2026-04-06T12:49:00.174Z</time></trkpt><trkpt lat="43.7225336" lon="12.7661021"><ele>320.0</ele><time>2026-04-06T12:49:01.172Z</time></trkpt><trkpt lat="43.7224132" lon="12.7661915"><ele>324.0</ele><time>2026-04-06T12:49:03.172Z</time></trkpt><trkpt lat="43.72233" lon="12.7662542"><ele>324.0</ele><time>2026-04-06T12:49:04.168Z</time></trkpt><trkpt lat="43.7222261" lon="12.7662954"><ele>324.0</ele><time>2026-04-06T12:49:05.158Z</time></trkpt><trkpt lat="43.7221033" lon="12.7663056"><ele>324.0</ele><time>2026-04-06T12:49:06.161Z</time></trkpt><trkpt lat="43.7219603" lon="12.766283"><ele>324.0</ele><time>2026-04-06T12:49:07.152Z</time></trkpt><trkpt lat="43.7217986" lon="12.766239"><ele>332.5</ele><time>2026-04-06T12:49:08.155Z</time></trkpt><trkpt lat="43.721573" lon="12.7661435"><ele>341.0</ele><time>2026-04-06T12:49:09.146Z</time></trkpt><trkpt lat="43.7213496" lon="12.7660716"><ele>335.6666666666667</ele><time>2026-04-06T12:49:10.142Z</time></trkpt><trkpt lat="43.7211495" lon="12.766009"><ele>330.3333333333333</ele><time>2026-04-06T12:49:11.141Z</time></trkpt><trkpt lat="43.7209689" lon="12.7659593"><ele>325.0</ele><time>2026-04-06T12:49:12.147Z</time></trkpt><trkpt lat="43.7208063" lon="12.7659039"><ele>325.0</ele><time>2026-04-06T12:49:13.156Z</time></trkpt><trkpt lat="43.7206833" lon="12.7658439"><ele>325.0</ele><time>2026-04-06T12:49:14.156Z</time></trkpt><trkpt lat="43.7205373" lon="12.7657931"><ele>325.0</ele><time>2026-04-06T12:49:15.16Z</time></trkpt><trkpt lat="43.7203894" lon="12.7657688"><ele>325.0</ele><time>2026-04-06T12:49:16.155Z</time></trkpt><trkpt lat="43.7202402" lon="12.7657572"><ele>328.5</ele><time>2026-04-06T12:49:17.155Z</time></trkpt><trkpt lat="43.7200995" lon="12.7657118"><ele>332.0</ele><time>2026-04-06T12:49:18.151Z</time></trkpt><trkpt lat="43.7199626" lon="12.7656498"><ele>335.5</ele><time>2026-04-06T12:49:19.163Z</time></trkpt><trkpt lat="43.7198268" lon="12.7655511"><ele>339.0</ele><time>2026-04-06T12:49:20.157Z</time></trkpt><trkpt lat="43.7196904" lon="12.7654558"><ele>339.0</ele><time>2026-04-06T12:49:21.158Z</time></trkpt><trkpt lat="43.7195548" lon="12.7653716"><ele>339.0</ele><time>2026-04-06T12:49:22.165Z</time></trkpt><trkpt lat="43.7194112" lon="12.7652787"><ele>339.0</ele><time>2026-04-06T12:49:23.16Z</time></trkpt><trkpt lat="43.7192634" lon="12.7652384"><ele>339.4</ele><time>2026-04-06T12:49:24.158Z</time></trkpt><trkpt lat="43.7191329" lon="12.7651769"><ele>339.79999999999995</ele><time>2026-04-06T12:49:25.164Z</time></trkpt><trkpt lat="43.7190167" lon="12.7651408"><ele>340.20000000000005</ele><time>2026-04-06T12:49:26.172Z</time></trkpt><trkpt lat="43.7189354" lon="12.765121"><ele>340.6</ele><time>2026-04-06T12:49:27.16Z</time></trkpt><trkpt lat="43.7188342" lon="12.7651297"><ele>341.0</ele><time>2026-04-06T12:49:28.167Z</time></trkpt><trkpt lat="43.7187418" lon="12.7651633"><ele>344.75</ele><time>2026-04-06T12:49:29.16Z</time></trkpt><trkpt lat="43.7186468" lon="12.7652568"><ele>348.5</ele><time>2026-04-06T12:49:30.159Z</time></trkpt><trkpt lat="43.7185422" lon="12.7653395"><ele>352.25</ele><time>2026-04-06T12:49:31.163Z</time></trkpt><trkpt lat="43.718439" lon="12.7654289"><ele>356.0</ele><time>2026-04-06T12:49:32.169Z</time></trkpt><trkpt lat="43.7183395" lon="12.7655357"><ele>359.0</ele><time>2026-04-06T12:49:33.163Z</time></trkpt><trkpt lat="43.7182487" lon="12.7656473"><ele>362.0</ele><time>2026-04-06T12:49:34.159Z</time></trkpt><trkpt lat="43.7181567" lon="12.7657688"><ele>365.0</ele><time>2026-04-06T12:49:35.158Z</time></trkpt><trkpt lat="43.718064" lon="12.7658902"><ele>368.0</ele><time>2026-04-06T12:49:36.157Z</time></trkpt><trkpt lat="43.717995" lon="12.7659931"><ele>371.5</ele><time>2026-04-06T12:49:37.157Z</time></trkpt><trkpt lat="43.7179429" lon="12.7661038"><ele>375.0</ele><time>2026-04-06T12:49:38.147Z</time></trkpt><trkpt lat="43.7178965" lon="12.7662409"><ele>378.5</ele><time>2026-04-06T12:49:39.149Z</time></trkpt><trkpt lat="43.7178527" lon="12.7663968"><ele>382.0</ele><time>2026-04-06T12:49:40.146Z</time></trkpt><trkpt lat="43.7177863" lon="12.7665643"><ele>381.75</ele><time>2026-04-06T12:49:41.151Z</time></trkpt><trkpt lat="43.7177031" lon="12.7667225"><ele>381.5</ele><time>2026-04-06T12:49:42.155Z</time></trkpt><trkpt lat="43.7176393" lon="12.7668792"><ele>381.25</ele><time>2026-04-06T12:49:43.158Z</time></trkpt><trkpt lat="43.7176002" lon="12.7670193"><ele>381.0</ele><time>2026-04-06T12:49:44.161Z</time></trkpt><trkpt lat="43.717569" lon="12.7671487"><ele>381.0</ele><time>2026-04-06T12:49:45.17Z</time></trkpt><trkpt lat="43.7175513" lon="12.7672702"><ele>381.0</ele><time>2026-04-06T12:49:46.175Z</time></trkpt><trkpt lat="43.7175382" lon="12.7673677"><ele>381.0</ele><time>2026-04-06T12:49:47.17Z</time></trkpt><trkpt lat="43.7175187" lon="12.7674913"><ele>381.0</ele><time>2026-04-06T12:49:48.177Z</time></trkpt><trkpt lat="43.7174898" lon="12.7675986"><ele>381.0</ele><time>2026-04-06T12:49:49.172Z</time></trkpt><trkpt lat="43.7174448" lon="12.7677049"><ele>381.0</ele><time>2026-04-06T12:49:50.177Z</time></trkpt><trkpt lat="43.7173907" lon="12.7678391"><ele>380.0</ele><time>2026-04-06T12:49:51.18Z</time></trkpt><trkpt lat="43.717337" lon="12.7679933"><ele>379.0</ele><time>2026-04-06T12:49:52.179Z</time></trkpt><trkpt lat="43.7172954" lon="12.7681486"><ele>378.0</ele><time>2026-04-06T12:49:53.181Z</time></trkpt><trkpt lat="43.717264" lon="12.7683085"><ele>377.0</ele><time>2026-04-06T12:49:54.182Z</time></trkpt><trkpt lat="43.7172446" lon="12.7684815"><ele>375.40000000000003</ele><time>2026-04-06T12:49:55.188Z</time></trkpt><trkpt lat="43.7172393" lon="12.7686386"><ele>373.8</ele><time>2026-04-06T12:49:56.174Z</time></trkpt><trkpt lat="43.7172271" lon="12.7687659"><ele>372.2</ele><time>2026-04-06T12:49:57.179Z</time></trkpt><trkpt lat="43.7172021" lon="12.7688724"><ele>370.6</ele><time>2026-04-06T12:49:58.183Z</time></trkpt><trkpt lat="43.7171594" lon="12.7689573"><ele>369.0</ele><time>2026-04-06T12:49:59.186Z</time></trkpt><trkpt lat="43.7170789" lon="12.7690102"><ele>369.0</ele><time>2026-04-06T12:50:01.178Z</time></trkpt><trkpt lat="43.717003" lon="12.7689655"><ele>369.0</ele><time>2026-04-06T12:50:15.2Z</time></trkpt><trkpt lat="43.7168819" lon="12.7688522"><ele>369.0</ele><time>2026-04-06T12:50:17.18Z</time></trkpt><trkpt lat="43.7167988" lon="12.7687817"><ele>369.0</ele><time>2026-04-06T12:50:18.183Z</time></trkpt><trkpt lat="43.7167164" lon="12.7687138"><ele>369.0</ele><time>2026-04-06T12:50:19.18Z</time></trkpt><trkpt lat="43.7166431" lon="12.7686372"><ele>371.6666666666667</ele><time>2026-04-06T12:50:20.182Z</time></trkpt><trkpt lat="43.7165816" lon="12.7685628"><ele>374.33333333333337</ele><time>2026-04-06T12:50:21.185Z</time></trkpt><trkpt lat="43.716518" lon="12.7684856"><ele>377.0</ele><time>2026-04-06T12:50:22.182Z</time></trkpt><trkpt lat="43.7164665" lon="12.7684147"><ele>379.6666666666667</ele><time>2026-04-06T12:50:23.183Z</time></trkpt><trkpt lat="43.716413" lon="12.7683372"><ele>382.33333333333337</ele><time>2026-04-06T12:50:24.173Z</time></trkpt><trkpt lat="43.7163528" lon="12.7682556"><ele>385.0</ele><time>2026-04-06T12:50:25.178Z</time></trkpt><trkpt lat="43.7162826" lon="12.768167"><ele>386.50000000000006</ele><time>2026-04-06T12:50:26.175Z</time></trkpt><trkpt lat="43.7162176" lon="12.7680802"><ele>388.0</ele><time>2026-04-06T12:50:27.177Z</time></trkpt><trkpt lat="43.7161469" lon="12.7679854"><ele>389.5</ele><time>2026-04-06T12:50:28.177Z</time></trkpt><trkpt lat="43.7160854" lon="12.7678969"><ele>391.0</ele><time>2026-04-06T12:50:29.17Z</time></trkpt><trkpt lat="43.7160266" lon="12.7678238"><ele>392.50000000000006</ele><time>2026-04-06T12:50:30.177Z</time></trkpt><trkpt lat="43.7159704" lon="12.7677512"><ele>394.0</ele><time>2026-04-06T12:50:31.176Z</time></trkpt><trkpt lat="43.7159121" lon="12.7676787"><ele>399.1666666666667</ele><time>2026-04-06T12:50:32.181Z</time></trkpt><trkpt lat="43.7158446" lon="12.767572"><ele>404.33333333333337</ele><time>2026-04-06T12:50:34.172Z</time></trkpt><trkpt lat="43.7157894" lon="12.7674812"><ele>409.5</ele><time>2026-04-06T12:50:36.171Z</time></trkpt><trkpt lat="43.7157477" lon="12.7674128"><ele>414.66666666666663</ele><time>2026-04-06T12:50:37.178Z</time></trkpt><trkpt lat="43.715696" lon="12.7673386"><ele>419.8333333333333</ele><time>2026-04-06T12:50:38.182Z</time></trkpt><trkpt lat="43.715649" lon="12.7672606"><ele>425.0</ele><time>2026-04-06T12:50:39.18Z</time></trkpt><trkpt lat="43.7156017" lon="12.7671849"><ele>424.99999999999994</ele><time>2026-04-06T12:50:40.183Z</time></trkpt><trkpt lat="43.715551" lon="12.7671143"><ele>425.0</ele><time>2026-04-06T12:50:41.186Z</time></trkpt><trkpt lat="43.7154995" lon="12.7670469"><ele>425.0</ele><time>2026-04-06T12:50:42.186Z</time></trkpt><trkpt lat="43.7154523" lon="12.7669761"><ele>425.0</ele><time>2026-04-06T12:50:43.174Z</time></trkpt><trkpt lat="43.7153793" lon="12.7668453"><ele>424.99999999999994</ele><time>2026-04-06T12:50:45.178Z</time></trkpt><trkpt lat="43.7153289" lon="12.7667822"><ele>425.0</ele><time>2026-04-06T12:50:46.174Z</time></trkpt><trkpt lat="43.7152639" lon="12.7667167"><ele>427.8</ele><time>2026-04-06T12:50:47.179Z</time></trkpt><trkpt lat="43.715207" lon="12.7666611"><ele>430.6</ele><time>2026-04-06T12:50:48.182Z</time></trkpt><trkpt lat="43.715121" lon="12.7665696"><ele>433.4</ele><time>2026-04-06T12:50:50.184Z</time></trkpt><trkpt lat="43.7150324" lon="12.7664632"><ele>436.2</ele><time>2026-04-06T12:50:52.186Z</time></trkpt><trkpt lat="43.7149484" lon="12.7663554"><ele>439.0</ele><time>2026-04-06T12:50:54.182Z</time></trkpt><trkpt lat="43.714876" lon="12.7662554"><ele>439.0</ele><time>2026-04-06T12:50:56.18Z</time></trkpt><trkpt lat="43.7148037" lon="12.7661634"><ele>439.0</ele><time>2026-04-06T12:50:58.176Z</time></trkpt><trkpt lat="43.7146951" lon="12.7660615"><ele>439.0</ele><time>2026-04-06T12:51:00.18Z</time></trkpt><trkpt lat="43.7146409" lon="12.7659908"><ele>439.0</ele><time>2026-04-06T12:51:01.187Z</time></trkpt><trkpt lat="43.7145865" lon="12.7659258"><ele>439.0</ele><time>2026-04-06T12:51:02.196Z</time></trkpt><trkpt lat="43.7145228" lon="12.76587"><ele>438.6666666666667</ele><time>2026-04-06T12:51:03.174Z</time></trkpt><trkpt lat="43.7144685" lon="12.7658032"><ele>438.33333333333337</ele><time>2026-04-06T12:51:04.182Z</time></trkpt><trkpt lat="43.7144156" lon="12.765732"><ele>438.0</ele><time>2026-04-06T12:51:05.181Z</time></trkpt><trkpt lat="43.7143616" lon="12.7656659"><ele>437.66666666666663</ele><time>2026-04-06T12:51:06.175Z</time></trkpt><trkpt lat="43.7143015" lon="12.7655942"><ele>437.3333333333333</ele><time>2026-04-06T12:51:07.184Z</time></trkpt><trkpt lat="43.714237" lon="12.7655141"><ele>437.0</ele><time>2026-04-06T12:51:08.179Z</time></trkpt><trkpt lat="43.7141803" lon="12.7654419"><ele>439.99999999999994</ele><time>2026-04-06T12:51:09.184Z</time></trkpt><trkpt lat="43.7141257" lon="12.7653821"><ele>443.0</ele><time>2026-04-06T12:51:10.187Z</time></trkpt><trkpt lat="43.7140683" lon="12.7653257"><ele>446.0</ele><time>2026-04-06T12:51:11.182Z</time></trkpt><trkpt lat="43.7140176" lon="12.7652663"><ele>449.0</ele><time>2026-04-06T12:51:12.185Z</time></trkpt><trkpt lat="43.71397" lon="12.7652045"><ele>451.99999999999994</ele><time>2026-04-06T12:51:13.19Z</time></trkpt><trkpt lat="43.7139145" lon="12.7651491"><ele>455.0</ele><time>2026-04-06T12:51:14.188Z</time></trkpt><trkpt lat="43.7138307" lon="12.7650368"><ele>455.66666666666663</ele><time>2026-04-06T12:51:16.188Z</time></trkpt><trkpt lat="43.7137791" lon="12.7649827"><ele>456.3333333333333</ele><time>2026-04-06T12:51:17.178Z</time></trkpt><trkpt lat="43.7137254" lon="12.7649301"><ele>457.0</ele><time>2026-04-06T12:51:18.185Z</time></trkpt><trkpt lat="43.7136498" lon="12.764869"><ele>457.66666666666663</ele><time>2026-04-06T12:51:27.224Z</time></trkpt><trkpt lat="43.7135932" lon="12.7648148"><ele>458.3333333333333</ele><time>2026-04-06T12:51:29.218Z</time></trkpt><trkpt lat="43.7135122" lon="12.7647033"><ele>459.0</ele><time>2026-04-06T12:51:31.182Z</time></trkpt><trkpt lat="43.7134609" lon="12.7646473"><ele>463.2</ele><time>2026-04-06T12:51:32.199Z</time></trkpt><trkpt lat="43.7133684" lon="12.7645402"><ele>467.4</ele><time>2026-04-06T12:51:34.191Z</time></trkpt><trkpt lat="43.7132824" lon="12.7644437"><ele>471.6</ele><time>2026-04-06T12:51:36.192Z</time></trkpt><trkpt lat="43.7131975" lon="12.7643619"><ele>475.8</ele><time>2026-04-06T12:51:38.19Z</time></trkpt><trkpt lat="43.7131375" lon="12.7642928"><ele>480.0</ele><time>2026-04-06T12:51:40.206Z</time></trkpt><trkpt lat="43.7130516" lon="12.7642888"><ele>480.0</ele><time>2026-04-06T12:52:10.203Z</time></trkpt><trkpt lat="43.7129838" lon="12.7643227"><ele>480.0</ele><time>2026-04-06T12:52:13.204Z</time></trkpt><trkpt lat="43.7129266" lon="12.764369"><ele>480.0</ele><time>2026-04-06T12:52:15.209Z</time></trkpt><trkpt lat="43.7128429" lon="12.7644374"><ele>480.0</ele><time>2026-04-06T12:52:17.197Z</time></trkpt><trkpt lat="43.7127887" lon="12.7644887"><ele>480.0</ele><time>2026-04-06T12:52:18.189Z</time></trkpt><trkpt lat="43.7127368" lon="12.7645473"><ele>480.0</ele><time>2026-04-06T12:52:19.183Z</time></trkpt><trkpt lat="43.7126513" lon="12.764648"><ele>481.2</ele><time>2026-04-06T12:52:21.18Z</time></trkpt><trkpt lat="43.7125801" lon="12.7646928"><ele>482.4</ele><time>2026-04-06T12:52:23.209Z</time></trkpt><trkpt lat="43.7124761" lon="12.7647138"><ele>483.6</ele><time>2026-04-06T12:52:25.214Z</time></trkpt><trkpt lat="43.7123575" lon="12.7647684"><ele>484.8</ele><time>2026-04-06T12:52:27.206Z</time></trkpt><trkpt lat="43.7122277" lon="12.764786"><ele>486.0</ele><time>2026-04-06T12:52:29.189Z</time></trkpt><trkpt lat="43.7121472" lon="12.7647757"><ele>486.0</ele><time>2026-04-06T12:52:30.197Z</time></trkpt><trkpt lat="43.7120711" lon="12.7647661"><ele>486.0</ele><time>2026-04-06T12:52:31.175Z</time></trkpt><trkpt lat="43.712003" lon="12.7647592"><ele>486.0</ele><time>2026-04-06T12:52:32.194Z</time></trkpt><trkpt lat="43.7119361" lon="12.7647462"><ele>486.0</ele><time>2026-04-06T12:52:33.18Z</time></trkpt><trkpt lat="43.7118707" lon="12.7647317"><ele>486.0</ele><time>2026-04-06T12:52:34.183Z</time></trkpt><trkpt lat="43.7118033" lon="12.7647197"><ele>486.0</ele><time>2026-04-06T12:52:35.179Z</time></trkpt><trkpt lat="43.711741" lon="12.7646989"><ele>486.0</ele><time>2026-04-06T12:52:36.182Z</time></trkpt><trkpt lat="43.7116425" lon="12.7646635"><ele>484.4</ele><time>2026-04-06T12:52:38.186Z</time></trkpt><trkpt lat="43.7115515" lon="12.7646282"><ele>482.8</ele><time>2026-04-06T12:52:40.186Z</time></trkpt><trkpt lat="43.7114769" lon="12.7646022"><ele>481.19999999999993</ele><time>2026-04-06T12:52:42.201Z</time></trkpt><trkpt lat="43.7113729" lon="12.7645513"><ele>479.59999999999997</ele><time>2026-04-06T12:52:44.182Z</time></trkpt><trkpt lat="43.7112663" lon="12.7644981"><ele>478.0</ele><time>2026-04-06T12:52:46.185Z</time></trkpt><trkpt lat="43.7111673" lon="12.7644835"><ele>478.00000000000006</ele><time>2026-04-06T12:52:49.204Z</time></trkpt><trkpt lat="43.7110895" lon="12.7644752"><ele>478.0</ele><time>2026-04-06T12:52:51.206Z</time></trkpt><trkpt lat="43.7110136" lon="12.7644738"><ele>478.00000000000006</ele><time>2026-04-06T12:52:53.201Z</time></trkpt><trkpt lat="43.7109301" lon="12.7644635"><ele>478.00000000000006</ele><time>2026-04-06T12:52:55.204Z</time></trkpt><trkpt lat="43.7108677" lon="12.7644338"><ele>478.0</ele><time>2026-04-06T12:53:06.215Z</time></trkpt><trkpt lat="43.7107987" lon="12.764394"><ele>478.00000000000006</ele><time>2026-04-06T12:53:16.206Z</time></trkpt><trkpt lat="43.710776" lon="12.7643016"><ele>478.00000000000006</ele><time>2026-04-06T12:53:19.207Z</time></trkpt><trkpt lat="43.7107045" lon="12.7642349"><ele>479.7142857142858</ele><time>2026-04-06T12:53:21.197Z</time></trkpt><trkpt lat="43.7106375" lon="12.7641725"><ele>481.42857142857144</ele><time>2026-04-06T12:53:23.194Z</time></trkpt><trkpt lat="43.7105743" lon="12.7641362"><ele>483.14285714285717</ele><time>2026-04-06T12:53:52.213Z</time></trkpt><trkpt lat="43.7104988" lon="12.764093"><ele>484.8571428571429</ele><time>2026-04-06T12:54:23.212Z</time></trkpt><trkpt lat="43.7104284" lon="12.7640584"><ele>486.57142857142856</ele><time>2026-04-06T12:54:26.202Z</time></trkpt><trkpt lat="43.71047" lon="12.7641371"><ele>488.2857142857143</ele><time>2026-04-06T12:54:27.209Z</time></trkpt><trkpt lat="43.7105038" lon="12.7642239"><ele>490.0</ele><time>2026-04-06T12:54:28.207Z</time></trkpt><trkpt lat="43.710531" lon="12.764315"><ele>486.1666666666667</ele><time>2026-04-06T12:54:38.209Z</time></trkpt><trkpt lat="43.7106017" lon="12.7643734"><ele>482.33333333333337</ele><time>2026-04-06T12:54:40.204Z</time></trkpt><trkpt lat="43.710674" lon="12.7643809"><ele>478.5</ele><time>2026-04-06T12:54:41.203Z</time></trkpt><trkpt lat="43.7107451" lon="12.7643903"><ele>474.66666666666663</ele><time>2026-04-06T12:54:42.186Z</time></trkpt><trkpt lat="43.7108207" lon="12.7644052"><ele>470.8333333333333</ele><time>2026-04-06T12:54:43.196Z</time></trkpt><trkpt lat="43.7108981" lon="12.7644194"><ele>467.0</ele><time>2026-04-06T12:54:44.19Z</time></trkpt><trkpt lat="43.7109767" lon="12.7644304"><ele>466.99999999999994</ele><time>2026-04-06T12:54:45.187Z</time></trkpt><trkpt lat="43.7110507" lon="12.7644604"><ele>467.0</ele><time>2026-04-06T12:54:46.193Z</time></trkpt><trkpt lat="43.7111292" lon="12.7644969"><ele>467.0</ele><time>2026-04-06T12:54:47.193Z</time></trkpt><trkpt lat="43.7112163" lon="12.764542"><ele>467.0</ele><time>2026-04-06T12:54:48.198Z</time></trkpt><trkpt lat="43.7112948" lon="12.7645766"><ele>466.99999999999994</ele><time>2026-04-06T12:54:49.197Z</time></trkpt><trkpt lat="43.711368" lon="12.7646022"><ele>467.0</ele><time>2026-04-06T12:54:50.189Z</time></trkpt><trkpt lat="43.7114453" lon="12.7646245"><ele>468.8333333333333</ele><time>2026-04-06T12:54:51.192Z</time></trkpt><trkpt lat="43.7115199" lon="12.7646504"><ele>470.66666666666663</ele><time>2026-04-06T12:54:52.189Z</time></trkpt><trkpt lat="43.7116101" lon="12.7646781"><ele>472.5</ele><time>2026-04-06T12:54:53.194Z</time></trkpt><trkpt lat="43.711689" lon="12.764703"><ele>474.33333333333337</ele><time>2026-04-06T12:54:54.187Z</time></trkpt><trkpt lat="43.7117655" lon="12.7647303"><ele>476.1666666666667</ele><time>2026-04-06T12:54:55.192Z</time></trkpt><trkpt lat="43.7118474" lon="12.7647539"><ele>478.0</ele><time>2026-04-06T12:54:56.185Z</time></trkpt><trkpt lat="43.7119327" lon="12.7647622"><ele>479.59999999999997</ele><time>2026-04-06T12:54:57.2Z</time></trkpt><trkpt lat="43.7120164" lon="12.7647708"><ele>481.19999999999993</ele><time>2026-04-06T12:54:58.189Z</time></trkpt><trkpt lat="43.7120962" lon="12.7647631"><ele>482.8</ele><time>2026-04-06T12:54:59.188Z</time></trkpt><trkpt lat="43.7121703" lon="12.7647581"><ele>484.4</ele><time>2026-04-06T12:55:00.198Z</time></trkpt><trkpt lat="43.7122985" lon="12.7647567"><ele>486.0</ele><time>2026-04-06T12:55:02.203Z</time></trkpt><trkpt lat="43.7123771" lon="12.7647052"><ele>486.0</ele><time>2026-04-06T12:55:04.207Z</time></trkpt><trkpt lat="43.712472" lon="12.7646446"><ele>486.0</ele><time>2026-04-06T12:55:06.209Z</time></trkpt><trkpt lat="43.7125717" lon="12.7645772"><ele>486.0</ele><time>2026-04-06T12:55:08.188Z</time></trkpt><trkpt lat="43.712641" lon="12.7645231"><ele>486.0</ele><time>2026-04-06T12:55:09.185Z</time></trkpt><trkpt lat="43.7127146" lon="12.7644536"><ele>486.0</ele><time>2026-04-06T12:55:10.185Z</time></trkpt><trkpt lat="43.7127875" lon="12.7643794"><ele>486.6</ele><time>2026-04-06T12:55:11.176Z</time></trkpt><trkpt lat="43.7128599" lon="12.7643352"><ele>487.20000000000005</ele><time>2026-04-06T12:55:12.171Z</time></trkpt><trkpt lat="43.7129717" lon="12.7642746"><ele>487.79999999999995</ele><time>2026-04-06T12:55:14.192Z</time></trkpt><trkpt lat="43.7130731" lon="12.7642572"><ele>488.4</ele><time>2026-04-06T12:55:16.191Z</time></trkpt><trkpt lat="43.7131399" lon="12.7642316"><ele>489.0</ele><time>2026-04-06T12:55:18.224Z</time></trkpt><trkpt lat="43.7132161" lon="12.7642037"><ele>489.0</ele><time>2026-04-06T12:55:24.214Z</time></trkpt><trkpt lat="43.7132845" lon="12.7641673"><ele>489.0</ele><time>2026-04-06T12:55:28.2Z</time></trkpt><trkpt lat="43.7133587" lon="12.764139"><ele>489.0</ele><time>2026-04-06T12:55:52.227Z</time></trkpt><trkpt lat="43.7134352" lon="12.7641099"><ele>489.0</ele><time>2026-04-06T12:55:58.199Z</time></trkpt><trkpt lat="43.7134362" lon="12.7642342"><ele>489.0</ele><time>2026-04-06T12:56:02.227Z</time></trkpt><trkpt lat="43.7134639" lon="12.7643562"><ele>489.0</ele><time>2026-04-06T12:56:05.205Z</time></trkpt><trkpt lat="43.7134994" lon="12.7645109"><ele>487.2</ele><time>2026-04-06T12:56:07.2Z</time></trkpt><trkpt lat="43.7135401" lon="12.7646471"><ele>485.4</ele><time>2026-04-06T12:56:09.198Z</time></trkpt><trkpt lat="43.7135839" lon="12.7647477"><ele>483.6</ele><time>2026-04-06T12:56:11.222Z</time></trkpt><trkpt lat="43.7136638" lon="12.7648668"><ele>481.8</ele><time>2026-04-06T12:56:13.205Z</time></trkpt><trkpt lat="43.7137223" lon="12.764929"><ele>480.0</ele><time>2026-04-06T12:56:14.212Z</time></trkpt><trkpt lat="43.7137841" lon="12.764992"><ele>475.8</ele><time>2026-04-06T12:56:15.202Z</time></trkpt><trkpt lat="43.713871" lon="12.7650843"><ele>471.6</ele><time>2026-04-06T12:56:17.205Z</time></trkpt><trkpt lat="43.7139461" lon="12.7651851"><ele>467.4</ele><time>2026-04-06T12:56:19.204Z</time></trkpt><trkpt lat="43.714024" lon="12.7652899"><ele>463.2</ele><time>2026-04-06T12:56:21.202Z</time></trkpt><trkpt lat="43.7141116" lon="12.765388"><ele>459.0</ele><time>2026-04-06T12:56:23.208Z</time></trkpt><trkpt lat="43.7142018" lon="12.7654727"><ele>458.3333333333333</ele><time>2026-04-06T12:56:25.216Z</time></trkpt><trkpt lat="43.7142553" lon="12.7655277"><ele>457.66666666666663</ele><time>2026-04-06T12:56:26.217Z</time></trkpt><trkpt lat="43.7143026" lon="12.7655899"><ele>457.0</ele><time>2026-04-06T12:56:27.215Z</time></trkpt><trkpt lat="43.7143897" lon="12.765687"><ele>456.3333333333333</ele><time>2026-04-06T12:56:29.206Z</time></trkpt><trkpt lat="43.7144597" lon="12.7657633"><ele>455.66666666666663</ele><time>2026-04-06T12:56:31.207Z</time></trkpt><trkpt lat="43.7145102" lon="12.7658161"><ele>455.0</ele><time>2026-04-06T12:56:32.223Z</time></trkpt><trkpt lat="43.7145635" lon="12.7658744"><ele>452.3333333333333</ele><time>2026-04-06T12:56:33.204Z</time></trkpt><trkpt lat="43.7146198" lon="12.765935"><ele>449.66666666666663</ele><time>2026-04-06T12:56:34.203Z</time></trkpt><trkpt lat="43.7146736" lon="12.7659944"><ele>447.0</ele><time>2026-04-06T12:56:35.197Z</time></trkpt><trkpt lat="43.7147547" lon="12.7661035"><ele>444.33333333333337</ele><time>2026-04-06T12:56:37.21Z</time></trkpt><trkpt lat="43.7148108" lon="12.7661595"><ele>441.6666666666667</ele><time>2026-04-06T12:56:38.199Z</time></trkpt><trkpt lat="43.7148715" lon="12.7662188"><ele>439.0</ele><time>2026-04-06T12:56:39.201Z</time></trkpt><trkpt lat="43.7149559" lon="12.7663356"><ele>439.0</ele><time>2026-04-06T12:56:41.2Z</time></trkpt><trkpt lat="43.7150083" lon="12.7664062"><ele>439.0</ele><time>2026-04-06T12:56:42.202Z</time></trkpt><trkpt lat="43.7150963" lon="12.7665003"><ele>439.0</ele><time>2026-04-06T12:56:43.212Z</time></trkpt><trkpt lat="43.7151824" lon="12.7665975"><ele>439.0</ele><time>2026-04-06T12:56:44.196Z</time></trkpt><trkpt lat="43.715256" lon="12.7666903"><ele>439.0</ele><time>2026-04-06T12:56:45.191Z</time></trkpt><trkpt lat="43.7153189" lon="12.7667558"><ele>436.2</ele><time>2026-04-06T12:56:46.203Z</time></trkpt><trkpt lat="43.7153749" lon="12.7668024"><ele>433.4</ele><time>2026-04-06T12:56:47.202Z</time></trkpt><trkpt lat="43.7154266" lon="12.7668552"><ele>430.6</ele><time>2026-04-06T12:56:48.191Z</time></trkpt><trkpt lat="43.7155041" lon="12.7669932"><ele>427.8</ele><time>2026-04-06T12:56:50.199Z</time></trkpt><trkpt lat="43.7155683" lon="12.7671105"><ele>425.0</ele><time>2026-04-06T12:56:52.198Z</time></trkpt><trkpt lat="43.7156464" lon="12.7672406"><ele>425.0</ele><time>2026-04-06T12:56:54.195Z</time></trkpt><trkpt lat="43.7157067" lon="12.7673308"><ele>425.0</ele><time>2026-04-06T12:56:55.199Z</time></trkpt><trkpt lat="43.7157559" lon="12.7674155"><ele>425.0</ele><time>2026-04-06T12:56:56.199Z</time></trkpt><trkpt lat="43.7158275" lon="12.7675383"><ele>425.0</ele><time>2026-04-06T12:56:58.201Z</time></trkpt><trkpt lat="43.7158896" lon="12.7676806"><ele>425.0</ele><time>2026-04-06T12:57:00.197Z</time></trkpt><trkpt lat="43.7159726" lon="12.7678183"><ele>422.66666666666663</ele><time>2026-04-06T12:57:02.205Z</time></trkpt><trkpt lat="43.7160327" lon="12.7678861"><ele>420.3333333333333</ele><time>2026-04-06T12:57:03.197Z</time></trkpt><trkpt lat="43.7160846" lon="12.7679562"><ele>418.0</ele><time>2026-04-06T12:57:04.197Z</time></trkpt><trkpt lat="43.7161291" lon="12.7680218"><ele>415.66666666666663</ele><time>2026-04-06T12:57:05.19Z</time></trkpt><trkpt lat="43.716218" lon="12.7681394"><ele>413.3333333333333</ele><time>2026-04-06T12:57:07.193Z</time></trkpt><trkpt lat="43.7162716" lon="12.7681948"><ele>411.0</ele><time>2026-04-06T12:57:08.204Z</time></trkpt><trkpt lat="43.7163292" lon="12.7682488"><ele>407.6</ele><time>2026-04-06T12:57:09.187Z</time></trkpt><trkpt lat="43.716382" lon="12.7683061"><ele>404.20000000000005</ele><time>2026-04-06T12:57:10.191Z</time></trkpt><trkpt lat="43.7164734" lon="12.7684156"><ele>400.79999999999995</ele><time>2026-04-06T12:57:12.205Z</time></trkpt><trkpt lat="43.7165741" lon="12.7685297"><ele>397.4</ele><time>2026-04-06T12:57:14.2Z</time></trkpt><trkpt lat="43.7166339" lon="12.768596"><ele>394.0</ele><time>2026-04-06T12:57:15.201Z</time></trkpt><trkpt lat="43.7166934" lon="12.7686584"><ele>392.50000000000006</ele><time>2026-04-06T12:57:16.202Z</time></trkpt><trkpt lat="43.7167561" lon="12.7687142"><ele>391.0</ele><time>2026-04-06T12:57:17.203Z</time></trkpt><trkpt lat="43.7168218" lon="12.7687646"><ele>389.5</ele><time>2026-04-06T12:57:18.197Z</time></trkpt><trkpt lat="43.7168834" lon="12.768818"><ele>388.0</ele><time>2026-04-06T12:57:19.203Z</time></trkpt><trkpt lat="43.7169465" lon="12.7688718"><ele>386.50000000000006</ele><time>2026-04-06T12:57:20.209Z</time></trkpt><trkpt lat="43.7170123" lon="12.7689146"><ele>385.0</ele><time>2026-04-06T12:57:21.2Z</time></trkpt><trkpt lat="43.7171079" lon="12.7689747"><ele>383.4</ele><time>2026-04-06T12:57:23.196Z</time></trkpt><trkpt lat="43.7171871" lon="12.768907"><ele>381.8</ele><time>2026-04-06T12:57:27.225Z</time></trkpt><trkpt lat="43.717243" lon="12.7687458"><ele>380.20000000000005</ele><time>2026-04-06T12:57:29.198Z</time></trkpt><trkpt lat="43.7172559" lon="12.7686254"><ele>378.6</ele><time>2026-04-06T12:57:30.206Z</time></trkpt><trkpt lat="43.71726" lon="12.7684655"><ele>377.0</ele><time>2026-04-06T12:57:31.204Z</time></trkpt><trkpt lat="43.717258" lon="12.7682744"><ele>377.0</ele><time>2026-04-06T12:57:32.209Z</time></trkpt><trkpt lat="43.7172818" lon="12.7680998"><ele>377.0</ele><time>2026-04-06T12:57:33.202Z</time></trkpt><trkpt lat="43.7173219" lon="12.7679368"><ele>377.0</ele><time>2026-04-06T12:57:34.2Z</time></trkpt><trkpt lat="43.7173596" lon="12.7678057"><ele>377.0</ele><time>2026-04-06T12:57:35.198Z</time></trkpt><trkpt lat="43.717399" lon="12.7676979"><ele>377.0</ele><time>2026-04-06T12:57:36.198Z</time></trkpt><trkpt lat="43.7174309" lon="12.7675962"><ele>377.8</ele><time>2026-04-06T12:57:37.204Z</time></trkpt><trkpt lat="43.7174583" lon="12.7675161"><ele>378.6</ele><time>2026-04-06T12:57:45.219Z</time></trkpt><trkpt lat="43.7175082" lon="12.7673865"><ele>379.40000000000003</ele><time>2026-04-06T12:57:47.19Z</time></trkpt><trkpt lat="43.7175245" lon="12.7672907"><ele>380.20000000000005</ele><time>2026-04-06T12:57:48.198Z</time></trkpt><trkpt lat="43.7175454" lon="12.7671513"><ele>381.0</ele><time>2026-04-06T12:57:49.19Z</time></trkpt><trkpt lat="43.7175779" lon="12.766998"><ele>381.25</ele><time>2026-04-06T12:57:50.188Z</time></trkpt><trkpt lat="43.7176225" lon="12.7668463"><ele>381.5</ele><time>2026-04-06T12:57:51.185Z</time></trkpt><trkpt lat="43.7176865" lon="12.7666902"><ele>381.75</ele><time>2026-04-06T12:57:52.178Z</time></trkpt><trkpt lat="43.7177575" lon="12.7665486"><ele>382.0</ele><time>2026-04-06T12:57:53.197Z</time></trkpt><trkpt lat="43.7178264" lon="12.7664285"><ele>382.0</ele><time>2026-04-06T12:57:54.183Z</time></trkpt><trkpt lat="43.7178793" lon="12.7663071"><ele>382.0</ele><time>2026-04-06T12:57:55.175Z</time></trkpt><trkpt lat="43.7179172" lon="12.7661965"><ele>382.0</ele><time>2026-04-06T12:57:56.168Z</time></trkpt><trkpt lat="43.7179405" lon="12.7661031"><ele>382.0</ele><time>2026-04-06T12:57:57.171Z</time></trkpt><trkpt lat="43.7179723" lon="12.7660074"><ele>382.0</ele><time>2026-04-06T12:57:58.174Z</time></trkpt><trkpt lat="43.7180196" lon="12.7659292"><ele>382.0</ele><time>2026-04-06T12:57:59.173Z</time></trkpt><trkpt lat="43.7180891" lon="12.7658322"><ele>379.20000000000005</ele><time>2026-04-06T12:58:00.17Z</time></trkpt><trkpt lat="43.7181731" lon="12.765721"><ele>376.4</ele><time>2026-04-06T12:58:01.17Z</time></trkpt><trkpt lat="43.7182476" lon="12.7656235"><ele>373.6</ele><time>2026-04-06T12:58:02.176Z</time></trkpt><trkpt lat="43.7183298" lon="12.7655407"><ele>370.79999999999995</ele><time>2026-04-06T12:58:03.166Z</time></trkpt><trkpt lat="43.71841" lon="12.7654557"><ele>368.0</ele><time>2026-04-06T12:58:04.169Z</time></trkpt><trkpt lat="43.7184845" lon="12.7653684"><ele>368.0</ele><time>2026-04-06T12:58:05.168Z</time></trkpt><trkpt lat="43.7185645" lon="12.7653023"><ele>368.0</ele><time>2026-04-06T12:58:06.172Z</time></trkpt><trkpt lat="43.7186404" lon="12.7652439"><ele>368.0</ele><time>2026-04-06T12:58:07.167Z</time></trkpt><trkpt lat="43.7187253" lon="12.7651821"><ele>368.0</ele><time>2026-04-06T12:58:08.164Z</time></trkpt><trkpt lat="43.7188042" lon="12.7651345"><ele>368.0</ele><time>2026-04-06T12:58:09.169Z</time></trkpt><trkpt lat="43.7188813" lon="12.7651098"><ele>368.0</ele><time>2026-04-06T12:58:10.165Z</time></trkpt><trkpt lat="43.7189659" lon="12.7651027"><ele>363.5</ele><time>2026-04-06T12:58:11.166Z</time></trkpt><trkpt lat="43.7190679" lon="12.7651111"><ele>359.0</ele><time>2026-04-06T12:58:12.168Z</time></trkpt><trkpt lat="43.7191754" lon="12.7651208"><ele>354.5</ele><time>2026-04-06T12:58:13.17Z</time></trkpt><trkpt lat="43.7192647" lon="12.765144"><ele>350.0</ele><time>2026-04-06T12:58:14.173Z</time></trkpt><trkpt lat="43.7193421" lon="12.7651716"><ele>345.5</ele><time>2026-04-06T12:58:15.168Z</time></trkpt><trkpt lat="43.7194067" lon="12.7651964"><ele>341.0</ele><time>2026-04-06T12:58:16.173Z</time></trkpt><trkpt lat="43.7195257" lon="12.7652401"><ele>340.6</ele><time>2026-04-06T12:58:18.173Z</time></trkpt><trkpt lat="43.7195897" lon="12.7652877"><ele>340.20000000000005</ele><time>2026-04-06T12:58:19.171Z</time></trkpt><trkpt lat="43.7196737" lon="12.765344"><ele>339.79999999999995</ele><time>2026-04-06T12:58:20.172Z</time></trkpt><trkpt lat="43.7197678" lon="12.7654192"><ele>339.4</ele><time>2026-04-06T12:58:21.174Z</time></trkpt><trkpt lat="43.7198677" lon="12.7655137"><ele>339.0</ele><time>2026-04-06T12:58:22.167Z</time></trkpt><trkpt lat="43.7199598" lon="12.7655903"><ele>339.0</ele><time>2026-04-06T12:58:23.166Z</time></trkpt><trkpt lat="43.7200526" lon="12.7656482"><ele>339.0</ele><time>2026-04-06T12:58:24.171Z</time></trkpt><trkpt lat="43.7201638" lon="12.7657016"><ele>339.0</ele><time>2026-04-06T12:58:25.168Z</time></trkpt><trkpt lat="43.7203004" lon="12.7657259"><ele>339.0</ele><time>2026-04-06T12:58:26.165Z</time></trkpt><trkpt lat="43.720436" lon="12.7657539"><ele>336.2</ele><time>2026-04-06T12:58:27.175Z</time></trkpt><trkpt lat="43.7205299" lon="12.7657737"><ele>333.4</ele><time>2026-04-06T12:58:28.175Z</time></trkpt><trkpt lat="43.7206375" lon="12.7658208"><ele>330.6</ele><time>2026-04-06T12:58:30.17Z</time></trkpt><trkpt lat="43.720698" lon="12.7658493"><ele>327.8</ele><time>2026-04-06T12:58:46.203Z</time></trkpt><trkpt lat="43.7207802" lon="12.7659008"><ele>325.0</ele><time>2026-04-06T12:58:51.204Z</time></trkpt><trkpt lat="43.7206199" lon="12.765903"><ele>325.0</ele><time>2026-04-06T12:58:54.188Z</time></trkpt><trkpt lat="43.7204581" lon="12.765869"><ele>325.0</ele><time>2026-04-06T12:58:55.17Z</time></trkpt><trkpt lat="43.7202819" lon="12.7658172"><ele>325.0</ele><time>2026-04-06T12:58:56.167Z</time></trkpt><trkpt lat="43.7199738" lon="12.7656616"><ele>332.0</ele><time>2026-04-06T12:58:57.175Z</time></trkpt><trkpt lat="43.7197207" lon="12.7654649"><ele>339.0</ele><time>2026-04-06T12:58:58.172Z</time></trkpt><trkpt lat="43.7195226" lon="12.7653224"><ele>339.0</ele><time>2026-04-06T12:58:59.167Z</time></trkpt><trkpt lat="43.7194153" lon="12.7652223"><ele>339.0</ele><time>2026-04-06T12:59:00.17Z</time></trkpt><trkpt lat="43.7193445" lon="12.7651293"><ele>339.0</ele><time>2026-04-06T12:59:01.167Z</time></trkpt><trkpt lat="43.7192881" lon="12.7650437"><ele>339.0</ele><time>2026-04-06T12:59:02.179Z</time></trkpt><trkpt lat="43.7192147" lon="12.7649552"><ele>339.0</ele><time>2026-04-06T12:59:03.181Z</time></trkpt><trkpt lat="43.7191512" lon="12.7648553"><ele>339.3333333333333</ele><time>2026-04-06T12:59:04.178Z</time></trkpt><trkpt lat="43.7190968" lon="12.7647619"><ele>339.6666666666667</ele><time>2026-04-06T12:59:05.177Z</time></trkpt><trkpt lat="43.7190553" lon="12.7646743"><ele>340.0</ele><time>2026-04-06T12:59:06.18Z</time></trkpt><trkpt lat="43.7190237" lon="12.7645819"><ele>340.33333333333337</ele><time>2026-04-06T12:59:07.189Z</time></trkpt><trkpt lat="43.719001" lon="12.7644789"><ele>340.6666666666667</ele><time>2026-04-06T12:59:08.182Z</time></trkpt><trkpt lat="43.7189909" lon="12.7643701"><ele>341.0</ele><time>2026-04-06T12:59:09.193Z</time></trkpt><trkpt lat="43.7189958" lon="12.7642434"><ele>339.83333333333337</ele><time>2026-04-06T12:59:10.184Z</time></trkpt><trkpt lat="43.7189845" lon="12.7641138"><ele>338.6666666666667</ele><time>2026-04-06T12:59:11.184Z</time></trkpt><trkpt lat="43.7189477" lon="12.7639953"><ele>337.5</ele><time>2026-04-06T12:59:12.185Z</time></trkpt><trkpt lat="43.718902" lon="12.7639002"><ele>336.3333333333333</ele><time>2026-04-06T12:59:13.199Z</time></trkpt><trkpt lat="43.7188529" lon="12.7638356"><ele>335.16666666666663</ele><time>2026-04-06T12:59:14.196Z</time></trkpt><trkpt lat="43.7187961" lon="12.7637588"><ele>334.0</ele><time>2026-04-06T12:59:15.194Z</time></trkpt><trkpt lat="43.7187338" lon="12.7636826"><ele>334.0</ele><time>2026-04-06T12:59:16.197Z</time></trkpt><trkpt lat="43.7186525" lon="12.7636206"><ele>334.0</ele><time>2026-04-06T12:59:17.191Z</time></trkpt><trkpt lat="43.718553" lon="12.7635908"><ele>334.0</ele><time>2026-04-06T12:59:18.196Z</time></trkpt><trkpt lat="43.7184565" lon="12.7635976"><ele>334.0</ele><time>2026-04-06T12:59:19.205Z</time></trkpt><trkpt lat="43.7183709" lon="12.7636308"><ele>334.0</ele><time>2026-04-06T12:59:20.203Z</time></trkpt><trkpt lat="43.7182768" lon="12.7636985"><ele>335.5</ele><time>2026-04-06T12:59:21.196Z</time></trkpt><trkpt lat="43.7181745" lon="12.7637734"><ele>337.0</ele><time>2026-04-06T12:59:22.201Z</time></trkpt><trkpt lat="43.7180899" lon="12.763822"><ele>338.5</ele><time>2026-04-06T12:59:23.19Z</time></trkpt><trkpt lat="43.7180072" lon="12.7638476"><ele>340.0</ele><time>2026-04-06T12:59:24.202Z</time></trkpt><trkpt lat="43.7179324" lon="12.7638254"><ele>341.5</ele><time>2026-04-06T12:59:25.195Z</time></trkpt><trkpt lat="43.7178606" lon="12.7637801"><ele>343.0</ele><time>2026-04-06T12:59:26.199Z</time></trkpt><trkpt lat="43.717801" lon="12.7637243"><ele>343.0</ele><time>2026-04-06T12:59:27.193Z</time></trkpt><trkpt lat="43.7177427" lon="12.7636615"><ele>343.0</ele><time>2026-04-06T12:59:28.199Z</time></trkpt><trkpt lat="43.7176834" lon="12.7636024"><ele>343.0</ele><time>2026-04-06T12:59:29.195Z</time></trkpt><trkpt lat="43.7176287" lon="12.76355"><ele>343.0</ele><time>2026-04-06T12:59:30.188Z</time></trkpt><trkpt lat="43.7175505" lon="12.7634828"><ele>343.0</ele><time>2026-04-06T12:59:32.197Z</time></trkpt><trkpt lat="43.7175923" lon="12.7634154"><ele>343.0</ele><time>2026-04-06T12:59:42.23Z</time></trkpt><trkpt lat="43.717665" lon="12.7633549"><ele>345.0</ele><time>2026-04-06T12:59:44.218Z</time></trkpt><trkpt lat="43.7177939" lon="12.7632526"><ele>347.0</ele><time>2026-04-06T12:59:46.192Z</time></trkpt><trkpt lat="43.717865" lon="12.7631691"><ele>349.0</ele><time>2026-04-06T12:59:47.183Z</time></trkpt><trkpt lat="43.7179238" lon="12.7630802"><ele>351.0</ele><time>2026-04-06T12:59:48.185Z</time></trkpt><trkpt lat="43.7179743" lon="12.7629725"><ele>353.0</ele><time>2026-04-06T12:59:49.194Z</time></trkpt><trkpt lat="43.7180165" lon="12.7628769"><ele>353.0</ele><time>2026-04-06T12:59:50.198Z</time></trkpt><trkpt lat="43.7180593" lon="12.7627805"><ele>353.0</ele><time>2026-04-06T12:59:51.185Z</time></trkpt><trkpt lat="43.7180895" lon="12.7626964"><ele>353.0</ele><time>2026-04-06T12:59:52.189Z</time></trkpt><trkpt lat="43.7181089" lon="12.7625708"><ele>353.0</ele><time>2026-04-06T12:59:54.203Z</time></trkpt><trkpt lat="43.7180537" lon="12.7624698"><ele>353.0</ele><time>2026-04-06T12:59:57.221Z</time></trkpt><trkpt lat="43.7179496" lon="12.7624564"><ele>353.0</ele><time>2026-04-06T12:59:59.196Z</time></trkpt><trkpt lat="43.7178871" lon="12.7624868"><ele>353.6666666666667</ele><time>2026-04-06T13:00:00.204Z</time></trkpt><trkpt lat="43.7178181" lon="12.762552"><ele>354.33333333333337</ele><time>2026-04-06T13:00:01.195Z</time></trkpt><trkpt lat="43.7177352" lon="12.7626387"><ele>355.0</ele><time>2026-04-06T13:00:02.199Z</time></trkpt><trkpt lat="43.7176619" lon="12.7627075"><ele>355.6666666666667</ele><time>2026-04-06T13:00:03.196Z</time></trkpt><trkpt lat="43.7176014" lon="12.7627535"><ele>356.3333333333333</ele><time>2026-04-06T13:00:04.186Z</time></trkpt><trkpt lat="43.7175163" lon="12.7627779"><ele>357.0</ele><time>2026-04-06T13:00:06.188Z</time></trkpt><trkpt lat="43.7174406" lon="12.7627222"><ele>360.3333333333333</ele><time>2026-04-06T13:00:08.22Z</time></trkpt><trkpt lat="43.7173881" lon="12.762595"><ele>363.6666666666667</ele><time>2026-04-06T13:00:10.229Z</time></trkpt><trkpt lat="43.7173915" lon="12.7624474"><ele>367.0</ele><time>2026-04-06T13:00:12.198Z</time></trkpt><trkpt lat="43.7174026" lon="12.762361"><ele>370.33333333333337</ele><time>2026-04-06T13:00:13.203Z</time></trkpt><trkpt lat="43.7174181" lon="12.7622696"><ele>373.6666666666667</ele><time>2026-04-06T13:00:14.195Z</time></trkpt><trkpt lat="43.7174328" lon="12.7621737"><ele>377.0</ele><time>2026-04-06T13:00:15.196Z</time></trkpt><trkpt lat="43.7174479" lon="12.7620766"><ele>377.0</ele><time>2026-04-06T13:00:16.192Z</time></trkpt><trkpt lat="43.7174684" lon="12.7619827"><ele>377.0</ele><time>2026-04-06T13:00:17.199Z</time></trkpt><trkpt lat="43.7175011" lon="12.761834"><ele>377.0</ele><time>2026-04-06T13:00:19.195Z</time></trkpt><trkpt lat="43.7175006" lon="12.7617449"><ele>377.0</ele><time>2026-04-06T13:00:20.194Z</time></trkpt><trkpt lat="43.7174881" lon="12.7616385"><ele>377.0</ele><time>2026-04-06T13:00:21.182Z</time></trkpt><trkpt lat="43.7174763" lon="12.7615219"><ele>377.0</ele><time>2026-04-06T13:00:22.188Z</time></trkpt><trkpt lat="43.7174686" lon="12.7614042"><ele>380.33333333333337</ele><time>2026-04-06T13:00:23.189Z</time></trkpt><trkpt lat="43.7174651" lon="12.7612817"><ele>383.6666666666667</ele><time>2026-04-06T13:00:24.186Z</time></trkpt><trkpt lat="43.7174636" lon="12.7611621"><ele>387.0</ele><time>2026-04-06T13:00:25.19Z</time></trkpt><trkpt lat="43.7174453" lon="12.7610512"><ele>390.33333333333337</ele><time>2026-04-06T13:00:26.193Z</time></trkpt><trkpt lat="43.7174057" lon="12.7609454"><ele>393.6666666666667</ele><time>2026-04-06T13:00:27.197Z</time></trkpt><trkpt lat="43.7173698" lon="12.7608385"><ele>397.0</ele><time>2026-04-06T13:00:28.197Z</time></trkpt><trkpt lat="43.7173429" lon="12.7607329"><ele>399.50000000000006</ele><time>2026-04-06T13:00:29.194Z</time></trkpt><trkpt lat="43.7173242" lon="12.7606407"><ele>402.0</ele><time>2026-04-06T13:00:30.192Z</time></trkpt><trkpt lat="43.7172956" lon="12.7604825"><ele>404.5</ele><time>2026-04-06T13:00:32.198Z</time></trkpt><trkpt lat="43.7172841" lon="12.7603929"><ele>407.0</ele><time>2026-04-06T13:00:33.192Z</time></trkpt><trkpt lat="43.7172739" lon="12.760296"><ele>409.50000000000006</ele><time>2026-04-06T13:00:34.205Z</time></trkpt><trkpt lat="43.7172702" lon="12.7601941"><ele>412.0</ele><time>2026-04-06T13:00:35.201Z</time></trkpt><trkpt lat="43.7172648" lon="12.7600834"><ele>413.85714285714283</ele><time>2026-04-06T13:00:36.196Z</time></trkpt><trkpt lat="43.7172657" lon="12.7599715"><ele>415.7142857142857</ele><time>2026-04-06T13:00:37.196Z</time></trkpt><trkpt lat="43.7172729" lon="12.759861"><ele>417.57142857142856</ele><time>2026-04-06T13:00:38.187Z</time></trkpt><trkpt lat="43.7172765" lon="12.7597635"><ele>419.42857142857144</ele><time>2026-04-06T13:00:39.193Z</time></trkpt><trkpt lat="43.7172799" lon="12.7596722"><ele>421.2857142857143</ele><time>2026-04-06T13:00:40.196Z</time></trkpt><trkpt lat="43.7172767" lon="12.7595737"><ele>423.1428571428571</ele><time>2026-04-06T13:00:41.197Z</time></trkpt><trkpt lat="43.7172718" lon="12.7594685"><ele>425.0</ele><time>2026-04-06T13:00:42.199Z</time></trkpt><trkpt lat="43.7172675" lon="12.7593709"><ele>426.8</ele><time>2026-04-06T13:00:43.202Z</time></trkpt><trkpt lat="43.7172584" lon="12.7592846"><ele>428.6</ele><time>2026-04-06T13:00:44.188Z</time></trkpt><trkpt lat="43.7172132" lon="12.7591162"><ele>430.4</ele><time>2026-04-06T13:00:46.188Z</time></trkpt><trkpt lat="43.7171726" lon="12.7590166"><ele>432.2</ele><time>2026-04-06T13:00:47.184Z</time></trkpt><trkpt lat="43.717121" lon="12.7589129"><ele>434.0</ele><time>2026-04-06T13:00:48.195Z</time></trkpt><trkpt lat="43.7170685" lon="12.7588113"><ele>433.99999999999994</ele><time>2026-04-06T13:00:49.191Z</time></trkpt><trkpt lat="43.7170153" lon="12.758723"><ele>434.0</ele><time>2026-04-06T13:00:50.187Z</time></trkpt><trkpt lat="43.7169645" lon="12.7586521"><ele>434.0</ele><time>2026-04-06T13:00:51.19Z</time></trkpt><trkpt lat="43.7169188" lon="12.7585874"><ele>434.0</ele><time>2026-04-06T13:00:52.194Z</time></trkpt><trkpt lat="43.7168832" lon="12.7584405"><ele>433.99999999999994</ele><time>2026-04-06T13:00:54.197Z</time></trkpt><trkpt lat="43.7168963" lon="12.7582894"><ele>434.0</ele><time>2026-04-06T13:00:56.188Z</time></trkpt><trkpt lat="43.7169098" lon="12.7581251"><ele>440.6</ele><time>2026-04-06T13:00:58.188Z</time></trkpt><trkpt lat="43.716878" lon="12.7579632"><ele>447.2</ele><time>2026-04-06T13:01:00.198Z</time></trkpt><trkpt lat="43.7168454" lon="12.7578307"><ele>453.80000000000007</ele><time>2026-04-06T13:01:02.203Z</time></trkpt><trkpt lat="43.716811" lon="12.7577444"><ele>460.40000000000003</ele><time>2026-04-06T13:01:04.213Z</time></trkpt><trkpt lat="43.7167801" lon="12.757658"><ele>467.0</ele><time>2026-04-06T13:01:06.209Z</time></trkpt><trkpt lat="43.7167167" lon="12.7574984"><ele>466.99999999999994</ele><time>2026-04-06T13:01:08.204Z</time></trkpt><trkpt lat="43.7166884" lon="12.7574132"><ele>467.0</ele><time>2026-04-06T13:01:09.194Z</time></trkpt><trkpt lat="43.7166722" lon="12.7573184"><ele>467.0</ele><time>2026-04-06T13:01:10.198Z</time></trkpt><trkpt lat="43.7166443" lon="12.7572227"><ele>467.0</ele><time>2026-04-06T13:01:11.191Z</time></trkpt><trkpt lat="43.7165996" lon="12.757127"><ele>466.99999999999994</ele><time>2026-04-06T13:01:12.191Z</time></trkpt><trkpt lat="43.716541" lon="12.7570282"><ele>467.0</ele><time>2026-04-06T13:01:13.199Z</time></trkpt><trkpt lat="43.7164892" lon="12.7569291"><ele>467.8333333333333</ele><time>2026-04-06T13:01:14.198Z</time></trkpt><trkpt lat="43.7164445" lon="12.756835"><ele>468.66666666666663</ele><time>2026-04-06T13:01:15.191Z</time></trkpt><trkpt lat="43.7163992" lon="12.7567456"><ele>469.5</ele><time>2026-04-06T13:01:16.197Z</time></trkpt><trkpt lat="43.7163453" lon="12.7566661"><ele>470.33333333333337</ele><time>2026-04-06T13:01:17.191Z</time></trkpt><trkpt lat="43.7162765" lon="12.7565968"><ele>471.1666666666667</ele><time>2026-04-06T13:01:18.185Z</time></trkpt><trkpt lat="43.7162033" lon="12.7565359"><ele>472.0</ele><time>2026-04-06T13:01:19.193Z</time></trkpt><trkpt lat="43.716148" lon="12.7564902"><ele>472.0</ele><time>2026-04-06T13:01:20.188Z</time></trkpt><trkpt lat="43.7160867" lon="12.7563981"><ele>472.00000000000006</ele><time>2026-04-06T13:01:22.208Z</time></trkpt><trkpt lat="43.7160601" lon="12.7562782"><ele>472.00000000000006</ele><time>2026-04-06T13:01:24.206Z</time></trkpt><trkpt lat="43.7160801" lon="12.7561784"><ele>472.0</ele><time>2026-04-06T13:01:26.214Z</time></trkpt><trkpt lat="43.7161567" lon="12.7561743"><ele>472.0</ele><time>2026-04-06T13:01:28.214Z</time></trkpt><trkpt lat="43.7162752" lon="12.7562233"><ele>472.00000000000006</ele><time>2026-04-06T13:01:30.199Z</time></trkpt><trkpt lat="43.7163492" lon="12.7562046"><ele>472.0</ele><time>2026-04-06T13:01:31.189Z</time></trkpt><trkpt lat="43.7164348" lon="12.7561443"><ele>472.0</ele><time>2026-04-06T13:01:32.216Z</time></trkpt><trkpt lat="43.7165105" lon="12.756065"><ele>472.0</ele><time>2026-04-06T13:01:33.204Z</time></trkpt><trkpt lat="43.7165756" lon="12.7559698"><ele>472.00000000000006</ele><time>2026-04-06T13:01:34.189Z</time></trkpt><trkpt lat="43.716613" lon="12.7558822"><ele>472.0</ele><time>2026-04-06T13:01:35.196Z</time></trkpt><trkpt lat="43.7166469" lon="12.7557214"><ele>473.1428571428571</ele><time>2026-04-06T13:01:37.188Z</time></trkpt><trkpt lat="43.7165855" lon="12.7556602"><ele>474.28571428571433</ele><time>2026-04-06T13:01:45.234Z</time></trkpt><trkpt lat="43.7165053" lon="12.7556768"><ele>475.42857142857144</ele><time>2026-04-06T13:01:47.216Z</time></trkpt><trkpt lat="43.7164388" lon="12.7556916"><ele>476.57142857142856</ele><time>2026-04-06T13:01:48.191Z</time></trkpt><trkpt lat="43.7163724" lon="12.755696"><ele>477.71428571428567</ele><time>2026-04-06T13:01:49.21Z</time></trkpt><trkpt lat="43.7163045" lon="12.7556962"><ele>478.8571428571429</ele><time>2026-04-06T13:01:50.204Z</time></trkpt><trkpt lat="43.7162307" lon="12.7556844"><ele>480.0</ele><time>2026-04-06T13:01:52.218Z</time></trkpt><trkpt lat="43.716221" lon="12.755577"><ele>480.0</ele><time>2026-04-06T13:02:02.227Z</time></trkpt><trkpt lat="43.7162737" lon="12.755451"><ele>480.0</ele><time>2026-04-06T13:02:04.2Z</time></trkpt><trkpt lat="43.7163011" lon="12.7552831"><ele>480.0</ele><time>2026-04-06T13:02:06.195Z</time></trkpt><trkpt lat="43.7162972" lon="12.755156"><ele>480.0</ele><time>2026-04-06T13:02:08.221Z</time></trkpt><trkpt lat="43.7162623" lon="12.7550586"><ele>480.0</ele><time>2026-04-06T13:02:10.233Z</time></trkpt><trkpt lat="43.7162154" lon="12.7549689"><ele>482.0</ele><time>2026-04-06T13:02:12.226Z</time></trkpt><trkpt lat="43.7161735" lon="12.7548854"><ele>484.0</ele><time>2026-04-06T13:02:14.231Z</time></trkpt><trkpt lat="43.7161066" lon="12.7548003"><ele>486.0</ele><time>2026-04-06T13:02:17.226Z</time></trkpt><trkpt lat="43.7160418" lon="12.7547185"><ele>488.0</ele><time>2026-04-06T13:02:19.23Z</time></trkpt><trkpt lat="43.7159673" lon="12.754625"><ele>490.0</ele><time>2026-04-06T13:02:21.205Z</time></trkpt><trkpt lat="43.7159107" lon="12.7545802"><ele>492.0</ele><time>2026-04-06T13:02:22.207Z</time></trkpt><trkpt lat="43.7157987" lon="12.7545184"><ele>494.75</ele><time>2026-04-06T13:02:24.199Z</time></trkpt><trkpt lat="43.7156964" lon="12.7544758"><ele>497.5</ele><time>2026-04-06T13:02:26.207Z</time></trkpt><trkpt lat="43.7155864" lon="12.754431"><ele>500.25</ele><time>2026-04-06T13:02:28.204Z</time></trkpt><trkpt lat="43.7154687" lon="12.7543794"><ele>503.0</ele><time>2026-04-06T13:02:30.213Z</time></trkpt><trkpt lat="43.7153614" lon="12.7543097"><ele>505.3333333333333</ele><time>2026-04-06T13:02:32.214Z</time></trkpt><trkpt lat="43.7152659" lon="12.7541921"><ele>507.66666666666663</ele><time>2026-04-06T13:02:34.211Z</time></trkpt><trkpt lat="43.7152143" lon="12.7541129"><ele>510.0</ele><time>2026-04-06T13:02:35.201Z</time></trkpt><trkpt lat="43.7151649" lon="12.7540337"><ele>512.3333333333334</ele><time>2026-04-06T13:02:36.202Z</time></trkpt><trkpt lat="43.7151175" lon="12.7539471"><ele>514.6666666666667</ele><time>2026-04-06T13:02:37.212Z</time></trkpt><trkpt lat="43.7150719" lon="12.7538526"><ele>517.0</ele><time>2026-04-06T13:02:38.2Z</time></trkpt><trkpt lat="43.715025" lon="12.753759"><ele>518.3333333333334</ele><time>2026-04-06T13:02:39.205Z</time></trkpt><trkpt lat="43.7149675" lon="12.7536735"><ele>519.6666666666667</ele><time>2026-04-06T13:02:40.201Z</time></trkpt><trkpt lat="43.714902" lon="12.7535898"><ele>521.0</ele><time>2026-04-06T13:02:41.201Z</time></trkpt><trkpt lat="43.7148409" lon="12.7535178"><ele>522.3333333333334</ele><time>2026-04-06T13:02:42.206Z</time></trkpt><trkpt lat="43.7147761" lon="12.7534488"><ele>523.6666666666666</ele><time>2026-04-06T13:02:43.206Z</time></trkpt><trkpt lat="43.7147158" lon="12.7533912"><ele>525.0</ele><time>2026-04-06T13:02:44.203Z</time></trkpt><trkpt lat="43.7146439" lon="12.7533411"><ele>526.8</ele><time>2026-04-06T13:02:45.203Z</time></trkpt><trkpt lat="43.7145619" lon="12.7533059"><ele>528.6</ele><time>2026-04-06T13:02:46.198Z</time></trkpt><trkpt lat="43.7144658" lon="12.753284"><ele>530.4</ele><time>2026-04-06T13:02:47.206Z</time></trkpt><trkpt lat="43.714359" lon="12.7532751"><ele>532.2</ele><time>2026-04-06T13:02:48.2Z</time></trkpt><trkpt lat="43.7142622" lon="12.7532534"><ele>534.0</ele><time>2026-04-06T13:02:49.202Z</time></trkpt><trkpt lat="43.7141739" lon="12.7532156"><ele>535.1666666666666</ele><time>2026-04-06T13:02:50.21Z</time></trkpt><trkpt lat="43.7140999" lon="12.7531765"><ele>536.3333333333334</ele><time>2026-04-06T13:02:51.198Z</time></trkpt><trkpt lat="43.7139913" lon="12.7531286"><ele>537.5</ele><time>2026-04-06T13:02:53.212Z</time></trkpt><trkpt lat="43.7138998" lon="12.7531199"><ele>538.6666666666667</ele><time>2026-04-06T13:02:55.221Z</time></trkpt><trkpt lat="43.7138306" lon="12.753117"><ele>539.8333333333334</ele><time>2026-04-06T13:02:57.238Z</time></trkpt><trkpt lat="43.7137653" lon="12.7531028"><ele>541.0</ele><time>2026-04-06T13:03:37.234Z</time></trkpt><trkpt lat="43.7136979" lon="12.7530883"><ele>541.0</ele><time>2026-04-06T13:04:37.249Z</time></trkpt><trkpt lat="43.7136456" lon="12.7529575"><ele>541.0</ele><time>2026-04-06T13:04:41.218Z</time></trkpt><trkpt lat="43.7136527" lon="12.7528481"><ele>541.0</ele><time>2026-04-06T13:04:42.226Z</time></trkpt><trkpt lat="43.71366" lon="12.7527324"><ele>541.0</ele><time>2026-04-06T13:04:43.224Z</time></trkpt><trkpt lat="43.7136607" lon="12.752627"><ele>541.0</ele><time>2026-04-06T13:04:44.213Z</time></trkpt><trkpt lat="43.713652" lon="12.7525232"><ele>541.0</ele><time>2026-04-06T13:04:45.212Z</time></trkpt><trkpt lat="43.7136387" lon="12.7524168"><ele>541.8</ele><time>2026-04-06T13:04:46.214Z</time></trkpt><trkpt lat="43.7136301" lon="12.7522988"><ele>542.6</ele><time>2026-04-06T13:04:47.211Z</time></trkpt><trkpt lat="43.7136247" lon="12.7521677"><ele>543.4</ele><time>2026-04-06T13:04:48.21Z</time></trkpt><trkpt lat="43.7136273" lon="12.7520279"><ele>544.2</ele><time>2026-04-06T13:04:49.213Z</time></trkpt><trkpt lat="43.7136323" lon="12.7518789"><ele>545.0</ele><time>2026-04-06T13:04:50.21Z</time></trkpt><trkpt lat="43.713647" lon="12.7517336"><ele>545.4</ele><time>2026-04-06T13:04:51.21Z</time></trkpt><trkpt lat="43.713671" lon="12.7516002"><ele>545.8</ele><time>2026-04-06T13:04:52.208Z</time></trkpt><trkpt lat="43.7137022" lon="12.7514635"><ele>546.2</ele><time>2026-04-06T13:04:53.208Z</time></trkpt><trkpt lat="43.713738" lon="12.7513249"><ele>546.6</ele><time>2026-04-06T13:04:54.203Z</time></trkpt><trkpt lat="43.7137805" lon="12.7511977"><ele>547.0</ele><time>2026-04-06T13:04:55.205Z</time></trkpt><trkpt lat="43.7138292" lon="12.7510767"><ele>545.8000000000001</ele><time>2026-04-06T13:04:56.219Z</time></trkpt><trkpt lat="43.7138874" lon="12.7509512"><ele>544.6</ele><time>2026-04-06T13:04:57.209Z</time></trkpt><trkpt lat="43.7139479" lon="12.7508195"><ele>543.4000000000001</ele><time>2026-04-06T13:04:58.213Z</time></trkpt><trkpt lat="43.7140068" lon="12.7506932"><ele>542.2</ele><time>2026-04-06T13:04:59.212Z</time></trkpt><trkpt lat="43.7140678" lon="12.7505547"><ele>541.0</ele><time>2026-04-06T13:05:00.209Z</time></trkpt><trkpt lat="43.7141312" lon="12.7504309"><ele>541.0</ele><time>2026-04-06T13:05:01.204Z</time></trkpt><trkpt lat="43.7141927" lon="12.7502972"><ele>541.0</ele><time>2026-04-06T13:05:02.209Z</time></trkpt><trkpt lat="43.7142581" lon="12.750169"><ele>541.0</ele><time>2026-04-06T13:05:03.202Z</time></trkpt><trkpt lat="43.7143156" lon="12.7500386"><ele>541.0</ele><time>2026-04-06T13:05:04.205Z</time></trkpt><trkpt lat="43.71437" lon="12.7498965"><ele>540.25</ele><time>2026-04-06T13:05:05.196Z</time></trkpt><trkpt lat="43.7144278" lon="12.7497403"><ele>539.5</ele><time>2026-04-06T13:05:06.202Z</time></trkpt><trkpt lat="43.7144916" lon="12.7495683"><ele>538.75</ele><time>2026-04-06T13:05:07.207Z</time></trkpt><trkpt lat="43.7145476" lon="12.749395"><ele>538.0</ele><time>2026-04-06T13:05:08.204Z</time></trkpt><trkpt lat="43.7146001" lon="12.7492414"><ele>540.75</ele><time>2026-04-06T13:05:09.198Z</time></trkpt><trkpt lat="43.7146487" lon="12.7490848"><ele>543.5</ele><time>2026-04-06T13:05:10.203Z</time></trkpt><trkpt lat="43.7146977" lon="12.7489212"><ele>546.25</ele><time>2026-04-06T13:05:11.2Z</time></trkpt><trkpt lat="43.7147466" lon="12.7487781"><ele>549.0</ele><time>2026-04-06T13:05:12.196Z</time></trkpt><trkpt lat="43.7147813" lon="12.7486507"><ele>550.6666666666666</ele><time>2026-04-06T13:05:13.201Z</time></trkpt><trkpt lat="43.7148213" lon="12.7485173"><ele>552.3333333333334</ele><time>2026-04-06T13:05:14.198Z</time></trkpt><trkpt lat="43.7148407" lon="12.7484061"><ele>554.0</ele><time>2026-04-06T13:05:15.203Z</time></trkpt><trkpt lat="43.7148568" lon="12.7482943"><ele>555.6666666666667</ele><time>2026-04-06T13:05:17.192Z</time></trkpt><trkpt lat="43.7148713" lon="12.7481854"><ele>557.3333333333334</ele><time>2026-04-06T13:05:23.22Z</time></trkpt><trkpt lat="43.7148676" lon="12.7480801"><ele>559.0</ele><time>2026-04-06T13:05:25.226Z</time></trkpt><trkpt lat="43.714831" lon="12.7479683"><ele>559.0</ele><time>2026-04-06T13:05:29.21Z</time></trkpt><trkpt lat="43.7148067" lon="12.7478755"><ele>559.0</ele><time>2026-04-06T13:05:31.219Z</time></trkpt><trkpt lat="43.7148432" lon="12.7477665"><ele>559.0</ele><time>2026-04-06T13:05:33.221Z</time></trkpt><trkpt lat="43.7148443" lon="12.7476495"><ele>559.0</ele><time>2026-04-06T13:05:36.234Z</time></trkpt><trkpt lat="43.7148611" lon="12.7475156"><ele>559.0</ele><time>2026-04-06T13:05:38.231Z</time></trkpt><trkpt lat="43.7148925" lon="12.7473831"><ele>559.0</ele><time>2026-04-06T13:05:40.211Z</time></trkpt><trkpt lat="43.7149584" lon="12.7472616"><ele>560.2</ele><time>2026-04-06T13:05:42.204Z</time></trkpt><trkpt lat="43.7150326" lon="12.7471636"><ele>561.4</ele><time>2026-04-06T13:05:44.198Z</time></trkpt><trkpt lat="43.7150086" lon="12.7470277"><ele>562.6</ele><time>2026-04-06T13:05:57.235Z</time></trkpt><trkpt lat="43.7149557" lon="12.7469607"><ele>563.8</ele><time>2026-04-06T13:05:58.211Z</time></trkpt><trkpt lat="43.7148895" lon="12.746888"><ele>565.0</ele><time>2026-04-06T13:05:59.211Z</time></trkpt><trkpt lat="43.7148117" lon="12.746801"><ele>565.6</ele><time>2026-04-06T13:06:00.21Z</time></trkpt><trkpt lat="43.7147372" lon="12.746705"><ele>566.2</ele><time>2026-04-06T13:06:01.205Z</time></trkpt><trkpt lat="43.7146593" lon="12.7466049"><ele>566.8</ele><time>2026-04-06T13:06:02.211Z</time></trkpt><trkpt lat="43.7145835" lon="12.7464963"><ele>567.4</ele><time>2026-04-06T13:06:03.203Z</time></trkpt><trkpt lat="43.7145038" lon="12.7463976"><ele>568.0</ele><time>2026-04-06T13:06:04.207Z</time></trkpt><trkpt lat="43.7144316" lon="12.7462944"><ele>568.0</ele><time>2026-04-06T13:06:05.202Z</time></trkpt><trkpt lat="43.7143699" lon="12.7461796"><ele>568.0</ele><time>2026-04-06T13:06:06.199Z</time></trkpt><trkpt lat="43.7143235" lon="12.7460557"><ele>568.0</ele><time>2026-04-06T13:06:07.202Z</time></trkpt><trkpt lat="43.7142836" lon="12.7459184"><ele>568.0</ele><time>2026-04-06T13:06:08.204Z</time></trkpt><trkpt lat="43.7142444" lon="12.7457686"><ele>568.0</ele><time>2026-04-06T13:06:09.202Z</time></trkpt><trkpt lat="43.7142043" lon="12.7456012"><ele>569.75</ele><time>2026-04-06T13:06:10.198Z</time></trkpt><trkpt lat="43.7141584" lon="12.7454162"><ele>571.5</ele><time>2026-04-06T13:06:11.209Z</time></trkpt><trkpt lat="43.7141055" lon="12.7452155"><ele>573.25</ele><time>2026-04-06T13:06:12.212Z</time></trkpt><trkpt lat="43.7140515" lon="12.7450245"><ele>575.0</ele><time>2026-04-06T13:06:13.21Z</time></trkpt><trkpt lat="43.7140045" lon="12.744848"><ele>575.0</ele><time>2026-04-06T13:06:14.211Z</time></trkpt><trkpt lat="43.7139565" lon="12.7446696"><ele>575.0</ele><time>2026-04-06T13:06:15.213Z</time></trkpt><trkpt lat="43.7139013" lon="12.7444794"><ele>575.0</ele><time>2026-04-06T13:06:16.211Z</time></trkpt><trkpt lat="43.7138466" lon="12.7442681"><ele>575.0</ele><time>2026-04-06T13:06:17.21Z</time></trkpt><trkpt lat="43.7137873" lon="12.7440632"><ele>574.3333333333333</ele><time>2026-04-06T13:06:18.213Z</time></trkpt><trkpt lat="43.7137269" lon="12.7438446"><ele>573.6666666666666</ele><time>2026-04-06T13:06:19.206Z</time></trkpt><trkpt lat="43.7136597" lon="12.7436409"><ele>573.0</ele><time>2026-04-06T13:06:20.218Z</time></trkpt><trkpt lat="43.7136032" lon="12.7434319"><ele>577.6666666666666</ele><time>2026-04-06T13:06:21.209Z</time></trkpt><trkpt lat="43.713545" lon="12.7432281"><ele>582.3333333333333</ele><time>2026-04-06T13:06:22.219Z</time></trkpt><trkpt lat="43.7135008" lon="12.7430254"><ele>587.0</ele><time>2026-04-06T13:06:23.218Z</time></trkpt><trkpt lat="43.7134494" lon="12.7428335"><ele>586.25</ele><time>2026-04-06T13:06:24.215Z</time></trkpt><trkpt lat="43.7134024" lon="12.7426497"><ele>585.5</ele><time>2026-04-06T13:06:25.209Z</time></trkpt><trkpt lat="43.7133431" lon="12.7424955"><ele>584.75</ele><time>2026-04-06T13:06:26.215Z</time></trkpt><trkpt lat="43.7132777" lon="12.7423494"><ele>584.0</ele><time>2026-04-06T13:06:27.225Z</time></trkpt><trkpt lat="43.7132162" lon="12.7422048"><ele>584.0</ele><time>2026-04-06T13:06:28.222Z</time></trkpt><trkpt lat="43.713161" lon="12.742067"><ele>584.0</ele><time>2026-04-06T13:06:29.221Z</time></trkpt><trkpt lat="43.7130518" lon="12.7418207"><ele>584.0</ele><time>2026-04-06T13:06:31.213Z</time></trkpt><trkpt lat="43.7129993" lon="12.7417055"><ele>584.0</ele><time>2026-04-06T13:06:32.217Z</time></trkpt><trkpt lat="43.7129505" lon="12.7415991"><ele>582.8</ele><time>2026-04-06T13:06:33.203Z</time></trkpt><trkpt lat="43.7129023" lon="12.7415014"><ele>581.5999999999999</ele><time>2026-04-06T13:06:34.208Z</time></trkpt><trkpt lat="43.7128542" lon="12.7414039"><ele>580.4</ele><time>2026-04-06T13:06:35.206Z</time></trkpt><trkpt lat="43.7128055" lon="12.7412988"><ele>579.1999999999999</ele><time>2026-04-06T13:06:36.202Z</time></trkpt><trkpt lat="43.7127544" lon="12.7411793"><ele>578.0</ele><time>2026-04-06T13:06:37.201Z</time></trkpt><trkpt lat="43.7126988" lon="12.7410603"><ele>580.1999999999999</ele><time>2026-04-06T13:06:38.201Z</time></trkpt><trkpt lat="43.7126413" lon="12.7409387"><ele>582.4</ele><time>2026-04-06T13:06:39.203Z</time></trkpt><trkpt lat="43.7125859" lon="12.740818"><ele>584.5999999999999</ele><time>2026-04-06T13:06:40.202Z</time></trkpt><trkpt lat="43.712528" lon="12.7407002"><ele>586.8</ele><time>2026-04-06T13:06:41.201Z</time></trkpt><trkpt lat="43.7124707" lon="12.7405833"><ele>589.0</ele><time>2026-04-06T13:06:42.196Z</time></trkpt><trkpt lat="43.7124122" lon="12.7404615"><ele>589.0</ele><time>2026-04-06T13:06:43.2Z</time></trkpt><trkpt lat="43.7123572" lon="12.7403444"><ele>589.0</ele><time>2026-04-06T13:06:44.196Z</time></trkpt><trkpt lat="43.7123043" lon="12.7402399"><ele>589.0</ele><time>2026-04-06T13:06:45.201Z</time></trkpt><trkpt lat="43.7122585" lon="12.7401309"><ele>589.0</ele><time>2026-04-06T13:06:46.199Z</time></trkpt><trkpt lat="43.7122157" lon="12.7400125"><ele>589.0</ele><time>2026-04-06T13:06:47.18Z</time></trkpt><trkpt lat="43.7121635" lon="12.7398829"><ele>588.5</ele><time>2026-04-06T13:06:48.182Z</time></trkpt><trkpt lat="43.7121032" lon="12.7397429"><ele>588.0</ele><time>2026-04-06T13:06:49.201Z</time></trkpt><trkpt lat="43.7120239" lon="12.7395742"><ele>587.5</ele><time>2026-04-06T13:06:50.191Z</time></trkpt><trkpt lat="43.7119166" lon="12.739365"><ele>587.0</ele><time>2026-04-06T13:06:51.191Z</time></trkpt><trkpt lat="43.7117935" lon="12.7391228"><ele>588.6666666666666</ele><time>2026-04-06T13:06:52.193Z</time></trkpt><trkpt lat="43.7116725" lon="12.7388985"><ele>590.3333333333334</ele><time>2026-04-06T13:06:53.2Z</time></trkpt><trkpt lat="43.711564" lon="12.7386934"><ele>592.0</ele><time>2026-04-06T13:06:54.2Z</time></trkpt><trkpt lat="43.7114635" lon="12.738506"><ele>587.0</ele><time>2026-04-06T13:06:55.198Z</time></trkpt><trkpt lat="43.7113704" lon="12.738327"><ele>582.0</ele><time>2026-04-06T13:06:56.191Z</time></trkpt><trkpt lat="43.7112846" lon="12.7381498"><ele>577.0</ele><time>2026-04-06T13:06:57.195Z</time></trkpt><trkpt lat="43.7112218" lon="12.7379535"><ele>572.6666666666667</ele><time>2026-04-06T13:06:58.203Z</time></trkpt><trkpt lat="43.7111968" lon="12.7377148"><ele>568.3333333333334</ele><time>2026-04-06T13:06:59.194Z</time></trkpt><trkpt lat="43.7111889" lon="12.7374841"><ele>564.0</ele><time>2026-04-06T13:07:00.2Z</time></trkpt><trkpt lat="43.7111913" lon="12.737264"><ele>564.0</ele><time>2026-04-06T13:07:01.198Z</time></trkpt><trkpt lat="43.7111905" lon="12.7370478"><ele>564.0</ele><time>2026-04-06T13:07:02.195Z</time></trkpt><trkpt lat="43.7112053" lon="12.7368328"><ele>564.0</ele><time>2026-04-06T13:07:03.188Z</time></trkpt><trkpt lat="43.7112646" lon="12.7366164"><ele>565.0</ele><time>2026-04-06T13:07:04.187Z</time></trkpt><trkpt lat="43.7113294" lon="12.7364049"><ele>566.0</ele><time>2026-04-06T13:07:05.193Z</time></trkpt><trkpt lat="43.7114242" lon="12.7362112"><ele>567.0</ele><time>2026-04-06T13:07:06.197Z</time></trkpt><trkpt lat="43.7115359" lon="12.7360928"><ele>566.3333333333334</ele><time>2026-04-06T13:07:07.198Z</time></trkpt><trkpt lat="43.7117874" lon="12.7360015"><ele>565.6666666666667</ele><time>2026-04-06T13:07:09.188Z</time></trkpt><trkpt lat="43.7119479" lon="12.7360349"><ele>565.0</ele><time>2026-04-06T13:07:10.18Z</time></trkpt><trkpt lat="43.7121028" lon="12.7360778"><ele>565.0</ele><time>2026-04-06T13:07:11.186Z</time></trkpt><trkpt lat="43.712273" lon="12.736104"><ele>565.0</ele><time>2026-04-06T13:07:12.198Z</time></trkpt><trkpt lat="43.7124386" lon="12.7361314"><ele>565.0</ele><time>2026-04-06T13:07:13.195Z</time></trkpt><trkpt lat="43.712604" lon="12.7361745"><ele>565.3333333333334</ele><time>2026-04-06T13:07:14.186Z</time></trkpt><trkpt lat="43.7127772" lon="12.7361893"><ele>565.6666666666666</ele><time>2026-04-06T13:07:15.194Z</time></trkpt><trkpt lat="43.7129527" lon="12.7361994"><ele>566.0</ele><time>2026-04-06T13:07:16.19Z</time></trkpt><trkpt lat="43.7131286" lon="12.7361915"><ele>566.0</ele><time>2026-04-06T13:07:17.194Z</time></trkpt><trkpt lat="43.7133039" lon="12.736202"><ele>566.0</ele><time>2026-04-06T13:07:18.204Z</time></trkpt><trkpt lat="43.7134811" lon="12.7362321"><ele>566.0</ele><time>2026-04-06T13:07:19.196Z</time></trkpt><trkpt lat="43.7136668" lon="12.7362745"><ele>568.0</ele><time>2026-04-06T13:07:20.192Z</time></trkpt><trkpt lat="43.7138395" lon="12.7363443"><ele>570.0</ele><time>2026-04-06T13:07:21.187Z</time></trkpt><trkpt lat="43.714209" lon="12.7364387"><ele>570.0</ele><time>2026-04-06T13:07:23.181Z</time></trkpt><trkpt lat="43.7143758" lon="12.7364709"><ele>570.0</ele><time>2026-04-06T13:07:24.183Z</time></trkpt><trkpt lat="43.7145293" lon="12.7364907"><ele>570.0</ele><time>2026-04-06T13:07:25.182Z</time></trkpt><trkpt lat="43.7146708" lon="12.7364901"><ele>569.25</ele><time>2026-04-06T13:07:26.197Z</time></trkpt><trkpt lat="43.7147972" lon="12.7364685"><ele>568.5</ele><time>2026-04-06T13:07:27.183Z</time></trkpt><trkpt lat="43.7149215" lon="12.7363856"><ele>567.75</ele><time>2026-04-06T13:07:28.205Z</time></trkpt><trkpt lat="43.7149907" lon="12.736302"><ele>567.0</ele><time>2026-04-06T13:07:29.201Z</time></trkpt><trkpt lat="43.7150253" lon="12.7361795"><ele>567.0</ele><time>2026-04-06T13:07:30.208Z</time></trkpt><trkpt lat="43.7150143" lon="12.7360886"><ele>567.0</ele><time>2026-04-06T13:07:31.198Z</time></trkpt><trkpt lat="43.7149853" lon="12.7359144"><ele>567.0</ele><time>2026-04-06T13:07:32.2Z</time></trkpt><trkpt lat="43.714939" lon="12.7357044"><ele>567.0</ele><time>2026-04-06T13:07:33.188Z</time></trkpt><trkpt lat="43.7148405" lon="12.7354855"><ele>567.3333333333334</ele><time>2026-04-06T13:07:34.191Z</time></trkpt><trkpt lat="43.7147311" lon="12.7352801"><ele>567.6666666666667</ele><time>2026-04-06T13:07:35.198Z</time></trkpt><trkpt lat="43.7146306" lon="12.7350689"><ele>568.0</ele><time>2026-04-06T13:07:36.195Z</time></trkpt><trkpt lat="43.7145505" lon="12.734854"><ele>568.0</ele><time>2026-04-06T13:07:37.193Z</time></trkpt><trkpt lat="43.7144606" lon="12.7346407"><ele>568.0</ele><time>2026-04-06T13:07:38.192Z</time></trkpt><trkpt lat="43.7143611" lon="12.7344626"><ele>568.0</ele><time>2026-04-06T13:07:39.181Z</time></trkpt><trkpt lat="43.7142633" lon="12.7342902"><ele>571.6666666666667</ele><time>2026-04-06T13:07:40.187Z</time></trkpt><trkpt lat="43.7141573" lon="12.7341095"><ele>575.3333333333334</ele><time>2026-04-06T13:07:41.185Z</time></trkpt><trkpt lat="43.7140895" lon="12.7339005"><ele>579.0</ele><time>2026-04-06T13:07:42.182Z</time></trkpt><trkpt lat="43.7140404" lon="12.733691"><ele>575.6666666666666</ele><time>2026-04-06T13:07:43.184Z</time></trkpt><trkpt lat="43.7139934" lon="12.7334705"><ele>572.3333333333333</ele><time>2026-04-06T13:07:44.183Z</time></trkpt><trkpt lat="43.7139393" lon="12.7332505"><ele>569.0</ele><time>2026-04-06T13:07:45.189Z</time></trkpt><trkpt lat="43.7138926" lon="12.733032"><ele>569.0</ele><time>2026-04-06T13:07:46.179Z</time></trkpt><trkpt lat="43.713846" lon="12.73281"><ele>569.0</ele><time>2026-04-06T13:07:47.194Z</time></trkpt><trkpt lat="43.7137982" lon="12.7325894"><ele>569.0</ele><time>2026-04-06T13:07:48.189Z</time></trkpt><trkpt lat="43.7137493" lon="12.7323795"><ele>568.5</ele><time>2026-04-06T13:07:49.189Z</time></trkpt><trkpt lat="43.7137138" lon="12.732178"><ele>568.0</ele><time>2026-04-06T13:07:50.206Z</time></trkpt><trkpt lat="43.7136917" lon="12.731986"><ele>567.5</ele><time>2026-04-06T13:07:51.201Z</time></trkpt><trkpt lat="43.7137002" lon="12.7317841"><ele>567.0</ele><time>2026-04-06T13:07:52.196Z</time></trkpt><trkpt lat="43.7137152" lon="12.7315673"><ele>567.0</ele><time>2026-04-06T13:07:53.197Z</time></trkpt><trkpt lat="43.7137318" lon="12.7313399"><ele>567.0</ele><time>2026-04-06T13:07:54.199Z</time></trkpt><trkpt lat="43.7137404" lon="12.7311096"><ele>567.0</ele><time>2026-04-06T13:07:55.199Z</time></trkpt><trkpt lat="43.7137592" lon="12.7308851"><ele>566.0</ele><time>2026-04-06T13:07:56.198Z</time></trkpt><trkpt lat="43.7137932" lon="12.7306758"><ele>565.0</ele><time>2026-04-06T13:07:57.202Z</time></trkpt><trkpt lat="43.7138702" lon="12.7304801"><ele>564.0</ele><time>2026-04-06T13:07:58.189Z</time></trkpt><trkpt lat="43.7139785" lon="12.730293"><ele>565.0</ele><time>2026-04-06T13:07:59.191Z</time></trkpt><trkpt lat="43.7141087" lon="12.7301119"><ele>566.0</ele><time>2026-04-06T13:08:00.195Z</time></trkpt><trkpt lat="43.7141967" lon="12.7299402"><ele>567.0</ele><time>2026-04-06T13:08:01.193Z</time></trkpt><trkpt lat="43.7142842" lon="12.7297987"><ele>567.0</ele><time>2026-04-06T13:08:02.198Z</time></trkpt><trkpt lat="43.7143759" lon="12.7296775"><ele>567.0</ele><time>2026-04-06T13:08:03.198Z</time></trkpt><trkpt lat="43.7144972" lon="12.7296008"><ele>567.0</ele><time>2026-04-06T13:08:04.2Z</time></trkpt><trkpt lat="43.7146358" lon="12.7295746"><ele>567.0</ele><time>2026-04-06T13:08:05.202Z</time></trkpt><trkpt lat="43.7147863" lon="12.7295786"><ele>565.0</ele><time>2026-04-06T13:08:06.191Z</time></trkpt><trkpt lat="43.7149424" lon="12.7295637"><ele>563.0</ele><time>2026-04-06T13:08:07.195Z</time></trkpt><trkpt lat="43.7150876" lon="12.7295628"><ele>561.0</ele><time>2026-04-06T13:08:08.191Z</time></trkpt><trkpt lat="43.7152229" lon="12.7295606"><ele>559.0</ele><time>2026-04-06T13:08:09.183Z</time></trkpt><trkpt lat="43.715338" lon="12.7295378"><ele>558.5</ele><time>2026-04-06T13:08:10.194Z</time></trkpt><trkpt lat="43.7154426" lon="12.7294301"><ele>558.0</ele><time>2026-04-06T13:08:11.192Z</time></trkpt><trkpt lat="43.7155308" lon="12.7292849"><ele>557.5</ele><time>2026-04-06T13:08:12.192Z</time></trkpt><trkpt lat="43.7155987" lon="12.7291043"><ele>557.0</ele><time>2026-04-06T13:08:13.191Z</time></trkpt><trkpt lat="43.7156491" lon="12.7289073"><ele>560.0</ele><time>2026-04-06T13:08:14.187Z</time></trkpt><trkpt lat="43.7156727" lon="12.7287093"><ele>563.0</ele><time>2026-04-06T13:08:15.19Z</time></trkpt><trkpt lat="43.7157156" lon="12.7285421"><ele>566.0</ele><time>2026-04-06T13:08:16.194Z</time></trkpt><trkpt lat="43.7158367" lon="12.728407"><ele>569.0</ele><time>2026-04-06T13:08:17.193Z</time></trkpt><trkpt lat="43.715964" lon="12.7282759"><ele>565.75</ele><time>2026-04-06T13:08:18.194Z</time></trkpt><trkpt lat="43.716073" lon="12.7281443"><ele>562.5</ele><time>2026-04-06T13:08:19.194Z</time></trkpt><trkpt lat="43.7161404" lon="12.7279686"><ele>559.25</ele><time>2026-04-06T13:08:20.197Z</time></trkpt><trkpt lat="43.7161633" lon="12.7277763"><ele>556.0</ele><time>2026-04-06T13:08:21.196Z</time></trkpt><trkpt lat="43.7161272" lon="12.7275732"><ele>562.3333333333334</ele><time>2026-04-06T13:08:22.19Z</time></trkpt><trkpt lat="43.7160573" lon="12.7273809"><ele>568.6666666666666</ele><time>2026-04-06T13:08:23.192Z</time></trkpt><trkpt lat="43.7159425" lon="12.7271966"><ele>575.0</ele><time>2026-04-06T13:08:24.188Z</time></trkpt><trkpt lat="43.7158069" lon="12.7270587"><ele>575.0</ele><time>2026-04-06T13:08:25.179Z</time></trkpt><trkpt lat="43.7156692" lon="12.7269177"><ele>575.0</ele><time>2026-04-06T13:08:26.192Z</time></trkpt><trkpt lat="43.715545" lon="12.7267701"><ele>575.0</ele><time>2026-04-06T13:08:27.194Z</time></trkpt><trkpt lat="43.7154311" lon="12.7266396"><ele>575.5</ele><time>2026-04-06T13:08:28.191Z</time></trkpt><trkpt lat="43.7153346" lon="12.7265115"><ele>576.0</ele><time>2026-04-06T13:08:29.195Z</time></trkpt><trkpt lat="43.715244" lon="12.7263823"><ele>576.5</ele><time>2026-04-06T13:08:30.196Z</time></trkpt><trkpt lat="43.7151732" lon="12.7262461"><ele>577.0</ele><time>2026-04-06T13:08:31.185Z</time></trkpt><trkpt lat="43.7151145" lon="12.7261075"><ele>574.6666666666667</ele><time>2026-04-06T13:08:32.2Z</time></trkpt><trkpt lat="43.7150678" lon="12.7259403"><ele>572.3333333333334</ele><time>2026-04-06T13:08:33.189Z</time></trkpt><trkpt lat="43.7150078" lon="12.7257318"><ele>570.0</ele><time>2026-04-06T13:08:34.198Z</time></trkpt><trkpt lat="43.7149683" lon="12.7255073"><ele>570.0</ele><time>2026-04-06T13:08:35.198Z</time></trkpt><trkpt lat="43.7149426" lon="12.725259"><ele>570.0</ele><time>2026-04-06T13:08:36.202Z</time></trkpt><trkpt lat="43.7149" lon="12.72501"><ele>570.0</ele><time>2026-04-06T13:08:37.191Z</time></trkpt><trkpt lat="43.7148502" lon="12.7247461"><ele>571.0</ele><time>2026-04-06T13:08:38.194Z</time></trkpt><trkpt lat="43.7147786" lon="12.7244781"><ele>572.0</ele><time>2026-04-06T13:08:39.188Z</time></trkpt><trkpt lat="43.7146936" lon="12.7242237"><ele>573.0</ele><time>2026-04-06T13:08:40.191Z</time></trkpt><trkpt lat="43.7146074" lon="12.7239969"><ele>574.6666666666666</ele><time>2026-04-06T13:08:41.192Z</time></trkpt><trkpt lat="43.7145498" lon="12.7237647"><ele>576.3333333333333</ele><time>2026-04-06T13:08:42.188Z</time></trkpt><trkpt lat="43.7145166" lon="12.7235289"><ele>578.0</ele><time>2026-04-06T13:08:43.184Z</time></trkpt><trkpt lat="43.7145405" lon="12.7232798"><ele>578.0</ele><time>2026-04-06T13:08:44.205Z</time></trkpt><trkpt lat="43.7146135" lon="12.7230255"><ele>578.0</ele><time>2026-04-06T13:08:45.199Z</time></trkpt><trkpt lat="43.7146596" lon="12.7227718"><ele>578.0</ele><time>2026-04-06T13:08:46.208Z</time></trkpt><trkpt lat="43.7146961" lon="12.7225343"><ele>577.5</ele><time>2026-04-06T13:08:47.205Z</time></trkpt><trkpt lat="43.7147373" lon="12.7223173"><ele>577.0</ele><time>2026-04-06T13:08:48.21Z</time></trkpt><trkpt lat="43.7147832" lon="12.7221405"><ele>576.5</ele><time>2026-04-06T13:08:49.207Z</time></trkpt><trkpt lat="43.7148562" lon="12.7220091"><ele>576.0</ele><time>2026-04-06T13:08:50.202Z</time></trkpt><trkpt lat="43.7149742" lon="12.7219353"><ele>575.0</ele><time>2026-04-06T13:08:51.199Z</time></trkpt><trkpt lat="43.7151149" lon="12.7218894"><ele>574.0</ele><time>2026-04-06T13:08:52.193Z</time></trkpt><trkpt lat="43.7152565" lon="12.7218171"><ele>573.0</ele><time>2026-04-06T13:08:53.195Z</time></trkpt><trkpt lat="43.7153726" lon="12.721685"><ele>572.0</ele><time>2026-04-06T13:08:54.198Z</time></trkpt><trkpt lat="43.7154655" lon="12.7214959"><ele>572.0</ele><time>2026-04-06T13:08:55.199Z</time></trkpt><trkpt lat="43.7155258" lon="12.7212711"><ele>572.0</ele><time>2026-04-06T13:08:56.206Z</time></trkpt><trkpt lat="43.715573" lon="12.7210075"><ele>572.0</ele><time>2026-04-06T13:08:57.199Z</time></trkpt><trkpt lat="43.7156162" lon="12.7207274"><ele>570.6666666666666</ele><time>2026-04-06T13:08:58.198Z</time></trkpt><trkpt lat="43.7156357" lon="12.7204409"><ele>569.3333333333334</ele><time>2026-04-06T13:08:59.198Z</time></trkpt><trkpt lat="43.7156782" lon="12.7201638"><ele>568.0</ele><time>2026-04-06T13:09:00.198Z</time></trkpt><trkpt lat="43.7157273" lon="12.7199053"><ele>566.0</ele><time>2026-04-06T13:09:01.203Z</time></trkpt><trkpt lat="43.7157607" lon="12.7196681"><ele>564.0</ele><time>2026-04-06T13:09:02.206Z</time></trkpt><trkpt lat="43.7157854" lon="12.7194255"><ele>562.0</ele><time>2026-04-06T13:09:03.202Z</time></trkpt><trkpt lat="43.7158142" lon="12.7191947"><ele>562.0</ele><time>2026-04-06T13:09:04.201Z</time></trkpt><trkpt lat="43.715845" lon="12.7189711"><ele>562.0</ele><time>2026-04-06T13:09:05.2Z</time></trkpt><trkpt lat="43.7158845" lon="12.7187559"><ele>562.0</ele><time>2026-04-06T13:09:06.2Z</time></trkpt><trkpt lat="43.7159194" lon="12.7185369"><ele>562.0</ele><time>2026-04-06T13:09:07.199Z</time></trkpt><trkpt lat="43.7159502" lon="12.7183167"><ele>562.0</ele><time>2026-04-06T13:09:08.199Z</time></trkpt><trkpt lat="43.7159718" lon="12.7181063"><ele>562.0</ele><time>2026-04-06T13:09:09.198Z</time></trkpt><trkpt lat="43.7160039" lon="12.7178959"><ele>561.0</ele><time>2026-04-06T13:09:10.197Z</time></trkpt><trkpt lat="43.7160401" lon="12.7176794"><ele>560.0</ele><time>2026-04-06T13:09:11.196Z</time></trkpt><trkpt lat="43.7160645" lon="12.7174696"><ele>559.0</ele><time>2026-04-06T13:09:12.198Z</time></trkpt><trkpt lat="43.7160864" lon="12.7172713"><ele>558.6</ele><time>2026-04-06T13:09:13.195Z</time></trkpt><trkpt lat="43.7161194" lon="12.7170993"><ele>558.2</ele><time>2026-04-06T13:09:14.195Z</time></trkpt><trkpt lat="43.7161394" lon="12.7169367"><ele>557.8000000000001</ele><time>2026-04-06T13:09:15.198Z</time></trkpt><trkpt lat="43.7161632" lon="12.7168139"><ele>557.4</ele><time>2026-04-06T13:09:16.2Z</time></trkpt><trkpt lat="43.7161805" lon="12.7166846"><ele>557.0</ele><time>2026-04-06T13:09:18.201Z</time></trkpt><trkpt lat="43.7161124" lon="12.7166374"><ele>557.25</ele><time>2026-04-06T13:09:22.217Z</time></trkpt><trkpt lat="43.7160103" lon="12.7167627"><ele>557.5</ele><time>2026-04-06T13:09:24.192Z</time></trkpt><trkpt lat="43.7159155" lon="12.7168373"><ele>557.75</ele><time>2026-04-06T13:09:26.19Z</time></trkpt><trkpt lat="43.7158445" lon="12.716878"><ele>558.0</ele><time>2026-04-06T13:09:28.211Z</time></trkpt><trkpt lat="43.7157763" lon="12.7167164"><ele>558.0</ele><time>2026-04-06T13:09:31.189Z</time></trkpt><trkpt lat="43.7157279" lon="12.7166085"><ele>558.0</ele><time>2026-04-06T13:09:32.195Z</time></trkpt><trkpt lat="43.7156751" lon="12.7165004"><ele>558.0</ele><time>2026-04-06T13:09:33.194Z</time></trkpt><trkpt lat="43.7156385" lon="12.7164138"><ele>558.0</ele><time>2026-04-06T13:09:34.196Z</time></trkpt><trkpt lat="43.7156017" lon="12.716338"><ele>558.0</ele><time>2026-04-06T13:09:35.192Z</time></trkpt><trkpt lat="43.7155096" lon="12.7162493"><ele>558.0</ele><time>2026-04-06T13:09:37.194Z</time></trkpt><trkpt lat="43.7154134" lon="12.7162147"><ele>558.0</ele><time>2026-04-06T13:09:39.196Z</time></trkpt><trkpt lat="43.7153544" lon="12.7161837"><ele>558.0</ele><time>2026-04-06T13:09:40.18Z</time></trkpt><trkpt lat="43.7152734" lon="12.7161507"><ele>558.0</ele><time>2026-04-06T13:09:41.191Z</time></trkpt><trkpt lat="43.7151917" lon="12.7161093"><ele>558.0</ele><time>2026-04-06T13:09:42.199Z</time></trkpt><trkpt lat="43.7151041" lon="12.7160797"><ele>558.0</ele><time>2026-04-06T13:09:43.192Z</time></trkpt><trkpt lat="43.7150166" lon="12.7160221"><ele>558.0</ele><time>2026-04-06T13:09:44.197Z</time></trkpt><trkpt lat="43.7149396" lon="12.7159654"><ele>557.5</ele><time>2026-04-06T13:09:45.198Z</time></trkpt><trkpt lat="43.7148631" lon="12.7159104"><ele>557.0</ele><time>2026-04-06T13:09:46.197Z</time></trkpt><trkpt lat="43.7147955" lon="12.7158581"><ele>556.5</ele><time>2026-04-06T13:09:47.197Z</time></trkpt><trkpt lat="43.7147369" lon="12.7158107"><ele>556.0</ele><time>2026-04-06T13:09:48.203Z</time></trkpt><trkpt lat="43.7146804" lon="12.7157642"><ele>555.5</ele><time>2026-04-06T13:09:49.201Z</time></trkpt><trkpt lat="43.7145932" lon="12.7156997"><ele>555.0</ele><time>2026-04-06T13:09:51.199Z</time></trkpt><trkpt lat="43.7145372" lon="12.7156387"><ele>555.0</ele><time>2026-04-06T13:09:53.21Z</time></trkpt><trkpt lat="43.7144694" lon="12.7155705"><ele>555.0</ele><time>2026-04-06T13:09:55.208Z</time></trkpt><trkpt lat="43.7143804" lon="12.7154789"><ele>555.0</ele><time>2026-04-06T13:09:57.191Z</time></trkpt><trkpt lat="43.7142843" lon="12.7153584"><ele>555.0</ele><time>2026-04-06T13:09:59.195Z</time></trkpt><trkpt lat="43.7142332" lon="12.7152718"><ele>555.0</ele><time>2026-04-06T13:10:00.186Z</time></trkpt><trkpt lat="43.7141818" lon="12.7151783"><ele>553.8</ele><time>2026-04-06T13:10:01.185Z</time></trkpt><trkpt lat="43.7141276" lon="12.7150995"><ele>552.6</ele><time>2026-04-06T13:10:02.188Z</time></trkpt><trkpt lat="43.714049" lon="12.7150308"><ele>551.4</ele><time>2026-04-06T13:10:03.181Z</time></trkpt><trkpt lat="43.7139623" lon="12.714955"><ele>550.2</ele><time>2026-04-06T13:10:04.185Z</time></trkpt><trkpt lat="43.7138827" lon="12.7148955"><ele>549.0</ele><time>2026-04-06T13:10:05.187Z</time></trkpt><trkpt lat="43.7138118" lon="12.7148295"><ele>549.0</ele><time>2026-04-06T13:10:06.19Z</time></trkpt><trkpt lat="43.7137414" lon="12.7147526"><ele>549.0</ele><time>2026-04-06T13:10:07.187Z</time></trkpt><trkpt lat="43.7136714" lon="12.7146664"><ele>549.0</ele><time>2026-04-06T13:10:08.19Z</time></trkpt><trkpt lat="43.7136106" lon="12.7145799"><ele>549.0</ele><time>2026-04-06T13:10:09.189Z</time></trkpt><trkpt lat="43.7135612" lon="12.7144856"><ele>549.0</ele><time>2026-04-06T13:10:10.186Z</time></trkpt><trkpt lat="43.7135097" lon="12.7143892"><ele>549.0</ele><time>2026-04-06T13:10:11.188Z</time></trkpt><trkpt lat="43.7134587" lon="12.7142761"><ele>546.4</ele><time>2026-04-06T13:10:12.189Z</time></trkpt><trkpt lat="43.7134077" lon="12.7141529"><ele>543.8</ele><time>2026-04-06T13:10:13.181Z</time></trkpt><trkpt lat="43.7133688" lon="12.7140146"><ele>541.2</ele><time>2026-04-06T13:10:14.189Z</time></trkpt><trkpt lat="43.7133315" lon="12.7138671"><ele>538.6</ele><time>2026-04-06T13:10:15.192Z</time></trkpt><trkpt lat="43.7132866" lon="12.7137254"><ele>536.0</ele><time>2026-04-06T13:10:16.188Z</time></trkpt><trkpt lat="43.7132423" lon="12.7135876"><ele>537.2</ele><time>2026-04-06T13:10:17.191Z</time></trkpt><trkpt lat="43.7132013" lon="12.7134499"><ele>538.4000000000001</ele><time>2026-04-06T13:10:18.192Z</time></trkpt><trkpt lat="43.7131528" lon="12.7133063"><ele>539.6</ele><time>2026-04-06T13:10:19.183Z</time></trkpt><trkpt lat="43.7130986" lon="12.7131913"><ele>540.8000000000001</ele><time>2026-04-06T13:10:20.191Z</time></trkpt><trkpt lat="43.7130415" lon="12.7131012"><ele>542.0</ele><time>2026-04-06T13:10:21.187Z</time></trkpt><trkpt lat="43.713" lon="12.7130164"><ele>542.0</ele><time>2026-04-06T13:10:22.183Z</time></trkpt><trkpt lat="43.7129774" lon="12.7129317"><ele>542.0</ele><time>2026-04-06T13:10:23.184Z</time></trkpt><trkpt lat="43.7129613" lon="12.7128193"><ele>542.0</ele><time>2026-04-06T13:10:24.187Z</time></trkpt><trkpt lat="43.7129542" lon="12.7126604"><ele>542.0</ele><time>2026-04-06T13:10:25.186Z</time></trkpt><trkpt lat="43.71294" lon="12.7125278"><ele>542.0</ele><time>2026-04-06T13:10:26.191Z</time></trkpt><trkpt lat="43.71292" lon="12.7124117"><ele>542.0</ele><time>2026-04-06T13:10:27.18Z</time></trkpt><trkpt lat="43.7129023" lon="12.7123028"><ele>541.3333333333333</ele><time>2026-04-06T13:10:28.176Z</time></trkpt><trkpt lat="43.7128903" lon="12.7122085"><ele>540.6666666666666</ele><time>2026-04-06T13:10:29.189Z</time></trkpt><trkpt lat="43.7128865" lon="12.712118"><ele>540.0</ele><time>2026-04-06T13:10:30.179Z</time></trkpt><trkpt lat="43.7129077" lon="12.7120206"><ele>539.3333333333334</ele><time>2026-04-06T13:10:31.18Z</time></trkpt><trkpt lat="43.7129457" lon="12.7119192"><ele>538.6666666666667</ele><time>2026-04-06T13:10:32.188Z</time></trkpt><trkpt lat="43.71298" lon="12.7118389"><ele>538.0</ele><time>2026-04-06T13:10:33.181Z</time></trkpt><trkpt lat="43.7130388" lon="12.7117186"><ele>536.0</ele><time>2026-04-06T13:10:35.197Z</time></trkpt><trkpt lat="43.7130656" lon="12.7116384"><ele>534.0</ele><time>2026-04-06T13:10:37.201Z</time></trkpt><trkpt lat="43.7129761" lon="12.7115631"><ele>532.0</ele><time>2026-04-06T13:10:40.209Z</time></trkpt><trkpt lat="43.7128898" lon="12.7115618"><ele>530.0</ele><time>2026-04-06T13:10:42.207Z</time></trkpt><trkpt lat="43.7127891" lon="12.7116298"><ele>528.0</ele><time>2026-04-06T13:10:44.186Z</time></trkpt><trkpt lat="43.7127088" lon="12.7117278"><ele>525.8333333333334</ele><time>2026-04-06T13:10:46.188Z</time></trkpt><trkpt lat="43.7126312" lon="12.7118577"><ele>523.6666666666666</ele><time>2026-04-06T13:10:48.194Z</time></trkpt><trkpt lat="43.7125919" lon="12.7119532"><ele>521.5</ele><time>2026-04-06T13:10:49.181Z</time></trkpt><trkpt lat="43.7125573" lon="12.7120487"><ele>519.3333333333333</ele><time>2026-04-06T13:10:50.184Z</time></trkpt><trkpt lat="43.7125216" lon="12.7121388"><ele>517.1666666666666</ele><time>2026-04-06T13:10:51.187Z</time></trkpt><trkpt lat="43.7124907" lon="12.7122252"><ele>515.0</ele><time>2026-04-06T13:10:52.188Z</time></trkpt><trkpt lat="43.7124639" lon="12.7123173"><ele>515.0</ele><time>2026-04-06T13:10:53.18Z</time></trkpt><trkpt lat="43.7124367" lon="12.7124118"><ele>515.0</ele><time>2026-04-06T13:10:54.187Z</time></trkpt><trkpt lat="43.7124061" lon="12.7125251"><ele>515.0</ele><time>2026-04-06T13:10:55.183Z</time></trkpt><trkpt lat="43.7123781" lon="12.7126355"><ele>515.0</ele><time>2026-04-06T13:10:56.18Z</time></trkpt><trkpt lat="43.7123569" lon="12.7127312"><ele>515.0</ele><time>2026-04-06T13:10:57.181Z</time></trkpt><trkpt lat="43.7123251" lon="12.7128816"><ele>515.0</ele><time>2026-04-06T13:10:59.189Z</time></trkpt><trkpt lat="43.7123128" lon="12.7130141"><ele>515.1666666666666</ele><time>2026-04-06T13:11:01.172Z</time></trkpt><trkpt lat="43.7123499" lon="12.71314"><ele>515.3333333333333</ele><time>2026-04-06T13:11:03.179Z</time></trkpt><trkpt lat="43.7124048" lon="12.7132163"><ele>515.5</ele><time>2026-04-06T13:11:04.182Z</time></trkpt><trkpt lat="43.7124439" lon="12.7133025"><ele>515.6666666666666</ele><time>2026-04-06T13:11:05.176Z</time></trkpt><trkpt lat="43.712462" lon="12.71339"><ele>515.8333333333334</ele><time>2026-04-06T13:11:06.176Z</time></trkpt><trkpt lat="43.7124394" lon="12.7135248"><ele>516.0</ele><time>2026-04-06T13:11:08.175Z</time></trkpt><trkpt lat="43.7123626" lon="12.7135288"><ele>516.0</ele><time>2026-04-06T13:11:11.196Z</time></trkpt><trkpt lat="43.7123255" lon="12.7134041"><ele>516.0</ele><time>2026-04-06T13:11:14.186Z</time></trkpt><trkpt lat="43.7123009" lon="12.7133138"><ele>516.0</ele><time>2026-04-06T13:11:15.169Z</time></trkpt><trkpt lat="43.7122654" lon="12.7132406"><ele>516.0</ele><time>2026-04-06T13:11:16.17Z</time></trkpt><trkpt lat="43.7121846" lon="12.7131125"><ele>516.0</ele><time>2026-04-06T13:11:18.177Z</time></trkpt><trkpt lat="43.7121533" lon="12.713033"><ele>516.0</ele><time>2026-04-06T13:11:19.175Z</time></trkpt><trkpt lat="43.7121313" lon="12.7129367"><ele>515.9999999999999</ele><time>2026-04-06T13:11:20.169Z</time></trkpt><trkpt lat="43.7120956" lon="12.7128437"><ele>516.0</ele><time>2026-04-06T13:11:21.171Z</time></trkpt><trkpt lat="43.7120641" lon="12.7127498"><ele>516.0</ele><time>2026-04-06T13:11:22.171Z</time></trkpt><trkpt lat="43.7120377" lon="12.7126499"><ele>516.0</ele><time>2026-04-06T13:11:23.169Z</time></trkpt><trkpt lat="43.7120308" lon="12.7125433"><ele>516.0</ele><time>2026-04-06T13:11:24.175Z</time></trkpt><trkpt lat="43.7120236" lon="12.7124424"><ele>515.9999999999999</ele><time>2026-04-06T13:11:25.171Z</time></trkpt><trkpt lat="43.7120217" lon="12.7123475"><ele>516.0</ele><time>2026-04-06T13:11:26.175Z</time></trkpt><trkpt lat="43.7120239" lon="12.7122483"><ele>515.8</ele><time>2026-04-06T13:11:27.177Z</time></trkpt><trkpt lat="43.712022" lon="12.7121485"><ele>515.6</ele><time>2026-04-06T13:11:28.167Z</time></trkpt><trkpt lat="43.7120287" lon="12.7119866"><ele>515.4</ele><time>2026-04-06T13:11:30.169Z</time></trkpt><trkpt lat="43.7120267" lon="12.711821"><ele>515.2</ele><time>2026-04-06T13:11:32.163Z</time></trkpt><trkpt lat="43.7120212" lon="12.711673"><ele>515.0</ele><time>2026-04-06T13:11:34.163Z</time></trkpt><trkpt lat="43.7120095" lon="12.7115339"><ele>514.5</ele><time>2026-04-06T13:11:36.163Z</time></trkpt><trkpt lat="43.7120183" lon="12.7113804"><ele>514.0</ele><time>2026-04-06T13:11:38.163Z</time></trkpt><trkpt lat="43.7120319" lon="12.7112922"><ele>513.5</ele><time>2026-04-06T13:11:39.159Z</time></trkpt><trkpt lat="43.712042" lon="12.7112024"><ele>513.0</ele><time>2026-04-06T13:11:40.163Z</time></trkpt><trkpt lat="43.7120576" lon="12.711052"><ele>512.5</ele><time>2026-04-06T13:11:42.16Z</time></trkpt><trkpt lat="43.7120571" lon="12.7109189"><ele>512.0</ele><time>2026-04-06T13:11:44.161Z</time></trkpt><trkpt lat="43.7119946" lon="12.7108497"><ele>510.16666666666663</ele><time>2026-04-06T13:11:47.188Z</time></trkpt><trkpt lat="43.7119336" lon="12.710884"><ele>508.3333333333333</ele><time>2026-04-06T13:11:49.184Z</time></trkpt><trkpt lat="43.7118587" lon="12.7109473"><ele>506.5</ele><time>2026-04-06T13:11:51.184Z</time></trkpt><trkpt lat="43.711794" lon="12.7109837"><ele>504.66666666666663</ele><time>2026-04-06T13:11:53.188Z</time></trkpt><trkpt lat="43.7116893" lon="12.7110037"><ele>502.8333333333333</ele><time>2026-04-06T13:11:55.166Z</time></trkpt><trkpt lat="43.7115826" lon="12.7110221"><ele>501.0</ele><time>2026-04-06T13:11:57.172Z</time></trkpt><trkpt lat="43.7114758" lon="12.7110384"><ele>498.8</ele><time>2026-04-06T13:11:59.178Z</time></trkpt><trkpt lat="43.711374" lon="12.7110791"><ele>496.6</ele><time>2026-04-06T13:12:01.167Z</time></trkpt><trkpt lat="43.7112839" lon="12.7111628"><ele>494.4</ele><time>2026-04-06T13:12:03.173Z</time></trkpt><trkpt lat="43.7112005" lon="12.7113041"><ele>492.2</ele><time>2026-04-06T13:12:05.167Z</time></trkpt><trkpt lat="43.7111693" lon="12.7114084"><ele>490.0</ele><time>2026-04-06T13:12:06.166Z</time></trkpt><trkpt lat="43.7111446" lon="12.711521"><ele>490.0</ele><time>2026-04-06T13:12:07.169Z</time></trkpt><trkpt lat="43.7111119" lon="12.7116202"><ele>490.0</ele><time>2026-04-06T13:12:08.17Z</time></trkpt><trkpt lat="43.7110751" lon="12.7117094"><ele>490.0</ele><time>2026-04-06T13:12:09.172Z</time></trkpt><trkpt lat="43.7110441" lon="12.7117892"><ele>490.0</ele><time>2026-04-06T13:12:10.171Z</time></trkpt><trkpt lat="43.7110206" lon="12.7118766"><ele>490.0</ele><time>2026-04-06T13:12:11.164Z</time></trkpt><trkpt lat="43.7109878" lon="12.7119522"><ele>490.0</ele><time>2026-04-06T13:12:12.174Z</time></trkpt><trkpt lat="43.7109537" lon="12.7120327"><ele>490.0</ele><time>2026-04-06T13:12:13.173Z</time></trkpt><trkpt lat="43.7109312" lon="12.7121194"><ele>485.33333333333337</ele><time>2026-04-06T13:12:14.17Z</time></trkpt><trkpt lat="43.7109266" lon="12.7122094"><ele>480.6666666666667</ele><time>2026-04-06T13:12:15.174Z</time></trkpt><trkpt lat="43.710929" lon="12.7123075"><ele>476.0</ele><time>2026-04-06T13:12:16.174Z</time></trkpt><trkpt lat="43.7109389" lon="12.7124163"><ele>471.33333333333337</ele><time>2026-04-06T13:12:17.177Z</time></trkpt><trkpt lat="43.7109488" lon="12.7125201"><ele>466.6666666666667</ele><time>2026-04-06T13:12:18.187Z</time></trkpt><trkpt lat="43.7109632" lon="12.7126783"><ele>462.0</ele><time>2026-04-06T13:12:20.178Z</time></trkpt><trkpt lat="43.7109811" lon="12.7128429"><ele>461.1666666666667</ele><time>2026-04-06T13:12:22.182Z</time></trkpt><trkpt lat="43.711038" lon="12.712981"><ele>460.33333333333337</ele><time>2026-04-06T13:12:24.178Z</time></trkpt><trkpt lat="43.7110744" lon="12.7130787"><ele>459.5</ele><time>2026-04-06T13:12:26.196Z</time></trkpt><trkpt lat="43.7110765" lon="12.7132072"><ele>458.6666666666667</ele><time>2026-04-06T13:12:29.201Z</time></trkpt><trkpt lat="43.7110588" lon="12.7133096"><ele>457.83333333333337</ele><time>2026-04-06T13:12:30.167Z</time></trkpt><trkpt lat="43.7110222" lon="12.7134006"><ele>457.0</ele><time>2026-04-06T13:12:31.173Z</time></trkpt><trkpt lat="43.710973" lon="12.7134795"><ele>457.0</ele><time>2026-04-06T13:12:32.162Z</time></trkpt><trkpt lat="43.7109096" lon="12.7135325"><ele>457.00000000000006</ele><time>2026-04-06T13:12:33.171Z</time></trkpt><trkpt lat="43.710844" lon="12.7135718"><ele>457.00000000000006</ele><time>2026-04-06T13:12:34.168Z</time></trkpt><trkpt lat="43.7107651" lon="12.7136665"><ele>457.0</ele><time>2026-04-06T13:12:36.174Z</time></trkpt><trkpt lat="43.7107624" lon="12.7137988"><ele>457.0</ele><time>2026-04-06T13:12:38.172Z</time></trkpt><trkpt lat="43.7108374" lon="12.7139375"><ele>456.33333333333337</ele><time>2026-04-06T13:12:40.176Z</time></trkpt><trkpt lat="43.710912" lon="12.7140293"><ele>455.6666666666667</ele><time>2026-04-06T13:12:41.177Z</time></trkpt><trkpt lat="43.7109894" lon="12.7141228"><ele>455.0</ele><time>2026-04-06T13:12:42.177Z</time></trkpt><trkpt lat="43.7110569" lon="12.7141953"><ele>454.33333333333337</ele><time>2026-04-06T13:12:43.179Z</time></trkpt><trkpt lat="43.7111178" lon="12.7142687"><ele>453.6666666666667</ele><time>2026-04-06T13:12:44.163Z</time></trkpt><trkpt lat="43.7111757" lon="12.7143256"><ele>453.0</ele><time>2026-04-06T13:12:45.175Z</time></trkpt><trkpt lat="43.7112458" lon="12.7144083"><ele>454.0</ele><time>2026-04-06T13:12:47.174Z</time></trkpt><trkpt lat="43.7111791" lon="12.7145013"><ele>454.99999999999994</ele><time>2026-04-06T13:12:50.186Z</time></trkpt><trkpt lat="43.7110521" lon="12.7145348"><ele>455.99999999999994</ele><time>2026-04-06T13:12:52.163Z</time></trkpt><trkpt lat="43.7109573" lon="12.7145476"><ele>457.0</ele><time>2026-04-06T13:12:53.169Z</time></trkpt><trkpt lat="43.7108564" lon="12.7145787"><ele>458.0</ele><time>2026-04-06T13:12:54.165Z</time></trkpt><trkpt lat="43.7107619" lon="12.7146404"><ele>458.0</ele><time>2026-04-06T13:12:55.164Z</time></trkpt><trkpt lat="43.7106595" lon="12.714736"><ele>457.99999999999994</ele><time>2026-04-06T13:12:56.165Z</time></trkpt><trkpt lat="43.710555" lon="12.7148149"><ele>457.99999999999994</ele><time>2026-04-06T13:12:57.166Z</time></trkpt><trkpt lat="43.7104877" lon="12.7148511"><ele>458.0</ele><time>2026-04-06T13:12:58.159Z</time></trkpt><trkpt lat="43.7104145" lon="12.7148974"><ele>458.0</ele><time>2026-04-06T13:13:00.193Z</time></trkpt><trkpt lat="43.7103472" lon="12.7149271"><ele>458.0</ele><time>2026-04-06T13:13:05.2Z</time></trkpt><trkpt lat="43.7102879" lon="12.7149616"><ele>457.99999999999994</ele><time>2026-04-06T13:13:24.191Z</time></trkpt><trkpt lat="43.7101799" lon="12.7150402"><ele>457.99999999999994</ele><time>2026-04-06T13:13:27.175Z</time></trkpt><trkpt lat="43.7100821" lon="12.7150655"><ele>458.0</ele><time>2026-04-06T13:13:29.18Z</time></trkpt><trkpt lat="43.7099838" lon="12.7151267"><ele>458.0</ele><time>2026-04-06T13:13:32.19Z</time></trkpt><trkpt lat="43.7099166" lon="12.7151702"><ele>455.4</ele><time>2026-04-06T13:13:33.173Z</time></trkpt><trkpt lat="43.709829" lon="12.7152118"><ele>452.79999999999995</ele><time>2026-04-06T13:13:34.169Z</time></trkpt><trkpt lat="43.7097466" lon="12.7152361"><ele>450.2</ele><time>2026-04-06T13:13:35.176Z</time></trkpt><trkpt lat="43.7096595" lon="12.7152435"><ele>447.6</ele><time>2026-04-06T13:13:36.174Z</time></trkpt><trkpt lat="43.7095684" lon="12.7152455"><ele>445.0</ele><time>2026-04-06T13:13:37.177Z</time></trkpt><trkpt lat="43.7094743" lon="12.7152286"><ele>441.8</ele><time>2026-04-06T13:13:38.173Z</time></trkpt><trkpt lat="43.709371" lon="12.7151996"><ele>438.6</ele><time>2026-04-06T13:13:39.175Z</time></trkpt><trkpt lat="43.7092609" lon="12.7151548"><ele>435.4</ele><time>2026-04-06T13:13:40.176Z</time></trkpt><trkpt lat="43.7091523" lon="12.715113"><ele>432.2</ele><time>2026-04-06T13:13:41.175Z</time></trkpt><trkpt lat="43.7090449" lon="12.7150683"><ele>429.0</ele><time>2026-04-06T13:13:42.172Z</time></trkpt><trkpt lat="43.7089445" lon="12.7150255"><ele>429.0</ele><time>2026-04-06T13:13:43.179Z</time></trkpt><trkpt lat="43.7088431" lon="12.7149851"><ele>429.0</ele><time>2026-04-06T13:13:44.173Z</time></trkpt><trkpt lat="43.7087294" lon="12.7149423"><ele>429.0</ele><time>2026-04-06T13:13:45.176Z</time></trkpt><trkpt lat="43.7086128" lon="12.7149115"><ele>429.0</ele><time>2026-04-06T13:13:46.171Z</time></trkpt><trkpt lat="43.7084873" lon="12.7149128"><ele>425.75</ele><time>2026-04-06T13:13:47.175Z</time></trkpt><trkpt lat="43.7083666" lon="12.7149352"><ele>422.5</ele><time>2026-04-06T13:13:48.174Z</time></trkpt><trkpt lat="43.7082604" lon="12.7149634"><ele>419.25</ele><time>2026-04-06T13:13:49.173Z</time></trkpt><trkpt lat="43.7081479" lon="12.7149948"><ele>416.0</ele><time>2026-04-06T13:13:50.176Z</time></trkpt><trkpt lat="43.7080418" lon="12.7150123"><ele>416.0</ele><time>2026-04-06T13:13:51.178Z</time></trkpt><trkpt lat="43.7079383" lon="12.7150181"><ele>416.0</ele><time>2026-04-06T13:13:52.181Z</time></trkpt><trkpt lat="43.7078444" lon="12.7150168"><ele>416.0</ele><time>2026-04-06T13:13:53.179Z</time></trkpt><trkpt lat="43.7077524" lon="12.7150004"><ele>416.0</ele><time>2026-04-06T13:13:54.183Z</time></trkpt><trkpt lat="43.7076567" lon="12.7149703"><ele>416.0</ele><time>2026-04-06T13:13:55.18Z</time></trkpt><trkpt lat="43.7075567" lon="12.7149338"><ele>412.75</ele><time>2026-04-06T13:13:56.189Z</time></trkpt><trkpt lat="43.7074402" lon="12.7149068"><ele>409.5</ele><time>2026-04-06T13:13:57.183Z</time></trkpt><trkpt lat="43.7073164" lon="12.7148864"><ele>406.25</ele><time>2026-04-06T13:13:58.179Z</time></trkpt><trkpt lat="43.7071933" lon="12.7148652"><ele>403.0</ele><time>2026-04-06T13:13:59.183Z</time></trkpt><trkpt lat="43.7070705" lon="12.7148534"><ele>403.0</ele><time>2026-04-06T13:14:00.18Z</time></trkpt><trkpt lat="43.7069573" lon="12.7148444"><ele>403.0</ele><time>2026-04-06T13:14:01.176Z</time></trkpt><trkpt lat="43.7068441" lon="12.7148394"><ele>403.0</ele><time>2026-04-06T13:14:02.183Z</time></trkpt><trkpt lat="43.7067286" lon="12.7148388"><ele>403.0</ele><time>2026-04-06T13:14:03.18Z</time></trkpt><trkpt lat="43.7066149" lon="12.7148576"><ele>400.79999999999995</ele><time>2026-04-06T13:14:04.17Z</time></trkpt><trkpt lat="43.7065171" lon="12.7148966"><ele>398.6</ele><time>2026-04-06T13:14:05.181Z</time></trkpt><trkpt lat="43.7064485" lon="12.7149258"><ele>396.4</ele><time>2026-04-06T13:14:06.184Z</time></trkpt><trkpt lat="43.7063435" lon="12.7149264"><ele>394.20000000000005</ele><time>2026-04-06T13:14:08.193Z</time></trkpt><trkpt lat="43.7062941" lon="12.7148229"><ele>392.0</ele><time>2026-04-06T13:14:10.208Z</time></trkpt><trkpt lat="43.7063347" lon="12.7146756"><ele>392.0</ele><time>2026-04-06T13:14:12.177Z</time></trkpt><trkpt lat="43.7063984" lon="12.7145705"><ele>392.0</ele><time>2026-04-06T13:14:13.181Z</time></trkpt><trkpt lat="43.7064793" lon="12.7144592"><ele>392.0</ele><time>2026-04-06T13:14:14.181Z</time></trkpt><trkpt lat="43.7065755" lon="12.7143302"><ele>392.0</ele><time>2026-04-06T13:14:15.183Z</time></trkpt><trkpt lat="43.70666" lon="12.7142234"><ele>391.99999999999994</ele><time>2026-04-06T13:14:16.175Z</time></trkpt><trkpt lat="43.7067173" lon="12.7141317"><ele>392.0</ele><time>2026-04-06T13:14:17.167Z</time></trkpt><trkpt lat="43.7067553" lon="12.7140514"><ele>392.0</ele><time>2026-04-06T13:14:18.183Z</time></trkpt><trkpt lat="43.7068" lon="12.713921"><ele>392.0</ele><time>2026-04-06T13:14:20.189Z</time></trkpt><trkpt lat="43.7068377" lon="12.713797"><ele>391.99999999999994</ele><time>2026-04-06T13:14:22.177Z</time></trkpt><trkpt lat="43.7067895" lon="12.7137159"><ele>392.0</ele><time>2026-04-06T13:14:25.205Z</time></trkpt><trkpt lat="43.7066621" lon="12.7137587"><ele>391.99999999999994</ele><time>2026-04-06T13:14:27.183Z</time></trkpt><trkpt lat="43.7066001" lon="12.7137996"><ele>392.0</ele><time>2026-04-06T13:14:28.182Z</time></trkpt><trkpt lat="43.7065347" lon="12.7138359"><ele>392.0</ele><time>2026-04-06T13:14:29.183Z</time></trkpt><trkpt lat="43.7064745" lon="12.7138668"><ele>392.0</ele><time>2026-04-06T13:14:30.174Z</time></trkpt><trkpt lat="43.7063362" lon="12.7139157"><ele>391.99999999999994</ele><time>2026-04-06T13:14:32.182Z</time></trkpt><trkpt lat="43.7062468" lon="12.7139461"><ele>392.0</ele><time>2026-04-06T13:14:33.173Z</time></trkpt><trkpt lat="43.7061522" lon="12.7139848"><ele>388.99999999999994</ele><time>2026-04-06T13:14:34.171Z</time></trkpt><trkpt lat="43.706058" lon="12.7140323"><ele>386.0</ele><time>2026-04-06T13:14:35.174Z</time></trkpt><trkpt lat="43.7059728" lon="12.7140811"><ele>383.0</ele><time>2026-04-06T13:14:36.171Z</time></trkpt><trkpt lat="43.7058992" lon="12.7141221"><ele>380.0</ele><time>2026-04-06T13:14:37.178Z</time></trkpt><trkpt lat="43.7058232" lon="12.7141687"><ele>377.0</ele><time>2026-04-06T13:14:38.174Z</time></trkpt><trkpt lat="43.7057475" lon="12.7142324"><ele>374.0</ele><time>2026-04-06T13:14:39.181Z</time></trkpt><trkpt lat="43.705673" lon="12.7143185"><ele>374.1666666666667</ele><time>2026-04-06T13:14:40.177Z</time></trkpt><trkpt lat="43.705612" lon="12.7144082"><ele>374.33333333333337</ele><time>2026-04-06T13:14:41.179Z</time></trkpt><trkpt lat="43.7055647" lon="12.7144898"><ele>374.5</ele><time>2026-04-06T13:14:42.174Z</time></trkpt><trkpt lat="43.7055179" lon="12.7145606"><ele>374.6666666666667</ele><time>2026-04-06T13:14:43.182Z</time></trkpt><trkpt lat="43.7054724" lon="12.7146259"><ele>374.8333333333333</ele><time>2026-04-06T13:14:44.175Z</time></trkpt><trkpt lat="43.7053834" lon="12.7147338"><ele>375.0</ele><time>2026-04-06T13:14:46.176Z</time></trkpt><trkpt lat="43.7053201" lon="12.7148558"><ele>375.0</ele><time>2026-04-06T13:14:48.179Z</time></trkpt><trkpt lat="43.7053218" lon="12.7149915"><ele>375.0</ele><time>2026-04-06T13:14:50.183Z</time></trkpt><trkpt lat="43.7053882" lon="12.7150793"><ele>375.0</ele><time>2026-04-06T13:14:52.208Z</time></trkpt><trkpt lat="43.7054267" lon="12.7151605"><ele>375.0</ele><time>2026-04-06T13:14:55.202Z</time></trkpt><trkpt lat="43.7053529" lon="12.7152056"><ele>375.0</ele><time>2026-04-06T13:14:58.204Z</time></trkpt><trkpt lat="43.7052405" lon="12.7151949"><ele>370.2</ele><time>2026-04-06T13:15:00.171Z</time></trkpt><trkpt lat="43.7051502" lon="12.7152054"><ele>365.4</ele><time>2026-04-06T13:15:01.174Z</time></trkpt><trkpt lat="43.7050516" lon="12.7152278"><ele>360.6</ele><time>2026-04-06T13:15:02.174Z</time></trkpt><trkpt lat="43.7049538" lon="12.715256"><ele>355.8</ele><time>2026-04-06T13:15:03.178Z</time></trkpt><trkpt lat="43.7048557" lon="12.7152786"><ele>351.0</ele><time>2026-04-06T13:15:04.174Z</time></trkpt><trkpt lat="43.7047619" lon="12.7152961"><ele>348.6666666666667</ele><time>2026-04-06T13:15:05.173Z</time></trkpt><trkpt lat="43.7046732" lon="12.7152994"><ele>346.3333333333333</ele><time>2026-04-06T13:15:06.172Z</time></trkpt><trkpt lat="43.7045882" lon="12.7152787"><ele>344.0</ele><time>2026-04-06T13:15:07.17Z</time></trkpt><trkpt lat="43.7045017" lon="12.7152593"><ele>341.66666666666663</ele><time>2026-04-06T13:15:08.172Z</time></trkpt><trkpt lat="43.704419" lon="12.7152392"><ele>339.3333333333333</ele><time>2026-04-06T13:15:09.182Z</time></trkpt><trkpt lat="43.7043476" lon="12.7152225"><ele>337.0</ele><time>2026-04-06T13:15:10.182Z</time></trkpt><trkpt lat="43.7042827" lon="12.7152126"><ele>335.20000000000005</ele><time>2026-04-06T13:15:11.181Z</time></trkpt><trkpt lat="43.7041651" lon="12.7152413"><ele>333.4</ele><time>2026-04-06T13:15:13.177Z</time></trkpt><trkpt lat="43.7041104" lon="12.7152984"><ele>331.6</ele><time>2026-04-06T13:15:14.181Z</time></trkpt><trkpt lat="43.7040367" lon="12.7154066"><ele>329.79999999999995</ele><time>2026-04-06T13:15:15.184Z</time></trkpt><trkpt lat="43.7039531" lon="12.7155221"><ele>328.0</ele><time>2026-04-06T13:15:16.186Z</time></trkpt><trkpt lat="43.7038719" lon="12.7156001"><ele>328.0</ele><time>2026-04-06T13:15:17.184Z</time></trkpt><trkpt lat="43.7037879" lon="12.7156503"><ele>328.0</ele><time>2026-04-06T13:15:18.183Z</time></trkpt><trkpt lat="43.7037027" lon="12.7156653"><ele>328.0</ele><time>2026-04-06T13:15:19.18Z</time></trkpt><trkpt lat="43.7036147" lon="12.7156597"><ele>328.0</ele><time>2026-04-06T13:15:20.181Z</time></trkpt><trkpt lat="43.7035138" lon="12.7156288"><ele>328.0</ele><time>2026-04-06T13:15:21.18Z</time></trkpt><trkpt lat="43.7033852" lon="12.7155732"><ele>331.66666666666663</ele><time>2026-04-06T13:15:22.179Z</time></trkpt><trkpt lat="43.7032334" lon="12.7155133"><ele>335.3333333333333</ele><time>2026-04-06T13:15:23.182Z</time></trkpt><trkpt lat="43.7030683" lon="12.7154685"><ele>339.0</ele><time>2026-04-06T13:15:24.184Z</time></trkpt><trkpt lat="43.7029138" lon="12.7154057"><ele>339.0</ele><time>2026-04-06T13:15:25.18Z</time></trkpt><trkpt lat="43.7027773" lon="12.715344"><ele>339.0</ele><time>2026-04-06T13:15:26.192Z</time></trkpt><trkpt lat="43.7026497" lon="12.7152879"><ele>339.0</ele><time>2026-04-06T13:15:27.178Z</time></trkpt><trkpt lat="43.7025124" lon="12.7152617"><ele>339.0</ele><time>2026-04-06T13:15:28.173Z</time></trkpt><trkpt lat="43.7023787" lon="12.7152644"><ele>343.3333333333333</ele><time>2026-04-06T13:15:29.183Z</time></trkpt><trkpt lat="43.7022259" lon="12.7153007"><ele>347.66666666666663</ele><time>2026-04-06T13:15:30.167Z</time></trkpt><trkpt lat="43.702057" lon="12.7153365"><ele>352.0</ele><time>2026-04-06T13:15:31.16Z</time></trkpt><trkpt lat="43.7019189" lon="12.7153711"><ele>351.5</ele><time>2026-04-06T13:15:32.168Z</time></trkpt><trkpt lat="43.7018237" lon="12.7154028"><ele>351.0</ele><time>2026-04-06T13:15:33.171Z</time></trkpt><trkpt lat="43.7017316" lon="12.7154294"><ele>350.5</ele><time>2026-04-06T13:15:34.167Z</time></trkpt><trkpt lat="43.7016107" lon="12.7154791"><ele>350.0</ele><time>2026-04-06T13:15:35.178Z</time></trkpt><trkpt lat="43.7014705" lon="12.7155432"><ele>350.0</ele><time>2026-04-06T13:15:36.18Z</time></trkpt><trkpt lat="43.7013179" lon="12.715612"><ele>350.0</ele><time>2026-04-06T13:15:37.182Z</time></trkpt><trkpt lat="43.7011525" lon="12.7156587"><ele>350.0</ele><time>2026-04-06T13:15:38.181Z</time></trkpt><trkpt lat="43.7010009" lon="12.7156758"><ele>350.25</ele><time>2026-04-06T13:15:39.179Z</time></trkpt><trkpt lat="43.7008545" lon="12.7156641"><ele>350.5</ele><time>2026-04-06T13:15:40.176Z</time></trkpt><trkpt lat="43.7007161" lon="12.7156597"><ele>350.75</ele><time>2026-04-06T13:15:41.178Z</time></trkpt><trkpt lat="43.700601" lon="12.7156587"><ele>351.0</ele><time>2026-04-06T13:15:42.172Z</time></trkpt><trkpt lat="43.7005129" lon="12.7156603"><ele>351.0</ele><time>2026-04-06T13:15:43.171Z</time></trkpt><trkpt lat="43.7004326" lon="12.7156607"><ele>351.0</ele><time>2026-04-06T13:15:44.173Z</time></trkpt><trkpt lat="43.7003501" lon="12.7156348"><ele>351.0</ele><time>2026-04-06T13:15:45.192Z</time></trkpt><trkpt lat="43.7002344" lon="12.715563"><ele>351.0</ele><time>2026-04-06T13:15:46.176Z</time></trkpt><trkpt lat="43.7001088" lon="12.7154719"><ele>351.0</ele><time>2026-04-06T13:15:47.181Z</time></trkpt><trkpt lat="43.6999812" lon="12.7153854"><ele>348.75</ele><time>2026-04-06T13:15:48.183Z</time></trkpt><trkpt lat="43.6998534" lon="12.7153282"><ele>346.5</ele><time>2026-04-06T13:15:49.181Z</time></trkpt><trkpt lat="43.699721" lon="12.7152631"><ele>344.25</ele><time>2026-04-06T13:15:50.175Z</time></trkpt><trkpt lat="43.6995865" lon="12.7151977"><ele>342.0</ele><time>2026-04-06T13:15:51.178Z</time></trkpt><trkpt lat="43.6994563" lon="12.7151573"><ele>343.6</ele><time>2026-04-06T13:15:52.177Z</time></trkpt><trkpt lat="43.6993423" lon="12.7151143"><ele>345.20000000000005</ele><time>2026-04-06T13:15:53.179Z</time></trkpt><trkpt lat="43.6992496" lon="12.7150679"><ele>346.8</ele><time>2026-04-06T13:15:54.181Z</time></trkpt><trkpt lat="43.6991757" lon="12.7150337"><ele>348.4</ele><time>2026-04-06T13:15:55.173Z</time></trkpt><trkpt lat="43.6991132" lon="12.7150102"><ele>350.0</ele><time>2026-04-06T13:15:56.178Z</time></trkpt><trkpt lat="43.6989955" lon="12.7149809"><ele>350.0</ele><time>2026-04-06T13:15:58.181Z</time></trkpt><trkpt lat="43.6988948" lon="12.7149335"><ele>350.0</ele><time>2026-04-06T13:16:00.175Z</time></trkpt><trkpt lat="43.6988161" lon="12.714809"><ele>350.0</ele><time>2026-04-06T13:16:02.179Z</time></trkpt><trkpt lat="43.6987941" lon="12.7146745"><ele>350.0</ele><time>2026-04-06T13:16:03.184Z</time></trkpt><trkpt lat="43.6987894" lon="12.7144938"><ele>350.33333333333337</ele><time>2026-04-06T13:16:04.18Z</time></trkpt><trkpt lat="43.6987822" lon="12.7142777"><ele>350.6666666666667</ele><time>2026-04-06T13:16:05.184Z</time></trkpt><trkpt lat="43.6987589" lon="12.714052"><ele>351.0</ele><time>2026-04-06T13:16:06.182Z</time></trkpt><trkpt lat="43.6987371" lon="12.7138343"><ele>351.0</ele><time>2026-04-06T13:16:07.183Z</time></trkpt><trkpt lat="43.6987213" lon="12.7136465"><ele>351.0</ele><time>2026-04-06T13:16:08.185Z</time></trkpt><trkpt lat="43.6987011" lon="12.7134821"><ele>351.0</ele><time>2026-04-06T13:16:09.177Z</time></trkpt><trkpt lat="43.6986914" lon="12.7133417"><ele>351.0</ele><time>2026-04-06T13:16:10.184Z</time></trkpt><trkpt lat="43.6986722" lon="12.7132231"><ele>351.0</ele><time>2026-04-06T13:16:11.182Z</time></trkpt><trkpt lat="43.6986558" lon="12.7131096"><ele>349.6</ele><time>2026-04-06T13:16:12.177Z</time></trkpt><trkpt lat="43.6986375" lon="12.7129921"><ele>348.20000000000005</ele><time>2026-04-06T13:16:13.178Z</time></trkpt><trkpt lat="43.6986284" lon="12.7128621"><ele>346.79999999999995</ele><time>2026-04-06T13:16:14.175Z</time></trkpt><trkpt lat="43.6986445" lon="12.7127223"><ele>345.4</ele><time>2026-04-06T13:16:15.179Z</time></trkpt><trkpt lat="43.6986831" lon="12.7125644"><ele>344.0</ele><time>2026-04-06T13:16:16.178Z</time></trkpt><trkpt lat="43.6987388" lon="12.7123952"><ele>342.5</ele><time>2026-04-06T13:16:17.175Z</time></trkpt><trkpt lat="43.6988044" lon="12.7122039"><ele>341.0</ele><time>2026-04-06T13:16:18.18Z</time></trkpt><trkpt lat="43.6988763" lon="12.7120373"><ele>339.5</ele><time>2026-04-06T13:16:19.182Z</time></trkpt><trkpt lat="43.6989392" lon="12.7118757"><ele>338.0</ele><time>2026-04-06T13:16:20.168Z</time></trkpt><trkpt lat="43.69901" lon="12.711725"><ele>335.25</ele><time>2026-04-06T13:16:21.165Z</time></trkpt><trkpt lat="43.6990953" lon="12.7115514"><ele>332.5</ele><time>2026-04-06T13:16:22.168Z</time></trkpt><trkpt lat="43.6991793" lon="12.7113761"><ele>329.75</ele><time>2026-04-06T13:16:23.169Z</time></trkpt><trkpt lat="43.6992521" lon="12.711221"><ele>327.0</ele><time>2026-04-06T13:16:24.167Z</time></trkpt><trkpt lat="43.6993114" lon="12.7110761"><ele>324.0</ele><time>2026-04-06T13:16:25.163Z</time></trkpt><trkpt lat="43.699362" lon="12.7109549"><ele>321.0</ele><time>2026-04-06T13:16:26.171Z</time></trkpt><trkpt lat="43.6993941" lon="12.710833"><ele>318.0</ele><time>2026-04-06T13:16:27.17Z</time></trkpt><trkpt lat="43.6994163" lon="12.710711"><ele>315.0</ele><time>2026-04-06T13:16:28.166Z</time></trkpt><trkpt lat="43.6994083" lon="12.7105894"><ele>312.0</ele><time>2026-04-06T13:16:29.167Z</time></trkpt><trkpt lat="43.6993837" lon="12.7104442"><ele>312.0</ele><time>2026-04-06T13:16:30.166Z</time></trkpt><trkpt lat="43.6993262" lon="12.7102674"><ele>312.0</ele><time>2026-04-06T13:16:31.161Z</time></trkpt><trkpt lat="43.699262" lon="12.7101213"><ele>312.0</ele><time>2026-04-06T13:16:32.163Z</time></trkpt><trkpt lat="43.6992028" lon="12.7100055"><ele>312.0</ele><time>2026-04-06T13:16:33.168Z</time></trkpt><trkpt lat="43.6991445" lon="12.7099249"><ele>312.0</ele><time>2026-04-06T13:16:34.166Z</time></trkpt><trkpt lat="43.6990788" lon="12.709875"><ele>309.6</ele><time>2026-04-06T13:16:35.166Z</time></trkpt><trkpt lat="43.6990167" lon="12.7098534"><ele>307.2</ele><time>2026-04-06T13:16:36.172Z</time></trkpt><trkpt lat="43.6989155" lon="12.7098813"><ele>304.8</ele><time>2026-04-06T13:16:38.166Z</time></trkpt><trkpt lat="43.6988278" lon="12.7099102"><ele>302.4</ele><time>2026-04-06T13:16:39.169Z</time></trkpt><trkpt lat="43.6987326" lon="12.7099271"><ele>300.0</ele><time>2026-04-06T13:16:40.171Z</time></trkpt><trkpt lat="43.6986258" lon="12.7099297"><ele>298.6666666666667</ele><time>2026-04-06T13:16:41.177Z</time></trkpt><trkpt lat="43.69853" lon="12.7098928"><ele>297.3333333333333</ele><time>2026-04-06T13:16:42.179Z</time></trkpt><trkpt lat="43.6984507" lon="12.7098418"><ele>296.0</ele><time>2026-04-06T13:16:43.18Z</time></trkpt><trkpt lat="43.6983737" lon="12.7098377"><ele>294.66666666666663</ele><time>2026-04-06T13:16:44.178Z</time></trkpt><trkpt lat="43.6982966" lon="12.7098686"><ele>293.3333333333333</ele><time>2026-04-06T13:16:45.185Z</time></trkpt><trkpt lat="43.6982219" lon="12.7099471"><ele>292.0</ele><time>2026-04-06T13:16:46.181Z</time></trkpt><trkpt lat="43.6981391" lon="12.7101085"><ele>291.0</ele><time>2026-04-06T13:16:47.181Z</time></trkpt><trkpt lat="43.6980451" lon="12.7103145"><ele>290.0</ele><time>2026-04-06T13:16:48.183Z</time></trkpt><trkpt lat="43.6979002" lon="12.710582"><ele>289.0</ele><time>2026-04-06T13:16:49.184Z</time></trkpt><trkpt lat="43.6977679" lon="12.710811"><ele>285.66666666666663</ele><time>2026-04-06T13:16:50.18Z</time></trkpt><trkpt lat="43.697654" lon="12.711003"><ele>282.3333333333333</ele><time>2026-04-06T13:16:51.179Z</time></trkpt><trkpt lat="43.6975421" lon="12.7111793"><ele>279.0</ele><time>2026-04-06T13:16:52.182Z</time></trkpt><trkpt lat="43.6974271" lon="12.7113411"><ele>279.0</ele><time>2026-04-06T13:16:53.187Z</time></trkpt><trkpt lat="43.6973322" lon="12.7114965"><ele>279.0</ele><time>2026-04-06T13:16:54.183Z</time></trkpt><trkpt lat="43.6972432" lon="12.7116441"><ele>279.0</ele><time>2026-04-06T13:16:55.185Z</time></trkpt><trkpt lat="43.6971688" lon="12.7118135"><ele>279.0</ele><time>2026-04-06T13:16:56.181Z</time></trkpt><trkpt lat="43.6971222" lon="12.7119794"><ele>280.59999999999997</ele><time>2026-04-06T13:16:57.179Z</time></trkpt><trkpt lat="43.6970694" lon="12.7121413"><ele>282.2</ele><time>2026-04-06T13:16:58.184Z</time></trkpt><trkpt lat="43.6970185" lon="12.7122769"><ele>283.79999999999995</ele><time>2026-04-06T13:16:59.18Z</time></trkpt><trkpt lat="43.6969427" lon="12.7123864"><ele>285.4</ele><time>2026-04-06T13:17:00.175Z</time></trkpt><trkpt lat="43.6968866" lon="12.7124841"><ele>287.0</ele><time>2026-04-06T13:17:01.179Z</time></trkpt><trkpt lat="43.6968303" lon="12.7125571"><ele>282.6666666666667</ele><time>2026-04-06T13:17:02.181Z</time></trkpt><trkpt lat="43.6967709" lon="12.712613"><ele>278.33333333333337</ele><time>2026-04-06T13:17:03.187Z</time></trkpt><trkpt lat="43.6966864" lon="12.7125892"><ele>274.0</ele><time>2026-04-06T13:17:05.179Z</time></trkpt><trkpt lat="43.6966551" lon="12.7124796"><ele>269.6666666666667</ele><time>2026-04-06T13:17:07.206Z</time></trkpt><trkpt lat="43.6966518" lon="12.7123892"><ele>265.3333333333333</ele><time>2026-04-06T13:17:08.182Z</time></trkpt><trkpt lat="43.6966528" lon="12.7122712"><ele>261.0</ele><time>2026-04-06T13:17:09.188Z</time></trkpt><trkpt lat="43.6966518" lon="12.7121115"><ele>261.0</ele><time>2026-04-06T13:17:10.179Z</time></trkpt><trkpt lat="43.6966458" lon="12.7119425"><ele>261.0</ele><time>2026-04-06T13:17:11.183Z</time></trkpt><trkpt lat="43.6966441" lon="12.7117835"><ele>261.0</ele><time>2026-04-06T13:17:12.182Z</time></trkpt><trkpt lat="43.6966344" lon="12.7116354"><ele>261.0</ele><time>2026-04-06T13:17:13.185Z</time></trkpt><trkpt lat="43.69663" lon="12.7114899"><ele>260.40000000000003</ele><time>2026-04-06T13:17:14.183Z</time></trkpt><trkpt lat="43.6966308" lon="12.7113451"><ele>259.8</ele><time>2026-04-06T13:17:15.183Z</time></trkpt><trkpt lat="43.6966361" lon="12.7112127"><ele>259.20000000000005</ele><time>2026-04-06T13:17:16.182Z</time></trkpt><trkpt lat="43.6966363" lon="12.7110857"><ele>258.6</ele><time>2026-04-06T13:17:17.175Z</time></trkpt><trkpt lat="43.6966111" lon="12.710982"><ele>258.0</ele><time>2026-04-06T13:17:18.177Z</time></trkpt><trkpt lat="43.6965408" lon="12.7108914"><ele>257.0</ele><time>2026-04-06T13:17:19.173Z</time></trkpt><trkpt lat="43.6964201" lon="12.7108096"><ele>256.0</ele><time>2026-04-06T13:17:20.178Z</time></trkpt><trkpt lat="43.6962811" lon="12.7107327"><ele>255.0</ele><time>2026-04-06T13:17:21.169Z</time></trkpt><trkpt lat="43.6961398" lon="12.7106239"><ele>254.0</ele><time>2026-04-06T13:17:22.172Z</time></trkpt><trkpt lat="43.6960144" lon="12.7105137"><ele>248.5</ele><time>2026-04-06T13:17:23.184Z</time></trkpt><trkpt lat="43.6959055" lon="12.7103982"><ele>243.0</ele><time>2026-04-06T13:17:24.189Z</time></trkpt><trkpt lat="43.6957996" lon="12.7102844"><ele>237.5</ele><time>2026-04-06T13:17:25.188Z</time></trkpt><trkpt lat="43.6956962" lon="12.710192"><ele>232.0</ele><time>2026-04-06T13:17:26.185Z</time></trkpt><trkpt lat="43.6955989" lon="12.7101079"><ele>231.39999999999998</ele><time>2026-04-06T13:17:27.184Z</time></trkpt><trkpt lat="43.6955008" lon="12.710038"><ele>230.79999999999998</ele><time>2026-04-06T13:17:28.183Z</time></trkpt><trkpt lat="43.6954122" lon="12.7099637"><ele>230.2</ele><time>2026-04-06T13:17:29.187Z</time></trkpt><trkpt lat="43.6953325" lon="12.7098925"><ele>229.6</ele><time>2026-04-06T13:17:30.187Z</time></trkpt><trkpt lat="43.6952521" lon="12.7098475"><ele>229.0</ele><time>2026-04-06T13:17:31.183Z</time></trkpt><trkpt lat="43.6951696" lon="12.7098391"><ele>226.66666666666666</ele><time>2026-04-06T13:17:32.183Z</time></trkpt><trkpt lat="43.6950847" lon="12.709853"><ele>224.33333333333331</ele><time>2026-04-06T13:17:33.185Z</time></trkpt><trkpt lat="43.6950015" lon="12.7098482"><ele>222.0</ele><time>2026-04-06T13:17:34.178Z</time></trkpt><trkpt lat="43.6949387" lon="12.7098211"><ele>219.66666666666669</ele><time>2026-04-06T13:17:35.179Z</time></trkpt><trkpt lat="43.6948989" lon="12.7096686"><ele>217.33333333333334</ele><time>2026-04-06T13:17:37.174Z</time></trkpt><trkpt lat="43.6948863" lon="12.7095756"><ele>215.0</ele><time>2026-04-06T13:17:38.175Z</time></trkpt><trkpt lat="43.6948941" lon="12.7094457"><ele>213.25</ele><time>2026-04-06T13:17:39.177Z</time></trkpt><trkpt lat="43.6949057" lon="12.7092991"><ele>211.5</ele><time>2026-04-06T13:17:40.179Z</time></trkpt><trkpt lat="43.6949033" lon="12.7091295"><ele>209.75</ele><time>2026-04-06T13:17:41.179Z</time></trkpt><trkpt lat="43.6949167" lon="12.7089674"><ele>208.0</ele><time>2026-04-06T13:17:42.18Z</time></trkpt><trkpt lat="43.6949565" lon="12.7088161"><ele>208.0</ele><time>2026-04-06T13:17:43.182Z</time></trkpt><trkpt lat="43.6950179" lon="12.7086737"><ele>208.0</ele><time>2026-04-06T13:17:44.183Z</time></trkpt><trkpt lat="43.6951185" lon="12.7085782"><ele>208.0</ele><time>2026-04-06T13:17:45.19Z</time></trkpt><trkpt lat="43.6952534" lon="12.7085028"><ele>208.0</ele><time>2026-04-06T13:17:46.173Z</time></trkpt><trkpt lat="43.6953988" lon="12.7084053"><ele>209.66666666666666</ele><time>2026-04-06T13:17:47.178Z</time></trkpt><trkpt lat="43.6955085" lon="12.7082431"><ele>211.33333333333331</ele><time>2026-04-06T13:17:48.179Z</time></trkpt><trkpt lat="43.6955754" lon="12.7080172"><ele>213.0</ele><time>2026-04-06T13:17:49.173Z</time></trkpt><trkpt lat="43.6956251" lon="12.7078098"><ele>209.33333333333331</ele><time>2026-04-06T13:17:50.179Z</time></trkpt><trkpt lat="43.6956761" lon="12.7076238"><ele>205.66666666666666</ele><time>2026-04-06T13:17:51.169Z</time></trkpt><trkpt lat="43.6957782" lon="12.7074324"><ele>202.0</ele><time>2026-04-06T13:17:52.172Z</time></trkpt><trkpt lat="43.6959207" lon="12.7072404"><ele>202.0</ele><time>2026-04-06T13:17:53.171Z</time></trkpt><trkpt lat="43.6960304" lon="12.7070708"><ele>202.0</ele><time>2026-04-06T13:17:54.169Z</time></trkpt><trkpt lat="43.6961466" lon="12.7069265"><ele>202.0</ele><time>2026-04-06T13:17:55.172Z</time></trkpt><trkpt lat="43.696349" lon="12.7066379"><ele>202.5</ele><time>2026-04-06T13:17:57.168Z</time></trkpt><trkpt lat="43.6964488" lon="12.7064963"><ele>203.0</ele><time>2026-04-06T13:17:58.168Z</time></trkpt><trkpt lat="43.6965275" lon="12.706372"><ele>203.5</ele><time>2026-04-06T13:17:59.166Z</time></trkpt><trkpt lat="43.6965977" lon="12.7062248"><ele>204.0</ele><time>2026-04-06T13:18:00.174Z</time></trkpt><trkpt lat="43.696622" lon="12.7060713"><ele>203.0</ele><time>2026-04-06T13:18:01.167Z</time></trkpt><trkpt lat="43.696613" lon="12.7058958"><ele>202.0</ele><time>2026-04-06T13:18:02.165Z</time></trkpt><trkpt lat="43.6965756" lon="12.7057485"><ele>201.0</ele><time>2026-04-06T13:18:03.169Z</time></trkpt><trkpt lat="43.6965306" lon="12.7056064"><ele>200.0</ele><time>2026-04-06T13:18:04.164Z</time></trkpt><trkpt lat="43.6964845" lon="12.7054907"><ele>199.0</ele><time>2026-04-06T13:18:05.168Z</time></trkpt><trkpt lat="43.6964445" lon="12.7053287"><ele>199.25</ele><time>2026-04-06T13:18:06.173Z</time></trkpt><trkpt lat="43.6964071" lon="12.7051269"><ele>199.5</ele><time>2026-04-06T13:18:07.162Z</time></trkpt><trkpt lat="43.6963809" lon="12.7049512"><ele>199.75</ele><time>2026-04-06T13:18:08.165Z</time></trkpt><trkpt lat="43.6963692" lon="12.7047751"><ele>200.0</ele><time>2026-04-06T13:18:09.17Z</time></trkpt><trkpt lat="43.6963654" lon="12.7045996"><ele>200.0</ele><time>2026-04-06T13:18:10.172Z</time></trkpt><trkpt lat="43.6963779" lon="12.7044271"><ele>200.0</ele><time>2026-04-06T13:18:11.168Z</time></trkpt><trkpt lat="43.6963865" lon="12.704279"><ele>200.0</ele><time>2026-04-06T13:18:12.173Z</time></trkpt><trkpt lat="43.6964137" lon="12.7041203"><ele>200.0</ele><time>2026-04-06T13:18:13.175Z</time></trkpt><trkpt lat="43.6964519" lon="12.7039752"><ele>199.0</ele><time>2026-04-06T13:18:14.177Z</time></trkpt><trkpt lat="43.696497" lon="12.703817"><ele>198.0</ele><time>2026-04-06T13:18:15.175Z</time></trkpt><trkpt lat="43.6965463" lon="12.7036763"><ele>197.0</ele><time>2026-04-06T13:18:16.177Z</time></trkpt><trkpt lat="43.6966015" lon="12.703555"><ele>196.0</ele><time>2026-04-06T13:18:17.176Z</time></trkpt><trkpt lat="43.696654" lon="12.7034475"><ele>195.0</ele><time>2026-04-06T13:18:18.174Z</time></trkpt><trkpt lat="43.6966968" lon="12.7033592"><ele>194.4</ele><time>2026-04-06T13:18:19.173Z</time></trkpt><trkpt lat="43.6967002" lon="12.7032206"><ele>193.8</ele><time>2026-04-06T13:18:21.177Z</time></trkpt><trkpt lat="43.6966294" lon="12.7031597"><ele>193.2</ele><time>2026-04-06T13:18:22.174Z</time></trkpt><trkpt lat="43.6965322" lon="12.7030908"><ele>192.6</ele><time>2026-04-06T13:18:23.198Z</time></trkpt><trkpt lat="43.6963917" lon="12.7030107"><ele>192.0</ele><time>2026-04-06T13:18:24.185Z</time></trkpt><trkpt lat="43.6962359" lon="12.7029389"><ele>192.0</ele><time>2026-04-06T13:18:25.189Z</time></trkpt><trkpt lat="43.6961047" lon="12.7028484"><ele>192.0</ele><time>2026-04-06T13:18:26.192Z</time></trkpt><trkpt lat="43.6959833" lon="12.702759"><ele>192.0</ele><time>2026-04-06T13:18:27.18Z</time></trkpt><trkpt lat="43.6958557" lon="12.7026837"><ele>192.0</ele><time>2026-04-06T13:18:28.187Z</time></trkpt><trkpt lat="43.6957362" lon="12.7026091"><ele>190.0</ele><time>2026-04-06T13:18:29.189Z</time></trkpt><trkpt lat="43.6956278" lon="12.7025378"><ele>188.0</ele><time>2026-04-06T13:18:30.184Z</time></trkpt><trkpt lat="43.6955451" lon="12.7024677"><ele>186.0</ele><time>2026-04-06T13:18:31.18Z</time></trkpt><trkpt lat="43.6954662" lon="12.7024175"><ele>184.0</ele><time>2026-04-06T13:18:32.183Z</time></trkpt><trkpt lat="43.6953508" lon="12.7024383"><ele>182.0</ele><time>2026-04-06T13:18:34.169Z</time></trkpt><trkpt lat="43.6952758" lon="12.702465"><ele>180.0</ele><time>2026-04-06T13:18:35.186Z</time></trkpt><trkpt lat="43.6951736" lon="12.7024297"><ele>178.0</ele><time>2026-04-06T13:18:36.178Z</time></trkpt><trkpt lat="43.6950625" lon="12.7023427"><ele>176.0</ele><time>2026-04-06T13:18:37.176Z</time></trkpt><trkpt lat="43.6949279" lon="12.7022362"><ele>174.0</ele><time>2026-04-06T13:18:38.174Z</time></trkpt><trkpt lat="43.6947561" lon="12.7021119"><ele>174.0</ele><time>2026-04-06T13:18:39.174Z</time></trkpt><trkpt lat="43.6946082" lon="12.7020202"><ele>174.0</ele><time>2026-04-06T13:18:40.177Z</time></trkpt><trkpt lat="43.694488" lon="12.7019345"><ele>174.0</ele><time>2026-04-06T13:18:41.183Z</time></trkpt><trkpt lat="43.6943676" lon="12.7018505"><ele>174.0</ele><time>2026-04-06T13:18:42.186Z</time></trkpt><trkpt lat="43.6942559" lon="12.7017724"><ele>173.79999999999998</ele><time>2026-04-06T13:18:43.186Z</time></trkpt><trkpt lat="43.694141" lon="12.7017168"><ele>173.6</ele><time>2026-04-06T13:18:44.184Z</time></trkpt><trkpt lat="43.6940572" lon="12.7016473"><ele>173.4</ele><time>2026-04-06T13:18:45.181Z</time></trkpt><trkpt lat="43.6939762" lon="12.7015809"><ele>173.2</ele><time>2026-04-06T13:18:46.183Z</time></trkpt><trkpt lat="43.693902" lon="12.7015391"><ele>173.0</ele><time>2026-04-06T13:18:47.186Z</time></trkpt><trkpt lat="43.6938404" lon="12.7015025"><ele>173.0</ele><time>2026-04-06T13:18:48.182Z</time></trkpt><trkpt lat="43.693761" lon="12.7014322"><ele>173.0</ele><time>2026-04-06T13:18:51.211Z</time></trkpt><trkpt lat="43.6936851" lon="12.7013377"><ele>173.0</ele><time>2026-04-06T13:18:53.211Z</time></trkpt><trkpt lat="43.6937429" lon="12.7012062"><ele>173.0</ele><time>2026-04-06T13:18:54.182Z</time></trkpt><trkpt lat="43.6938118" lon="12.7010583"><ele>173.0</ele><time>2026-04-06T13:18:55.177Z</time></trkpt><trkpt lat="43.6938749" lon="12.7008849"><ele>173.0</ele><time>2026-04-06T13:18:56.176Z</time></trkpt><trkpt lat="43.6939412" lon="12.7006771"><ele>173.0</ele><time>2026-04-06T13:18:57.179Z</time></trkpt><trkpt lat="43.6940628" lon="12.7003934"><ele>173.0</ele><time>2026-04-06T13:18:58.177Z</time></trkpt><trkpt lat="43.6941561" lon="12.7001619"><ele>173.0</ele><time>2026-04-06T13:18:59.168Z</time></trkpt><trkpt lat="43.6942363" lon="12.6999151"><ele>173.0</ele><time>2026-04-06T13:19:00.178Z</time></trkpt><trkpt lat="43.6943243" lon="12.699665"><ele>173.0</ele><time>2026-04-06T13:19:01.176Z</time></trkpt><trkpt lat="43.6943996" lon="12.6994342"><ele>172.66666666666666</ele><time>2026-04-06T13:19:02.182Z</time></trkpt><trkpt lat="43.6944757" lon="12.6992184"><ele>172.33333333333334</ele><time>2026-04-06T13:19:03.179Z</time></trkpt><trkpt lat="43.6945627" lon="12.6990027"><ele>172.0</ele><time>2026-04-06T13:19:04.179Z</time></trkpt><trkpt lat="43.6946616" lon="12.6987945"><ele>172.0</ele><time>2026-04-06T13:19:05.181Z</time></trkpt><trkpt lat="43.694744" lon="12.6985937"><ele>172.0</ele><time>2026-04-06T13:19:06.184Z</time></trkpt><trkpt lat="43.694836" lon="12.6983887"><ele>172.0</ele><time>2026-04-06T13:19:07.186Z</time></trkpt><trkpt lat="43.6949226" lon="12.6981982"><ele>171.33333333333334</ele><time>2026-04-06T13:19:08.185Z</time></trkpt><trkpt lat="43.6949968" lon="12.6980148"><ele>170.66666666666666</ele><time>2026-04-06T13:19:09.187Z</time></trkpt><trkpt lat="43.6950787" lon="12.6978284"><ele>170.0</ele><time>2026-04-06T13:19:10.184Z</time></trkpt><trkpt lat="43.6951578" lon="12.6976533"><ele>170.0</ele><time>2026-04-06T13:19:11.181Z</time></trkpt><trkpt lat="43.6952372" lon="12.6974684"><ele>170.0</ele><time>2026-04-06T13:19:12.184Z</time></trkpt><trkpt lat="43.695323" lon="12.6972912"><ele>170.0</ele><time>2026-04-06T13:19:13.189Z</time></trkpt><trkpt lat="43.6954074" lon="12.6971161"><ele>170.0</ele><time>2026-04-06T13:19:14.187Z</time></trkpt><trkpt lat="43.6954756" lon="12.6969452"><ele>170.0</ele><time>2026-04-06T13:19:15.187Z</time></trkpt><trkpt lat="43.6955614" lon="12.6967647"><ele>170.0</ele><time>2026-04-06T13:19:16.186Z</time></trkpt><trkpt lat="43.6956298" lon="12.6966067"><ele>170.0</ele><time>2026-04-06T13:19:17.184Z</time></trkpt><trkpt lat="43.6956814" lon="12.6964564"><ele>169.75</ele><time>2026-04-06T13:19:18.187Z</time></trkpt><trkpt lat="43.6957331" lon="12.6963043"><ele>169.5</ele><time>2026-04-06T13:19:19.179Z</time></trkpt><trkpt lat="43.6958099" lon="12.6961388"><ele>169.25</ele><time>2026-04-06T13:19:20.183Z</time></trkpt><trkpt lat="43.6958862" lon="12.6959912"><ele>169.0</ele><time>2026-04-06T13:19:21.178Z</time></trkpt><trkpt lat="43.6959509" lon="12.6958271"><ele>168.25</ele><time>2026-04-06T13:19:22.181Z</time></trkpt><trkpt lat="43.6960129" lon="12.695671"><ele>167.5</ele><time>2026-04-06T13:19:23.183Z</time></trkpt><trkpt lat="43.696084" lon="12.6955102"><ele>166.75</ele><time>2026-04-06T13:19:24.193Z</time></trkpt><trkpt lat="43.6961595" lon="12.6953592"><ele>166.0</ele><time>2026-04-06T13:19:25.198Z</time></trkpt><trkpt lat="43.6962336" lon="12.6952015"><ele>165.75</ele><time>2026-04-06T13:19:26.198Z</time></trkpt><trkpt lat="43.6963074" lon="12.6950407"><ele>165.5</ele><time>2026-04-06T13:19:27.187Z</time></trkpt><trkpt lat="43.6963784" lon="12.6948729"><ele>165.25</ele><time>2026-04-06T13:19:28.18Z</time></trkpt><trkpt lat="43.6964577" lon="12.6947121"><ele>165.0</ele><time>2026-04-06T13:19:29.19Z</time></trkpt><trkpt lat="43.6965412" lon="12.6945582"><ele>164.5</ele><time>2026-04-06T13:19:30.196Z</time></trkpt><trkpt lat="43.696609" lon="12.6943991"><ele>164.0</ele><time>2026-04-06T13:19:31.189Z</time></trkpt><trkpt lat="43.6966835" lon="12.6942343"><ele>163.5</ele><time>2026-04-06T13:19:32.194Z</time></trkpt><trkpt lat="43.6967484" lon="12.6940644"><ele>163.0</ele><time>2026-04-06T13:19:33.19Z</time></trkpt><trkpt lat="43.6968146" lon="12.6938935"><ele>163.0</ele><time>2026-04-06T13:19:34.19Z</time></trkpt><trkpt lat="43.6968952" lon="12.6937196"><ele>163.0</ele><time>2026-04-06T13:19:35.186Z</time></trkpt><trkpt lat="43.6969801" lon="12.6935399"><ele>163.0</ele><time>2026-04-06T13:19:36.191Z</time></trkpt><trkpt lat="43.697044" lon="12.6933672"><ele>163.0</ele><time>2026-04-06T13:19:37.197Z</time></trkpt><trkpt lat="43.6971086" lon="12.6932087"><ele>163.33333333333334</ele><time>2026-04-06T13:19:38.195Z</time></trkpt><trkpt lat="43.6971888" lon="12.6930295"><ele>163.66666666666666</ele><time>2026-04-06T13:19:39.187Z</time></trkpt><trkpt lat="43.6972635" lon="12.6928373"><ele>164.0</ele><time>2026-04-06T13:19:40.187Z</time></trkpt><trkpt lat="43.6973433" lon="12.6926422"><ele>164.0</ele><time>2026-04-06T13:19:41.191Z</time></trkpt><trkpt lat="43.6974316" lon="12.6924411"><ele>164.0</ele><time>2026-04-06T13:19:42.185Z</time></trkpt><trkpt lat="43.6975239" lon="12.6922475"><ele>164.0</ele><time>2026-04-06T13:19:43.193Z</time></trkpt><trkpt lat="43.697593" lon="12.6920493"><ele>164.0</ele><time>2026-04-06T13:19:44.191Z</time></trkpt><trkpt lat="43.6976933" lon="12.6918536"><ele>164.0</ele><time>2026-04-06T13:19:45.196Z</time></trkpt><trkpt lat="43.6977885" lon="12.6916391"><ele>164.0</ele><time>2026-04-06T13:19:46.191Z</time></trkpt><trkpt lat="43.6978661" lon="12.6914166"><ele>166.0</ele><time>2026-04-06T13:19:47.184Z</time></trkpt><trkpt lat="43.6979475" lon="12.6911951"><ele>168.0</ele><time>2026-04-06T13:19:48.184Z</time></trkpt><trkpt lat="43.6980269" lon="12.6909622"><ele>170.0</ele><time>2026-04-06T13:19:49.187Z</time></trkpt><trkpt lat="43.6980988" lon="12.6907371"><ele>170.0</ele><time>2026-04-06T13:19:50.187Z</time></trkpt><trkpt lat="43.698164" lon="12.6904978"><ele>170.0</ele><time>2026-04-06T13:19:51.179Z</time></trkpt><trkpt lat="43.6982419" lon="12.6902326"><ele>170.0</ele><time>2026-04-06T13:19:52.19Z</time></trkpt><trkpt lat="43.6983242" lon="12.6899461"><ele>169.5</ele><time>2026-04-06T13:19:53.183Z</time></trkpt><trkpt lat="43.698425" lon="12.6896457"><ele>169.0</ele><time>2026-04-06T13:19:54.195Z</time></trkpt><trkpt lat="43.6985372" lon="12.689337"><ele>171.5</ele><time>2026-04-06T13:19:55.192Z</time></trkpt><trkpt lat="43.6986496" lon="12.6890121"><ele>174.0</ele><time>2026-04-06T13:19:56.196Z</time></trkpt><trkpt lat="43.6987651" lon="12.6886826"><ele>174.5</ele><time>2026-04-06T13:19:57.189Z</time></trkpt><trkpt lat="43.6988628" lon="12.6883248"><ele>175.0</ele><time>2026-04-06T13:19:58.185Z</time></trkpt><trkpt lat="43.6989622" lon="12.6879667"><ele>176.5</ele><time>2026-04-06T13:19:59.185Z</time></trkpt><trkpt lat="43.6990544" lon="12.687654"><ele>178.0</ele><time>2026-04-06T13:20:00.184Z</time></trkpt><trkpt lat="43.699153" lon="12.6873532"><ele>178.0</ele><time>2026-04-06T13:20:01.18Z</time></trkpt><trkpt lat="43.6992443" lon="12.6870781"><ele>178.0</ele><time>2026-04-06T13:20:02.187Z</time></trkpt><trkpt lat="43.6993303" lon="12.686807"><ele>178.0</ele><time>2026-04-06T13:20:03.185Z</time></trkpt><trkpt lat="43.6994219" lon="12.6865458"><ele>179.33333333333334</ele><time>2026-04-06T13:20:04.184Z</time></trkpt><trkpt lat="43.6995011" lon="12.6863166"><ele>180.66666666666666</ele><time>2026-04-06T13:20:05.183Z</time></trkpt><trkpt lat="43.6995715" lon="12.686098"><ele>182.0</ele><time>2026-04-06T13:20:06.184Z</time></trkpt><trkpt lat="43.6996277" lon="12.6858972"><ele>182.0</ele><time>2026-04-06T13:20:07.189Z</time></trkpt><trkpt lat="43.6996811" lon="12.6857162"><ele>182.0</ele><time>2026-04-06T13:20:08.185Z</time></trkpt><trkpt lat="43.6997302" lon="12.6855486"><ele>182.0</ele><time>2026-04-06T13:20:09.193Z</time></trkpt><trkpt lat="43.6997937" lon="12.6854108"><ele>182.0</ele><time>2026-04-06T13:20:10.188Z</time></trkpt><trkpt lat="43.699885" lon="12.6853002"><ele>182.0</ele><time>2026-04-06T13:20:11.181Z</time></trkpt><trkpt lat="43.7000094" lon="12.6852543"><ele>182.0</ele><time>2026-04-06T13:20:12.187Z</time></trkpt><trkpt lat="43.7001516" lon="12.6852716"><ele>182.0</ele><time>2026-04-06T13:20:13.188Z</time></trkpt><trkpt lat="43.7003103" lon="12.6853256"><ele>182.0</ele><time>2026-04-06T13:20:14.179Z</time></trkpt><trkpt lat="43.7004768" lon="12.6853616"><ele>183.33333333333331</ele><time>2026-04-06T13:20:15.19Z</time></trkpt><trkpt lat="43.7006566" lon="12.6853375"><ele>184.66666666666666</ele><time>2026-04-06T13:20:16.179Z</time></trkpt><trkpt lat="43.7008343" lon="12.6852479"><ele>186.0</ele><time>2026-04-06T13:20:17.171Z</time></trkpt><trkpt lat="43.7010081" lon="12.6850766"><ele>182.33333333333334</ele><time>2026-04-06T13:20:18.174Z</time></trkpt><trkpt lat="43.7011375" lon="12.6848877"><ele>178.66666666666669</ele><time>2026-04-06T13:20:19.163Z</time></trkpt><trkpt lat="43.7012469" lon="12.6846843"><ele>175.0</ele><time>2026-04-06T13:20:20.176Z</time></trkpt><trkpt lat="43.7013259" lon="12.6844459"><ele>173.0</ele><time>2026-04-06T13:20:21.177Z</time></trkpt><trkpt lat="43.7014075" lon="12.6842352"><ele>171.0</ele><time>2026-04-06T13:20:22.179Z</time></trkpt><trkpt lat="43.7014881" lon="12.6840515"><ele>169.0</ele><time>2026-04-06T13:20:23.185Z</time></trkpt><trkpt lat="43.7015634" lon="12.6838855"><ele>169.0</ele><time>2026-04-06T13:20:24.185Z</time></trkpt><trkpt lat="43.7016296" lon="12.6837437"><ele>169.0</ele><time>2026-04-06T13:20:25.184Z</time></trkpt><trkpt lat="43.7016783" lon="12.6835993"><ele>169.0</ele><time>2026-04-06T13:20:26.185Z</time></trkpt><trkpt lat="43.7017152" lon="12.6834791"><ele>169.0</ele><time>2026-04-06T13:20:27.185Z</time></trkpt><trkpt lat="43.7017484" lon="12.6834015"><ele>169.0</ele><time>2026-04-06T13:20:28.183Z</time></trkpt><trkpt lat="43.7018191" lon="12.6833553"><ele>168.33333333333334</ele><time>2026-04-06T13:20:30.188Z</time></trkpt><trkpt lat="43.7018758" lon="12.6834472"><ele>167.66666666666669</ele><time>2026-04-06T13:20:32.202Z</time></trkpt><trkpt lat="43.7019313" lon="12.6835555"><ele>167.0</ele><time>2026-04-06T13:20:34.182Z</time></trkpt><trkpt lat="43.7019915" lon="12.6835113"><ele>166.33333333333334</ele><time>2026-04-06T13:20:36.197Z</time></trkpt><trkpt lat="43.7020143" lon="12.68343"><ele>165.66666666666666</ele><time>2026-04-06T13:20:37.195Z</time></trkpt><trkpt lat="43.702042" lon="12.6833144"><ele>165.0</ele><time>2026-04-06T13:20:38.174Z</time></trkpt><trkpt lat="43.7020685" lon="12.6831787"><ele>168.25</ele><time>2026-04-06T13:20:39.169Z</time></trkpt><trkpt lat="43.7021023" lon="12.6830193"><ele>171.5</ele><time>2026-04-06T13:20:40.175Z</time></trkpt><trkpt lat="43.7021383" lon="12.6828585"><ele>174.75</ele><time>2026-04-06T13:20:41.171Z</time></trkpt><trkpt lat="43.702182" lon="12.6827156"><ele>178.0</ele><time>2026-04-06T13:20:42.177Z</time></trkpt><trkpt lat="43.7022212" lon="12.6825817"><ele>178.25</ele><time>2026-04-06T13:20:43.175Z</time></trkpt><trkpt lat="43.7022525" lon="12.6824301"><ele>178.5</ele><time>2026-04-06T13:20:44.178Z</time></trkpt><trkpt lat="43.7022889" lon="12.6822601"><ele>178.75</ele><time>2026-04-06T13:20:45.176Z</time></trkpt><trkpt lat="43.7023364" lon="12.6820603"><ele>179.0</ele><time>2026-04-06T13:20:46.181Z</time></trkpt><trkpt lat="43.7024145" lon="12.6818415"><ele>180.5</ele><time>2026-04-06T13:20:47.178Z</time></trkpt><trkpt lat="43.7024658" lon="12.6817093"><ele>182.0</ele><time>2026-04-06T13:20:48.174Z</time></trkpt><trkpt lat="43.7025332" lon="12.6815657"><ele>183.5</ele><time>2026-04-06T13:20:49.182Z</time></trkpt><trkpt lat="43.702574" lon="12.6814098"><ele>185.0</ele><time>2026-04-06T13:20:50.18Z</time></trkpt><trkpt lat="43.7026271" lon="12.6812663"><ele>185.0</ele><time>2026-04-06T13:20:51.181Z</time></trkpt><trkpt lat="43.7026936" lon="12.6811223"><ele>185.0</ele><time>2026-04-06T13:20:52.183Z</time></trkpt><trkpt lat="43.7028097" lon="12.6809914"><ele>185.0</ele><time>2026-04-06T13:20:53.173Z</time></trkpt><trkpt lat="43.7029241" lon="12.6808707"><ele>185.0</ele><time>2026-04-06T13:20:54.188Z</time></trkpt><trkpt lat="43.7030504" lon="12.6808104"><ele>187.66666666666666</ele><time>2026-04-06T13:20:55.191Z</time></trkpt><trkpt lat="43.7032234" lon="12.6807848"><ele>190.33333333333331</ele><time>2026-04-06T13:20:56.195Z</time></trkpt><trkpt lat="43.7033998" lon="12.6807513"><ele>193.0</ele><time>2026-04-06T13:20:57.181Z</time></trkpt><trkpt lat="43.7035914" lon="12.6806728"><ele>194.0</ele><time>2026-04-06T13:20:58.186Z</time></trkpt><trkpt lat="43.7038042" lon="12.680615"><ele>195.0</ele><time>2026-04-06T13:20:59.189Z</time></trkpt><trkpt lat="43.7040374" lon="12.6805757"><ele>195.0</ele><time>2026-04-06T13:21:00.189Z</time></trkpt><trkpt lat="43.7042861" lon="12.680565"><ele>195.0</ele><time>2026-04-06T13:21:01.187Z</time></trkpt><trkpt lat="43.7045163" lon="12.6805682"><ele>197.33333333333331</ele><time>2026-04-06T13:21:02.187Z</time></trkpt><trkpt lat="43.7047288" lon="12.6805673"><ele>199.66666666666666</ele><time>2026-04-06T13:21:03.182Z</time></trkpt><trkpt lat="43.7049454" lon="12.6805512"><ele>202.0</ele><time>2026-04-06T13:21:04.185Z</time></trkpt><trkpt lat="43.7051747" lon="12.6804979"><ele>208.0</ele><time>2026-04-06T13:21:05.174Z</time></trkpt><trkpt lat="43.7054056" lon="12.6804254"><ele>214.0</ele><time>2026-04-06T13:21:06.182Z</time></trkpt><trkpt lat="43.7056381" lon="12.6803556"><ele>210.0</ele><time>2026-04-06T13:21:07.184Z</time></trkpt><trkpt lat="43.7058595" lon="12.6802614"><ele>206.0</ele><time>2026-04-06T13:21:08.172Z</time></trkpt><trkpt lat="43.7060764" lon="12.6801448"><ele>210.5</ele><time>2026-04-06T13:21:09.17Z</time></trkpt><trkpt lat="43.7062632" lon="12.6800321"><ele>215.0</ele><time>2026-04-06T13:21:10.171Z</time></trkpt><trkpt lat="43.7066685" lon="12.6797977"><ele>215.0</ele><time>2026-04-06T13:21:12.178Z</time></trkpt><trkpt lat="43.7068682" lon="12.679677"><ele>215.0</ele><time>2026-04-06T13:21:13.176Z</time></trkpt><trkpt lat="43.7070674" lon="12.6795599"><ele>215.0</ele><time>2026-04-06T13:21:14.177Z</time></trkpt><trkpt lat="43.7072289" lon="12.6794528"><ele>214.0</ele><time>2026-04-06T13:21:15.179Z</time></trkpt><trkpt lat="43.7073707" lon="12.6793795"><ele>213.0</ele><time>2026-04-06T13:21:16.183Z</time></trkpt><trkpt lat="43.7074836" lon="12.6793264"><ele>212.0</ele><time>2026-04-06T13:21:17.176Z</time></trkpt><trkpt lat="43.7075929" lon="12.679323"><ele>211.0</ele><time>2026-04-06T13:21:18.173Z</time></trkpt><trkpt lat="43.7077411" lon="12.6793476"><ele>215.0</ele><time>2026-04-06T13:21:19.175Z</time></trkpt><trkpt lat="43.7079012" lon="12.6793956"><ele>219.0</ele><time>2026-04-06T13:21:20.172Z</time></trkpt><trkpt lat="43.708064" lon="12.6793719"><ele>223.0</ele><time>2026-04-06T13:21:21.178Z</time></trkpt><trkpt lat="43.708225" lon="12.6792955"><ele>223.0</ele><time>2026-04-06T13:21:22.177Z</time></trkpt><trkpt lat="43.7083569" lon="12.6791965"><ele>223.0</ele><time>2026-04-06T13:21:23.172Z</time></trkpt><trkpt lat="43.7084777" lon="12.6791361"><ele>223.0</ele><time>2026-04-06T13:21:24.177Z</time></trkpt><trkpt lat="43.7085836" lon="12.6791376"><ele>223.0</ele><time>2026-04-06T13:21:25.174Z</time></trkpt><trkpt lat="43.7087066" lon="12.6791646"><ele>226.5</ele><time>2026-04-06T13:21:26.179Z</time></trkpt><trkpt lat="43.7088307" lon="12.679173"><ele>230.0</ele><time>2026-04-06T13:21:27.174Z</time></trkpt><trkpt lat="43.7089633" lon="12.6791578"><ele>233.5</ele><time>2026-04-06T13:21:28.172Z</time></trkpt><trkpt lat="43.7090594" lon="12.6791064"><ele>237.0</ele><time>2026-04-06T13:21:29.175Z</time></trkpt><trkpt lat="43.7091686" lon="12.6790082"><ele>237.0</ele><time>2026-04-06T13:21:30.176Z</time></trkpt><trkpt lat="43.7092888" lon="12.6788619"><ele>237.0</ele><time>2026-04-06T13:21:31.171Z</time></trkpt><trkpt lat="43.7094061" lon="12.6787062"><ele>237.0</ele><time>2026-04-06T13:21:32.172Z</time></trkpt><trkpt lat="43.7095104" lon="12.6786108"><ele>237.0</ele><time>2026-04-06T13:21:33.168Z</time></trkpt><trkpt lat="43.7096044" lon="12.6785544"><ele>237.25</ele><time>2026-04-06T13:21:34.179Z</time></trkpt><trkpt lat="43.709735" lon="12.6785314"><ele>237.5</ele><time>2026-04-06T13:21:35.173Z</time></trkpt><trkpt lat="43.7098801" lon="12.678539"><ele>237.75</ele><time>2026-04-06T13:21:36.177Z</time></trkpt><trkpt lat="43.7100297" lon="12.6784811"><ele>238.0</ele><time>2026-04-06T13:21:37.18Z</time></trkpt><trkpt lat="43.7101686" lon="12.6783446"><ele>242.66666666666666</ele><time>2026-04-06T13:21:38.176Z</time></trkpt><trkpt lat="43.7103124" lon="12.678186"><ele>247.33333333333331</ele><time>2026-04-06T13:21:39.171Z</time></trkpt><trkpt lat="43.7104423" lon="12.6780217"><ele>252.0</ele><time>2026-04-06T13:21:40.177Z</time></trkpt><trkpt lat="43.7105526" lon="12.6779092"><ele>252.0</ele><time>2026-04-06T13:21:41.176Z</time></trkpt><trkpt lat="43.7106714" lon="12.6778087"><ele>252.0</ele><time>2026-04-06T13:21:42.176Z</time></trkpt><trkpt lat="43.7107808" lon="12.6777122"><ele>252.0</ele><time>2026-04-06T13:21:43.17Z</time></trkpt><trkpt lat="43.7109276" lon="12.6776392"><ele>252.0</ele><time>2026-04-06T13:21:44.171Z</time></trkpt><trkpt lat="43.7110757" lon="12.6775619"><ele>250.66666666666669</ele><time>2026-04-06T13:21:45.179Z</time></trkpt><trkpt lat="43.7112253" lon="12.6774806"><ele>249.33333333333334</ele><time>2026-04-06T13:21:46.163Z</time></trkpt><trkpt lat="43.7113797" lon="12.6773214"><ele>248.0</ele><time>2026-04-06T13:21:47.175Z</time></trkpt><trkpt lat="43.7115184" lon="12.6771282"><ele>248.0</ele><time>2026-04-06T13:21:48.177Z</time></trkpt><trkpt lat="43.7116441" lon="12.6769751"><ele>248.0</ele><time>2026-04-06T13:21:49.173Z</time></trkpt><trkpt lat="43.7117586" lon="12.6768708"><ele>248.0</ele><time>2026-04-06T13:21:50.166Z</time></trkpt><trkpt lat="43.7118882" lon="12.6767839"><ele>248.0</ele><time>2026-04-06T13:21:51.174Z</time></trkpt><trkpt lat="43.7120027" lon="12.6766877"><ele>247.2</ele><time>2026-04-06T13:21:52.174Z</time></trkpt><trkpt lat="43.712083" lon="12.6765653"><ele>246.4</ele><time>2026-04-06T13:21:53.173Z</time></trkpt><trkpt lat="43.7121345" lon="12.6764409"><ele>245.59999999999997</ele><time>2026-04-06T13:21:54.172Z</time></trkpt><trkpt lat="43.7121752" lon="12.6763136"><ele>244.79999999999998</ele><time>2026-04-06T13:21:55.176Z</time></trkpt><trkpt lat="43.7122351" lon="12.6761869"><ele>244.0</ele><time>2026-04-06T13:21:56.176Z</time></trkpt><trkpt lat="43.7123047" lon="12.6760676"><ele>241.75</ele><time>2026-04-06T13:21:57.18Z</time></trkpt><trkpt lat="43.7123834" lon="12.6759497"><ele>239.5</ele><time>2026-04-06T13:21:58.174Z</time></trkpt><trkpt lat="43.7124675" lon="12.6758483"><ele>237.25</ele><time>2026-04-06T13:21:59.178Z</time></trkpt><trkpt lat="43.7125613" lon="12.6757642"><ele>235.0</ele><time>2026-04-06T13:22:00.183Z</time></trkpt><trkpt lat="43.7126629" lon="12.6756881"><ele>237.6</ele><time>2026-04-06T13:22:01.176Z</time></trkpt><trkpt lat="43.7127594" lon="12.6756259"><ele>240.2</ele><time>2026-04-06T13:22:02.174Z</time></trkpt><trkpt lat="43.7128466" lon="12.6755979"><ele>242.8</ele><time>2026-04-06T13:22:03.175Z</time></trkpt><trkpt lat="43.7129367" lon="12.6756179"><ele>245.4</ele><time>2026-04-06T13:22:04.182Z</time></trkpt><trkpt lat="43.7130394" lon="12.675657"><ele>248.0</ele><time>2026-04-06T13:22:05.188Z</time></trkpt><trkpt lat="43.7131487" lon="12.675686"><ele>248.0</ele><time>2026-04-06T13:22:06.182Z</time></trkpt><trkpt lat="43.7132499" lon="12.6756779"><ele>248.0</ele><time>2026-04-06T13:22:07.187Z</time></trkpt><trkpt lat="43.713343" lon="12.6756449"><ele>248.0</ele><time>2026-04-06T13:22:08.154Z</time></trkpt><trkpt lat="43.7134369" lon="12.675579"><ele>248.0</ele><time>2026-04-06T13:22:09.174Z</time></trkpt><trkpt lat="43.713527" lon="12.6754866"><ele>248.0</ele><time>2026-04-06T13:22:10.175Z</time></trkpt><trkpt lat="43.7136009" lon="12.6753903"><ele>251.2</ele><time>2026-04-06T13:22:11.167Z</time></trkpt><trkpt lat="43.7136872" lon="12.6753184"><ele>254.4</ele><time>2026-04-06T13:22:12.169Z</time></trkpt><trkpt lat="43.71379" lon="12.6752681"><ele>257.59999999999997</ele><time>2026-04-06T13:22:13.174Z</time></trkpt><trkpt lat="43.7139018" lon="12.6752434"><ele>260.8</ele><time>2026-04-06T13:22:14.174Z</time></trkpt><trkpt lat="43.7140158" lon="12.6752303"><ele>264.0</ele><time>2026-04-06T13:22:15.174Z</time></trkpt><trkpt lat="43.7141304" lon="12.6752172"><ele>258.25</ele><time>2026-04-06T13:22:16.168Z</time></trkpt><trkpt lat="43.7142447" lon="12.6752044"><ele>252.5</ele><time>2026-04-06T13:22:17.168Z</time></trkpt><trkpt lat="43.7143597" lon="12.6751986"><ele>246.75</ele><time>2026-04-06T13:22:18.165Z</time></trkpt><trkpt lat="43.7144774" lon="12.6751976"><ele>241.0</ele><time>2026-04-06T13:22:19.162Z</time></trkpt><trkpt lat="43.7145958" lon="12.675193"><ele>241.0</ele><time>2026-04-06T13:22:20.162Z</time></trkpt><trkpt lat="43.7147159" lon="12.6751845"><ele>241.00000000000003</ele><time>2026-04-06T13:22:21.168Z</time></trkpt><trkpt lat="43.7148227" lon="12.675163"><ele>241.00000000000003</ele><time>2026-04-06T13:22:22.171Z</time></trkpt><trkpt lat="43.7149308" lon="12.6751393"><ele>241.0</ele><time>2026-04-06T13:22:23.166Z</time></trkpt><trkpt lat="43.7150301" lon="12.6751059"><ele>241.0</ele><time>2026-04-06T13:22:24.17Z</time></trkpt><trkpt lat="43.7151115" lon="12.6750531"><ele>240.99999999999997</ele><time>2026-04-06T13:22:25.17Z</time></trkpt><trkpt lat="43.7151732" lon="12.6749697"><ele>241.0</ele><time>2026-04-06T13:22:26.171Z</time></trkpt><trkpt lat="43.7152025" lon="12.6748819"><ele>241.0</ele><time>2026-04-06T13:22:27.171Z</time></trkpt><trkpt lat="43.7151858" lon="12.6747794"><ele>241.0</ele><time>2026-04-06T13:22:29.163Z</time></trkpt><trkpt lat="43.7151" lon="12.6747298"><ele>240.99999999999997</ele><time>2026-04-06T13:22:31.205Z</time></trkpt><trkpt lat="43.7150234" lon="12.674684"><ele>241.0</ele><time>2026-04-06T13:22:32.179Z</time></trkpt><trkpt lat="43.7149496" lon="12.6746302"><ele>241.0</ele><time>2026-04-06T13:22:33.18Z</time></trkpt><trkpt lat="43.7148921" lon="12.6745479"><ele>241.00000000000003</ele><time>2026-04-06T13:22:34.162Z</time></trkpt><trkpt lat="43.7148635" lon="12.6744467"><ele>241.00000000000003</ele><time>2026-04-06T13:22:35.168Z</time></trkpt><trkpt lat="43.7148665" lon="12.6743256"><ele>241.0</ele><time>2026-04-06T13:22:36.172Z</time></trkpt><trkpt lat="43.7148754" lon="12.6741926"><ele>241.0</ele><time>2026-04-06T13:22:37.178Z</time></trkpt><trkpt lat="43.7148887" lon="12.6740464"><ele>243.75</ele><time>2026-04-06T13:22:38.182Z</time></trkpt><trkpt lat="43.714905" lon="12.6738868"><ele>246.5</ele><time>2026-04-06T13:22:39.181Z</time></trkpt><trkpt lat="43.7149148" lon="12.673721"><ele>249.25</ele><time>2026-04-06T13:22:40.188Z</time></trkpt><trkpt lat="43.7149121" lon="12.6735623"><ele>252.0</ele><time>2026-04-06T13:22:41.196Z</time></trkpt><trkpt lat="43.714874" lon="12.67342"><ele>255.39999999999998</ele><time>2026-04-06T13:22:42.19Z</time></trkpt><trkpt lat="43.7148226" lon="12.6732929"><ele>258.79999999999995</ele><time>2026-04-06T13:22:43.191Z</time></trkpt><trkpt lat="43.7147772" lon="12.6731665"><ele>262.2</ele><time>2026-04-06T13:22:44.186Z</time></trkpt><trkpt lat="43.7147539" lon="12.6730313"><ele>265.59999999999997</ele><time>2026-04-06T13:22:45.192Z</time></trkpt><trkpt lat="43.7147507" lon="12.6728914"><ele>269.0</ele><time>2026-04-06T13:22:46.197Z</time></trkpt><trkpt lat="43.7147784" lon="12.6727487"><ele>270.8</ele><time>2026-04-06T13:22:47.189Z</time></trkpt><trkpt lat="43.7148163" lon="12.6726062"><ele>272.59999999999997</ele><time>2026-04-06T13:22:48.199Z</time></trkpt><trkpt lat="43.7148672" lon="12.6724751"><ele>274.4</ele><time>2026-04-06T13:22:49.198Z</time></trkpt><trkpt lat="43.7149152" lon="12.6723333"><ele>276.2</ele><time>2026-04-06T13:22:50.195Z</time></trkpt><trkpt lat="43.7149634" lon="12.6721905"><ele>278.0</ele><time>2026-04-06T13:22:51.195Z</time></trkpt><trkpt lat="43.7150132" lon="12.6720466"><ele>278.4</ele><time>2026-04-06T13:22:52.196Z</time></trkpt><trkpt lat="43.715064" lon="12.6719097"><ele>278.8</ele><time>2026-04-06T13:22:53.194Z</time></trkpt><trkpt lat="43.7151131" lon="12.6717838"><ele>279.2</ele><time>2026-04-06T13:22:54.186Z</time></trkpt><trkpt lat="43.7151564" lon="12.671661"><ele>279.6</ele><time>2026-04-06T13:22:55.186Z</time></trkpt><trkpt lat="43.7151958" lon="12.6715415"><ele>280.0</ele><time>2026-04-06T13:22:56.183Z</time></trkpt><trkpt lat="43.7152381" lon="12.6714126"><ele>285.5</ele><time>2026-04-06T13:22:57.195Z</time></trkpt><trkpt lat="43.7152795" lon="12.6712629"><ele>291.0</ele><time>2026-04-06T13:22:58.189Z</time></trkpt><trkpt lat="43.7153156" lon="12.6710956"><ele>296.5</ele><time>2026-04-06T13:22:59.195Z</time></trkpt><trkpt lat="43.7153356" lon="12.6709256"><ele>302.0</ele><time>2026-04-06T13:23:00.185Z</time></trkpt><trkpt lat="43.7153307" lon="12.6707591"><ele>302.25</ele><time>2026-04-06T13:23:01.186Z</time></trkpt><trkpt lat="43.7152774" lon="12.6705904"><ele>302.5</ele><time>2026-04-06T13:23:02.191Z</time></trkpt><trkpt lat="43.7152083" lon="12.6704333"><ele>302.75</ele><time>2026-04-06T13:23:03.179Z</time></trkpt><trkpt lat="43.7151521" lon="12.6702839"><ele>303.0</ele><time>2026-04-06T13:23:04.192Z</time></trkpt><trkpt lat="43.7151189" lon="12.6701679"><ele>304.0</ele><time>2026-04-06T13:23:05.184Z</time></trkpt><trkpt lat="43.7151621" lon="12.6700768"><ele>305.0</ele><time>2026-04-06T13:23:07.201Z</time></trkpt><trkpt lat="43.7152339" lon="12.6701358"><ele>306.0</ele><time>2026-04-06T13:23:09.21Z</time></trkpt><trkpt lat="43.7153094" lon="12.6702673"><ele>307.0</ele><time>2026-04-06T13:23:11.194Z</time></trkpt><trkpt lat="43.7154016" lon="12.6702469"><ele>308.0</ele><time>2026-04-06T13:23:13.183Z</time></trkpt><trkpt lat="43.7154184" lon="12.6701104"><ele>308.0</ele><time>2026-04-06T13:23:15.195Z</time></trkpt><trkpt lat="43.7153844" lon="12.6700216"><ele>308.0</ele><time>2026-04-06T13:23:16.19Z</time></trkpt><trkpt lat="43.715334" lon="12.6699292"><ele>308.0</ele><time>2026-04-06T13:23:17.193Z</time></trkpt><trkpt lat="43.7152915" lon="12.6698241"><ele>308.0</ele><time>2026-04-06T13:23:18.196Z</time></trkpt><trkpt lat="43.7152951" lon="12.6697107"><ele>308.0</ele><time>2026-04-06T13:23:19.194Z</time></trkpt><trkpt lat="43.7153442" lon="12.6696067"><ele>308.0</ele><time>2026-04-06T13:23:20.192Z</time></trkpt><trkpt lat="43.7154209" lon="12.6695056"><ele>308.5</ele><time>2026-04-06T13:23:21.188Z</time></trkpt><trkpt lat="43.7155163" lon="12.6694166"><ele>309.0</ele><time>2026-04-06T13:23:22.179Z</time></trkpt><trkpt lat="43.7156279" lon="12.6693281"><ele>309.5</ele><time>2026-04-06T13:23:23.181Z</time></trkpt><trkpt lat="43.7157641" lon="12.6692274"><ele>310.0</ele><time>2026-04-06T13:23:24.18Z</time></trkpt><trkpt lat="43.7159137" lon="12.6691089"><ele>310.0</ele><time>2026-04-06T13:23:25.18Z</time></trkpt><trkpt lat="43.7160442" lon="12.6689983"><ele>310.0</ele><time>2026-04-06T13:23:26.185Z</time></trkpt><trkpt lat="43.7161458" lon="12.668906"><ele>310.0</ele><time>2026-04-06T13:23:27.175Z</time></trkpt><trkpt lat="43.7162128" lon="12.6688111"><ele>310.0</ele><time>2026-04-06T13:23:28.171Z</time></trkpt><trkpt lat="43.7162272" lon="12.6687245"><ele>310.0</ele><time>2026-04-06T13:23:29.182Z</time></trkpt><trkpt lat="43.7162043" lon="12.6686353"><ele>310.6</ele><time>2026-04-06T13:23:30.176Z</time></trkpt><trkpt lat="43.7161211" lon="12.6685404"><ele>311.2</ele><time>2026-04-06T13:23:31.174Z</time></trkpt><trkpt lat="43.7160457" lon="12.6684487"><ele>311.8</ele><time>2026-04-06T13:23:32.173Z</time></trkpt><trkpt lat="43.7159777" lon="12.6683594"><ele>312.4</ele><time>2026-04-06T13:23:33.174Z</time></trkpt><trkpt lat="43.7159303" lon="12.6682784"><ele>313.0</ele><time>2026-04-06T13:23:34.168Z</time></trkpt><trkpt lat="43.7158926" lon="12.6681925"><ele>313.0</ele><time>2026-04-06T13:23:35.173Z</time></trkpt><trkpt lat="43.7158601" lon="12.6680636"><ele>313.0</ele><time>2026-04-06T13:23:36.169Z</time></trkpt><trkpt lat="43.7158405" lon="12.6679085"><ele>313.0</ele><time>2026-04-06T13:23:37.168Z</time></trkpt><trkpt lat="43.7158442" lon="12.667743"><ele>313.0</ele><time>2026-04-06T13:23:38.168Z</time></trkpt><trkpt lat="43.7158662" lon="12.6675888"><ele>313.0</ele><time>2026-04-06T13:23:39.172Z</time></trkpt><trkpt lat="43.715904" lon="12.6674509"><ele>312.5</ele><time>2026-04-06T13:23:40.169Z</time></trkpt><trkpt lat="43.7159702" lon="12.667337"><ele>312.0</ele><time>2026-04-06T13:23:41.172Z</time></trkpt><trkpt lat="43.7160533" lon="12.6672351"><ele>311.5</ele><time>2026-04-06T13:23:42.172Z</time></trkpt><trkpt lat="43.7161453" lon="12.6671222"><ele>311.0</ele><time>2026-04-06T13:23:43.174Z</time></trkpt><trkpt lat="43.7162274" lon="12.6669745"><ele>316.33333333333337</ele><time>2026-04-06T13:23:44.178Z</time></trkpt><trkpt lat="43.7163274" lon="12.6667844"><ele>321.6666666666667</ele><time>2026-04-06T13:23:45.187Z</time></trkpt><trkpt lat="43.7164575" lon="12.6665755"><ele>327.0</ele><time>2026-04-06T13:23:46.171Z</time></trkpt><trkpt lat="43.7165688" lon="12.6664253"><ele>327.0</ele><time>2026-04-06T13:23:47.184Z</time></trkpt><trkpt lat="43.7166497" lon="12.6662957"><ele>327.0</ele><time>2026-04-06T13:23:48.18Z</time></trkpt><trkpt lat="43.7167291" lon="12.6661913"><ele>327.0</ele><time>2026-04-06T13:23:49.182Z</time></trkpt><trkpt lat="43.7168123" lon="12.6661073"><ele>327.0</ele><time>2026-04-06T13:23:50.174Z</time></trkpt><trkpt lat="43.7169139" lon="12.6660103"><ele>328.0</ele><time>2026-04-06T13:23:51.172Z</time></trkpt><trkpt lat="43.7170264" lon="12.6659211"><ele>329.0</ele><time>2026-04-06T13:23:52.171Z</time></trkpt><trkpt lat="43.7171354" lon="12.6658237"><ele>330.0</ele><time>2026-04-06T13:23:53.171Z</time></trkpt><trkpt lat="43.7172509" lon="12.6657173"><ele>331.0</ele><time>2026-04-06T13:23:54.173Z</time></trkpt><trkpt lat="43.7173612" lon="12.6656016"><ele>331.0</ele><time>2026-04-06T13:23:55.178Z</time></trkpt><trkpt lat="43.7174793" lon="12.6654994"><ele>331.0</ele><time>2026-04-06T13:23:56.176Z</time></trkpt><trkpt lat="43.7175837" lon="12.6654244"><ele>331.0</ele><time>2026-04-06T13:23:57.173Z</time></trkpt><trkpt lat="43.7176974" lon="12.6653771"><ele>331.0</ele><time>2026-04-06T13:23:58.178Z</time></trkpt><trkpt lat="43.7177914" lon="12.6653522"><ele>330.5</ele><time>2026-04-06T13:23:59.19Z</time></trkpt><trkpt lat="43.7179036" lon="12.6653101"><ele>330.0</ele><time>2026-04-06T13:24:00.178Z</time></trkpt><trkpt lat="43.7180073" lon="12.6651964"><ele>329.5</ele><time>2026-04-06T13:24:01.178Z</time></trkpt><trkpt lat="43.7181132" lon="12.6650594"><ele>329.0</ele><time>2026-04-06T13:24:02.181Z</time></trkpt><trkpt lat="43.7182273" lon="12.6649191"><ele>329.0</ele><time>2026-04-06T13:24:03.182Z</time></trkpt><trkpt lat="43.718366" lon="12.664822"><ele>329.0</ele><time>2026-04-06T13:24:04.18Z</time></trkpt><trkpt lat="43.7185371" lon="12.6647172"><ele>329.0</ele><time>2026-04-06T13:24:05.177Z</time></trkpt><trkpt lat="43.7186797" lon="12.6645954"><ele>329.6666666666667</ele><time>2026-04-06T13:24:06.172Z</time></trkpt><trkpt lat="43.7188229" lon="12.6644781"><ele>330.3333333333333</ele><time>2026-04-06T13:24:07.177Z</time></trkpt><trkpt lat="43.7189583" lon="12.6643445"><ele>331.0</ele><time>2026-04-06T13:24:08.176Z</time></trkpt><trkpt lat="43.7191013" lon="12.6641918"><ele>331.0</ele><time>2026-04-06T13:24:09.168Z</time></trkpt><trkpt lat="43.7192107" lon="12.6640147"><ele>331.0</ele><time>2026-04-06T13:24:10.17Z</time></trkpt><trkpt lat="43.7193053" lon="12.6638314"><ele>331.0</ele><time>2026-04-06T13:24:11.164Z</time></trkpt><trkpt lat="43.7193638" lon="12.6636766"><ele>330.6</ele><time>2026-04-06T13:24:12.187Z</time></trkpt><trkpt lat="43.7194294" lon="12.6635697"><ele>330.20000000000005</ele><time>2026-04-06T13:24:13.182Z</time></trkpt><trkpt lat="43.7194983" lon="12.6634805"><ele>329.79999999999995</ele><time>2026-04-06T13:24:14.179Z</time></trkpt><trkpt lat="43.7195549" lon="12.663424"><ele>329.4</ele><time>2026-04-06T13:24:15.19Z</time></trkpt><trkpt lat="43.7195196" lon="12.6633388"><ele>329.0</ele><time>2026-04-06T13:24:19.194Z</time></trkpt><trkpt lat="43.719393" lon="12.6634285"><ele>329.0</ele><time>2026-04-06T13:24:21.175Z</time></trkpt><trkpt lat="43.7193069" lon="12.6634939"><ele>329.0</ele><time>2026-04-06T13:24:22.177Z</time></trkpt><trkpt lat="43.7192079" lon="12.663559"><ele>329.0</ele><time>2026-04-06T13:24:23.173Z</time></trkpt><trkpt lat="43.7190975" lon="12.66362"><ele>329.0</ele><time>2026-04-06T13:24:24.182Z</time></trkpt><trkpt lat="43.7189776" lon="12.6636826"><ele>328.75</ele><time>2026-04-06T13:24:25.181Z</time></trkpt><trkpt lat="43.718855" lon="12.6637319"><ele>328.5</ele><time>2026-04-06T13:24:26.188Z</time></trkpt><trkpt lat="43.7187264" lon="12.6637494"><ele>328.25</ele><time>2026-04-06T13:24:27.181Z</time></trkpt><trkpt lat="43.7185911" lon="12.663734"><ele>328.0</ele><time>2026-04-06T13:24:28.184Z</time></trkpt><trkpt lat="43.7184581" lon="12.6637"><ele>328.0</ele><time>2026-04-06T13:24:29.185Z</time></trkpt><trkpt lat="43.7183257" lon="12.6636936"><ele>328.0</ele><time>2026-04-06T13:24:30.19Z</time></trkpt><trkpt lat="43.7181815" lon="12.6637327"><ele>328.0</ele><time>2026-04-06T13:24:31.188Z</time></trkpt><trkpt lat="43.718008" lon="12.6637729"><ele>328.0</ele><time>2026-04-06T13:24:32.189Z</time></trkpt><trkpt lat="43.7178416" lon="12.663817"><ele>328.0</ele><time>2026-04-06T13:24:33.185Z</time></trkpt><trkpt lat="43.7176842" lon="12.6638538"><ele>328.0</ele><time>2026-04-06T13:24:34.18Z</time></trkpt><trkpt lat="43.7175248" lon="12.6638884"><ele>328.0</ele><time>2026-04-06T13:24:35.186Z</time></trkpt><trkpt lat="43.7173699" lon="12.6639183"><ele>328.0</ele><time>2026-04-06T13:24:36.182Z</time></trkpt><trkpt lat="43.7172031" lon="12.6639638"><ele>328.0</ele><time>2026-04-06T13:24:37.184Z</time></trkpt><trkpt lat="43.7170371" lon="12.664011"><ele>330.3333333333333</ele><time>2026-04-06T13:24:38.17Z</time></trkpt><trkpt lat="43.7168674" lon="12.6640358"><ele>332.6666666666667</ele><time>2026-04-06T13:24:39.177Z</time></trkpt><trkpt lat="43.7167047" lon="12.6640739"><ele>335.0</ele><time>2026-04-06T13:24:40.173Z</time></trkpt><trkpt lat="43.7165612" lon="12.6641003"><ele>335.0</ele><time>2026-04-06T13:24:41.175Z</time></trkpt><trkpt lat="43.7164391" lon="12.6641445"><ele>335.0</ele><time>2026-04-06T13:24:42.172Z</time></trkpt><trkpt lat="43.7163409" lon="12.6642225"><ele>335.0</ele><time>2026-04-06T13:24:43.182Z</time></trkpt><trkpt lat="43.7162413" lon="12.664412"><ele>335.0</ele><time>2026-04-06T13:24:44.177Z</time></trkpt><trkpt lat="43.7161364" lon="12.6645776"><ele>334.33333333333337</ele><time>2026-04-06T13:24:45.175Z</time></trkpt><trkpt lat="43.7159973" lon="12.6647032"><ele>333.6666666666667</ele><time>2026-04-06T13:24:46.177Z</time></trkpt><trkpt lat="43.7158549" lon="12.6648057"><ele>333.0</ele><time>2026-04-06T13:24:47.179Z</time></trkpt><trkpt lat="43.7157079" lon="12.664905"><ele>333.0</ele><time>2026-04-06T13:24:48.199Z</time></trkpt><trkpt lat="43.7155798" lon="12.6650007"><ele>333.0</ele><time>2026-04-06T13:24:49.193Z</time></trkpt><trkpt lat="43.7154483" lon="12.6650863"><ele>333.0</ele><time>2026-04-06T13:24:50.189Z</time></trkpt><trkpt lat="43.7153236" lon="12.6651329"><ele>333.0</ele><time>2026-04-06T13:24:51.186Z</time></trkpt><trkpt lat="43.715194" lon="12.6651748"><ele>336.75</ele><time>2026-04-06T13:24:52.185Z</time></trkpt><trkpt lat="43.7150458" lon="12.6651862"><ele>340.5</ele><time>2026-04-06T13:24:53.184Z</time></trkpt><trkpt lat="43.7149117" lon="12.6651817"><ele>344.25</ele><time>2026-04-06T13:24:54.187Z</time></trkpt><trkpt lat="43.7147752" lon="12.6651259"><ele>348.0</ele><time>2026-04-06T13:24:55.191Z</time></trkpt><trkpt lat="43.7146364" lon="12.6651082"><ele>348.0</ele><time>2026-04-06T13:24:56.19Z</time></trkpt><trkpt lat="43.7144859" lon="12.6651065"><ele>348.0</ele><time>2026-04-06T13:24:57.194Z</time></trkpt><trkpt lat="43.7143341" lon="12.6651668"><ele>348.0</ele><time>2026-04-06T13:24:58.193Z</time></trkpt><trkpt lat="43.7141976" lon="12.6652644"><ele>344.5</ele><time>2026-04-06T13:24:59.201Z</time></trkpt><trkpt lat="43.7140755" lon="12.6653963"><ele>341.0</ele><time>2026-04-06T13:25:00.183Z</time></trkpt><trkpt lat="43.7139838" lon="12.6655087"><ele>337.5</ele><time>2026-04-06T13:25:01.183Z</time></trkpt><trkpt lat="43.7138935" lon="12.6656096"><ele>334.0</ele><time>2026-04-06T13:25:02.19Z</time></trkpt><trkpt lat="43.7137846" lon="12.6657093"><ele>334.0</ele><time>2026-04-06T13:25:03.183Z</time></trkpt><trkpt lat="43.7136594" lon="12.6657986"><ele>334.0</ele><time>2026-04-06T13:25:04.186Z</time></trkpt><trkpt lat="43.7135335" lon="12.6658434"><ele>334.0</ele><time>2026-04-06T13:25:05.196Z</time></trkpt><trkpt lat="43.7133899" lon="12.6658594"><ele>334.0</ele><time>2026-04-06T13:25:06.193Z</time></trkpt><trkpt lat="43.7132316" lon="12.6658551"><ele>338.0</ele><time>2026-04-06T13:25:07.198Z</time></trkpt><trkpt lat="43.7130704" lon="12.6658385"><ele>342.0</ele><time>2026-04-06T13:25:08.19Z</time></trkpt><trkpt lat="43.7129095" lon="12.6658646"><ele>346.0</ele><time>2026-04-06T13:25:09.199Z</time></trkpt><trkpt lat="43.7127713" lon="12.6659027"><ele>345.6</ele><time>2026-04-06T13:25:10.208Z</time></trkpt><trkpt lat="43.7126561" lon="12.6659946"><ele>345.20000000000005</ele><time>2026-04-06T13:25:11.195Z</time></trkpt><trkpt lat="43.7125715" lon="12.6661098"><ele>344.79999999999995</ele><time>2026-04-06T13:25:12.191Z</time></trkpt><trkpt lat="43.7125098" lon="12.6662194"><ele>344.4</ele><time>2026-04-06T13:25:13.187Z</time></trkpt><trkpt lat="43.7124589" lon="12.6663223"><ele>344.0</ele><time>2026-04-06T13:25:14.183Z</time></trkpt><trkpt lat="43.7124304" lon="12.666403"><ele>344.0</ele><time>2026-04-06T13:25:15.183Z</time></trkpt><trkpt lat="43.7124072" lon="12.6664999"><ele>344.0</ele><time>2026-04-06T13:25:16.192Z</time></trkpt><trkpt lat="43.7124058" lon="12.666626"><ele>344.0</ele><time>2026-04-06T13:25:17.197Z</time></trkpt><trkpt lat="43.7123924" lon="12.6667559"><ele>344.0</ele><time>2026-04-06T13:25:18.199Z</time></trkpt><trkpt lat="43.7123653" lon="12.6668972"><ele>344.0</ele><time>2026-04-06T13:25:19.202Z</time></trkpt><trkpt lat="43.7123192" lon="12.6670097"><ele>343.25</ele><time>2026-04-06T13:25:20.194Z</time></trkpt><trkpt lat="43.7122426" lon="12.6671022"><ele>342.5</ele><time>2026-04-06T13:25:21.196Z</time></trkpt><trkpt lat="43.7121393" lon="12.6671463"><ele>341.75</ele><time>2026-04-06T13:25:22.186Z</time></trkpt><trkpt lat="43.7120216" lon="12.6671709"><ele>341.0</ele><time>2026-04-06T13:25:23.183Z</time></trkpt><trkpt lat="43.7118963" lon="12.6671978"><ele>344.5</ele><time>2026-04-06T13:25:24.183Z</time></trkpt><trkpt lat="43.7117671" lon="12.6672174"><ele>348.0</ele><time>2026-04-06T13:25:25.171Z</time></trkpt><trkpt lat="43.7116316" lon="12.6672304"><ele>351.5</ele><time>2026-04-06T13:25:26.179Z</time></trkpt><trkpt lat="43.7115069" lon="12.6672389"><ele>355.0</ele><time>2026-04-06T13:25:27.173Z</time></trkpt><trkpt lat="43.7113856" lon="12.6672513"><ele>355.0</ele><time>2026-04-06T13:25:28.174Z</time></trkpt><trkpt lat="43.7112812" lon="12.6672823"><ele>355.0</ele><time>2026-04-06T13:25:29.178Z</time></trkpt><trkpt lat="43.7112031" lon="12.6673458"><ele>355.0</ele><time>2026-04-06T13:25:30.151Z</time></trkpt><trkpt lat="43.7111396" lon="12.6674341"><ele>355.0</ele><time>2026-04-06T13:25:31.174Z</time></trkpt><trkpt lat="43.7111113" lon="12.6675796"><ele>355.0</ele><time>2026-04-06T13:25:32.176Z</time></trkpt><trkpt lat="43.7110946" lon="12.6677336"><ele>353.0</ele><time>2026-04-06T13:25:33.172Z</time></trkpt><trkpt lat="43.7110709" lon="12.6678825"><ele>351.0</ele><time>2026-04-06T13:25:34.174Z</time></trkpt><trkpt lat="43.7110383" lon="12.6680283"><ele>349.0</ele><time>2026-04-06T13:25:35.169Z</time></trkpt><trkpt lat="43.7110439" lon="12.6681902"><ele>347.0</ele><time>2026-04-06T13:25:36.173Z</time></trkpt><trkpt lat="43.7110704" lon="12.6683615"><ele>347.20000000000005</ele><time>2026-04-06T13:25:37.189Z</time></trkpt><trkpt lat="43.7110794" lon="12.668536"><ele>347.4</ele><time>2026-04-06T13:25:38.182Z</time></trkpt><trkpt lat="43.7110804" lon="12.6686903"><ele>347.6</ele><time>2026-04-06T13:25:39.185Z</time></trkpt><trkpt lat="43.7110616" lon="12.6688294"><ele>347.79999999999995</ele><time>2026-04-06T13:25:40.193Z</time></trkpt><trkpt lat="43.7109845" lon="12.6689333"><ele>348.0</ele><time>2026-04-06T13:25:41.19Z</time></trkpt><trkpt lat="43.7108892" lon="12.6690007"><ele>348.0</ele><time>2026-04-06T13:25:42.186Z</time></trkpt><trkpt lat="43.710752" lon="12.6690348"><ele>348.0</ele><time>2026-04-06T13:25:43.188Z</time></trkpt><trkpt lat="43.7106008" lon="12.6690676"><ele>348.0</ele><time>2026-04-06T13:25:44.191Z</time></trkpt><trkpt lat="43.7104336" lon="12.6690996"><ele>348.0</ele><time>2026-04-06T13:25:45.185Z</time></trkpt><trkpt lat="43.7103015" lon="12.6691868"><ele>348.0</ele><time>2026-04-06T13:25:46.178Z</time></trkpt><trkpt lat="43.7101866" lon="12.6692518"><ele>348.0</ele><time>2026-04-06T13:25:47.177Z</time></trkpt><trkpt lat="43.7100877" lon="12.6693347"><ele>348.0</ele><time>2026-04-06T13:25:48.184Z</time></trkpt><trkpt lat="43.7099936" lon="12.6694713"><ele>344.6666666666667</ele><time>2026-04-06T13:25:49.195Z</time></trkpt><trkpt lat="43.7098852" lon="12.6696442"><ele>341.33333333333337</ele><time>2026-04-06T13:25:50.189Z</time></trkpt><trkpt lat="43.7097678" lon="12.6698374"><ele>338.0</ele><time>2026-04-06T13:25:51.185Z</time></trkpt><trkpt lat="43.709634" lon="12.6700094"><ele>338.0</ele><time>2026-04-06T13:25:52.189Z</time></trkpt><trkpt lat="43.7095017" lon="12.6701626"><ele>338.0</ele><time>2026-04-06T13:25:53.202Z</time></trkpt><trkpt lat="43.7093723" lon="12.6703144"><ele>338.0</ele><time>2026-04-06T13:25:54.203Z</time></trkpt><trkpt lat="43.7092565" lon="12.6704708"><ele>335.5</ele><time>2026-04-06T13:25:55.199Z</time></trkpt><trkpt lat="43.7091568" lon="12.6706215"><ele>333.0</ele><time>2026-04-06T13:25:56.205Z</time></trkpt><trkpt lat="43.7090537" lon="12.6707708"><ele>330.5</ele><time>2026-04-06T13:25:57.195Z</time></trkpt><trkpt lat="43.7089696" lon="12.6708673"><ele>328.0</ele><time>2026-04-06T13:25:58.194Z</time></trkpt><trkpt lat="43.7088974" lon="12.6709549"><ele>328.0</ele><time>2026-04-06T13:25:59.193Z</time></trkpt><trkpt lat="43.7089048" lon="12.6710503"><ele>328.0</ele><time>2026-04-06T13:26:02.188Z</time></trkpt><trkpt lat="43.7089908" lon="12.6711104"><ele>328.0</ele><time>2026-04-06T13:26:05.196Z</time></trkpt><trkpt lat="43.7090163" lon="12.6711992"><ele>328.0</ele><time>2026-04-06T13:26:06.188Z</time></trkpt><trkpt lat="43.7090711" lon="12.6713365"><ele>328.0</ele><time>2026-04-06T13:26:07.184Z</time></trkpt><trkpt lat="43.7091346" lon="12.671491"><ele>327.79999999999995</ele><time>2026-04-06T13:26:08.174Z</time></trkpt><trkpt lat="43.709191" lon="12.671626"><ele>327.6</ele><time>2026-04-06T13:26:09.174Z</time></trkpt><trkpt lat="43.7092332" lon="12.6717622"><ele>327.4</ele><time>2026-04-06T13:26:10.166Z</time></trkpt><trkpt lat="43.7092641" lon="12.6718711"><ele>327.20000000000005</ele><time>2026-04-06T13:26:11.158Z</time></trkpt><trkpt lat="43.7092599" lon="12.6719849"><ele>327.0</ele><time>2026-04-06T13:26:12.174Z</time></trkpt><trkpt lat="43.7092135" lon="12.6720781"><ele>323.0</ele><time>2026-04-06T13:26:13.187Z</time></trkpt><trkpt lat="43.7091219" lon="12.6721205"><ele>319.0</ele><time>2026-04-06T13:26:14.178Z</time></trkpt><trkpt lat="43.7090025" lon="12.6721319"><ele>315.0</ele><time>2026-04-06T13:26:15.183Z</time></trkpt><trkpt lat="43.70887" lon="12.6721209"><ele>311.0</ele><time>2026-04-06T13:26:16.186Z</time></trkpt><trkpt lat="43.7087443" lon="12.6721023"><ele>311.0</ele><time>2026-04-06T13:26:17.189Z</time></trkpt><trkpt lat="43.708582" lon="12.6720669"><ele>311.0</ele><time>2026-04-06T13:26:18.188Z</time></trkpt><trkpt lat="43.7084478" lon="12.6720877"><ele>311.0</ele><time>2026-04-06T13:26:19.179Z</time></trkpt><trkpt lat="43.7083215" lon="12.6721085"><ele>311.0</ele><time>2026-04-06T13:26:20.191Z</time></trkpt><trkpt lat="43.7082057" lon="12.6721522"><ele>311.0</ele><time>2026-04-06T13:26:21.192Z</time></trkpt><trkpt lat="43.7080793" lon="12.6721949"><ele>311.0</ele><time>2026-04-06T13:26:22.185Z</time></trkpt><trkpt lat="43.7079685" lon="12.6722567"><ele>311.0</ele><time>2026-04-06T13:26:23.192Z</time></trkpt><trkpt lat="43.7078524" lon="12.6723139"><ele>311.0</ele><time>2026-04-06T13:26:24.19Z</time></trkpt><trkpt lat="43.7077321" lon="12.6723813"><ele>310.6</ele><time>2026-04-06T13:26:25.195Z</time></trkpt><trkpt lat="43.7076316" lon="12.6724414"><ele>310.20000000000005</ele><time>2026-04-06T13:26:26.196Z</time></trkpt><trkpt lat="43.7075477" lon="12.6725164"><ele>309.79999999999995</ele><time>2026-04-06T13:26:27.19Z</time></trkpt><trkpt lat="43.7074691" lon="12.6726118"><ele>309.4</ele><time>2026-04-06T13:26:28.195Z</time></trkpt><trkpt lat="43.7073941" lon="12.6727207"><ele>309.0</ele><time>2026-04-06T13:26:29.199Z</time></trkpt><trkpt lat="43.7073463" lon="12.672858"><ele>305.4</ele><time>2026-04-06T13:26:30.181Z</time></trkpt><trkpt lat="43.7073102" lon="12.672993"><ele>301.79999999999995</ele><time>2026-04-06T13:26:31.189Z</time></trkpt><trkpt lat="43.7072623" lon="12.6730887"><ele>298.20000000000005</ele><time>2026-04-06T13:26:32.193Z</time></trkpt><trkpt lat="43.7071984" lon="12.6731298"><ele>294.6</ele><time>2026-04-06T13:26:33.187Z</time></trkpt><trkpt lat="43.7071155" lon="12.6731331"><ele>291.0</ele><time>2026-04-06T13:26:34.195Z</time></trkpt><trkpt lat="43.7070108" lon="12.6730881"><ele>290.0</ele><time>2026-04-06T13:26:35.189Z</time></trkpt><trkpt lat="43.706895" lon="12.6730128"><ele>289.0</ele><time>2026-04-06T13:26:36.201Z</time></trkpt><trkpt lat="43.7068002" lon="12.6729071"><ele>288.0</ele><time>2026-04-06T13:26:37.2Z</time></trkpt><trkpt lat="43.7067348" lon="12.6727891"><ele>287.0</ele><time>2026-04-06T13:26:38.198Z</time></trkpt><trkpt lat="43.7066749" lon="12.6726798"><ele>287.0</ele><time>2026-04-06T13:26:39.186Z</time></trkpt><trkpt lat="43.7066032" lon="12.6725938"><ele>287.0</ele><time>2026-04-06T13:26:40.189Z</time></trkpt><trkpt lat="43.7065222" lon="12.6725589"><ele>287.0</ele><time>2026-04-06T13:26:41.202Z</time></trkpt><trkpt lat="43.7064537" lon="12.6725545"><ele>287.0</ele><time>2026-04-06T13:26:42.195Z</time></trkpt><trkpt lat="43.7063605" lon="12.6726774"><ele>287.0</ele><time>2026-04-06T13:26:44.187Z</time></trkpt><trkpt lat="43.7063415" lon="12.6727881"><ele>287.0</ele><time>2026-04-06T13:26:45.206Z</time></trkpt><trkpt lat="43.7063663" lon="12.672927"><ele>287.0</ele><time>2026-04-06T13:26:46.204Z</time></trkpt><trkpt lat="43.7064223" lon="12.6731037"><ele>287.0</ele><time>2026-04-06T13:26:47.196Z</time></trkpt><trkpt lat="43.7064966" lon="12.6732839"><ele>287.0</ele><time>2026-04-06T13:26:48.207Z</time></trkpt><trkpt lat="43.7065792" lon="12.6734633"><ele>282.75</ele><time>2026-04-06T13:26:49.208Z</time></trkpt><trkpt lat="43.7066343" lon="12.6736303"><ele>278.5</ele><time>2026-04-06T13:26:50.207Z</time></trkpt><trkpt lat="43.706704" lon="12.6737732"><ele>274.25</ele><time>2026-04-06T13:26:51.202Z</time></trkpt><trkpt lat="43.7067893" lon="12.6738969"><ele>270.0</ele><time>2026-04-06T13:26:52.206Z</time></trkpt><trkpt lat="43.7068936" lon="12.6739859"><ele>269.5</ele><time>2026-04-06T13:26:53.191Z</time></trkpt><trkpt lat="43.7069864" lon="12.6740525"><ele>269.0</ele><time>2026-04-06T13:26:54.199Z</time></trkpt><trkpt lat="43.7070558" lon="12.6740728"><ele>268.5</ele><time>2026-04-06T13:26:55.199Z</time></trkpt><trkpt lat="43.707117" lon="12.6740947"><ele>268.0</ele><time>2026-04-06T13:26:56.205Z</time></trkpt><trkpt lat="43.7071615" lon="12.6742359"><ele>267.5</ele><time>2026-04-06T13:26:58.21Z</time></trkpt><trkpt lat="43.7071262" lon="12.6743214"><ele>267.0</ele><time>2026-04-06T13:26:59.2Z</time></trkpt><trkpt lat="43.70705" lon="12.6743902"><ele>267.0</ele><time>2026-04-06T13:27:00.201Z</time></trkpt><trkpt lat="43.70694" lon="12.6744347"><ele>267.0</ele><time>2026-04-06T13:27:01.188Z</time></trkpt><trkpt lat="43.7068077" lon="12.6744647"><ele>267.0</ele><time>2026-04-06T13:27:02.201Z</time></trkpt><trkpt lat="43.7066554" lon="12.6744928"><ele>267.0</ele><time>2026-04-06T13:27:03.193Z</time></trkpt><trkpt lat="43.7064881" lon="12.6745143"><ele>265.0</ele><time>2026-04-06T13:27:04.189Z</time></trkpt><trkpt lat="43.7063629" lon="12.6745183"><ele>263.0</ele><time>2026-04-06T13:27:05.191Z</time></trkpt><trkpt lat="43.7062519" lon="12.6744944"><ele>261.0</ele><time>2026-04-06T13:27:06.199Z</time></trkpt><trkpt lat="43.7061456" lon="12.6744398"><ele>259.0</ele><time>2026-04-06T13:27:07.192Z</time></trkpt><trkpt lat="43.7060501" lon="12.6743698"><ele>259.0</ele><time>2026-04-06T13:27:08.194Z</time></trkpt><trkpt lat="43.7059519" lon="12.6742601"><ele>259.0</ele><time>2026-04-06T13:27:09.192Z</time></trkpt><trkpt lat="43.7058602" lon="12.6741255"><ele>259.0</ele><time>2026-04-06T13:27:10.186Z</time></trkpt><trkpt lat="43.7057869" lon="12.6739882"><ele>259.0</ele><time>2026-04-06T13:27:11.182Z</time></trkpt><trkpt lat="43.705705" lon="12.673869"><ele>259.0</ele><time>2026-04-06T13:27:12.183Z</time></trkpt><trkpt lat="43.7055848" lon="12.6737884"><ele>259.0</ele><time>2026-04-06T13:27:13.188Z</time></trkpt><trkpt lat="43.7054459" lon="12.6737444"><ele>259.0</ele><time>2026-04-06T13:27:14.186Z</time></trkpt><trkpt lat="43.7052935" lon="12.6737903"><ele>259.0</ele><time>2026-04-06T13:27:15.186Z</time></trkpt><trkpt lat="43.7051313" lon="12.6738416"><ele>254.66666666666666</ele><time>2026-04-06T13:27:16.188Z</time></trkpt><trkpt lat="43.7049588" lon="12.6738845"><ele>250.33333333333331</ele><time>2026-04-06T13:27:17.188Z</time></trkpt><trkpt lat="43.7048009" lon="12.6739082"><ele>246.0</ele><time>2026-04-06T13:27:18.191Z</time></trkpt><trkpt lat="43.7046556" lon="12.6739417"><ele>246.0</ele><time>2026-04-06T13:27:19.194Z</time></trkpt><trkpt lat="43.704507" lon="12.6740024"><ele>246.0</ele><time>2026-04-06T13:27:20.195Z</time></trkpt><trkpt lat="43.704356" lon="12.6740744"><ele>246.0</ele><time>2026-04-06T13:27:21.186Z</time></trkpt><trkpt lat="43.7042084" lon="12.6741472"><ele>246.5</ele><time>2026-04-06T13:27:22.188Z</time></trkpt><trkpt lat="43.7040703" lon="12.6742159"><ele>247.0</ele><time>2026-04-06T13:27:23.174Z</time></trkpt><trkpt lat="43.7039436" lon="12.6742545"><ele>247.5</ele><time>2026-04-06T13:27:24.17Z</time></trkpt><trkpt lat="43.7037892" lon="12.6742348"><ele>248.0</ele><time>2026-04-06T13:27:25.18Z</time></trkpt><trkpt lat="43.7036606" lon="12.6742241"><ele>248.75</ele><time>2026-04-06T13:27:26.196Z</time></trkpt><trkpt lat="43.7035451" lon="12.6742174"><ele>249.5</ele><time>2026-04-06T13:27:27.185Z</time></trkpt><trkpt lat="43.7034313" lon="12.6742565"><ele>250.25</ele><time>2026-04-06T13:27:28.187Z</time></trkpt><trkpt lat="43.7033351" lon="12.6743445"><ele>251.0</ele><time>2026-04-06T13:27:29.194Z</time></trkpt><trkpt lat="43.703262" lon="12.674502"><ele>247.66666666666669</ele><time>2026-04-06T13:27:30.196Z</time></trkpt><trkpt lat="43.7031667" lon="12.674677"><ele>244.33333333333331</ele><time>2026-04-06T13:27:31.189Z</time></trkpt><trkpt lat="43.7030257" lon="12.6748429"><ele>241.0</ele><time>2026-04-06T13:27:32.187Z</time></trkpt><trkpt lat="43.7028648" lon="12.6749794"><ele>241.0</ele><time>2026-04-06T13:27:33.189Z</time></trkpt><trkpt lat="43.7027573" lon="12.675135"><ele>241.0</ele><time>2026-04-06T13:27:34.184Z</time></trkpt><trkpt lat="43.7026634" lon="12.6753069"><ele>241.0</ele><time>2026-04-06T13:27:35.185Z</time></trkpt><trkpt lat="43.7025914" lon="12.6754873"><ele>240.8</ele><time>2026-04-06T13:27:36.188Z</time></trkpt><trkpt lat="43.7025482" lon="12.6756318"><ele>240.60000000000002</ele><time>2026-04-06T13:27:37.196Z</time></trkpt><trkpt lat="43.7025088" lon="12.6757481"><ele>240.4</ele><time>2026-04-06T13:27:38.197Z</time></trkpt><trkpt lat="43.7024431" lon="12.6758902"><ele>240.2</ele><time>2026-04-06T13:27:39.203Z</time></trkpt><trkpt lat="43.7023809" lon="12.6760344"><ele>240.0</ele><time>2026-04-06T13:27:40.195Z</time></trkpt><trkpt lat="43.7023123" lon="12.6761619"><ele>237.6</ele><time>2026-04-06T13:27:41.194Z</time></trkpt><trkpt lat="43.7022152" lon="12.6762584"><ele>235.2</ele><time>2026-04-06T13:27:42.192Z</time></trkpt><trkpt lat="43.7021338" lon="12.6763322"><ele>232.8</ele><time>2026-04-06T13:27:43.199Z</time></trkpt><trkpt lat="43.7020355" lon="12.676362"><ele>230.4</ele><time>2026-04-06T13:27:44.188Z</time></trkpt><trkpt lat="43.7019376" lon="12.6763422"><ele>228.0</ele><time>2026-04-06T13:27:45.2Z</time></trkpt><trkpt lat="43.7018376" lon="12.6762691"><ele>228.0</ele><time>2026-04-06T13:27:46.189Z</time></trkpt><trkpt lat="43.7017219" lon="12.6761662"><ele>228.0</ele><time>2026-04-06T13:27:47.191Z</time></trkpt><trkpt lat="43.701617" lon="12.6760685"><ele>228.0</ele><time>2026-04-06T13:27:48.188Z</time></trkpt><trkpt lat="43.7015237" lon="12.676003"><ele>228.0</ele><time>2026-04-06T13:27:49.187Z</time></trkpt><trkpt lat="43.7014276" lon="12.6759682"><ele>228.0</ele><time>2026-04-06T13:27:50.2Z</time></trkpt><trkpt lat="43.7013267" lon="12.67597"><ele>228.0</ele><time>2026-04-06T13:27:51.194Z</time></trkpt><trkpt lat="43.7012326" lon="12.6760276"><ele>228.0</ele><time>2026-04-06T13:27:52.2Z</time></trkpt><trkpt lat="43.7011527" lon="12.6761305"><ele>228.0</ele><time>2026-04-06T13:27:53.197Z</time></trkpt><trkpt lat="43.701094" lon="12.676278"><ele>228.0</ele><time>2026-04-06T13:27:54.19Z</time></trkpt><trkpt lat="43.7010375" lon="12.6764163"><ele>227.5</ele><time>2026-04-06T13:27:55.184Z</time></trkpt><trkpt lat="43.7009833" lon="12.6765011"><ele>227.0</ele><time>2026-04-06T13:27:56.187Z</time></trkpt><trkpt lat="43.7009174" lon="12.6765268"><ele>226.5</ele><time>2026-04-06T13:27:57.184Z</time></trkpt><trkpt lat="43.7008464" lon="12.6765055"><ele>226.0</ele><time>2026-04-06T13:27:58.17Z</time></trkpt><trkpt lat="43.7007681" lon="12.6764612"><ele>225.5</ele><time>2026-04-06T13:27:59.175Z</time></trkpt><trkpt lat="43.7006825" lon="12.676445"><ele>225.0</ele><time>2026-04-06T13:28:00.195Z</time></trkpt><trkpt lat="43.7005992" lon="12.6765118"><ele>225.0</ele><time>2026-04-06T13:28:01.189Z</time></trkpt><trkpt lat="43.7005346" lon="12.6766386"><ele>225.0</ele><time>2026-04-06T13:28:02.199Z</time></trkpt><trkpt lat="43.700478" lon="12.6767942"><ele>225.0</ele><time>2026-04-06T13:28:03.182Z</time></trkpt><trkpt lat="43.7004496" lon="12.6769454"><ele>225.0</ele><time>2026-04-06T13:28:04.177Z</time></trkpt><trkpt lat="43.7004119" lon="12.6770634"><ele>225.0</ele><time>2026-04-06T13:28:05.179Z</time></trkpt><trkpt lat="43.7003218" lon="12.6771363"><ele>220.0</ele><time>2026-04-06T13:28:06.18Z</time></trkpt><trkpt lat="43.7001886" lon="12.6772091"><ele>215.0</ele><time>2026-04-06T13:28:07.18Z</time></trkpt><trkpt lat="43.700045" lon="12.6773189"><ele>210.0</ele><time>2026-04-06T13:28:08.176Z</time></trkpt><trkpt lat="43.6999451" lon="12.677476"><ele>210.0</ele><time>2026-04-06T13:28:09.179Z</time></trkpt><trkpt lat="43.6999019" lon="12.6776305"><ele>210.0</ele><time>2026-04-06T13:28:10.163Z</time></trkpt><trkpt lat="43.6998727" lon="12.6777394"><ele>210.0</ele><time>2026-04-06T13:28:11.173Z</time></trkpt><trkpt lat="43.6997466" lon="12.6777927"><ele>210.0</ele><time>2026-04-06T13:28:13.18Z</time></trkpt><trkpt lat="43.6996272" lon="12.6777744"><ele>208.4</ele><time>2026-04-06T13:28:14.171Z</time></trkpt><trkpt lat="43.6995258" lon="12.6777754"><ele>206.8</ele><time>2026-04-06T13:28:15.183Z</time></trkpt><trkpt lat="43.6994436" lon="12.6777837"><ele>205.2</ele><time>2026-04-06T13:28:16.182Z</time></trkpt><trkpt lat="43.6993391" lon="12.6777801"><ele>203.6</ele><time>2026-04-06T13:28:17.183Z</time></trkpt><trkpt lat="43.6992207" lon="12.6777563"><ele>202.0</ele><time>2026-04-06T13:28:18.198Z</time></trkpt><trkpt lat="43.6991042" lon="12.6777426"><ele>202.0</ele><time>2026-04-06T13:28:19.189Z</time></trkpt><trkpt lat="43.6989885" lon="12.6777126"><ele>202.0</ele><time>2026-04-06T13:28:20.19Z</time></trkpt><trkpt lat="43.6988674" lon="12.677664"><ele>202.0</ele><time>2026-04-06T13:28:21.187Z</time></trkpt><trkpt lat="43.6987541" lon="12.6775878"><ele>202.0</ele><time>2026-04-06T13:28:22.18Z</time></trkpt><trkpt lat="43.6986425" lon="12.6775076"><ele>196.5</ele><time>2026-04-06T13:28:23.179Z</time></trkpt><trkpt lat="43.6985384" lon="12.6774302"><ele>191.0</ele><time>2026-04-06T13:28:24.178Z</time></trkpt><trkpt lat="43.6984377" lon="12.6773498"><ele>185.5</ele><time>2026-04-06T13:28:25.173Z</time></trkpt><trkpt lat="43.6983343" lon="12.6772876"><ele>180.0</ele><time>2026-04-06T13:28:26.172Z</time></trkpt><trkpt lat="43.6982307" lon="12.6772424"><ele>180.0</ele><time>2026-04-06T13:28:27.176Z</time></trkpt><trkpt lat="43.6981343" lon="12.6771929"><ele>180.0</ele><time>2026-04-06T13:28:28.178Z</time></trkpt><trkpt lat="43.6980378" lon="12.6771408"><ele>180.0</ele><time>2026-04-06T13:28:29.187Z</time></trkpt><trkpt lat="43.6979412" lon="12.6770968"><ele>180.0</ele><time>2026-04-06T13:28:30.181Z</time></trkpt><trkpt lat="43.6978495" lon="12.6770555"><ele>180.0</ele><time>2026-04-06T13:28:31.186Z</time></trkpt><trkpt lat="43.6977536" lon="12.6770153"><ele>177.8</ele><time>2026-04-06T13:28:32.187Z</time></trkpt><trkpt lat="43.6976759" lon="12.6769721"><ele>175.6</ele><time>2026-04-06T13:28:33.189Z</time></trkpt><trkpt lat="43.6976027" lon="12.676952"><ele>173.39999999999998</ele><time>2026-04-06T13:28:34.185Z</time></trkpt><trkpt lat="43.6974994" lon="12.6769784"><ele>171.2</ele><time>2026-04-06T13:28:36.186Z</time></trkpt><trkpt lat="43.6974215" lon="12.6769288"><ele>169.0</ele><time>2026-04-06T13:28:40.215Z</time></trkpt><trkpt lat="43.6973752" lon="12.6767616"><ele>169.0</ele><time>2026-04-06T13:28:42.189Z</time></trkpt><trkpt lat="43.6973535" lon="12.6766477"><ele>169.0</ele><time>2026-04-06T13:28:43.2Z</time></trkpt><trkpt lat="43.6973336" lon="12.6765285"><ele>169.0</ele><time>2026-04-06T13:28:44.194Z</time></trkpt><trkpt lat="43.6973057" lon="12.6763888"><ele>169.0</ele><time>2026-04-06T13:28:45.199Z</time></trkpt><trkpt lat="43.6972852" lon="12.6762432"><ele>169.0</ele><time>2026-04-06T13:28:46.187Z</time></trkpt><trkpt lat="43.6972623" lon="12.6760998"><ele>170.2</ele><time>2026-04-06T13:28:47.196Z</time></trkpt><trkpt lat="43.6972448" lon="12.6759671"><ele>171.39999999999998</ele><time>2026-04-06T13:28:48.183Z</time></trkpt><trkpt lat="43.6972349" lon="12.6758254"><ele>172.6</ele><time>2026-04-06T13:28:49.189Z</time></trkpt><trkpt lat="43.6972484" lon="12.6756677"><ele>173.8</ele><time>2026-04-06T13:28:50.188Z</time></trkpt><trkpt lat="43.6972751" lon="12.6755081"><ele>175.0</ele><time>2026-04-06T13:28:51.193Z</time></trkpt><trkpt lat="43.6973131" lon="12.6753502"><ele>175.5</ele><time>2026-04-06T13:28:52.181Z</time></trkpt><trkpt lat="43.6973591" lon="12.6751935"><ele>176.0</ele><time>2026-04-06T13:28:53.184Z</time></trkpt><trkpt lat="43.6974129" lon="12.6750301"><ele>176.5</ele><time>2026-04-06T13:28:54.184Z</time></trkpt><trkpt lat="43.6974637" lon="12.6748549"><ele>177.0</ele><time>2026-04-06T13:28:55.191Z</time></trkpt><trkpt lat="43.6975048" lon="12.6746801"><ele>177.0</ele><time>2026-04-06T13:28:56.184Z</time></trkpt><trkpt lat="43.6975346" lon="12.6744983"><ele>177.0</ele><time>2026-04-06T13:28:57.176Z</time></trkpt><trkpt lat="43.6975453" lon="12.6743043"><ele>177.0</ele><time>2026-04-06T13:28:58.174Z</time></trkpt><trkpt lat="43.6975426" lon="12.6741097"><ele>177.0</ele><time>2026-04-06T13:28:59.176Z</time></trkpt><trkpt lat="43.6975505" lon="12.6739374"><ele>176.75</ele><time>2026-04-06T13:29:00.181Z</time></trkpt><trkpt lat="43.6975348" lon="12.673765"><ele>176.5</ele><time>2026-04-06T13:29:01.178Z</time></trkpt><trkpt lat="43.6975108" lon="12.6735846"><ele>176.25</ele><time>2026-04-06T13:29:02.173Z</time></trkpt><trkpt lat="43.6974693" lon="12.6734182"><ele>176.0</ele><time>2026-04-06T13:29:03.174Z</time></trkpt><trkpt lat="43.6974115" lon="12.6732366"><ele>179.75</ele><time>2026-04-06T13:29:04.178Z</time></trkpt><trkpt lat="43.6973469" lon="12.6730603"><ele>183.5</ele><time>2026-04-06T13:29:05.181Z</time></trkpt><trkpt lat="43.6972769" lon="12.672912"><ele>187.25</ele><time>2026-04-06T13:29:06.185Z</time></trkpt><trkpt lat="43.6971906" lon="12.672761"><ele>191.0</ele><time>2026-04-06T13:29:07.177Z</time></trkpt><trkpt lat="43.6970984" lon="12.6725959"><ele>185.66666666666666</ele><time>2026-04-06T13:29:08.186Z</time></trkpt><trkpt lat="43.6969992" lon="12.6724222"><ele>180.33333333333334</ele><time>2026-04-06T13:29:09.185Z</time></trkpt><trkpt lat="43.6968936" lon="12.6722499"><ele>175.0</ele><time>2026-04-06T13:29:10.185Z</time></trkpt><trkpt lat="43.6967946" lon="12.6720977"><ele>175.0</ele><time>2026-04-06T13:29:11.187Z</time></trkpt><trkpt lat="43.6966915" lon="12.6719525"><ele>175.0</ele><time>2026-04-06T13:29:12.187Z</time></trkpt><trkpt lat="43.6965658" lon="12.6717991"><ele>175.0</ele><time>2026-04-06T13:29:13.179Z</time></trkpt><trkpt lat="43.6964511" lon="12.6716461"><ele>176.66666666666669</ele><time>2026-04-06T13:29:14.189Z</time></trkpt><trkpt lat="43.6963289" lon="12.6714871"><ele>178.33333333333334</ele><time>2026-04-06T13:29:15.178Z</time></trkpt><trkpt lat="43.6961648" lon="12.6713357"><ele>180.0</ele><time>2026-04-06T13:29:16.183Z</time></trkpt><trkpt lat="43.6959966" lon="12.6711586"><ele>177.0</ele><time>2026-04-06T13:29:17.186Z</time></trkpt><trkpt lat="43.6958221" lon="12.670944"><ele>174.0</ele><time>2026-04-06T13:29:18.19Z</time></trkpt><trkpt lat="43.6956594" lon="12.6707383"><ele>174.0</ele><time>2026-04-06T13:29:19.183Z</time></trkpt><trkpt lat="43.6955107" lon="12.670552"><ele>174.0</ele><time>2026-04-06T13:29:20.185Z</time></trkpt><trkpt lat="43.6953827" lon="12.6703913"><ele>174.0</ele><time>2026-04-06T13:29:21.182Z</time></trkpt><trkpt lat="43.69528" lon="12.6702362"><ele>174.33333333333334</ele><time>2026-04-06T13:29:22.179Z</time></trkpt><trkpt lat="43.6952111" lon="12.67005"><ele>174.66666666666669</ele><time>2026-04-06T13:29:23.184Z</time></trkpt><trkpt lat="43.6951863" lon="12.6698458"><ele>175.0</ele><time>2026-04-06T13:29:24.185Z</time></trkpt><trkpt lat="43.6952138" lon="12.6696289"><ele>175.33333333333334</ele><time>2026-04-06T13:29:25.187Z</time></trkpt><trkpt lat="43.6952708" lon="12.6693853"><ele>175.66666666666666</ele><time>2026-04-06T13:29:26.192Z</time></trkpt><trkpt lat="43.6953473" lon="12.6691227"><ele>176.0</ele><time>2026-04-06T13:29:27.181Z</time></trkpt><trkpt lat="43.695422" lon="12.6688489"><ele>178.0</ele><time>2026-04-06T13:29:28.18Z</time></trkpt><trkpt lat="43.6955055" lon="12.6685813"><ele>180.0</ele><time>2026-04-06T13:29:29.183Z</time></trkpt><trkpt lat="43.695626" lon="12.6683091"><ele>182.0</ele><time>2026-04-06T13:29:30.182Z</time></trkpt><trkpt lat="43.6957776" lon="12.6680742"><ele>182.0</ele><time>2026-04-06T13:29:31.178Z</time></trkpt><trkpt lat="43.6959155" lon="12.6678585"><ele>182.0</ele><time>2026-04-06T13:29:32.182Z</time></trkpt><trkpt lat="43.6960444" lon="12.6676615"><ele>182.0</ele><time>2026-04-06T13:29:33.185Z</time></trkpt><trkpt lat="43.6961862" lon="12.667467"><ele>183.0</ele><time>2026-04-06T13:29:34.183Z</time></trkpt><trkpt lat="43.6963169" lon="12.6672805"><ele>184.0</ele><time>2026-04-06T13:29:35.189Z</time></trkpt><trkpt lat="43.6964537" lon="12.6671194"><ele>185.0</ele><time>2026-04-06T13:29:36.191Z</time></trkpt><trkpt lat="43.6965969" lon="12.6669461"><ele>185.66666666666666</ele><time>2026-04-06T13:29:37.191Z</time></trkpt><trkpt lat="43.6967368" lon="12.6667808"><ele>186.33333333333334</ele><time>2026-04-06T13:29:38.189Z</time></trkpt><trkpt lat="43.6968715" lon="12.6666196"><ele>187.0</ele><time>2026-04-06T13:29:39.189Z</time></trkpt><trkpt lat="43.6970016" lon="12.6664568"><ele>187.0</ele><time>2026-04-06T13:29:40.19Z</time></trkpt><trkpt lat="43.6971262" lon="12.6662893"><ele>187.0</ele><time>2026-04-06T13:29:41.191Z</time></trkpt><trkpt lat="43.6972483" lon="12.6661435"><ele>187.0</ele><time>2026-04-06T13:29:42.188Z</time></trkpt><trkpt lat="43.697381" lon="12.665988"><ele>187.33333333333334</ele><time>2026-04-06T13:29:43.189Z</time></trkpt><trkpt lat="43.6975243" lon="12.665839"><ele>187.66666666666666</ele><time>2026-04-06T13:29:44.189Z</time></trkpt><trkpt lat="43.6976517" lon="12.6656807"><ele>188.0</ele><time>2026-04-06T13:29:45.185Z</time></trkpt><trkpt lat="43.6977662" lon="12.6655329"><ele>188.0</ele><time>2026-04-06T13:29:46.182Z</time></trkpt><trkpt lat="43.6978889" lon="12.6654008"><ele>188.0</ele><time>2026-04-06T13:29:47.183Z</time></trkpt><trkpt lat="43.6979861" lon="12.6652778"><ele>188.0</ele><time>2026-04-06T13:29:48.192Z</time></trkpt><trkpt lat="43.6980905" lon="12.6651594"><ele>188.0</ele><time>2026-04-06T13:29:49.19Z</time></trkpt><trkpt lat="43.6981791" lon="12.6650511"><ele>188.0</ele><time>2026-04-06T13:29:50.191Z</time></trkpt><trkpt lat="43.6982749" lon="12.6649378"><ele>188.0</ele><time>2026-04-06T13:29:51.189Z</time></trkpt><trkpt lat="43.6983771" lon="12.6648213"><ele>188.0</ele><time>2026-04-06T13:29:52.192Z</time></trkpt><trkpt lat="43.6984702" lon="12.6647099"><ele>188.0</ele><time>2026-04-06T13:29:53.185Z</time></trkpt><trkpt lat="43.6985743" lon="12.6645978"><ele>188.0</ele><time>2026-04-06T13:29:54.191Z</time></trkpt><trkpt lat="43.6986728" lon="12.6644686"><ele>188.0</ele><time>2026-04-06T13:29:55.188Z</time></trkpt><trkpt lat="43.6987727" lon="12.6643423"><ele>188.0</ele><time>2026-04-06T13:29:56.196Z</time></trkpt><trkpt lat="43.6988694" lon="12.6642233"><ele>188.0</ele><time>2026-04-06T13:29:57.194Z</time></trkpt><trkpt lat="43.698966" lon="12.6640927"><ele>189.0</ele><time>2026-04-06T13:29:58.192Z</time></trkpt><trkpt lat="43.6990654" lon="12.6639544"><ele>190.0</ele><time>2026-04-06T13:29:59.191Z</time></trkpt><trkpt lat="43.699187" lon="12.6638371"><ele>191.0</ele><time>2026-04-06T13:30:00.184Z</time></trkpt><trkpt lat="43.6992914" lon="12.6637207"><ele>192.0</ele><time>2026-04-06T13:30:01.176Z</time></trkpt><trkpt lat="43.6994014" lon="12.66363"><ele>191.6</ele><time>2026-04-06T13:30:02.186Z</time></trkpt><trkpt lat="43.6995069" lon="12.6635773"><ele>191.2</ele><time>2026-04-06T13:30:03.18Z</time></trkpt><trkpt lat="43.6996182" lon="12.6635335"><ele>190.8</ele><time>2026-04-06T13:30:04.189Z</time></trkpt><trkpt lat="43.699725" lon="12.6635471"><ele>190.4</ele><time>2026-04-06T13:30:05.188Z</time></trkpt><trkpt lat="43.6998188" lon="12.6635939"><ele>190.0</ele><time>2026-04-06T13:30:06.178Z</time></trkpt><trkpt lat="43.6999116" lon="12.6636237"><ele>190.0</ele><time>2026-04-06T13:30:07.186Z</time></trkpt><trkpt lat="43.700003" lon="12.6635875"><ele>190.0</ele><time>2026-04-06T13:30:08.18Z</time></trkpt><trkpt lat="43.7000746" lon="12.6634955"><ele>190.0</ele><time>2026-04-06T13:30:09.179Z</time></trkpt><trkpt lat="43.7001108" lon="12.6633844"><ele>190.0</ele><time>2026-04-06T13:30:10.181Z</time></trkpt><trkpt lat="43.7001021" lon="12.6632556"><ele>190.0</ele><time>2026-04-06T13:30:11.171Z</time></trkpt><trkpt lat="43.7000648" lon="12.6631337"><ele>190.0</ele><time>2026-04-06T13:30:12.182Z</time></trkpt><trkpt lat="43.699982" lon="12.6630166"><ele>190.0</ele><time>2026-04-06T13:30:13.187Z</time></trkpt><trkpt lat="43.6998755" lon="12.66292"><ele>190.0</ele><time>2026-04-06T13:30:14.18Z</time></trkpt><trkpt lat="43.6997671" lon="12.6628143"><ele>190.0</ele><time>2026-04-06T13:30:15.176Z</time></trkpt><trkpt lat="43.6996843" lon="12.6626392"><ele>192.66666666666669</ele><time>2026-04-06T13:30:16.173Z</time></trkpt><trkpt lat="43.6996354" lon="12.6624008"><ele>195.33333333333334</ele><time>2026-04-06T13:30:17.173Z</time></trkpt><trkpt lat="43.6996018" lon="12.6621744"><ele>198.0</ele><time>2026-04-06T13:30:18.178Z</time></trkpt><trkpt lat="43.6995735" lon="12.6619767"><ele>198.4</ele><time>2026-04-06T13:30:19.178Z</time></trkpt><trkpt lat="43.6995364" lon="12.6618183"><ele>198.8</ele><time>2026-04-06T13:30:20.177Z</time></trkpt><trkpt lat="43.6994998" lon="12.6616772"><ele>199.2</ele><time>2026-04-06T13:30:21.178Z</time></trkpt><trkpt lat="43.6994637" lon="12.6615519"><ele>199.6</ele><time>2026-04-06T13:30:22.176Z</time></trkpt><trkpt lat="43.6994429" lon="12.6614473"><ele>200.0</ele><time>2026-04-06T13:30:23.181Z</time></trkpt><trkpt lat="43.6994181" lon="12.6613625"><ele>198.25</ele><time>2026-04-06T13:30:24.178Z</time></trkpt><trkpt lat="43.6993" lon="12.6613184"><ele>196.5</ele><time>2026-04-06T13:30:26.174Z</time></trkpt><trkpt lat="43.6992097" lon="12.6613571"><ele>194.75</ele><time>2026-04-06T13:30:27.182Z</time></trkpt><trkpt lat="43.6990922" lon="12.6614648"><ele>193.0</ele><time>2026-04-06T13:30:28.175Z</time></trkpt><trkpt lat="43.6989747" lon="12.6615441"><ele>193.0</ele><time>2026-04-06T13:30:29.175Z</time></trkpt><trkpt lat="43.6988471" lon="12.6616007"><ele>193.0</ele><time>2026-04-06T13:30:30.178Z</time></trkpt><trkpt lat="43.6987187" lon="12.6616814"><ele>193.0</ele><time>2026-04-06T13:30:31.18Z</time></trkpt><trkpt lat="43.698589" lon="12.6617785"><ele>193.0</ele><time>2026-04-06T13:30:32.18Z</time></trkpt><trkpt lat="43.698445" lon="12.6618843"><ele>192.0</ele><time>2026-04-06T13:30:33.19Z</time></trkpt><trkpt lat="43.6982964" lon="12.661969"><ele>191.0</ele><time>2026-04-06T13:30:34.19Z</time></trkpt><trkpt lat="43.6981653" lon="12.6620366"><ele>190.0</ele><time>2026-04-06T13:30:35.187Z</time></trkpt><trkpt lat="43.6980298" lon="12.6621198"><ele>189.0</ele><time>2026-04-06T13:30:36.188Z</time></trkpt><trkpt lat="43.6978892" lon="12.6621986"><ele>189.0</ele><time>2026-04-06T13:30:37.19Z</time></trkpt><trkpt lat="43.6977612" lon="12.6622776"><ele>189.0</ele><time>2026-04-06T13:30:38.187Z</time></trkpt><trkpt lat="43.6976332" lon="12.6623512"><ele>189.0</ele><time>2026-04-06T13:30:39.191Z</time></trkpt><trkpt lat="43.6975055" lon="12.6624286"><ele>189.0</ele><time>2026-04-06T13:30:40.221Z</time></trkpt><trkpt lat="43.6973754" lon="12.6625058"><ele>188.75</ele><time>2026-04-06T13:30:41.187Z</time></trkpt><trkpt lat="43.6972502" lon="12.6625953"><ele>188.5</ele><time>2026-04-06T13:30:42.189Z</time></trkpt><trkpt lat="43.6971191" lon="12.6626663"><ele>188.25</ele><time>2026-04-06T13:30:43.188Z</time></trkpt><trkpt lat="43.6969948" lon="12.6627391"><ele>188.0</ele><time>2026-04-06T13:30:44.183Z</time></trkpt><trkpt lat="43.6968676" lon="12.662818"><ele>187.5</ele><time>2026-04-06T13:30:45.182Z</time></trkpt><trkpt lat="43.6967426" lon="12.6628801"><ele>187.0</ele><time>2026-04-06T13:30:46.182Z</time></trkpt><trkpt lat="43.6966069" lon="12.6629565"><ele>186.5</ele><time>2026-04-06T13:30:47.186Z</time></trkpt><trkpt lat="43.6964783" lon="12.6630206"><ele>186.0</ele><time>2026-04-06T13:30:48.197Z</time></trkpt><trkpt lat="43.6963215" lon="12.6630343"><ele>186.0</ele><time>2026-04-06T13:30:49.189Z</time></trkpt><trkpt lat="43.6961571" lon="12.6630235"><ele>186.0</ele><time>2026-04-06T13:30:50.19Z</time></trkpt><trkpt lat="43.6959959" lon="12.6629631"><ele>186.0</ele><time>2026-04-06T13:30:51.187Z</time></trkpt><trkpt lat="43.6958391" lon="12.662866"><ele>185.66666666666666</ele><time>2026-04-06T13:30:52.183Z</time></trkpt><trkpt lat="43.6956963" lon="12.6627317"><ele>185.33333333333331</ele><time>2026-04-06T13:30:53.181Z</time></trkpt><trkpt lat="43.6955756" lon="12.6625823"><ele>185.0</ele><time>2026-04-06T13:30:54.177Z</time></trkpt><trkpt lat="43.6954689" lon="12.6624138"><ele>185.0</ele><time>2026-04-06T13:30:55.186Z</time></trkpt><trkpt lat="43.6953742" lon="12.662235"><ele>185.0</ele><time>2026-04-06T13:30:56.191Z</time></trkpt><trkpt lat="43.6952818" lon="12.6620652"><ele>185.0</ele><time>2026-04-06T13:30:57.191Z</time></trkpt><trkpt lat="43.6951768" lon="12.6618778"><ele>184.0</ele><time>2026-04-06T13:30:58.19Z</time></trkpt><trkpt lat="43.6950719" lon="12.6616868"><ele>183.0</ele><time>2026-04-06T13:30:59.192Z</time></trkpt><trkpt lat="43.6949724" lon="12.6614992"><ele>182.0</ele><time>2026-04-06T13:31:00.191Z</time></trkpt><trkpt lat="43.6948707" lon="12.661314"><ele>182.0</ele><time>2026-04-06T13:31:01.186Z</time></trkpt><trkpt lat="43.694762" lon="12.6611304"><ele>182.0</ele><time>2026-04-06T13:31:02.193Z</time></trkpt><trkpt lat="43.6946571" lon="12.6609627"><ele>182.0</ele><time>2026-04-06T13:31:03.195Z</time></trkpt><trkpt lat="43.6945589" lon="12.6607915"><ele>182.0</ele><time>2026-04-06T13:31:04.189Z</time></trkpt><trkpt lat="43.6944659" lon="12.6606056"><ele>182.0</ele><time>2026-04-06T13:31:05.194Z</time></trkpt><trkpt lat="43.6943683" lon="12.6604359"><ele>182.0</ele><time>2026-04-06T13:31:06.193Z</time></trkpt><trkpt lat="43.6942752" lon="12.660264"><ele>183.66666666666666</ele><time>2026-04-06T13:31:07.188Z</time></trkpt><trkpt lat="43.6941833" lon="12.660091"><ele>185.33333333333334</ele><time>2026-04-06T13:31:08.19Z</time></trkpt><trkpt lat="43.6940793" lon="12.6599225"><ele>187.0</ele><time>2026-04-06T13:31:09.187Z</time></trkpt><trkpt lat="43.6939907" lon="12.6597576"><ele>187.0</ele><time>2026-04-06T13:31:10.202Z</time></trkpt><trkpt lat="43.6939151" lon="12.6595727"><ele>187.0</ele><time>2026-04-06T13:31:11.187Z</time></trkpt><trkpt lat="43.6938448" lon="12.6593689"><ele>187.0</ele><time>2026-04-06T13:31:12.186Z</time></trkpt><trkpt lat="43.693776" lon="12.6591642"><ele>187.33333333333334</ele><time>2026-04-06T13:31:13.191Z</time></trkpt><trkpt lat="43.6937003" lon="12.6589621"><ele>187.66666666666666</ele><time>2026-04-06T13:31:14.19Z</time></trkpt><trkpt lat="43.693631" lon="12.6587719"><ele>188.0</ele><time>2026-04-06T13:31:15.19Z</time></trkpt><trkpt lat="43.6935582" lon="12.6585648"><ele>186.33333333333331</ele><time>2026-04-06T13:31:16.19Z</time></trkpt><trkpt lat="43.6934911" lon="12.6583689"><ele>184.66666666666666</ele><time>2026-04-06T13:31:17.19Z</time></trkpt><trkpt lat="43.6934121" lon="12.6581809"><ele>183.0</ele><time>2026-04-06T13:31:18.191Z</time></trkpt><trkpt lat="43.6933432" lon="12.6579956"><ele>183.0</ele><time>2026-04-06T13:31:19.188Z</time></trkpt><trkpt lat="43.6932622" lon="12.6578108"><ele>183.0</ele><time>2026-04-06T13:31:20.186Z</time></trkpt><trkpt lat="43.6931907" lon="12.6576152"><ele>183.0</ele><time>2026-04-06T13:31:21.191Z</time></trkpt><trkpt lat="43.6931024" lon="12.6574271"><ele>184.0</ele><time>2026-04-06T13:31:22.189Z</time></trkpt><trkpt lat="43.6930117" lon="12.6572531"><ele>185.0</ele><time>2026-04-06T13:31:23.192Z</time></trkpt><trkpt lat="43.6929028" lon="12.657085"><ele>186.0</ele><time>2026-04-06T13:31:24.196Z</time></trkpt><trkpt lat="43.6927998" lon="12.6569099"><ele>184.66666666666666</ele><time>2026-04-06T13:31:25.189Z</time></trkpt><trkpt lat="43.6926883" lon="12.6567427"><ele>183.33333333333331</ele><time>2026-04-06T13:31:26.193Z</time></trkpt><trkpt lat="43.692581" lon="12.6565746"><ele>182.0</ele><time>2026-04-06T13:31:27.191Z</time></trkpt><trkpt lat="43.692456" lon="12.6564116"><ele>182.0</ele><time>2026-04-06T13:31:28.191Z</time></trkpt><trkpt lat="43.6923454" lon="12.6562495"><ele>182.0</ele><time>2026-04-06T13:31:29.19Z</time></trkpt><trkpt lat="43.6922419" lon="12.6560825"><ele>182.0</ele><time>2026-04-06T13:31:30.187Z</time></trkpt><trkpt lat="43.6921279" lon="12.6559215"><ele>181.33333333333331</ele><time>2026-04-06T13:31:31.187Z</time></trkpt><trkpt lat="43.6920163" lon="12.6557539"><ele>180.66666666666666</ele><time>2026-04-06T13:31:32.189Z</time></trkpt><trkpt lat="43.6918892" lon="12.655594"><ele>180.0</ele><time>2026-04-06T13:31:33.191Z</time></trkpt><trkpt lat="43.6917964" lon="12.6554274"><ele>181.25</ele><time>2026-04-06T13:31:34.189Z</time></trkpt><trkpt lat="43.691701" lon="12.6552753"><ele>182.5</ele><time>2026-04-06T13:31:35.192Z</time></trkpt><trkpt lat="43.6916072" lon="12.6551275"><ele>183.75</ele><time>2026-04-06T13:31:36.19Z</time></trkpt><trkpt lat="43.6915036" lon="12.6549798"><ele>185.0</ele><time>2026-04-06T13:31:37.188Z</time></trkpt><trkpt lat="43.6913947" lon="12.6548285"><ele>185.0</ele><time>2026-04-06T13:31:38.191Z</time></trkpt><trkpt lat="43.6913038" lon="12.6546783"><ele>185.0</ele><time>2026-04-06T13:31:39.191Z</time></trkpt><trkpt lat="43.6912113" lon="12.6545271"><ele>185.0</ele><time>2026-04-06T13:31:40.19Z</time></trkpt><trkpt lat="43.6911238" lon="12.6543722"><ele>185.0</ele><time>2026-04-06T13:31:41.196Z</time></trkpt><trkpt lat="43.6910348" lon="12.6542171"><ele>185.0</ele><time>2026-04-06T13:31:42.188Z</time></trkpt><trkpt lat="43.6909571" lon="12.6540643"><ele>185.0</ele><time>2026-04-06T13:31:43.19Z</time></trkpt><trkpt lat="43.6908911" lon="12.6539052"><ele>185.0</ele><time>2026-04-06T13:31:44.19Z</time></trkpt><trkpt lat="43.6908098" lon="12.6537238"><ele>185.0</ele><time>2026-04-06T13:31:45.195Z</time></trkpt><trkpt lat="43.6907412" lon="12.6535508"><ele>185.0</ele><time>2026-04-06T13:31:46.191Z</time></trkpt><trkpt lat="43.690685" lon="12.6533589"><ele>185.0</ele><time>2026-04-06T13:31:47.191Z</time></trkpt><trkpt lat="43.690623" lon="12.6531627"><ele>185.0</ele><time>2026-04-06T13:31:48.193Z</time></trkpt><trkpt lat="43.6905809" lon="12.6529769"><ele>185.0</ele><time>2026-04-06T13:31:49.191Z</time></trkpt><trkpt lat="43.6905299" lon="12.6527902"><ele>186.0</ele><time>2026-04-06T13:31:50.189Z</time></trkpt><trkpt lat="43.6904962" lon="12.6525942"><ele>187.0</ele><time>2026-04-06T13:31:51.195Z</time></trkpt><trkpt lat="43.6904725" lon="12.6523878"><ele>188.0</ele><time>2026-04-06T13:31:52.192Z</time></trkpt><trkpt lat="43.6904421" lon="12.6521769"><ele>188.0</ele><time>2026-04-06T13:31:53.188Z</time></trkpt><trkpt lat="43.690418" lon="12.6519743"><ele>188.0</ele><time>2026-04-06T13:31:54.193Z</time></trkpt><trkpt lat="43.6903942" lon="12.6517719"><ele>188.0</ele><time>2026-04-06T13:31:55.19Z</time></trkpt><trkpt lat="43.6903613" lon="12.651572"><ele>188.0</ele><time>2026-04-06T13:31:56.197Z</time></trkpt><trkpt lat="43.6903153" lon="12.6513782"><ele>188.0</ele><time>2026-04-06T13:31:57.193Z</time></trkpt><trkpt lat="43.6902711" lon="12.651188"><ele>188.0</ele><time>2026-04-06T13:31:58.182Z</time></trkpt><trkpt lat="43.6901876" lon="12.6510068"><ele>188.0</ele><time>2026-04-06T13:31:59.184Z</time></trkpt><trkpt lat="43.6900914" lon="12.6508329"><ele>187.33333333333331</ele><time>2026-04-06T13:32:00.177Z</time></trkpt><trkpt lat="43.6899762" lon="12.6506693"><ele>186.66666666666666</ele><time>2026-04-06T13:32:01.185Z</time></trkpt><trkpt lat="43.689853" lon="12.650517"><ele>186.0</ele><time>2026-04-06T13:32:02.188Z</time></trkpt><trkpt lat="43.6897378" lon="12.6503718"><ele>185.66666666666666</ele><time>2026-04-06T13:32:03.181Z</time></trkpt><trkpt lat="43.6895988" lon="12.6502564"><ele>185.33333333333331</ele><time>2026-04-06T13:32:04.18Z</time></trkpt><trkpt lat="43.6894485" lon="12.6501459"><ele>185.0</ele><time>2026-04-06T13:32:05.183Z</time></trkpt><trkpt lat="43.689277" lon="12.6500673"><ele>185.0</ele><time>2026-04-06T13:32:06.181Z</time></trkpt><trkpt lat="43.6891017" lon="12.6500059"><ele>185.0</ele><time>2026-04-06T13:32:07.178Z</time></trkpt><trkpt lat="43.688932" lon="12.6499579"><ele>185.0</ele><time>2026-04-06T13:32:08.183Z</time></trkpt><trkpt lat="43.6887643" lon="12.6499231"><ele>183.33333333333331</ele><time>2026-04-06T13:32:09.185Z</time></trkpt><trkpt lat="43.6885903" lon="12.6499026"><ele>181.66666666666666</ele><time>2026-04-06T13:32:10.186Z</time></trkpt><trkpt lat="43.6884199" lon="12.6498861"><ele>180.0</ele><time>2026-04-06T13:32:11.186Z</time></trkpt><trkpt lat="43.6882471" lon="12.6498636"><ele>180.0</ele><time>2026-04-06T13:32:12.188Z</time></trkpt><trkpt lat="43.6880725" lon="12.6498421"><ele>180.0</ele><time>2026-04-06T13:32:13.19Z</time></trkpt><trkpt lat="43.6879017" lon="12.6498197"><ele>180.0</ele><time>2026-04-06T13:32:14.184Z</time></trkpt><trkpt lat="43.6877333" lon="12.6498028"><ele>179.33333333333334</ele><time>2026-04-06T13:32:15.189Z</time></trkpt><trkpt lat="43.6875587" lon="12.6497748"><ele>178.66666666666669</ele><time>2026-04-06T13:32:16.185Z</time></trkpt><trkpt lat="43.687388" lon="12.649744"><ele>178.0</ele><time>2026-04-06T13:32:17.183Z</time></trkpt><trkpt lat="43.6872074" lon="12.6497128"><ele>178.0</ele><time>2026-04-06T13:32:18.187Z</time></trkpt><trkpt lat="43.6870292" lon="12.6496979"><ele>178.0</ele><time>2026-04-06T13:32:19.186Z</time></trkpt><trkpt lat="43.6868531" lon="12.6496746"><ele>178.0</ele><time>2026-04-06T13:32:20.183Z</time></trkpt><trkpt lat="43.6866802" lon="12.6496599"><ele>177.66666666666669</ele><time>2026-04-06T13:32:21.178Z</time></trkpt><trkpt lat="43.6865107" lon="12.6496338"><ele>177.33333333333334</ele><time>2026-04-06T13:32:22.184Z</time></trkpt><trkpt lat="43.6863359" lon="12.6496083"><ele>177.0</ele><time>2026-04-06T13:32:23.182Z</time></trkpt><trkpt lat="43.6861546" lon="12.6495897"><ele>176.66666666666666</ele><time>2026-04-06T13:32:24.186Z</time></trkpt><trkpt lat="43.6859876" lon="12.6495598"><ele>176.33333333333331</ele><time>2026-04-06T13:32:25.184Z</time></trkpt><trkpt lat="43.6858162" lon="12.6495359"><ele>176.0</ele><time>2026-04-06T13:32:26.191Z</time></trkpt><trkpt lat="43.6856417" lon="12.6495069"><ele>176.0</ele><time>2026-04-06T13:32:27.187Z</time></trkpt><trkpt lat="43.6854751" lon="12.6494766"><ele>176.0</ele><time>2026-04-06T13:32:28.188Z</time></trkpt><trkpt lat="43.6853121" lon="12.6494487"><ele>176.0</ele><time>2026-04-06T13:32:29.187Z</time></trkpt><trkpt lat="43.6851459" lon="12.6494277"><ele>178.66666666666666</ele><time>2026-04-06T13:32:30.185Z</time></trkpt><trkpt lat="43.684977" lon="12.6494102"><ele>181.33333333333334</ele><time>2026-04-06T13:32:31.187Z</time></trkpt><trkpt lat="43.6847938" lon="12.6493844"><ele>184.0</ele><time>2026-04-06T13:32:32.186Z</time></trkpt><trkpt lat="43.6846162" lon="12.6493683"><ele>184.0</ele><time>2026-04-06T13:32:33.183Z</time></trkpt><trkpt lat="43.684455" lon="12.6493378"><ele>184.0</ele><time>2026-04-06T13:32:34.183Z</time></trkpt><trkpt lat="43.6842835" lon="12.649312"><ele>184.0</ele><time>2026-04-06T13:32:35.179Z</time></trkpt><trkpt lat="43.6841111" lon="12.6492928"><ele>185.0</ele><time>2026-04-06T13:32:36.181Z</time></trkpt><trkpt lat="43.6839339" lon="12.6492706"><ele>186.0</ele><time>2026-04-06T13:32:37.183Z</time></trkpt><trkpt lat="43.6837619" lon="12.6492518"><ele>187.0</ele><time>2026-04-06T13:32:38.176Z</time></trkpt><trkpt lat="43.6835972" lon="12.6492235"><ele>187.33333333333334</ele><time>2026-04-06T13:32:39.179Z</time></trkpt><trkpt lat="43.6834318" lon="12.6491907"><ele>187.66666666666666</ele><time>2026-04-06T13:32:40.183Z</time></trkpt><trkpt lat="43.6832681" lon="12.6491495"><ele>188.0</ele><time>2026-04-06T13:32:41.183Z</time></trkpt><trkpt lat="43.6831068" lon="12.6490985"><ele>188.0</ele><time>2026-04-06T13:32:42.183Z</time></trkpt><trkpt lat="43.6829483" lon="12.6490332"><ele>188.0</ele><time>2026-04-06T13:32:43.184Z</time></trkpt><trkpt lat="43.6827889" lon="12.6489618"><ele>188.0</ele><time>2026-04-06T13:32:44.179Z</time></trkpt><trkpt lat="43.682637" lon="12.6488647"><ele>189.0</ele><time>2026-04-06T13:32:45.181Z</time></trkpt><trkpt lat="43.6824836" lon="12.6487398"><ele>190.0</ele><time>2026-04-06T13:32:46.184Z</time></trkpt><trkpt lat="43.6823343" lon="12.6486305"><ele>191.0</ele><time>2026-04-06T13:32:47.184Z</time></trkpt><trkpt lat="43.682196" lon="12.6485226"><ele>191.0</ele><time>2026-04-06T13:32:48.184Z</time></trkpt><trkpt lat="43.6820631" lon="12.6484098"><ele>191.0</ele><time>2026-04-06T13:32:49.177Z</time></trkpt><trkpt lat="43.6819392" lon="12.6482955"><ele>191.0</ele><time>2026-04-06T13:32:50.174Z</time></trkpt><trkpt lat="43.6818206" lon="12.6482049"><ele>191.0</ele><time>2026-04-06T13:32:51.174Z</time></trkpt><trkpt lat="43.681721" lon="12.648112"><ele>190.5</ele><time>2026-04-06T13:32:52.173Z</time></trkpt><trkpt lat="43.681628" lon="12.6480305"><ele>190.0</ele><time>2026-04-06T13:32:53.171Z</time></trkpt><trkpt lat="43.6815606" lon="12.6479304"><ele>189.5</ele><time>2026-04-06T13:32:54.175Z</time></trkpt><trkpt lat="43.6815082" lon="12.6478431"><ele>189.0</ele><time>2026-04-06T13:32:55.171Z</time></trkpt><trkpt lat="43.6814915" lon="12.6477362"><ele>188.5</ele><time>2026-04-06T13:32:56.171Z</time></trkpt><trkpt lat="43.6814845" lon="12.6476382"><ele>188.0</ele><time>2026-04-06T13:32:57.172Z</time></trkpt><trkpt lat="43.6814382" lon="12.6475663"><ele>188.8</ele><time>2026-04-06T13:32:58.171Z</time></trkpt><trkpt lat="43.6813635" lon="12.6475531"><ele>189.60000000000002</ele><time>2026-04-06T13:32:59.177Z</time></trkpt><trkpt lat="43.6812621" lon="12.6475689"><ele>190.39999999999998</ele><time>2026-04-06T13:33:00.17Z</time></trkpt><trkpt lat="43.6811452" lon="12.6475811"><ele>191.2</ele><time>2026-04-06T13:33:01.174Z</time></trkpt><trkpt lat="43.6810248" lon="12.6475546"><ele>192.0</ele><time>2026-04-06T13:33:02.179Z</time></trkpt><trkpt lat="43.6808962" lon="12.647489"><ele>192.0</ele><time>2026-04-06T13:33:03.174Z</time></trkpt><trkpt lat="43.6807643" lon="12.6474273"><ele>192.0</ele><time>2026-04-06T13:33:04.171Z</time></trkpt><trkpt lat="43.6806093" lon="12.6474014"><ele>192.0</ele><time>2026-04-06T13:33:05.181Z</time></trkpt><trkpt lat="43.6803973" lon="12.6474444"><ele>191.66666666666666</ele><time>2026-04-06T13:33:06.178Z</time></trkpt><trkpt lat="43.6802138" lon="12.6474668"><ele>191.33333333333331</ele><time>2026-04-06T13:33:07.178Z</time></trkpt><trkpt lat="43.6800388" lon="12.6474917"><ele>191.0</ele><time>2026-04-06T13:33:08.173Z</time></trkpt><trkpt lat="43.6798648" lon="12.6475046"><ele>191.0</ele><time>2026-04-06T13:33:09.176Z</time></trkpt><trkpt lat="43.6797025" lon="12.6474557"><ele>191.0</ele><time>2026-04-06T13:33:10.178Z</time></trkpt><trkpt lat="43.6795269" lon="12.6473874"><ele>191.0</ele><time>2026-04-06T13:33:11.177Z</time></trkpt><trkpt lat="43.6793538" lon="12.6473061"><ele>193.33333333333331</ele><time>2026-04-06T13:33:12.177Z</time></trkpt><trkpt lat="43.6791917" lon="12.6472023"><ele>195.66666666666666</ele><time>2026-04-06T13:33:13.176Z</time></trkpt><trkpt lat="43.6790281" lon="12.6471233"><ele>198.0</ele><time>2026-04-06T13:33:14.178Z</time></trkpt><trkpt lat="43.6788496" lon="12.6470591"><ele>198.0</ele><time>2026-04-06T13:33:15.175Z</time></trkpt><trkpt lat="43.6786731" lon="12.6470332"><ele>198.0</ele><time>2026-04-06T13:33:16.174Z</time></trkpt><trkpt lat="43.6784783" lon="12.6470388"><ele>198.0</ele><time>2026-04-06T13:33:17.164Z</time></trkpt><trkpt lat="43.678288" lon="12.6470734"><ele>199.33333333333331</ele><time>2026-04-06T13:33:18.179Z</time></trkpt><trkpt lat="43.6781139" lon="12.6471538"><ele>200.66666666666666</ele><time>2026-04-06T13:33:19.177Z</time></trkpt><trkpt lat="43.6779545" lon="12.6472459"><ele>202.0</ele><time>2026-04-06T13:33:20.163Z</time></trkpt><trkpt lat="43.6777948" lon="12.6473528"><ele>199.0</ele><time>2026-04-06T13:33:21.162Z</time></trkpt><trkpt lat="43.6776418" lon="12.6474673"><ele>196.0</ele><time>2026-04-06T13:33:22.164Z</time></trkpt><trkpt lat="43.6774849" lon="12.6475863"><ele>193.0</ele><time>2026-04-06T13:33:23.162Z</time></trkpt><trkpt lat="43.6773258" lon="12.6476943"><ele>194.33333333333331</ele><time>2026-04-06T13:33:24.172Z</time></trkpt><trkpt lat="43.6771607" lon="12.6477961"><ele>195.66666666666669</ele><time>2026-04-06T13:33:25.176Z</time></trkpt><trkpt lat="43.6770009" lon="12.6479024"><ele>197.0</ele><time>2026-04-06T13:33:26.178Z</time></trkpt><trkpt lat="43.6768497" lon="12.6480163"><ele>197.0</ele><time>2026-04-06T13:33:27.175Z</time></trkpt><trkpt lat="43.6766938" lon="12.6481245"><ele>197.0</ele><time>2026-04-06T13:33:28.171Z</time></trkpt><trkpt lat="43.6765287" lon="12.6482156"><ele>197.0</ele><time>2026-04-06T13:33:29.174Z</time></trkpt><trkpt lat="43.6763689" lon="12.6482949"><ele>197.0</ele><time>2026-04-06T13:33:30.183Z</time></trkpt><trkpt lat="43.6762022" lon="12.648336"><ele>197.0</ele><time>2026-04-06T13:33:31.182Z</time></trkpt><trkpt lat="43.6760216" lon="12.6483275"><ele>197.0</ele><time>2026-04-06T13:33:32.172Z</time></trkpt><trkpt lat="43.6758389" lon="12.6483101"><ele>196.8</ele><time>2026-04-06T13:33:33.171Z</time></trkpt><trkpt lat="43.6757153" lon="12.6482924"><ele>196.6</ele><time>2026-04-06T13:33:34.174Z</time></trkpt><trkpt lat="43.6756179" lon="12.6482631"><ele>196.4</ele><time>2026-04-06T13:33:35.172Z</time></trkpt><trkpt lat="43.675522" lon="12.6482378"><ele>196.20000000000002</ele><time>2026-04-06T13:33:36.168Z</time></trkpt><trkpt lat="43.6754431" lon="12.648211"><ele>196.0</ele><time>2026-04-06T13:33:37.169Z</time></trkpt><trkpt lat="43.6753558" lon="12.6481718"><ele>196.0</ele><time>2026-04-06T13:33:39.169Z</time></trkpt><trkpt lat="43.6752905" lon="12.6481552"><ele>196.0</ele><time>2026-04-06T13:33:51.187Z</time></trkpt><trkpt lat="43.6751652" lon="12.6481314"><ele>196.0</ele><time>2026-04-06T13:33:54.172Z</time></trkpt><trkpt lat="43.6750873" lon="12.6481171"><ele>196.0</ele><time>2026-04-06T13:33:55.174Z</time></trkpt><trkpt lat="43.67499" lon="12.6481007"><ele>196.0</ele><time>2026-04-06T13:33:56.168Z</time></trkpt><trkpt lat="43.6748759" lon="12.6480813"><ele>197.75</ele><time>2026-04-06T13:33:57.175Z</time></trkpt><trkpt lat="43.6747566" lon="12.6480614"><ele>199.5</ele><time>2026-04-06T13:33:58.165Z</time></trkpt><trkpt lat="43.6746239" lon="12.6480359"><ele>201.25</ele><time>2026-04-06T13:33:59.17Z</time></trkpt><trkpt lat="43.6744736" lon="12.648005"><ele>203.0</ele><time>2026-04-06T13:34:00.17Z</time></trkpt><trkpt lat="43.6742954" lon="12.6479649"><ele>204.66666666666669</ele><time>2026-04-06T13:34:01.168Z</time></trkpt><trkpt lat="43.6741198" lon="12.6479234"><ele>206.33333333333331</ele><time>2026-04-06T13:34:02.164Z</time></trkpt><trkpt lat="43.6739687" lon="12.6478879"><ele>208.0</ele><time>2026-04-06T13:34:03.173Z</time></trkpt><trkpt lat="43.6738172" lon="12.6478494"><ele>208.0</ele><time>2026-04-06T13:34:04.174Z</time></trkpt><trkpt lat="43.6736727" lon="12.6478155"><ele>208.0</ele><time>2026-04-06T13:34:05.175Z</time></trkpt><trkpt lat="43.6735534" lon="12.6478016"><ele>208.0</ele><time>2026-04-06T13:34:06.17Z</time></trkpt><trkpt lat="43.6734456" lon="12.6477805"><ele>208.0</ele><time>2026-04-06T13:34:07.172Z</time></trkpt><trkpt lat="43.6733375" lon="12.6477492"><ele>207.0</ele><time>2026-04-06T13:34:08.168Z</time></trkpt><trkpt lat="43.6732453" lon="12.6476634"><ele>206.0</ele><time>2026-04-06T13:34:09.172Z</time></trkpt><trkpt lat="43.6731818" lon="12.6475183"><ele>205.0</ele><time>2026-04-06T13:34:10.163Z</time></trkpt><trkpt lat="43.6731522" lon="12.647331"><ele>204.0</ele><time>2026-04-06T13:34:11.171Z</time></trkpt><trkpt lat="43.6731427" lon="12.6471379"><ele>203.0</ele><time>2026-04-06T13:34:12.168Z</time></trkpt><trkpt lat="43.6731481" lon="12.6469479"><ele>202.0</ele><time>2026-04-06T13:34:13.167Z</time></trkpt><trkpt lat="43.6731506" lon="12.6467404"><ele>201.0</ele><time>2026-04-06T13:34:14.167Z</time></trkpt><trkpt lat="43.6731527" lon="12.6465176"><ele>200.0</ele><time>2026-04-06T13:34:15.17Z</time></trkpt><trkpt lat="43.6731513" lon="12.6463021"><ele>200.2</ele><time>2026-04-06T13:34:16.169Z</time></trkpt><trkpt lat="43.6731451" lon="12.6461109"><ele>200.4</ele><time>2026-04-06T13:34:17.168Z</time></trkpt><trkpt lat="43.6731463" lon="12.6459543"><ele>200.60000000000002</ele><time>2026-04-06T13:34:18.169Z</time></trkpt><trkpt lat="43.6731481" lon="12.6458109"><ele>200.8</ele><time>2026-04-06T13:34:19.169Z</time></trkpt><trkpt lat="43.6731636" lon="12.6456848"><ele>201.0</ele><time>2026-04-06T13:34:20.167Z</time></trkpt><trkpt lat="43.6731724" lon="12.6455878"><ele>201.0</ele><time>2026-04-06T13:34:21.17Z</time></trkpt><trkpt lat="43.6731742" lon="12.6454576"><ele>201.0</ele><time>2026-04-06T13:34:23.171Z</time></trkpt><trkpt lat="43.6731843" lon="12.6453351"><ele>201.0</ele><time>2026-04-06T13:34:38.196Z</time></trkpt><trkpt lat="43.6731935" lon="12.6452415"><ele>201.0</ele><time>2026-04-06T13:34:39.204Z</time></trkpt><trkpt lat="43.6732035" lon="12.6451497"><ele>201.0</ele><time>2026-04-06T13:34:40.169Z</time></trkpt><trkpt lat="43.6732037" lon="12.6450463"><ele>201.0</ele><time>2026-04-06T13:34:41.172Z</time></trkpt><trkpt lat="43.6731795" lon="12.6449448"><ele>201.25</ele><time>2026-04-06T13:34:42.172Z</time></trkpt><trkpt lat="43.6731201" lon="12.6448914"><ele>201.5</ele><time>2026-04-06T13:34:43.171Z</time></trkpt><trkpt lat="43.6730014" lon="12.6448568"><ele>201.75</ele><time>2026-04-06T13:34:44.17Z</time></trkpt><trkpt lat="43.6728475" lon="12.6448059"><ele>202.0</ele><time>2026-04-06T13:34:45.174Z</time></trkpt><trkpt lat="43.6726474" lon="12.644704"><ele>202.0</ele><time>2026-04-06T13:34:46.173Z</time></trkpt><trkpt lat="43.6725183" lon="12.6445837"><ele>202.0</ele><time>2026-04-06T13:34:47.168Z</time></trkpt><trkpt lat="43.6723993" lon="12.6444883"><ele>202.0</ele><time>2026-04-06T13:34:48.164Z</time></trkpt><trkpt lat="43.6722632" lon="12.6444038"><ele>202.0</ele><time>2026-04-06T13:34:49.172Z</time></trkpt><trkpt lat="43.6721368" lon="12.6443172"><ele>202.0</ele><time>2026-04-06T13:34:50.167Z</time></trkpt><trkpt lat="43.6719923" lon="12.6442702"><ele>202.0</ele><time>2026-04-06T13:34:51.167Z</time></trkpt><trkpt lat="43.6718748" lon="12.6442371"><ele>202.0</ele><time>2026-04-06T13:34:52.167Z</time></trkpt><trkpt lat="43.6717806" lon="12.6442293"><ele>202.0</ele><time>2026-04-06T13:34:53.17Z</time></trkpt><trkpt lat="43.6716836" lon="12.6442025"><ele>202.0</ele><time>2026-04-06T13:34:54.177Z</time></trkpt><trkpt lat="43.6715933" lon="12.6441766"><ele>202.0</ele><time>2026-04-06T13:34:55.168Z</time></trkpt><trkpt lat="43.6714557" lon="12.6441684"><ele>202.0</ele><time>2026-04-06T13:34:56.171Z</time></trkpt><trkpt lat="43.6713005" lon="12.6441513"><ele>202.0</ele><time>2026-04-06T13:34:57.173Z</time></trkpt><trkpt lat="43.671176" lon="12.6441166"><ele>202.6</ele><time>2026-04-06T13:34:58.165Z</time></trkpt><trkpt lat="43.6710628" lon="12.6440923"><ele>203.2</ele><time>2026-04-06T13:34:59.174Z</time></trkpt><trkpt lat="43.6709564" lon="12.6440682"><ele>203.8</ele><time>2026-04-06T13:35:00.174Z</time></trkpt><trkpt lat="43.6708356" lon="12.6440336"><ele>204.4</ele><time>2026-04-06T13:35:01.17Z</time></trkpt><trkpt lat="43.6707421" lon="12.644014"><ele>205.0</ele><time>2026-04-06T13:35:02.177Z</time></trkpt><trkpt lat="43.6706359" lon="12.6440033"><ele>205.0</ele><time>2026-04-06T13:35:03.172Z</time></trkpt><trkpt lat="43.6705247" lon="12.6439764"><ele>205.0</ele><time>2026-04-06T13:35:04.172Z</time></trkpt><trkpt lat="43.6704241" lon="12.6439498"><ele>205.0</ele><time>2026-04-06T13:35:05.167Z</time></trkpt><trkpt lat="43.6703282" lon="12.643933"><ele>205.0</ele><time>2026-04-06T13:35:06.168Z</time></trkpt><trkpt lat="43.6702419" lon="12.6439201"><ele>205.0</ele><time>2026-04-06T13:35:07.173Z</time></trkpt><trkpt lat="43.6701666" lon="12.6439099"><ele>205.2</ele><time>2026-04-06T13:35:08.168Z</time></trkpt><trkpt lat="43.6700951" lon="12.6438513"><ele>205.4</ele><time>2026-04-06T13:35:10.168Z</time></trkpt><trkpt lat="43.6700865" lon="12.6436737"><ele>205.60000000000002</ele><time>2026-04-06T13:35:12.166Z</time></trkpt><trkpt lat="43.6701095" lon="12.6435498"><ele>205.8</ele><time>2026-04-06T13:35:13.168Z</time></trkpt><trkpt lat="43.670142" lon="12.643411"><ele>206.0</ele><time>2026-04-06T13:35:14.166Z</time></trkpt><trkpt lat="43.6701631" lon="12.6432575"><ele>205.50000000000003</ele><time>2026-04-06T13:35:15.172Z</time></trkpt><trkpt lat="43.6701819" lon="12.6431053"><ele>205.0</ele><time>2026-04-06T13:35:16.176Z</time></trkpt><trkpt lat="43.6701914" lon="12.6429728"><ele>204.5</ele><time>2026-04-06T13:35:17.174Z</time></trkpt><trkpt lat="43.670205" lon="12.6428538"><ele>204.0</ele><time>2026-04-06T13:35:18.177Z</time></trkpt><trkpt lat="43.67022" lon="12.6427596"><ele>203.50000000000003</ele><time>2026-04-06T13:35:19.181Z</time></trkpt><trkpt lat="43.6702001" lon="12.6426675"><ele>203.0</ele><time>2026-04-06T13:35:21.199Z</time></trkpt><trkpt lat="43.6701139" lon="12.6426233"><ele>202.60000000000002</ele><time>2026-04-06T13:35:24.199Z</time></trkpt><trkpt lat="43.6700159" lon="12.6425968"><ele>202.20000000000002</ele><time>2026-04-06T13:35:26.182Z</time></trkpt><trkpt lat="43.6699027" lon="12.6425693"><ele>201.8</ele><time>2026-04-06T13:35:28.175Z</time></trkpt><trkpt lat="43.6697859" lon="12.6426186"><ele>201.4</ele><time>2026-04-06T13:35:30.179Z</time></trkpt><trkpt lat="43.6697013" lon="12.6426934"><ele>201.0</ele><time>2026-04-06T13:35:31.174Z</time></trkpt><trkpt lat="43.6696098" lon="12.6427843"><ele>201.5</ele><time>2026-04-06T13:35:32.182Z</time></trkpt><trkpt lat="43.6695092" lon="12.6428669"><ele>202.0</ele><time>2026-04-06T13:35:33.175Z</time></trkpt><trkpt lat="43.6693987" lon="12.6429561"><ele>202.5</ele><time>2026-04-06T13:35:34.174Z</time></trkpt><trkpt lat="43.669283" lon="12.6430435"><ele>203.0</ele><time>2026-04-06T13:35:35.173Z</time></trkpt><trkpt lat="43.6691651" lon="12.6431254"><ele>203.0</ele><time>2026-04-06T13:35:36.173Z</time></trkpt><trkpt lat="43.6690531" lon="12.6431999"><ele>203.0</ele><time>2026-04-06T13:35:37.172Z</time></trkpt><trkpt lat="43.668937" lon="12.6432559"><ele>203.0</ele><time>2026-04-06T13:35:38.173Z</time></trkpt><trkpt lat="43.6688091" lon="12.6432971"><ele>203.0</ele><time>2026-04-06T13:35:39.168Z</time></trkpt><trkpt lat="43.6686785" lon="12.643331"><ele>202.75</ele><time>2026-04-06T13:35:40.177Z</time></trkpt><trkpt lat="43.6685472" lon="12.6433739"><ele>202.5</ele><time>2026-04-06T13:35:41.177Z</time></trkpt><trkpt lat="43.6684158" lon="12.6434247"><ele>202.25</ele><time>2026-04-06T13:35:42.172Z</time></trkpt><trkpt lat="43.6683092" lon="12.6434758"><ele>202.0</ele><time>2026-04-06T13:35:43.173Z</time></trkpt><trkpt lat="43.6682131" lon="12.6435578"><ele>203.0</ele><time>2026-04-06T13:35:44.172Z</time></trkpt><trkpt lat="43.6681328" lon="12.6436611"><ele>204.0</ele><time>2026-04-06T13:35:45.183Z</time></trkpt><trkpt lat="43.6680625" lon="12.6437568"><ele>205.0</ele><time>2026-04-06T13:35:46.172Z</time></trkpt><trkpt lat="43.6679918" lon="12.6438347"><ele>206.0</ele><time>2026-04-06T13:35:47.176Z</time></trkpt><trkpt lat="43.6678985" lon="12.6438708"><ele>207.0</ele><time>2026-04-06T13:35:49.186Z</time></trkpt><trkpt lat="43.6677894" lon="12.6438006"><ele>206.25</ele><time>2026-04-06T13:35:51.174Z</time></trkpt><trkpt lat="43.6677027" lon="12.6437313"><ele>205.5</ele><time>2026-04-06T13:35:52.178Z</time></trkpt><trkpt lat="43.6676045" lon="12.6436406"><ele>204.75</ele><time>2026-04-06T13:35:53.176Z</time></trkpt><trkpt lat="43.6674946" lon="12.6435429"><ele>204.0</ele><time>2026-04-06T13:35:54.179Z</time></trkpt><trkpt lat="43.6673686" lon="12.6434155"><ele>204.0</ele><time>2026-04-06T13:35:55.179Z</time></trkpt><trkpt lat="43.6672404" lon="12.6433194"><ele>204.0</ele><time>2026-04-06T13:35:56.165Z</time></trkpt><trkpt lat="43.6671535" lon="12.6432613"><ele>204.0</ele><time>2026-04-06T13:35:57.174Z</time></trkpt><trkpt lat="43.6670556" lon="12.6431917"><ele>204.0</ele><time>2026-04-06T13:35:59.177Z</time></trkpt><trkpt lat="43.6669912" lon="12.6431778"><ele>204.0</ele><time>2026-04-06T13:36:10.207Z</time></trkpt><trkpt lat="43.6668929" lon="12.643158"><ele>205.39999999999998</ele><time>2026-04-06T13:37:14.205Z</time></trkpt><trkpt lat="43.6668227" lon="12.6431515"><ele>206.8</ele><time>2026-04-06T13:37:15.189Z</time></trkpt><trkpt lat="43.6667067" lon="12.6431392"><ele>208.2</ele><time>2026-04-06T13:37:16.199Z</time></trkpt><trkpt lat="43.6666109" lon="12.6431285"><ele>209.60000000000002</ele><time>2026-04-06T13:37:17.195Z</time></trkpt><trkpt lat="43.6665164" lon="12.6431126"><ele>211.0</ele><time>2026-04-06T13:37:18.178Z</time></trkpt><trkpt lat="43.6664082" lon="12.6431076"><ele>211.0</ele><time>2026-04-06T13:37:19.183Z</time></trkpt><trkpt lat="43.6663038" lon="12.6430731"><ele>211.0</ele><time>2026-04-06T13:37:20.184Z</time></trkpt><trkpt lat="43.6662072" lon="12.64303"><ele>211.0</ele><time>2026-04-06T13:37:21.179Z</time></trkpt><trkpt lat="43.6661133" lon="12.6429686"><ele>211.0</ele><time>2026-04-06T13:37:22.185Z</time></trkpt><trkpt lat="43.6660315" lon="12.6428943"><ele>211.0</ele><time>2026-04-06T13:37:23.176Z</time></trkpt><trkpt lat="43.6659427" lon="12.6428097"><ele>214.0</ele><time>2026-04-06T13:37:24.185Z</time></trkpt><trkpt lat="43.6658643" lon="12.6427191"><ele>217.0</ele><time>2026-04-06T13:37:25.184Z</time></trkpt><trkpt lat="43.6657949" lon="12.6426298"><ele>220.00000000000003</ele><time>2026-04-06T13:37:26.185Z</time></trkpt><trkpt lat="43.6657366" lon="12.6425581"><ele>223.0</ele><time>2026-04-06T13:37:27.18Z</time></trkpt><trkpt lat="43.6656651" lon="12.6424461"><ele>226.0</ele><time>2026-04-06T13:37:29.186Z</time></trkpt><trkpt lat="43.6655778" lon="12.6424458"><ele>226.0</ele><time>2026-04-06T13:37:32.206Z</time></trkpt><trkpt lat="43.6654711" lon="12.6425683"><ele>226.00000000000003</ele><time>2026-04-06T13:37:34.18Z</time></trkpt><trkpt lat="43.6654026" lon="12.6426623"><ele>226.00000000000003</ele><time>2026-04-06T13:37:35.185Z</time></trkpt><trkpt lat="43.6653248" lon="12.6427276"><ele>226.0</ele><time>2026-04-06T13:37:36.19Z</time></trkpt><trkpt lat="43.6652648" lon="12.6427905"><ele>226.0</ele><time>2026-04-06T13:37:37.185Z</time></trkpt><trkpt lat="43.6652202" lon="12.6428724"><ele>227.60000000000002</ele><time>2026-04-06T13:37:38.185Z</time></trkpt><trkpt lat="43.6651734" lon="12.6429347"><ele>229.20000000000002</ele><time>2026-04-06T13:37:39.174Z</time></trkpt><trkpt lat="43.665067" lon="12.6429833"><ele>230.79999999999998</ele><time>2026-04-06T13:37:41.182Z</time></trkpt><trkpt lat="43.6649836" lon="12.6429377"><ele>232.39999999999998</ele><time>2026-04-06T13:37:43.184Z</time></trkpt><trkpt lat="43.6649578" lon="12.6428064"><ele>234.0</ele><time>2026-04-06T13:37:45.212Z</time></trkpt><trkpt lat="43.6649553" lon="12.6426768"><ele>236.0</ele><time>2026-04-06T13:37:46.193Z</time></trkpt><trkpt lat="43.6649565" lon="12.6425427"><ele>237.99999999999997</ele><time>2026-04-06T13:37:47.186Z</time></trkpt><trkpt lat="43.6649447" lon="12.6424197"><ele>239.99999999999997</ele><time>2026-04-06T13:37:48.192Z</time></trkpt><trkpt lat="43.6649215" lon="12.6423104"><ele>242.0</ele><time>2026-04-06T13:37:49.18Z</time></trkpt><trkpt lat="43.6649017" lon="12.6421784"><ele>244.0</ele><time>2026-04-06T13:37:50.179Z</time></trkpt><trkpt lat="43.6648832" lon="12.6420407"><ele>243.39999999999998</ele><time>2026-04-06T13:37:51.185Z</time></trkpt><trkpt lat="43.6648567" lon="12.6419159"><ele>242.79999999999998</ele><time>2026-04-06T13:37:52.177Z</time></trkpt><trkpt lat="43.6648173" lon="12.6418169"><ele>242.20000000000002</ele><time>2026-04-06T13:37:53.186Z</time></trkpt><trkpt lat="43.66476" lon="12.6417126"><ele>241.60000000000002</ele><time>2026-04-06T13:37:54.172Z</time></trkpt><trkpt lat="43.6646866" lon="12.6415948"><ele>241.0</ele><time>2026-04-06T13:37:55.195Z</time></trkpt><trkpt lat="43.6645875" lon="12.6414787"><ele>240.99999999999997</ele><time>2026-04-06T13:37:56.185Z</time></trkpt><trkpt lat="43.6645033" lon="12.6413889"><ele>241.0</ele><time>2026-04-06T13:37:57.183Z</time></trkpt><trkpt lat="43.6644347" lon="12.6413214"><ele>241.0</ele><time>2026-04-06T13:37:58.176Z</time></trkpt><trkpt lat="43.6643766" lon="12.6412662"><ele>241.0</ele><time>2026-04-06T13:37:59.182Z</time></trkpt><trkpt lat="43.6642945" lon="12.641157"><ele>240.99999999999997</ele><time>2026-04-06T13:38:01.183Z</time></trkpt><trkpt lat="43.6642581" lon="12.6410824"><ele>241.0</ele><time>2026-04-06T13:38:02.174Z</time></trkpt><trkpt lat="43.6642327" lon="12.6409664"><ele>246.25</ele><time>2026-04-06T13:38:03.159Z</time></trkpt><trkpt lat="43.6642139" lon="12.6408191"><ele>251.5</ele><time>2026-04-06T13:38:04.171Z</time></trkpt><trkpt lat="43.6642168" lon="12.6406273"><ele>256.75</ele><time>2026-04-06T13:38:05.168Z</time></trkpt><trkpt lat="43.6642241" lon="12.6404292"><ele>262.0</ele><time>2026-04-06T13:38:06.167Z</time></trkpt><trkpt lat="43.6642292" lon="12.6402481"><ele>262.0</ele><time>2026-04-06T13:38:07.174Z</time></trkpt><trkpt lat="43.6642392" lon="12.6400919"><ele>262.0</ele><time>2026-04-06T13:38:08.17Z</time></trkpt><trkpt lat="43.6642001" lon="12.6399654"><ele>262.0</ele><time>2026-04-06T13:38:09.183Z</time></trkpt><trkpt lat="43.6641561" lon="12.6398323"><ele>262.0</ele><time>2026-04-06T13:38:10.175Z</time></trkpt><trkpt lat="43.6641029" lon="12.6397423"><ele>262.0</ele><time>2026-04-06T13:38:11.192Z</time></trkpt><trkpt lat="43.6640426" lon="12.6396839"><ele>262.0</ele><time>2026-04-06T13:38:12.181Z</time></trkpt><trkpt lat="43.6639878" lon="12.6395967"><ele>262.0</ele><time>2026-04-06T13:38:13.187Z</time></trkpt><trkpt lat="43.6639106" lon="12.6395269"><ele>262.0</ele><time>2026-04-06T13:38:14.172Z</time></trkpt><trkpt lat="43.6638289" lon="12.6394673"><ele>262.0</ele><time>2026-04-06T13:38:15.168Z</time></trkpt><trkpt lat="43.6637527" lon="12.6393942"><ele>262.0</ele><time>2026-04-06T13:38:16.176Z</time></trkpt><trkpt lat="43.6636676" lon="12.6393167"><ele>265.75</ele><time>2026-04-06T13:38:17.16Z</time></trkpt><trkpt lat="43.6635669" lon="12.6392343"><ele>269.5</ele><time>2026-04-06T13:38:18.171Z</time></trkpt><trkpt lat="43.6634632" lon="12.639146"><ele>273.25</ele><time>2026-04-06T13:38:19.166Z</time></trkpt><trkpt lat="43.6633519" lon="12.6390611"><ele>277.0</ele><time>2026-04-06T13:38:20.167Z</time></trkpt><trkpt lat="43.6632558" lon="12.6389772"><ele>277.0</ele><time>2026-04-06T13:38:21.167Z</time></trkpt><trkpt lat="43.6631784" lon="12.6389025"><ele>277.0</ele><time>2026-04-06T13:38:22.182Z</time></trkpt><trkpt lat="43.6631069" lon="12.6388427"><ele>277.0</ele><time>2026-04-06T13:38:23.176Z</time></trkpt><trkpt lat="43.6630423" lon="12.6387954"><ele>277.0</ele><time>2026-04-06T13:38:24.178Z</time></trkpt><trkpt lat="43.6629687" lon="12.6387698"><ele>277.0</ele><time>2026-04-06T13:38:26.181Z</time></trkpt><trkpt lat="43.6628935" lon="12.638758"><ele>277.0</ele><time>2026-04-06T13:38:58.205Z</time></trkpt><trkpt lat="43.6628171" lon="12.6387313"><ele>277.3333333333333</ele><time>2026-04-06T13:39:00.202Z</time></trkpt><trkpt lat="43.6627375" lon="12.6387443"><ele>277.66666666666663</ele><time>2026-04-06T13:39:01.177Z</time></trkpt><trkpt lat="43.6626548" lon="12.6387836"><ele>278.0</ele><time>2026-04-06T13:39:02.176Z</time></trkpt><trkpt lat="43.6625897" lon="12.6388502"><ele>278.3333333333333</ele><time>2026-04-06T13:39:03.181Z</time></trkpt><trkpt lat="43.6625456" lon="12.6389634"><ele>278.6666666666667</ele><time>2026-04-06T13:39:04.162Z</time></trkpt><trkpt lat="43.6625058" lon="12.6390885"><ele>279.0</ele><time>2026-04-06T13:39:05.172Z</time></trkpt><trkpt lat="43.6624497" lon="12.6392318"><ele>279.0</ele><time>2026-04-06T13:39:06.178Z</time></trkpt><trkpt lat="43.6623686" lon="12.6393921"><ele>279.0</ele><time>2026-04-06T13:39:07.177Z</time></trkpt><trkpt lat="43.6622629" lon="12.6395369"><ele>279.0</ele><time>2026-04-06T13:39:08.172Z</time></trkpt><trkpt lat="43.6621209" lon="12.6396722"><ele>283.0</ele><time>2026-04-06T13:39:09.17Z</time></trkpt><trkpt lat="43.6619234" lon="12.639803"><ele>287.0</ele><time>2026-04-06T13:39:10.167Z</time></trkpt><trkpt lat="43.6617485" lon="12.6398941"><ele>291.0</ele><time>2026-04-06T13:39:11.171Z</time></trkpt><trkpt lat="43.6616195" lon="12.6399525"><ele>291.0</ele><time>2026-04-06T13:39:12.171Z</time></trkpt><trkpt lat="43.6615094" lon="12.6399955"><ele>291.0</ele><time>2026-04-06T13:39:13.169Z</time></trkpt><trkpt lat="43.661404" lon="12.6400345"><ele>291.0</ele><time>2026-04-06T13:39:14.154Z</time></trkpt><trkpt lat="43.6613166" lon="12.6400529"><ele>291.0</ele><time>2026-04-06T13:39:15.177Z</time></trkpt><trkpt lat="43.6612354" lon="12.6400721"><ele>291.0</ele><time>2026-04-06T13:39:16.177Z</time></trkpt><trkpt lat="43.6611445" lon="12.6400863"><ele>288.8</ele><time>2026-04-06T13:39:17.176Z</time></trkpt><trkpt lat="43.6610446" lon="12.6401008"><ele>286.6</ele><time>2026-04-06T13:39:18.177Z</time></trkpt><trkpt lat="43.6609443" lon="12.6401185"><ele>284.4</ele><time>2026-04-06T13:39:19.183Z</time></trkpt><trkpt lat="43.6608525" lon="12.6401436"><ele>282.2</ele><time>2026-04-06T13:39:20.172Z</time></trkpt><trkpt lat="43.6607634" lon="12.6401775"><ele>280.0</ele><time>2026-04-06T13:39:21.183Z</time></trkpt><trkpt lat="43.6606606" lon="12.640211"><ele>280.0</ele><time>2026-04-06T13:39:22.183Z</time></trkpt><trkpt lat="43.6605624" lon="12.6402442"><ele>280.0</ele><time>2026-04-06T13:39:23.182Z</time></trkpt><trkpt lat="43.6604591" lon="12.6402697"><ele>280.0</ele><time>2026-04-06T13:39:24.185Z</time></trkpt><trkpt lat="43.6603501" lon="12.6402832"><ele>280.0</ele><time>2026-04-06T13:39:25.179Z</time></trkpt><trkpt lat="43.6602337" lon="12.6402829"><ele>280.0</ele><time>2026-04-06T13:39:26.181Z</time></trkpt><trkpt lat="43.6601223" lon="12.6402917"><ele>279.8</ele><time>2026-04-06T13:39:27.178Z</time></trkpt><trkpt lat="43.6600245" lon="12.6403277"><ele>279.6</ele><time>2026-04-06T13:39:28.175Z</time></trkpt><trkpt lat="43.6599388" lon="12.6403893"><ele>279.4</ele><time>2026-04-06T13:39:29.179Z</time></trkpt><trkpt lat="43.659855" lon="12.6404767"><ele>279.2</ele><time>2026-04-06T13:39:30.18Z</time></trkpt><trkpt lat="43.6597848" lon="12.6405705"><ele>279.0</ele><time>2026-04-06T13:39:31.169Z</time></trkpt><trkpt lat="43.659712" lon="12.64067"><ele>279.0</ele><time>2026-04-06T13:39:32.175Z</time></trkpt><trkpt lat="43.6596455" lon="12.6407796"><ele>279.0</ele><time>2026-04-06T13:39:33.17Z</time></trkpt><trkpt lat="43.6595746" lon="12.6408639"><ele>279.0</ele><time>2026-04-06T13:39:34.177Z</time></trkpt><trkpt lat="43.6594889" lon="12.6409069"><ele>279.0</ele><time>2026-04-06T13:39:35.164Z</time></trkpt><trkpt lat="43.6594239" lon="12.6409081"><ele>279.0</ele><time>2026-04-06T13:39:36.179Z</time></trkpt><trkpt lat="43.6593647" lon="12.6408399"><ele>279.0</ele><time>2026-04-06T13:39:37.161Z</time></trkpt><trkpt lat="43.6593113" lon="12.6407296"><ele>278.5</ele><time>2026-04-06T13:39:38.169Z</time></trkpt><trkpt lat="43.6592964" lon="12.6405694"><ele>278.0</ele><time>2026-04-06T13:39:39.174Z</time></trkpt><trkpt lat="43.6593056" lon="12.6403894"><ele>277.5</ele><time>2026-04-06T13:39:40.167Z</time></trkpt><trkpt lat="43.6593126" lon="12.6401965"><ele>277.0</ele><time>2026-04-06T13:39:41.173Z</time></trkpt><trkpt lat="43.6593228" lon="12.6399853"><ele>277.0</ele><time>2026-04-06T13:39:42.171Z</time></trkpt><trkpt lat="43.6593356" lon="12.6397255"><ele>277.0</ele><time>2026-04-06T13:39:43.176Z</time></trkpt><trkpt lat="43.6593492" lon="12.639507"><ele>277.0</ele><time>2026-04-06T13:39:44.171Z</time></trkpt><trkpt lat="43.6593509" lon="12.6392925"><ele>277.6</ele><time>2026-04-06T13:39:45.17Z</time></trkpt><trkpt lat="43.6593521" lon="12.6391164"><ele>278.2</ele><time>2026-04-06T13:39:46.173Z</time></trkpt><trkpt lat="43.6593412" lon="12.6390158"><ele>278.8</ele><time>2026-04-06T13:39:47.174Z</time></trkpt><trkpt lat="43.659228" lon="12.6389104"><ele>279.4</ele><time>2026-04-06T13:39:49.173Z</time></trkpt><trkpt lat="43.6591479" lon="12.6389235"><ele>280.0</ele><time>2026-04-06T13:39:50.167Z</time></trkpt><trkpt lat="43.6590475" lon="12.6390007"><ele>280.0</ele><time>2026-04-06T13:39:51.172Z</time></trkpt><trkpt lat="43.658971" lon="12.6391163"><ele>280.0</ele><time>2026-04-06T13:39:52.168Z</time></trkpt><trkpt lat="43.658897" lon="12.6392514"><ele>280.0</ele><time>2026-04-06T13:39:53.168Z</time></trkpt><trkpt lat="43.6588113" lon="12.6394065"><ele>280.0</ele><time>2026-04-06T13:39:54.181Z</time></trkpt><trkpt lat="43.6587168" lon="12.6395759"><ele>285.66666666666663</ele><time>2026-04-06T13:39:55.181Z</time></trkpt><trkpt lat="43.6586091" lon="12.6397618"><ele>291.3333333333333</ele><time>2026-04-06T13:39:56.18Z</time></trkpt><trkpt lat="43.6585321" lon="12.63991"><ele>297.0</ele><time>2026-04-06T13:39:57.178Z</time></trkpt><trkpt lat="43.658444" lon="12.6400943"><ele>297.0</ele><time>2026-04-06T13:39:58.171Z</time></trkpt><trkpt lat="43.6583684" lon="12.6402344"><ele>297.0</ele><time>2026-04-06T13:39:59.178Z</time></trkpt><trkpt lat="43.6582726" lon="12.6403658"><ele>297.0</ele><time>2026-04-06T13:40:00.174Z</time></trkpt><trkpt lat="43.6581861" lon="12.6404865"><ele>297.0</ele><time>2026-04-06T13:40:01.184Z</time></trkpt><trkpt lat="43.6580917" lon="12.6405688"><ele>296.6</ele><time>2026-04-06T13:40:02.179Z</time></trkpt><trkpt lat="43.6579957" lon="12.6406582"><ele>296.2</ele><time>2026-04-06T13:40:03.17Z</time></trkpt><trkpt lat="43.657911" lon="12.6407605"><ele>295.8</ele><time>2026-04-06T13:40:04.179Z</time></trkpt><trkpt lat="43.6578394" lon="12.6408353"><ele>295.4</ele><time>2026-04-06T13:40:05.183Z</time></trkpt><trkpt lat="43.6577511" lon="12.6409313"><ele>295.0</ele><time>2026-04-06T13:40:06.178Z</time></trkpt><trkpt lat="43.6576676" lon="12.6410122"><ele>297.8</ele><time>2026-04-06T13:40:07.174Z</time></trkpt><trkpt lat="43.6575929" lon="12.641103"><ele>300.6</ele><time>2026-04-06T13:40:08.175Z</time></trkpt><trkpt lat="43.6575207" lon="12.6411889"><ele>303.4</ele><time>2026-04-06T13:40:09.174Z</time></trkpt><trkpt lat="43.6574429" lon="12.6412688"><ele>306.2</ele><time>2026-04-06T13:40:10.172Z</time></trkpt><trkpt lat="43.6573582" lon="12.6413188"><ele>309.0</ele><time>2026-04-06T13:40:11.172Z</time></trkpt><trkpt lat="43.657283" lon="12.6413063"><ele>309.0</ele><time>2026-04-06T13:40:12.175Z</time></trkpt><trkpt lat="43.6571978" lon="12.6412364"><ele>309.0</ele><time>2026-04-06T13:40:13.173Z</time></trkpt><trkpt lat="43.6571116" lon="12.6411703"><ele>309.0</ele><time>2026-04-06T13:40:14.175Z</time></trkpt><trkpt lat="43.657024" lon="12.6411209"><ele>309.0</ele><time>2026-04-06T13:40:15.171Z</time></trkpt><trkpt lat="43.656935" lon="12.6411171"><ele>309.0</ele><time>2026-04-06T13:40:16.177Z</time></trkpt><trkpt lat="43.6568507" lon="12.6411292"><ele>313.25</ele><time>2026-04-06T13:40:17.174Z</time></trkpt><trkpt lat="43.6567695" lon="12.6411888"><ele>317.5</ele><time>2026-04-06T13:40:18.184Z</time></trkpt><trkpt lat="43.6566997" lon="12.6412931"><ele>321.75</ele><time>2026-04-06T13:40:19.174Z</time></trkpt><trkpt lat="43.6566055" lon="12.6413911"><ele>326.0</ele><time>2026-04-06T13:40:20.166Z</time></trkpt><trkpt lat="43.6564837" lon="12.6414862"><ele>326.0</ele><time>2026-04-06T13:40:21.174Z</time></trkpt><trkpt lat="43.6563165" lon="12.6416026"><ele>326.0</ele><time>2026-04-06T13:40:22.168Z</time></trkpt><trkpt lat="43.6561353" lon="12.6416606"><ele>326.0</ele><time>2026-04-06T13:40:23.171Z</time></trkpt><trkpt lat="43.6559291" lon="12.6417032"><ele>326.6666666666667</ele><time>2026-04-06T13:40:24.174Z</time></trkpt><trkpt lat="43.6557434" lon="12.6417601"><ele>327.3333333333333</ele><time>2026-04-06T13:40:25.178Z</time></trkpt><trkpt lat="43.6555786" lon="12.6417918"><ele>328.0</ele><time>2026-04-06T13:40:26.184Z</time></trkpt><trkpt lat="43.6554282" lon="12.6418254"><ele>328.0</ele><time>2026-04-06T13:40:27.181Z</time></trkpt><trkpt lat="43.6553044" lon="12.6418797"><ele>328.0</ele><time>2026-04-06T13:40:28.181Z</time></trkpt><trkpt lat="43.655198" lon="12.6419122"><ele>328.0</ele><time>2026-04-06T13:40:29.173Z</time></trkpt><trkpt lat="43.655097" lon="12.6419452"><ele>328.0</ele><time>2026-04-06T13:40:30.176Z</time></trkpt><trkpt lat="43.6550323" lon="12.6420214"><ele>328.0</ele><time>2026-04-06T13:40:31.174Z</time></trkpt><trkpt lat="43.654966" lon="12.6421716"><ele>331.3333333333333</ele><time>2026-04-06T13:40:32.173Z</time></trkpt><trkpt lat="43.6548991" lon="12.6423543"><ele>334.6666666666667</ele><time>2026-04-06T13:40:33.173Z</time></trkpt><trkpt lat="43.6548279" lon="12.6425679"><ele>338.0</ele><time>2026-04-06T13:40:34.171Z</time></trkpt><trkpt lat="43.6547572" lon="12.6427904"><ele>338.2</ele><time>2026-04-06T13:40:35.163Z</time></trkpt><trkpt lat="43.6547091" lon="12.6429354"><ele>338.4</ele><time>2026-04-06T13:40:36.164Z</time></trkpt><trkpt lat="43.6546624" lon="12.6430465"><ele>338.59999999999997</ele><time>2026-04-06T13:40:37.167Z</time></trkpt><trkpt lat="43.6545817" lon="12.6431616"><ele>338.79999999999995</ele><time>2026-04-06T13:40:39.177Z</time></trkpt><trkpt lat="43.6545085" lon="12.6431691"><ele>339.0</ele><time>2026-04-06T13:40:40.171Z</time></trkpt><trkpt lat="43.6543925" lon="12.643091"><ele>343.0</ele><time>2026-04-06T13:40:42.163Z</time></trkpt><trkpt lat="43.6543321" lon="12.643027"><ele>347.0</ele><time>2026-04-06T13:40:43.168Z</time></trkpt><trkpt lat="43.654251" lon="12.6429624"><ele>351.0</ele><time>2026-04-06T13:40:44.151Z</time></trkpt><trkpt lat="43.6541501" lon="12.6428981"><ele>355.0</ele><time>2026-04-06T13:40:45.178Z</time></trkpt><trkpt lat="43.6540029" lon="12.6428513"><ele>359.0</ele><time>2026-04-06T13:40:46.17Z</time></trkpt><trkpt lat="43.653839" lon="12.6427983"><ele>356.6666666666667</ele><time>2026-04-06T13:40:47.172Z</time></trkpt><trkpt lat="43.6536483" lon="12.6427221"><ele>354.3333333333333</ele><time>2026-04-06T13:40:48.171Z</time></trkpt><trkpt lat="43.6534578" lon="12.6426311"><ele>352.0</ele><time>2026-04-06T13:40:49.172Z</time></trkpt><trkpt lat="43.653314" lon="12.6425646"><ele>354.8333333333333</ele><time>2026-04-06T13:40:50.164Z</time></trkpt><trkpt lat="43.6532041" lon="12.6425231"><ele>357.66666666666663</ele><time>2026-04-06T13:40:51.166Z</time></trkpt><trkpt lat="43.65311" lon="12.6424717"><ele>360.5</ele><time>2026-04-06T13:40:52.165Z</time></trkpt><trkpt lat="43.6530345" lon="12.6424338"><ele>363.3333333333333</ele><time>2026-04-06T13:40:53.167Z</time></trkpt><trkpt lat="43.6529772" lon="12.642382"><ele>366.1666666666667</ele><time>2026-04-06T13:40:54.167Z</time></trkpt><trkpt lat="43.6529417" lon="12.6422997"><ele>369.0</ele><time>2026-04-06T13:40:55.168Z</time></trkpt><trkpt lat="43.6529275" lon="12.6422054"><ele>369.0</ele><time>2026-04-06T13:40:56.173Z</time></trkpt><trkpt lat="43.6529252" lon="12.6421076"><ele>369.0</ele><time>2026-04-06T13:40:57.169Z</time></trkpt><trkpt lat="43.6528883" lon="12.6420084"><ele>369.0</ele><time>2026-04-06T13:40:59.167Z</time></trkpt><trkpt lat="43.6528329" lon="12.6419486"><ele>369.0</ele><time>2026-04-06T13:41:49.186Z</time></trkpt><trkpt lat="43.6527729" lon="12.6421015"><ele>369.0</ele><time>2026-04-06T13:41:52.157Z</time></trkpt><trkpt lat="43.6527461" lon="12.6422534"><ele>375.0</ele><time>2026-04-06T13:41:53.166Z</time></trkpt><trkpt lat="43.6527046" lon="12.642457"><ele>381.0</ele><time>2026-04-06T13:41:54.157Z</time></trkpt><trkpt lat="43.6526694" lon="12.6426753"><ele>387.0</ele><time>2026-04-06T13:41:55.166Z</time></trkpt><trkpt lat="43.652612" lon="12.6429316"><ele>387.0</ele><time>2026-04-06T13:41:56.164Z</time></trkpt><trkpt lat="43.6525294" lon="12.6431556"><ele>387.0</ele><time>2026-04-06T13:41:57.164Z</time></trkpt><trkpt lat="43.652468" lon="12.6433118"><ele>387.0</ele><time>2026-04-06T13:41:58.154Z</time></trkpt><trkpt lat="43.6524245" lon="12.6434218"><ele>387.0</ele><time>2026-04-06T13:41:59.165Z</time></trkpt><trkpt lat="43.6524041" lon="12.6435222"><ele>386.8</ele><time>2026-04-06T13:42:00.165Z</time></trkpt><trkpt lat="43.6524107" lon="12.6436352"><ele>386.6</ele><time>2026-04-06T13:42:01.173Z</time></trkpt><trkpt lat="43.6524506" lon="12.6437931"><ele>386.40000000000003</ele><time>2026-04-06T13:42:02.159Z</time></trkpt><trkpt lat="43.6524865" lon="12.6439281"><ele>386.20000000000005</ele><time>2026-04-06T13:42:03.153Z</time></trkpt><trkpt lat="43.6525065" lon="12.6440393"><ele>386.0</ele><time>2026-04-06T13:42:04.167Z</time></trkpt><trkpt lat="43.6524811" lon="12.6441246"><ele>386.0</ele><time>2026-04-06T13:42:05.178Z</time></trkpt><trkpt lat="43.6524295" lon="12.6442209"><ele>386.0</ele><time>2026-04-06T13:42:06.165Z</time></trkpt><trkpt lat="43.6523532" lon="12.6443326"><ele>386.0</ele><time>2026-04-06T13:42:07.166Z</time></trkpt><trkpt lat="43.6522469" lon="12.6444371"><ele>386.0</ele><time>2026-04-06T13:42:08.166Z</time></trkpt><trkpt lat="43.6521055" lon="12.6445383"><ele>389.66666666666663</ele><time>2026-04-06T13:42:09.156Z</time></trkpt><trkpt lat="43.6519339" lon="12.6446602"><ele>393.33333333333337</ele><time>2026-04-06T13:42:10.167Z</time></trkpt><trkpt lat="43.6517943" lon="12.6448279"><ele>397.0</ele><time>2026-04-06T13:42:11.157Z</time></trkpt><trkpt lat="43.6516795" lon="12.6449837"><ele>397.0</ele><time>2026-04-06T13:42:12.162Z</time></trkpt><trkpt lat="43.6515801" lon="12.6450996"><ele>397.0</ele><time>2026-04-06T13:42:13.166Z</time></trkpt><trkpt lat="43.6514886" lon="12.6451683"><ele>397.0</ele><time>2026-04-06T13:42:14.168Z</time></trkpt><trkpt lat="43.6513834" lon="12.6452313"><ele>397.0</ele><time>2026-04-06T13:42:15.172Z</time></trkpt><trkpt lat="43.6512878" lon="12.6453193"><ele>396.75</ele><time>2026-04-06T13:42:16.167Z</time></trkpt><trkpt lat="43.6512059" lon="12.6454276"><ele>396.5</ele><time>2026-04-06T13:42:17.163Z</time></trkpt><trkpt lat="43.6511699" lon="12.6455289"><ele>396.25</ele><time>2026-04-06T13:42:18.166Z</time></trkpt><trkpt lat="43.6511342" lon="12.6457345"><ele>396.0</ele><time>2026-04-06T13:42:19.166Z</time></trkpt><trkpt lat="43.6510826" lon="12.645911"><ele>396.8333333333333</ele><time>2026-04-06T13:42:20.167Z</time></trkpt><trkpt lat="43.6510285" lon="12.6460334"><ele>397.66666666666663</ele><time>2026-04-06T13:42:21.171Z</time></trkpt><trkpt lat="43.6509775" lon="12.6461623"><ele>398.5</ele><time>2026-04-06T13:42:23.166Z</time></trkpt><trkpt lat="43.65088" lon="12.6461525"><ele>399.3333333333333</ele><time>2026-04-06T13:42:25.178Z</time></trkpt><trkpt lat="43.6508307" lon="12.6460928"><ele>400.16666666666663</ele><time>2026-04-06T13:42:26.177Z</time></trkpt><trkpt lat="43.6508052" lon="12.6460092"><ele>401.0</ele><time>2026-04-06T13:42:27.171Z</time></trkpt><trkpt lat="43.6507673" lon="12.6459315"><ele>401.49999999999994</ele><time>2026-04-06T13:42:28.166Z</time></trkpt><trkpt lat="43.6507233" lon="12.6458434"><ele>402.0</ele><time>2026-04-06T13:42:29.182Z</time></trkpt><trkpt lat="43.6506768" lon="12.645752"><ele>402.5</ele><time>2026-04-06T13:42:30.176Z</time></trkpt><trkpt lat="43.6506195" lon="12.6456715"><ele>403.0</ele><time>2026-04-06T13:42:31.179Z</time></trkpt><trkpt lat="43.6505675" lon="12.6455913"><ele>403.49999999999994</ele><time>2026-04-06T13:42:32.187Z</time></trkpt><trkpt lat="43.6505175" lon="12.6455215"><ele>404.0</ele><time>2026-04-06T13:42:33.179Z</time></trkpt><trkpt lat="43.6504649" lon="12.6454563"><ele>404.0</ele><time>2026-04-06T13:42:34.18Z</time></trkpt><trkpt lat="43.650416" lon="12.6453882"><ele>404.0</ele><time>2026-04-06T13:42:35.182Z</time></trkpt><trkpt lat="43.6503701" lon="12.6453277"><ele>404.0</ele><time>2026-04-06T13:42:36.185Z</time></trkpt><trkpt lat="43.6503203" lon="12.6452664"><ele>404.0</ele><time>2026-04-06T13:42:37.183Z</time></trkpt><trkpt lat="43.6502702" lon="12.6452065"><ele>404.0</ele><time>2026-04-06T13:42:38.178Z</time></trkpt><trkpt lat="43.6502162" lon="12.645142"><ele>404.0</ele><time>2026-04-06T13:42:39.188Z</time></trkpt><trkpt lat="43.6501592" lon="12.6450765"><ele>404.0</ele><time>2026-04-06T13:42:40.187Z</time></trkpt><trkpt lat="43.6501046" lon="12.6450164"><ele>405.3333333333333</ele><time>2026-04-06T13:42:41.191Z</time></trkpt><trkpt lat="43.6500534" lon="12.644957"><ele>406.66666666666663</ele><time>2026-04-06T13:42:42.189Z</time></trkpt><trkpt lat="43.6499627" lon="12.6448676"><ele>408.0</ele><time>2026-04-06T13:42:44.188Z</time></trkpt><trkpt lat="43.6498899" lon="12.6448068"><ele>409.33333333333337</ele><time>2026-04-06T13:42:46.216Z</time></trkpt><trkpt lat="43.6498254" lon="12.6447475"><ele>410.6666666666667</ele><time>2026-04-06T13:42:48.206Z</time></trkpt><trkpt lat="43.6497738" lon="12.6446872"><ele>412.0</ele><time>2026-04-06T13:42:55.211Z</time></trkpt><trkpt lat="43.6497066" lon="12.6446251"><ele>411.99999999999994</ele><time>2026-04-06T13:42:58.207Z</time></trkpt><trkpt lat="43.6497297" lon="12.6445302"><ele>412.0</ele><time>2026-04-06T13:43:00.205Z</time></trkpt><trkpt lat="43.6497843" lon="12.6444645"><ele>412.0</ele><time>2026-04-06T13:43:01.205Z</time></trkpt><trkpt lat="43.6498478" lon="12.6443973"><ele>412.0</ele><time>2026-04-06T13:43:02.182Z</time></trkpt><trkpt lat="43.6499065" lon="12.644332"><ele>412.0</ele><time>2026-04-06T13:43:03.182Z</time></trkpt><trkpt lat="43.6499604" lon="12.6442693"><ele>411.99999999999994</ele><time>2026-04-06T13:43:08.2Z</time></trkpt><trkpt lat="43.6499925" lon="12.6441937"><ele>412.0</ele><time>2026-04-06T13:43:25.213Z</time></trkpt><trkpt lat="43.6500257" lon="12.6441155"><ele>412.57142857142856</ele><time>2026-04-06T13:43:36.209Z</time></trkpt><trkpt lat="43.650063" lon="12.6440277"><ele>413.1428571428571</ele><time>2026-04-06T13:43:42.202Z</time></trkpt><trkpt lat="43.6500965" lon="12.6439489"><ele>413.71428571428567</ele><time>2026-04-06T13:43:45.21Z</time></trkpt><trkpt lat="43.650057" lon="12.6440289"><ele>414.2857142857143</ele><time>2026-04-06T13:43:48.204Z</time></trkpt><trkpt lat="43.6500172" lon="12.6441084"><ele>414.8571428571429</ele><time>2026-04-06T13:43:55.22Z</time></trkpt><trkpt lat="43.6499711" lon="12.644205"><ele>415.4285714285714</ele><time>2026-04-06T13:43:59.202Z</time></trkpt><trkpt lat="43.6498971" lon="12.6442548"><ele>416.0</ele><time>2026-04-06T13:44:01.21Z</time></trkpt><trkpt lat="43.6497994" lon="12.6442204"><ele>416.0</ele><time>2026-04-06T13:44:03.186Z</time></trkpt><trkpt lat="43.6497302" lon="12.6441421"><ele>416.0</ele><time>2026-04-06T13:44:05.181Z</time></trkpt><trkpt lat="43.6497208" lon="12.6440545"><ele>416.0</ele><time>2026-04-06T13:44:07.184Z</time></trkpt><trkpt lat="43.6497625" lon="12.6438776"><ele>416.0</ele><time>2026-04-06T13:44:09.184Z</time></trkpt><trkpt lat="43.64979" lon="12.6437593"><ele>416.0</ele><time>2026-04-06T13:44:10.183Z</time></trkpt><trkpt lat="43.6498074" lon="12.6436173"><ele>414.20000000000005</ele><time>2026-04-06T13:44:11.185Z</time></trkpt><trkpt lat="43.6498157" lon="12.6434767"><ele>412.40000000000003</ele><time>2026-04-06T13:44:12.176Z</time></trkpt><trkpt lat="43.649837" lon="12.6433625"><ele>410.6</ele><time>2026-04-06T13:44:13.171Z</time></trkpt><trkpt lat="43.6499038" lon="12.6432337"><ele>408.8</ele><time>2026-04-06T13:44:15.18Z</time></trkpt><trkpt lat="43.6499576" lon="12.6431715"><ele>407.0</ele><time>2026-04-06T13:44:22.214Z</time></trkpt><trkpt lat="43.6500155" lon="12.6430975"><ele>406.99999999999994</ele><time>2026-04-06T13:44:34.194Z</time></trkpt><trkpt lat="43.6500832" lon="12.6430187"><ele>407.0</ele><time>2026-04-06T13:44:38.191Z</time></trkpt><trkpt lat="43.6501568" lon="12.6429313"><ele>407.0</ele><time>2026-04-06T13:44:40.192Z</time></trkpt><trkpt lat="43.6502311" lon="12.6428785"><ele>407.0</ele><time>2026-04-06T13:44:43.195Z</time></trkpt><trkpt lat="43.6502917" lon="12.6428213"><ele>406.99999999999994</ele><time>2026-04-06T13:45:10.2Z</time></trkpt><trkpt lat="43.6503509" lon="12.6427626"><ele>407.0</ele><time>2026-04-06T13:45:24.209Z</time></trkpt><trkpt lat="43.6502407" lon="12.6428947"><ele>407.0</ele><time>2026-04-06T13:45:28.174Z</time></trkpt><trkpt lat="43.6501475" lon="12.6429636"><ele>407.0</ele><time>2026-04-06T13:45:29.179Z</time></trkpt><trkpt lat="43.6500592" lon="12.643034"><ele>407.0</ele><time>2026-04-06T13:45:30.179Z</time></trkpt><trkpt lat="43.6499902" lon="12.6431371"><ele>407.0</ele><time>2026-04-06T13:45:31.169Z</time></trkpt><trkpt lat="43.6499363" lon="12.6433058"><ele>407.0</ele><time>2026-04-06T13:45:32.179Z</time></trkpt><trkpt lat="43.6498985" lon="12.6435008"><ele>409.25</ele><time>2026-04-06T13:45:33.171Z</time></trkpt><trkpt lat="43.6498503" lon="12.6436855"><ele>411.5</ele><time>2026-04-06T13:45:34.179Z</time></trkpt><trkpt lat="43.6497808" lon="12.6438414"><ele>413.75</ele><time>2026-04-06T13:45:35.181Z</time></trkpt><trkpt lat="43.6497124" lon="12.6439806"><ele>416.0</ele><time>2026-04-06T13:45:36.18Z</time></trkpt><trkpt lat="43.6496661" lon="12.6441062"><ele>416.0</ele><time>2026-04-06T13:45:37.176Z</time></trkpt><trkpt lat="43.6496462" lon="12.6442329"><ele>416.0</ele><time>2026-04-06T13:45:38.183Z</time></trkpt><trkpt lat="43.6496615" lon="12.6443907"><ele>416.0</ele><time>2026-04-06T13:45:39.18Z</time></trkpt><trkpt lat="43.6497013" lon="12.6445111"><ele>416.0</ele><time>2026-04-06T13:45:40.182Z</time></trkpt><trkpt lat="43.6497622" lon="12.6445931"><ele>416.0</ele><time>2026-04-06T13:45:41.181Z</time></trkpt><trkpt lat="43.6498211" lon="12.6446676"><ele>415.3333333333333</ele><time>2026-04-06T13:45:42.177Z</time></trkpt><trkpt lat="43.6498764" lon="12.6447317"><ele>414.66666666666663</ele><time>2026-04-06T13:45:43.18Z</time></trkpt><trkpt lat="43.649931" lon="12.6447923"><ele>414.0</ele><time>2026-04-06T13:45:44.184Z</time></trkpt><trkpt lat="43.6499859" lon="12.6448544"><ele>413.33333333333337</ele><time>2026-04-06T13:45:45.177Z</time></trkpt><trkpt lat="43.6500434" lon="12.6449172"><ele>412.6666666666667</ele><time>2026-04-06T13:45:46.176Z</time></trkpt><trkpt lat="43.6501228" lon="12.6450003"><ele>412.0</ele><time>2026-04-06T13:45:47.177Z</time></trkpt><trkpt lat="43.6502135" lon="12.6450908"><ele>411.40000000000003</ele><time>2026-04-06T13:45:48.181Z</time></trkpt><trkpt lat="43.6503012" lon="12.6452027"><ele>410.8</ele><time>2026-04-06T13:45:49.172Z</time></trkpt><trkpt lat="43.6503753" lon="12.6453026"><ele>410.2</ele><time>2026-04-06T13:45:50.177Z</time></trkpt><trkpt lat="43.6504468" lon="12.6454052"><ele>409.6</ele><time>2026-04-06T13:45:51.174Z</time></trkpt><trkpt lat="43.6505175" lon="12.6455072"><ele>409.0</ele><time>2026-04-06T13:45:52.18Z</time></trkpt><trkpt lat="43.6505874" lon="12.6455992"><ele>408.1666666666667</ele><time>2026-04-06T13:45:53.172Z</time></trkpt><trkpt lat="43.6506515" lon="12.6456971"><ele>407.33333333333337</ele><time>2026-04-06T13:45:54.179Z</time></trkpt><trkpt lat="43.650718" lon="12.6457913"><ele>406.5</ele><time>2026-04-06T13:45:55.18Z</time></trkpt><trkpt lat="43.6507822" lon="12.6458799"><ele>405.66666666666663</ele><time>2026-04-06T13:45:56.179Z</time></trkpt><trkpt lat="43.6508359" lon="12.6459677"><ele>404.8333333333333</ele><time>2026-04-06T13:45:57.181Z</time></trkpt><trkpt lat="43.6508793" lon="12.646042"><ele>404.0</ele><time>2026-04-06T13:45:58.182Z</time></trkpt><trkpt lat="43.6509316" lon="12.646121"><ele>403.79999999999995</ele><time>2026-04-06T13:46:00.177Z</time></trkpt><trkpt lat="43.650974" lon="12.6461885"><ele>403.59999999999997</ele><time>2026-04-06T13:46:04.196Z</time></trkpt><trkpt lat="43.6510293" lon="12.6462884"><ele>403.4</ele><time>2026-04-06T13:46:19.201Z</time></trkpt><trkpt lat="43.6510979" lon="12.6462521"><ele>403.2</ele><time>2026-04-06T13:46:23.208Z</time></trkpt><trkpt lat="43.6511423" lon="12.6461332"><ele>403.0</ele><time>2026-04-06T13:46:24.161Z</time></trkpt><trkpt lat="43.6512056" lon="12.6459763"><ele>401.59999999999997</ele><time>2026-04-06T13:46:25.176Z</time></trkpt><trkpt lat="43.6512499" lon="12.6458426"><ele>400.2</ele><time>2026-04-06T13:46:26.176Z</time></trkpt><trkpt lat="43.6512974" lon="12.6457106"><ele>398.8</ele><time>2026-04-06T13:46:27.18Z</time></trkpt><trkpt lat="43.6513703" lon="12.6455918"><ele>397.4</ele><time>2026-04-06T13:46:28.177Z</time></trkpt><trkpt lat="43.6514669" lon="12.6454901"><ele>396.0</ele><time>2026-04-06T13:46:29.175Z</time></trkpt><trkpt lat="43.6515593" lon="12.6453983"><ele>396.0</ele><time>2026-04-06T13:46:30.17Z</time></trkpt><trkpt lat="43.6516399" lon="12.6453092"><ele>396.0</ele><time>2026-04-06T13:46:31.176Z</time></trkpt><trkpt lat="43.6517213" lon="12.6452085"><ele>396.0</ele><time>2026-04-06T13:46:32.186Z</time></trkpt><trkpt lat="43.6518267" lon="12.6450505"><ele>396.0</ele><time>2026-04-06T13:46:33.183Z</time></trkpt><trkpt lat="43.6519418" lon="12.6448581"><ele>392.66666666666663</ele><time>2026-04-06T13:46:34.178Z</time></trkpt><trkpt lat="43.652052" lon="12.6446188"><ele>389.3333333333333</ele><time>2026-04-06T13:46:35.176Z</time></trkpt><trkpt lat="43.6521376" lon="12.6444875"><ele>386.0</ele><time>2026-04-06T13:46:36.174Z</time></trkpt><trkpt lat="43.6522385" lon="12.6443971"><ele>386.0</ele><time>2026-04-06T13:46:37.176Z</time></trkpt><trkpt lat="43.652325" lon="12.6443404"><ele>386.0</ele><time>2026-04-06T13:46:38.183Z</time></trkpt><trkpt lat="43.6524107" lon="12.6442607"><ele>386.0</ele><time>2026-04-06T13:46:39.18Z</time></trkpt><trkpt lat="43.6524632" lon="12.6441884"><ele>386.0</ele><time>2026-04-06T13:46:40.185Z</time></trkpt><trkpt lat="43.6525307" lon="12.6440618"><ele>386.0</ele><time>2026-04-06T13:46:42.176Z</time></trkpt><trkpt lat="43.6525424" lon="12.6439481"><ele>386.0</ele><time>2026-04-06T13:46:43.177Z</time></trkpt><trkpt lat="43.6525363" lon="12.6438367"><ele>386.0</ele><time>2026-04-06T13:46:44.171Z</time></trkpt><trkpt lat="43.6524837" lon="12.6437086"><ele>386.0</ele><time>2026-04-06T13:46:46.18Z</time></trkpt><trkpt lat="43.6524288" lon="12.6435939"><ele>386.0</ele><time>2026-04-06T13:46:48.183Z</time></trkpt><trkpt lat="43.6524245" lon="12.6434814"><ele>386.0</ele><time>2026-04-06T13:46:49.174Z</time></trkpt><trkpt lat="43.6524546" lon="12.6433558"><ele>386.25</ele><time>2026-04-06T13:46:50.165Z</time></trkpt><trkpt lat="43.652509" lon="12.6432178"><ele>386.5</ele><time>2026-04-06T13:46:51.175Z</time></trkpt><trkpt lat="43.6525847" lon="12.6430544"><ele>386.75</ele><time>2026-04-06T13:46:52.17Z</time></trkpt><trkpt lat="43.6526238" lon="12.6429172"><ele>387.0</ele><time>2026-04-06T13:46:53.176Z</time></trkpt><trkpt lat="43.6526565" lon="12.6427708"><ele>387.25</ele><time>2026-04-06T13:46:54.174Z</time></trkpt><trkpt lat="43.6526802" lon="12.6425906"><ele>387.5</ele><time>2026-04-06T13:46:55.173Z</time></trkpt><trkpt lat="43.6527027" lon="12.6424254"><ele>387.75</ele><time>2026-04-06T13:46:56.173Z</time></trkpt><trkpt lat="43.6527295" lon="12.6422763"><ele>388.0</ele><time>2026-04-06T13:46:57.173Z</time></trkpt><trkpt lat="43.6527644" lon="12.6421467"><ele>383.5</ele><time>2026-04-06T13:46:58.171Z</time></trkpt><trkpt lat="43.6528077" lon="12.6420071"><ele>379.0</ele><time>2026-04-06T13:46:59.174Z</time></trkpt><trkpt lat="43.6528578" lon="12.641855"><ele>374.5</ele><time>2026-04-06T13:47:00.168Z</time></trkpt><trkpt lat="43.6529139" lon="12.6416985"><ele>370.0</ele><time>2026-04-06T13:47:01.169Z</time></trkpt><trkpt lat="43.6529874" lon="12.6415263"><ele>370.0</ele><time>2026-04-06T13:47:02.161Z</time></trkpt><trkpt lat="43.6531145" lon="12.6413964"><ele>370.0</ele><time>2026-04-06T13:47:03.164Z</time></trkpt><trkpt lat="43.6531798" lon="12.6412976"><ele>370.0</ele><time>2026-04-06T13:47:04.168Z</time></trkpt><trkpt lat="43.6532495" lon="12.6411951"><ele>370.0</ele><time>2026-04-06T13:47:06.171Z</time></trkpt><trkpt lat="43.6532544" lon="12.6410537"><ele>371.6</ele><time>2026-04-06T13:47:09.195Z</time></trkpt><trkpt lat="43.6532515" lon="12.6409613"><ele>373.2</ele><time>2026-04-06T13:47:10.168Z</time></trkpt><trkpt lat="43.6532466" lon="12.6408431"><ele>374.79999999999995</ele><time>2026-04-06T13:47:11.181Z</time></trkpt><trkpt lat="43.6532398" lon="12.6406874"><ele>376.4</ele><time>2026-04-06T13:47:12.177Z</time></trkpt><trkpt lat="43.6532255" lon="12.6405065"><ele>378.0</ele><time>2026-04-06T13:47:13.164Z</time></trkpt><trkpt lat="43.653222" lon="12.6403081"><ele>381.66666666666663</ele><time>2026-04-06T13:47:14.172Z</time></trkpt><trkpt lat="43.6532538" lon="12.6400804"><ele>385.3333333333333</ele><time>2026-04-06T13:47:15.176Z</time></trkpt><trkpt lat="43.6533231" lon="12.639794"><ele>389.0</ele><time>2026-04-06T13:47:16.169Z</time></trkpt><trkpt lat="43.6533758" lon="12.6395519"><ele>392.66666666666663</ele><time>2026-04-06T13:47:17.157Z</time></trkpt><trkpt lat="43.6534337" lon="12.6393127"><ele>396.33333333333337</ele><time>2026-04-06T13:47:18.159Z</time></trkpt><trkpt lat="43.6535182" lon="12.6391231"><ele>400.0</ele><time>2026-04-06T13:47:19.162Z</time></trkpt><trkpt lat="43.6536072" lon="12.6389537"><ele>397.0</ele><time>2026-04-06T13:47:20.174Z</time></trkpt><trkpt lat="43.653686" lon="12.6387874"><ele>394.0</ele><time>2026-04-06T13:47:21.172Z</time></trkpt><trkpt lat="43.6537612" lon="12.6386485"><ele>391.0</ele><time>2026-04-06T13:47:22.173Z</time></trkpt><trkpt lat="43.6538039" lon="12.6385591"><ele>388.0</ele><time>2026-04-06T13:47:23.179Z</time></trkpt><trkpt lat="43.6538278" lon="12.6384154"><ele>388.0</ele><time>2026-04-06T13:47:25.184Z</time></trkpt><trkpt lat="43.6537818" lon="12.6382728"><ele>388.0</ele><time>2026-04-06T13:47:27.189Z</time></trkpt><trkpt lat="43.6537109" lon="12.6382019"><ele>388.0</ele><time>2026-04-06T13:47:29.19Z</time></trkpt><trkpt lat="43.6535723" lon="12.6382201"><ele>388.0</ele><time>2026-04-06T13:47:31.177Z</time></trkpt><trkpt lat="43.6534837" lon="12.6382516"><ele>388.0</ele><time>2026-04-06T13:47:32.174Z</time></trkpt><trkpt lat="43.6533761" lon="12.6382867"><ele>390.5</ele><time>2026-04-06T13:47:33.179Z</time></trkpt><trkpt lat="43.6532498" lon="12.6383152"><ele>393.0</ele><time>2026-04-06T13:47:34.183Z</time></trkpt><trkpt lat="43.6530977" lon="12.638351"><ele>395.5</ele><time>2026-04-06T13:47:35.185Z</time></trkpt><trkpt lat="43.652953" lon="12.6384269"><ele>398.0</ele><time>2026-04-06T13:47:36.177Z</time></trkpt><trkpt lat="43.6528184" lon="12.6384777"><ele>396.0</ele><time>2026-04-06T13:47:37.184Z</time></trkpt><trkpt lat="43.6526986" lon="12.6384962"><ele>394.0</ele><time>2026-04-06T13:47:38.179Z</time></trkpt><trkpt lat="43.6525709" lon="12.6385205"><ele>392.0</ele><time>2026-04-06T13:47:39.181Z</time></trkpt><trkpt lat="43.652453" lon="12.6385347"><ele>390.0</ele><time>2026-04-06T13:47:40.178Z</time></trkpt><trkpt lat="43.6523354" lon="12.6385789"><ele>389.25</ele><time>2026-04-06T13:47:41.18Z</time></trkpt><trkpt lat="43.6522093" lon="12.6386485"><ele>388.5</ele><time>2026-04-06T13:47:42.167Z</time></trkpt><trkpt lat="43.6520898" lon="12.638732"><ele>387.75</ele><time>2026-04-06T13:47:43.179Z</time></trkpt><trkpt lat="43.6519812" lon="12.6388225"><ele>387.0</ele><time>2026-04-06T13:47:44.168Z</time></trkpt><trkpt lat="43.6518744" lon="12.6389334"><ele>387.0</ele><time>2026-04-06T13:47:45.186Z</time></trkpt><trkpt lat="43.6517634" lon="12.6390903"><ele>387.0</ele><time>2026-04-06T13:47:46.179Z</time></trkpt><trkpt lat="43.6516382" lon="12.6392703"><ele>387.0</ele><time>2026-04-06T13:47:47.174Z</time></trkpt><trkpt lat="43.6515157" lon="12.6394342"><ele>392.66666666666663</ele><time>2026-04-06T13:47:48.17Z</time></trkpt><trkpt lat="43.6514176" lon="12.6396041"><ele>398.3333333333333</ele><time>2026-04-06T13:47:49.173Z</time></trkpt><trkpt lat="43.6513201" lon="12.6397694"><ele>404.0</ele><time>2026-04-06T13:47:50.173Z</time></trkpt><trkpt lat="43.6511948" lon="12.6399229"><ele>402.25</ele><time>2026-04-06T13:47:51.174Z</time></trkpt><trkpt lat="43.6510636" lon="12.6400476"><ele>400.5</ele><time>2026-04-06T13:47:52.175Z</time></trkpt><trkpt lat="43.6509442" lon="12.6401327"><ele>398.75</ele><time>2026-04-06T13:47:53.168Z</time></trkpt><trkpt lat="43.6508548" lon="12.6402118"><ele>397.0</ele><time>2026-04-06T13:47:54.172Z</time></trkpt><trkpt lat="43.6507886" lon="12.6403184"><ele>397.0</ele><time>2026-04-06T13:47:55.174Z</time></trkpt><trkpt lat="43.6507178" lon="12.6404448"><ele>397.0</ele><time>2026-04-06T13:47:56.171Z</time></trkpt><trkpt lat="43.650632" lon="12.6405814"><ele>397.0</ele><time>2026-04-06T13:47:57.171Z</time></trkpt><trkpt lat="43.6505463" lon="12.6407149"><ele>397.0</ele><time>2026-04-06T13:47:58.169Z</time></trkpt><trkpt lat="43.650462" lon="12.6408362"><ele>397.0</ele><time>2026-04-06T13:47:59.173Z</time></trkpt><trkpt lat="43.6503766" lon="12.6409476"><ele>397.0</ele><time>2026-04-06T13:48:00.176Z</time></trkpt><trkpt lat="43.6502959" lon="12.6410468"><ele>397.0</ele><time>2026-04-06T13:48:01.175Z</time></trkpt><trkpt lat="43.6502173" lon="12.6411155"><ele>397.0</ele><time>2026-04-06T13:48:02.179Z</time></trkpt><trkpt lat="43.6501561" lon="12.6411616"><ele>397.0</ele><time>2026-04-06T13:48:03.17Z</time></trkpt><trkpt lat="43.6500802" lon="12.6412233"><ele>394.00000000000006</ele><time>2026-04-06T13:48:05.176Z</time></trkpt><trkpt lat="43.6500064" lon="12.6412521"><ele>391.0</ele><time>2026-04-06T13:48:07.167Z</time></trkpt><trkpt lat="43.6499283" lon="12.6411875"><ele>388.0</ele><time>2026-04-06T13:48:09.172Z</time></trkpt><trkpt lat="43.6498854" lon="12.6410819"><ele>385.0</ele><time>2026-04-06T13:48:13.202Z</time></trkpt><trkpt lat="43.6498319" lon="12.6409723"><ele>382.0</ele><time>2026-04-06T13:48:15.205Z</time></trkpt><trkpt lat="43.649746" lon="12.6409137"><ele>379.0</ele><time>2026-04-06T13:48:17.161Z</time></trkpt><trkpt lat="43.6496763" lon="12.6408694"><ele>377.8333333333333</ele><time>2026-04-06T13:48:31.209Z</time></trkpt><trkpt lat="43.6496135" lon="12.6409041"><ele>376.66666666666663</ele><time>2026-04-06T13:48:34.204Z</time></trkpt><trkpt lat="43.6495034" lon="12.6409904"><ele>375.5</ele><time>2026-04-06T13:48:36.174Z</time></trkpt><trkpt lat="43.6494389" lon="12.6410018"><ele>374.3333333333333</ele><time>2026-04-06T13:48:37.174Z</time></trkpt><trkpt lat="43.649372" lon="12.6410172"><ele>373.1666666666667</ele><time>2026-04-06T13:48:39.203Z</time></trkpt><trkpt lat="43.6492827" lon="12.6409729"><ele>372.0</ele><time>2026-04-06T13:48:42.199Z</time></trkpt><trkpt lat="43.6492249" lon="12.6409216"><ele>369.1666666666667</ele><time>2026-04-06T13:48:43.176Z</time></trkpt><trkpt lat="43.6491849" lon="12.6408519"><ele>366.3333333333333</ele><time>2026-04-06T13:48:44.166Z</time></trkpt><trkpt lat="43.6491868" lon="12.6407081"><ele>363.5</ele><time>2026-04-06T13:48:46.171Z</time></trkpt><trkpt lat="43.6492211" lon="12.6406035"><ele>360.66666666666663</ele><time>2026-04-06T13:48:47.179Z</time></trkpt><trkpt lat="43.6492561" lon="12.6404838"><ele>357.8333333333333</ele><time>2026-04-06T13:48:48.182Z</time></trkpt><trkpt lat="43.6492909" lon="12.6403622"><ele>355.0</ele><time>2026-04-06T13:48:49.17Z</time></trkpt><trkpt lat="43.6493339" lon="12.6402487"><ele>356.6</ele><time>2026-04-06T13:48:50.174Z</time></trkpt><trkpt lat="43.6493912" lon="12.6401507"><ele>358.2</ele><time>2026-04-06T13:48:51.167Z</time></trkpt><trkpt lat="43.6494598" lon="12.6400368"><ele>359.79999999999995</ele><time>2026-04-06T13:48:52.162Z</time></trkpt><trkpt lat="43.6495461" lon="12.6399109"><ele>361.4</ele><time>2026-04-06T13:48:53.168Z</time></trkpt><trkpt lat="43.6496228" lon="12.6397756"><ele>363.0</ele><time>2026-04-06T13:48:54.169Z</time></trkpt><trkpt lat="43.6496789" lon="12.6396496"><ele>363.0</ele><time>2026-04-06T13:48:55.168Z</time></trkpt><trkpt lat="43.6497255" lon="12.6395082"><ele>363.0</ele><time>2026-04-06T13:48:56.16Z</time></trkpt><trkpt lat="43.649758" lon="12.6393838"><ele>363.0</ele><time>2026-04-06T13:48:57.163Z</time></trkpt><trkpt lat="43.6497804" lon="12.6392179"><ele>363.0</ele><time>2026-04-06T13:48:59.18Z</time></trkpt><trkpt lat="43.6497839" lon="12.6390928"><ele>363.0</ele><time>2026-04-06T13:49:00.177Z</time></trkpt><trkpt lat="43.6497797" lon="12.638957"><ele>360.5</ele><time>2026-04-06T13:49:01.168Z</time></trkpt><trkpt lat="43.6497713" lon="12.6388373"><ele>358.0</ele><time>2026-04-06T13:49:02.175Z</time></trkpt><trkpt lat="43.6497651" lon="12.638726"><ele>355.5</ele><time>2026-04-06T13:49:03.177Z</time></trkpt><trkpt lat="43.6497675" lon="12.6386179"><ele>353.0</ele><time>2026-04-06T13:49:04.18Z</time></trkpt><trkpt lat="43.6497874" lon="12.638513"><ele>350.5</ele><time>2026-04-06T13:49:05.174Z</time></trkpt><trkpt lat="43.649824" lon="12.6384292"><ele>348.0</ele><time>2026-04-06T13:49:06.18Z</time></trkpt><trkpt lat="43.6498721" lon="12.6383586"><ele>346.6666666666667</ele><time>2026-04-06T13:49:07.179Z</time></trkpt><trkpt lat="43.6499337" lon="12.6383069"><ele>345.3333333333333</ele><time>2026-04-06T13:49:08.174Z</time></trkpt><trkpt lat="43.6500104" lon="12.6382738"><ele>344.0</ele><time>2026-04-06T13:49:09.179Z</time></trkpt><trkpt lat="43.6500977" lon="12.6382571"><ele>342.66666666666663</ele><time>2026-04-06T13:49:10.181Z</time></trkpt><trkpt lat="43.6501779" lon="12.638233"><ele>341.3333333333333</ele><time>2026-04-06T13:49:11.183Z</time></trkpt><trkpt lat="43.6502495" lon="12.6382089"><ele>340.0</ele><time>2026-04-06T13:49:12.182Z</time></trkpt><trkpt lat="43.6503163" lon="12.6381851"><ele>340.0</ele><time>2026-04-06T13:49:13.179Z</time></trkpt><trkpt lat="43.6504029" lon="12.638159"><ele>340.0</ele><time>2026-04-06T13:49:15.184Z</time></trkpt><trkpt lat="43.6504938" lon="12.6380848"><ele>340.0</ele><time>2026-04-06T13:49:17.182Z</time></trkpt><trkpt lat="43.650544" lon="12.6379929"><ele>340.0</ele><time>2026-04-06T13:49:18.188Z</time></trkpt><trkpt lat="43.6505968" lon="12.6378649"><ele>340.0</ele><time>2026-04-06T13:49:19.18Z</time></trkpt><trkpt lat="43.6506348" lon="12.6377444"><ele>337.5</ele><time>2026-04-06T13:49:20.177Z</time></trkpt><trkpt lat="43.6506782" lon="12.6375904"><ele>335.0</ele><time>2026-04-06T13:49:21.178Z</time></trkpt><trkpt lat="43.650709" lon="12.6374474"><ele>332.5</ele><time>2026-04-06T13:49:22.176Z</time></trkpt><trkpt lat="43.6507309" lon="12.637292"><ele>330.0</ele><time>2026-04-06T13:49:23.177Z</time></trkpt><trkpt lat="43.6507547" lon="12.6371294"><ele>330.0</ele><time>2026-04-06T13:49:24.173Z</time></trkpt><trkpt lat="43.6507871" lon="12.6369753"><ele>330.0</ele><time>2026-04-06T13:49:25.181Z</time></trkpt><trkpt lat="43.6508167" lon="12.6368434"><ele>330.0</ele><time>2026-04-06T13:49:26.179Z</time></trkpt><trkpt lat="43.6508539" lon="12.6367142"><ele>330.0</ele><time>2026-04-06T13:49:27.168Z</time></trkpt><trkpt lat="43.650913" lon="12.6365658"><ele>330.0</ele><time>2026-04-06T13:49:28.174Z</time></trkpt><trkpt lat="43.6509604" lon="12.6364047"><ele>328.5</ele><time>2026-04-06T13:49:29.178Z</time></trkpt><trkpt lat="43.6509948" lon="12.6362801"><ele>327.0</ele><time>2026-04-06T13:49:30.165Z</time></trkpt><trkpt lat="43.6510216" lon="12.6361884"><ele>325.5</ele><time>2026-04-06T13:49:31.173Z</time></trkpt><trkpt lat="43.6510318" lon="12.636101"><ele>324.0</ele><time>2026-04-06T13:49:33.191Z</time></trkpt><trkpt lat="43.6509631" lon="12.6360776"><ele>322.5</ele><time>2026-04-06T13:49:36.201Z</time></trkpt><trkpt lat="43.6509021" lon="12.636151"><ele>321.0</ele><time>2026-04-06T13:49:39.199Z</time></trkpt><trkpt lat="43.6508378" lon="12.6363015"><ele>321.0</ele><time>2026-04-06T13:49:41.183Z</time></trkpt><trkpt lat="43.6508091" lon="12.6363837"><ele>321.0</ele><time>2026-04-06T13:49:42.178Z</time></trkpt><trkpt lat="43.6507506" lon="12.63651"><ele>321.0</ele><time>2026-04-06T13:49:44.164Z</time></trkpt><trkpt lat="43.6506978" lon="12.636594"><ele>321.0</ele><time>2026-04-06T13:49:46.2Z</time></trkpt><trkpt lat="43.6506166" lon="12.6366682"><ele>321.0</ele><time>2026-04-06T13:49:48.191Z</time></trkpt><trkpt lat="43.650552" lon="12.6367237"><ele>321.0</ele><time>2026-04-06T13:49:50.193Z</time></trkpt><trkpt lat="43.6505012" lon="12.6367887"><ele>320.99999999999994</ele><time>2026-04-06T13:49:53.186Z</time></trkpt><trkpt lat="43.6504555" lon="12.6368644"><ele>321.0</ele><time>2026-04-06T13:49:55.198Z</time></trkpt><trkpt lat="43.6504065" lon="12.6369262"><ele>321.0</ele><time>2026-04-06T13:49:57.193Z</time></trkpt><trkpt lat="43.6503562" lon="12.6369879"><ele>321.0</ele><time>2026-04-06T13:49:59.191Z</time></trkpt><trkpt lat="43.6502984" lon="12.6370653"><ele>321.0</ele><time>2026-04-06T13:50:01.194Z</time></trkpt><trkpt lat="43.6502409" lon="12.6371351"><ele>320.99999999999994</ele><time>2026-04-06T13:50:03.192Z</time></trkpt><trkpt lat="43.6501737" lon="12.6371997"><ele>321.0</ele><time>2026-04-06T13:50:06.192Z</time></trkpt><trkpt lat="43.6501102" lon="12.6371769"><ele>318.40000000000003</ele><time>2026-04-06T13:50:09.193Z</time></trkpt><trkpt lat="43.6500612" lon="12.6370819"><ele>315.8</ele><time>2026-04-06T13:50:12.192Z</time></trkpt><trkpt lat="43.6500467" lon="12.636909"><ele>313.20000000000005</ele><time>2026-04-06T13:50:14.17Z</time></trkpt><trkpt lat="43.6500479" lon="12.6367954"><ele>310.6</ele><time>2026-04-06T13:50:15.172Z</time></trkpt><trkpt lat="43.6500545" lon="12.6366947"><ele>308.0</ele><time>2026-04-06T13:50:16.16Z</time></trkpt><trkpt lat="43.6500923" lon="12.6365622"><ele>308.0</ele><time>2026-04-06T13:50:18.168Z</time></trkpt><trkpt lat="43.6501466" lon="12.6364441"><ele>308.0</ele><time>2026-04-06T13:50:20.192Z</time></trkpt><trkpt lat="43.6502017" lon="12.6363497"><ele>308.0</ele><time>2026-04-06T13:50:21.174Z</time></trkpt><trkpt lat="43.6502651" lon="12.6362545"><ele>308.0</ele><time>2026-04-06T13:50:22.172Z</time></trkpt><trkpt lat="43.6503399" lon="12.6361553"><ele>308.0</ele><time>2026-04-06T13:50:23.174Z</time></trkpt><trkpt lat="43.6503981" lon="12.6360637"><ele>308.0</ele><time>2026-04-06T13:50:24.172Z</time></trkpt><trkpt lat="43.6504395" lon="12.6359844"><ele>308.0</ele><time>2026-04-06T13:50:25.174Z</time></trkpt><trkpt lat="43.6504656" lon="12.6358822"><ele>308.0</ele><time>2026-04-06T13:50:26.176Z</time></trkpt><trkpt lat="43.6504882" lon="12.6357403"><ele>308.0</ele><time>2026-04-06T13:50:27.171Z</time></trkpt><trkpt lat="43.6505119" lon="12.6356029"><ele>308.0</ele><time>2026-04-06T13:50:28.177Z</time></trkpt><trkpt lat="43.6505466" lon="12.6354619"><ele>308.0</ele><time>2026-04-06T13:50:29.171Z</time></trkpt><trkpt lat="43.6506009" lon="12.6353327"><ele>308.0</ele><time>2026-04-06T13:50:30.167Z</time></trkpt><trkpt lat="43.6506592" lon="12.635218"><ele>308.0</ele><time>2026-04-06T13:50:31.17Z</time></trkpt><trkpt lat="43.6507136" lon="12.6351311"><ele>308.0</ele><time>2026-04-06T13:50:32.169Z</time></trkpt><trkpt lat="43.6507575" lon="12.6350469"><ele>308.0</ele><time>2026-04-06T13:50:33.165Z</time></trkpt><trkpt lat="43.6507885" lon="12.6349535"><ele>308.0</ele><time>2026-04-06T13:50:34.161Z</time></trkpt><trkpt lat="43.6508014" lon="12.6348542"><ele>303.25</ele><time>2026-04-06T13:50:35.155Z</time></trkpt><trkpt lat="43.6507923" lon="12.6347125"><ele>298.5</ele><time>2026-04-06T13:50:36.161Z</time></trkpt><trkpt lat="43.6507853" lon="12.6345013"><ele>293.75</ele><time>2026-04-06T13:50:37.156Z</time></trkpt><trkpt lat="43.6508053" lon="12.634241"><ele>289.0</ele><time>2026-04-06T13:50:38.162Z</time></trkpt><trkpt lat="43.650816" lon="12.6340002"><ele>285.0</ele><time>2026-04-06T13:50:39.178Z</time></trkpt><trkpt lat="43.6508306" lon="12.6337807"><ele>281.0</ele><time>2026-04-06T13:50:40.173Z</time></trkpt><trkpt lat="43.6508355" lon="12.6335902"><ele>277.0</ele><time>2026-04-06T13:50:41.172Z</time></trkpt><trkpt lat="43.6508416" lon="12.6333986"><ele>273.0</ele><time>2026-04-06T13:50:42.17Z</time></trkpt><trkpt lat="43.6508418" lon="12.6332166"><ele>270.25</ele><time>2026-04-06T13:50:43.169Z</time></trkpt><trkpt lat="43.6508389" lon="12.6330423"><ele>267.5</ele><time>2026-04-06T13:50:44.171Z</time></trkpt><trkpt lat="43.650844" lon="12.6328777"><ele>264.75</ele><time>2026-04-06T13:50:45.174Z</time></trkpt><trkpt lat="43.6508433" lon="12.6327404"><ele>262.0</ele><time>2026-04-06T13:50:46.174Z</time></trkpt><trkpt lat="43.6508104" lon="12.6325926"><ele>260.6</ele><time>2026-04-06T13:50:47.174Z</time></trkpt><trkpt lat="43.6508025" lon="12.6324436"><ele>259.2</ele><time>2026-04-06T13:50:48.173Z</time></trkpt><trkpt lat="43.6507874" lon="12.6322923"><ele>257.8</ele><time>2026-04-06T13:50:49.164Z</time></trkpt><trkpt lat="43.6507802" lon="12.6321374"><ele>256.4</ele><time>2026-04-06T13:50:50.162Z</time></trkpt><trkpt lat="43.6507942" lon="12.6319774"><ele>255.0</ele><time>2026-04-06T13:50:51.16Z</time></trkpt><trkpt lat="43.6508281" lon="12.6318525"><ele>255.2</ele><time>2026-04-06T13:50:52.156Z</time></trkpt><trkpt lat="43.6508854" lon="12.631734"><ele>255.4</ele><time>2026-04-06T13:50:53.17Z</time></trkpt><trkpt lat="43.6509617" lon="12.6316432"><ele>255.60000000000002</ele><time>2026-04-06T13:50:54.167Z</time></trkpt><trkpt lat="43.6510507" lon="12.6315481"><ele>255.8</ele><time>2026-04-06T13:50:55.175Z</time></trkpt><trkpt lat="43.6511442" lon="12.6314403"><ele>256.0</ele><time>2026-04-06T13:50:56.168Z</time></trkpt><trkpt lat="43.6512081" lon="12.6313031"><ele>253.75</ele><time>2026-04-06T13:50:57.173Z</time></trkpt><trkpt lat="43.651248" lon="12.631126"><ele>251.5</ele><time>2026-04-06T13:50:58.172Z</time></trkpt><trkpt lat="43.651276" lon="12.6309286"><ele>249.25</ele><time>2026-04-06T13:50:59.163Z</time></trkpt><trkpt lat="43.6512897" lon="12.630767"><ele>247.0</ele><time>2026-04-06T13:51:00.168Z</time></trkpt><trkpt lat="43.6513018" lon="12.6306295"><ele>246.99999999999997</ele><time>2026-04-06T13:51:01.166Z</time></trkpt><trkpt lat="43.6513239" lon="12.6305063"><ele>247.0</ele><time>2026-04-06T13:51:02.178Z</time></trkpt><trkpt lat="43.6513329" lon="12.6304162"><ele>247.0</ele><time>2026-04-06T13:51:03.17Z</time></trkpt><trkpt lat="43.6513566" lon="12.6302803"><ele>247.0</ele><time>2026-04-06T13:51:05.174Z</time></trkpt><trkpt lat="43.6513664" lon="12.6301456"><ele>246.99999999999997</ele><time>2026-04-06T13:51:07.169Z</time></trkpt><trkpt lat="43.6513791" lon="12.630041"><ele>247.0</ele><time>2026-04-06T13:51:10.199Z</time></trkpt><trkpt lat="43.6514562" lon="12.6299466"><ele>246.39999999999998</ele><time>2026-04-06T13:51:12.177Z</time></trkpt><trkpt lat="43.6515514" lon="12.6299127"><ele>245.79999999999998</ele><time>2026-04-06T13:51:13.178Z</time></trkpt><trkpt lat="43.6516671" lon="12.6298676"><ele>245.2</ele><time>2026-04-06T13:51:14.175Z</time></trkpt><trkpt lat="43.6517544" lon="12.6298086"><ele>244.6</ele><time>2026-04-06T13:51:15.171Z</time></trkpt><trkpt lat="43.6518169" lon="12.6297482"><ele>244.0</ele><time>2026-04-06T13:51:16.177Z</time></trkpt><trkpt lat="43.6518794" lon="12.6297055"><ele>244.0</ele><time>2026-04-06T13:51:17.183Z</time></trkpt><trkpt lat="43.6519391" lon="12.629669"><ele>243.99999999999997</ele><time>2026-04-06T13:51:18.18Z</time></trkpt><trkpt lat="43.6519342" lon="12.629564"><ele>243.99999999999997</ele><time>2026-04-06T13:51:26.195Z</time></trkpt><trkpt lat="43.6518563" lon="12.6294364"><ele>244.0</ele><time>2026-04-06T13:51:28.17Z</time></trkpt><trkpt lat="43.6517978" lon="12.6293782"><ele>244.0</ele><time>2026-04-06T13:51:31.186Z</time></trkpt><trkpt lat="43.6516695" lon="12.6294082"><ele>245.6</ele><time>2026-04-06T13:51:33.167Z</time></trkpt><trkpt lat="43.6515872" lon="12.6294315"><ele>247.2</ele><time>2026-04-06T13:51:34.17Z</time></trkpt><trkpt lat="43.6514965" lon="12.6294304"><ele>248.79999999999998</ele><time>2026-04-06T13:51:35.163Z</time></trkpt><trkpt lat="43.6513905" lon="12.6294186"><ele>250.39999999999998</ele><time>2026-04-06T13:51:36.15Z</time></trkpt><trkpt lat="43.6512631" lon="12.6293947"><ele>252.0</ele><time>2026-04-06T13:51:37.168Z</time></trkpt><trkpt lat="43.6511253" lon="12.6293527"><ele>250.75</ele><time>2026-04-06T13:51:38.167Z</time></trkpt><trkpt lat="43.6509949" lon="12.6292827"><ele>249.5</ele><time>2026-04-06T13:51:39.167Z</time></trkpt><trkpt lat="43.6508812" lon="12.6291838"><ele>248.25</ele><time>2026-04-06T13:51:40.179Z</time></trkpt><trkpt lat="43.650799" lon="12.6290504"><ele>247.0</ele><time>2026-04-06T13:51:41.172Z</time></trkpt><trkpt lat="43.6507338" lon="12.6288785"><ele>247.0</ele><time>2026-04-06T13:51:42.173Z</time></trkpt><trkpt lat="43.650673" lon="12.628691"><ele>247.0</ele><time>2026-04-06T13:51:43.169Z</time></trkpt><trkpt lat="43.6505849" lon="12.6285155"><ele>247.0</ele><time>2026-04-06T13:51:44.172Z</time></trkpt><trkpt lat="43.650453" lon="12.6283754"><ele>247.33333333333331</ele><time>2026-04-06T13:51:45.172Z</time></trkpt><trkpt lat="43.650315" lon="12.6282701"><ele>247.66666666666669</ele><time>2026-04-06T13:51:46.169Z</time></trkpt><trkpt lat="43.6501778" lon="12.62814"><ele>248.0</ele><time>2026-04-06T13:51:47.178Z</time></trkpt><trkpt lat="43.6500388" lon="12.6280026"><ele>248.0</ele><time>2026-04-06T13:51:48.175Z</time></trkpt><trkpt lat="43.649894" lon="12.6278731"><ele>248.0</ele><time>2026-04-06T13:51:49.175Z</time></trkpt><trkpt lat="43.6497506" lon="12.6277609"><ele>248.0</ele><time>2026-04-06T13:51:50.167Z</time></trkpt><trkpt lat="43.6495881" lon="12.627677"><ele>249.66666666666669</ele><time>2026-04-06T13:51:51.167Z</time></trkpt><trkpt lat="43.6494499" lon="12.6276151"><ele>251.33333333333331</ele><time>2026-04-06T13:51:52.173Z</time></trkpt><trkpt lat="43.6493071" lon="12.627534"><ele>253.0</ele><time>2026-04-06T13:51:53.173Z</time></trkpt><trkpt lat="43.649182" lon="12.627399"><ele>253.0</ele><time>2026-04-06T13:51:54.169Z</time></trkpt><trkpt lat="43.649085" lon="12.6272179"><ele>253.0</ele><time>2026-04-06T13:51:55.177Z</time></trkpt><trkpt lat="43.6490155" lon="12.6270258"><ele>253.0</ele><time>2026-04-06T13:51:56.17Z</time></trkpt><trkpt lat="43.6489635" lon="12.6268257"><ele>256.0</ele><time>2026-04-06T13:51:57.174Z</time></trkpt><trkpt lat="43.6489334" lon="12.6266139"><ele>259.0</ele><time>2026-04-06T13:51:58.179Z</time></trkpt><trkpt lat="43.6488926" lon="12.6264195"><ele>262.0</ele><time>2026-04-06T13:51:59.174Z</time></trkpt><trkpt lat="43.6488545" lon="12.6261996"><ele>263.0</ele><time>2026-04-06T13:52:00.181Z</time></trkpt><trkpt lat="43.6487947" lon="12.626007"><ele>264.0</ele><time>2026-04-06T13:52:01.181Z</time></trkpt><trkpt lat="43.648736" lon="12.62583"><ele>265.0</ele><time>2026-04-06T13:52:02.183Z</time></trkpt><trkpt lat="43.6486847" lon="12.6256426"><ele>266.0</ele><time>2026-04-06T13:52:03.173Z</time></trkpt><trkpt lat="43.6486475" lon="12.6254621"><ele>264.0</ele><time>2026-04-06T13:52:04.173Z</time></trkpt><trkpt lat="43.6486022" lon="12.6253103"><ele>262.0</ele><time>2026-04-06T13:52:05.173Z</time></trkpt><trkpt lat="43.6485564" lon="12.6251782"><ele>260.0</ele><time>2026-04-06T13:52:06.173Z</time></trkpt><trkpt lat="43.6484951" lon="12.6250609"><ele>258.0</ele><time>2026-04-06T13:52:07.177Z</time></trkpt><trkpt lat="43.6484253" lon="12.6249106"><ele>258.0</ele><time>2026-04-06T13:52:08.181Z</time></trkpt><trkpt lat="43.6483489" lon="12.6247489"><ele>258.0</ele><time>2026-04-06T13:52:09.174Z</time></trkpt><trkpt lat="43.648268" lon="12.6246142"><ele>258.0</ele><time>2026-04-06T13:52:10.181Z</time></trkpt><trkpt lat="43.6481758" lon="12.6245244"><ele>258.0</ele><time>2026-04-06T13:52:11.176Z</time></trkpt><trkpt lat="43.6480673" lon="12.6244454"><ele>258.0</ele><time>2026-04-06T13:52:12.169Z</time></trkpt><trkpt lat="43.6479281" lon="12.6243601"><ele>258.0</ele><time>2026-04-06T13:52:13.178Z</time></trkpt><trkpt lat="43.6477251" lon="12.6242834"><ele>258.0</ele><time>2026-04-06T13:52:14.172Z</time></trkpt><trkpt lat="43.6475665" lon="12.6242126"><ele>258.0</ele><time>2026-04-06T13:52:15.173Z</time></trkpt><trkpt lat="43.6474265" lon="12.6241462"><ele>258.0</ele><time>2026-04-06T13:52:16.172Z</time></trkpt><trkpt lat="43.6472781" lon="12.6240565"><ele>258.0</ele><time>2026-04-06T13:52:17.171Z</time></trkpt><trkpt lat="43.647139" lon="12.6239398"><ele>258.0</ele><time>2026-04-06T13:52:18.182Z</time></trkpt><trkpt lat="43.6469776" lon="12.6238041"><ele>258.0</ele><time>2026-04-06T13:52:19.17Z</time></trkpt><trkpt lat="43.6468235" lon="12.6236601"><ele>258.0</ele><time>2026-04-06T13:52:20.174Z</time></trkpt><trkpt lat="43.646681" lon="12.6235176"><ele>258.25</ele><time>2026-04-06T13:52:21.164Z</time></trkpt><trkpt lat="43.6465571" lon="12.6234033"><ele>258.5</ele><time>2026-04-06T13:52:22.165Z</time></trkpt><trkpt lat="43.6464433" lon="12.6232991"><ele>258.75</ele><time>2026-04-06T13:52:23.161Z</time></trkpt><trkpt lat="43.6463401" lon="12.6231734"><ele>259.0</ele><time>2026-04-06T13:52:24.177Z</time></trkpt><trkpt lat="43.6462761" lon="12.623002"><ele>259.0</ele><time>2026-04-06T13:52:25.172Z</time></trkpt><trkpt lat="43.6462059" lon="12.6228485"><ele>259.0</ele><time>2026-04-06T13:52:26.17Z</time></trkpt><trkpt lat="43.6461186" lon="12.6227283"><ele>259.0</ele><time>2026-04-06T13:52:27.166Z</time></trkpt><trkpt lat="43.6459843" lon="12.622654"><ele>259.0</ele><time>2026-04-06T13:52:28.172Z</time></trkpt><trkpt lat="43.645809" lon="12.6225823"><ele>259.0</ele><time>2026-04-06T13:52:29.167Z</time></trkpt><trkpt lat="43.6456661" lon="12.6225127"><ele>259.0</ele><time>2026-04-06T13:52:30.167Z</time></trkpt><trkpt lat="43.6455219" lon="12.6224684"><ele>259.0</ele><time>2026-04-06T13:52:31.165Z</time></trkpt><trkpt lat="43.6453674" lon="12.6224625"><ele>260.0</ele><time>2026-04-06T13:52:32.172Z</time></trkpt><trkpt lat="43.6452065" lon="12.6224884"><ele>261.0</ele><time>2026-04-06T13:52:33.16Z</time></trkpt><trkpt lat="43.6450702" lon="12.6225031"><ele>262.0</ele><time>2026-04-06T13:52:34.164Z</time></trkpt><trkpt lat="43.6449093" lon="12.6224859"><ele>262.0</ele><time>2026-04-06T13:52:35.154Z</time></trkpt><trkpt lat="43.6447259" lon="12.6224551"><ele>262.0</ele><time>2026-04-06T13:52:36.162Z</time></trkpt><trkpt lat="43.6445388" lon="12.6223762"><ele>262.0</ele><time>2026-04-06T13:52:37.163Z</time></trkpt><trkpt lat="43.6443768" lon="12.6223"><ele>261.66666666666663</ele><time>2026-04-06T13:52:38.166Z</time></trkpt><trkpt lat="43.6442321" lon="12.6222173"><ele>261.3333333333333</ele><time>2026-04-06T13:52:39.167Z</time></trkpt><trkpt lat="43.6440993" lon="12.6221208"><ele>261.0</ele><time>2026-04-06T13:52:40.165Z</time></trkpt><trkpt lat="43.64397" lon="12.6220192"><ele>265.0</ele><time>2026-04-06T13:52:41.164Z</time></trkpt><trkpt lat="43.6437503" lon="12.6217573"><ele>269.0</ele><time>2026-04-06T13:52:43.167Z</time></trkpt><trkpt lat="43.6436405" lon="12.6215933"><ele>270.0</ele><time>2026-04-06T13:52:44.16Z</time></trkpt><trkpt lat="43.6435201" lon="12.6213898"><ele>271.0</ele><time>2026-04-06T13:52:45.163Z</time></trkpt><trkpt lat="43.6433871" lon="12.6211632"><ele>272.0</ele><time>2026-04-06T13:52:46.167Z</time></trkpt><trkpt lat="43.6432546" lon="12.6209181"><ele>272.0</ele><time>2026-04-06T13:52:47.172Z</time></trkpt><trkpt lat="43.6431094" lon="12.6206655"><ele>272.0</ele><time>2026-04-06T13:52:48.171Z</time></trkpt><trkpt lat="43.6429357" lon="12.6204255"><ele>272.5</ele><time>2026-04-06T13:52:49.17Z</time></trkpt><trkpt lat="43.6427471" lon="12.6201947"><ele>273.0</ele><time>2026-04-06T13:52:50.17Z</time></trkpt><trkpt lat="43.6425404" lon="12.6199236"><ele>273.0</ele><time>2026-04-06T13:52:51.169Z</time></trkpt><trkpt lat="43.6423272" lon="12.6196655"><ele>273.0</ele><time>2026-04-06T13:52:52.166Z</time></trkpt><trkpt lat="43.6419905" lon="12.6192629"><ele>274.0</ele><time>2026-04-06T13:52:54.163Z</time></trkpt><trkpt lat="43.6418517" lon="12.6190915"><ele>275.0</ele><time>2026-04-06T13:52:55.172Z</time></trkpt><trkpt lat="43.6417108" lon="12.6189445"><ele>276.0</ele><time>2026-04-06T13:52:56.172Z</time></trkpt><trkpt lat="43.6415672" lon="12.6188062"><ele>277.0</ele><time>2026-04-06T13:52:57.17Z</time></trkpt><trkpt lat="43.6413949" lon="12.6186459"><ele>278.0</ele><time>2026-04-06T13:52:58.173Z</time></trkpt><trkpt lat="43.6412345" lon="12.6185012"><ele>279.0</ele><time>2026-04-06T13:52:59.17Z</time></trkpt><trkpt lat="43.6410767" lon="12.6183639"><ele>279.0</ele><time>2026-04-06T13:53:00.172Z</time></trkpt><trkpt lat="43.6409111" lon="12.6182053"><ele>279.0</ele><time>2026-04-06T13:53:01.169Z</time></trkpt><trkpt lat="43.6407499" lon="12.6180575"><ele>279.0</ele><time>2026-04-06T13:53:02.169Z</time></trkpt><trkpt lat="43.6405926" lon="12.6179208"><ele>281.0</ele><time>2026-04-06T13:53:03.169Z</time></trkpt><trkpt lat="43.6404573" lon="12.6177864"><ele>283.0</ele><time>2026-04-06T13:53:04.178Z</time></trkpt><trkpt lat="43.6401173" lon="12.6174182"><ele>283.0</ele><time>2026-04-06T13:53:07.177Z</time></trkpt><trkpt lat="43.6399954" lon="12.617272"><ele>283.0</ele><time>2026-04-06T13:53:08.177Z</time></trkpt><trkpt lat="43.6398492" lon="12.6171089"><ele>283.0</ele><time>2026-04-06T13:53:09.17Z</time></trkpt><trkpt lat="43.6396726" lon="12.6169267"><ele>286.0</ele><time>2026-04-06T13:53:10.177Z</time></trkpt><trkpt lat="43.6394895" lon="12.6167461"><ele>289.0</ele><time>2026-04-06T13:53:11.178Z</time></trkpt><trkpt lat="43.6392963" lon="12.6165494"><ele>289.0</ele><time>2026-04-06T13:53:12.176Z</time></trkpt><trkpt lat="43.6391095" lon="12.616348"><ele>289.0</ele><time>2026-04-06T13:53:13.165Z</time></trkpt><trkpt lat="43.6389411" lon="12.6161633"><ele>292.0</ele><time>2026-04-06T13:53:14.169Z</time></trkpt><trkpt lat="43.6386742" lon="12.6158899"><ele>295.0</ele><time>2026-04-06T13:53:16.172Z</time></trkpt><trkpt lat="43.6385431" lon="12.6157468"><ele>295.0</ele><time>2026-04-06T13:53:17.169Z</time></trkpt><trkpt lat="43.6384409" lon="12.6155787"><ele>295.0</ele><time>2026-04-06T13:53:18.163Z</time></trkpt><trkpt lat="43.6382459" lon="12.6152813"><ele>295.0</ele><time>2026-04-06T13:53:20.183Z</time></trkpt><trkpt lat="43.6381293" lon="12.6151202"><ele>296.0</ele><time>2026-04-06T13:53:21.169Z</time></trkpt><trkpt lat="43.6380293" lon="12.6149874"><ele>297.0</ele><time>2026-04-06T13:53:22.18Z</time></trkpt><trkpt lat="43.637915" lon="12.6148806"><ele>298.0</ele><time>2026-04-06T13:53:23.177Z</time></trkpt><trkpt lat="43.6377152" lon="12.6146823"><ele>298.0</ele><time>2026-04-06T13:53:25.175Z</time></trkpt><trkpt lat="43.6376341" lon="12.6146112"><ele>298.0</ele><time>2026-04-06T13:53:26.18Z</time></trkpt><trkpt lat="43.6375512" lon="12.6145604"><ele>298.0</ele><time>2026-04-06T13:53:27.167Z</time></trkpt><trkpt lat="43.6373887" lon="12.6145766"><ele>298.0</ele><time>2026-04-06T13:53:29.176Z</time></trkpt><trkpt lat="43.6373063" lon="12.614654"><ele>298.0</ele><time>2026-04-06T13:53:30.173Z</time></trkpt><trkpt lat="43.6371267" lon="12.614864"><ele>298.0</ele><time>2026-04-06T13:53:32.17Z</time></trkpt><trkpt lat="43.6370475" lon="12.6149306"><ele>298.0</ele><time>2026-04-06T13:53:33.183Z</time></trkpt><trkpt lat="43.6369544" lon="12.6149529"><ele>298.0</ele><time>2026-04-06T13:53:34.185Z</time></trkpt><trkpt lat="43.6368527" lon="12.6149362"><ele>298.0</ele><time>2026-04-06T13:53:35.179Z</time></trkpt><trkpt lat="43.6367489" lon="12.6148692"><ele>298.0</ele><time>2026-04-06T13:53:36.174Z</time></trkpt><trkpt lat="43.6366268" lon="12.6147733"><ele>296.66666666666663</ele><time>2026-04-06T13:53:37.17Z</time></trkpt><trkpt lat="43.6364918" lon="12.6146626"><ele>295.3333333333333</ele><time>2026-04-06T13:53:38.165Z</time></trkpt><trkpt lat="43.6363053" lon="12.6144938"><ele>294.0</ele><time>2026-04-06T13:53:39.175Z</time></trkpt><trkpt lat="43.6361491" lon="12.6143577"><ele>298.3333333333333</ele><time>2026-04-06T13:53:40.17Z</time></trkpt><trkpt lat="43.6360128" lon="12.614258"><ele>302.66666666666663</ele><time>2026-04-06T13:53:41.169Z</time></trkpt><trkpt lat="43.6358549" lon="12.6141989"><ele>307.0</ele><time>2026-04-06T13:53:42.17Z</time></trkpt><trkpt lat="43.635704" lon="12.61418"><ele>307.0</ele><time>2026-04-06T13:53:43.168Z</time></trkpt><trkpt lat="43.6355368" lon="12.6141687"><ele>307.0</ele><time>2026-04-06T13:53:44.167Z</time></trkpt><trkpt lat="43.6353869" lon="12.6141733"><ele>307.0</ele><time>2026-04-06T13:53:45.17Z</time></trkpt><trkpt lat="43.6352379" lon="12.6141726"><ele>307.3333333333333</ele><time>2026-04-06T13:53:46.173Z</time></trkpt><trkpt lat="43.6350752" lon="12.6141536"><ele>307.6666666666667</ele><time>2026-04-06T13:53:47.169Z</time></trkpt><trkpt lat="43.6349199" lon="12.6140967"><ele>308.0</ele><time>2026-04-06T13:53:48.168Z</time></trkpt><trkpt lat="43.6347595" lon="12.6140022"><ele>308.0</ele><time>2026-04-06T13:53:49.168Z</time></trkpt><trkpt lat="43.6345638" lon="12.6138842"><ele>308.0</ele><time>2026-04-06T13:53:50.159Z</time></trkpt><trkpt lat="43.6343451" lon="12.6137841"><ele>308.0</ele><time>2026-04-06T13:53:51.165Z</time></trkpt><trkpt lat="43.6341261" lon="12.6136744"><ele>313.6666666666667</ele><time>2026-04-06T13:53:52.16Z</time></trkpt><trkpt lat="43.6339337" lon="12.6135818"><ele>319.3333333333333</ele><time>2026-04-06T13:53:53.167Z</time></trkpt><trkpt lat="43.6337546" lon="12.6135238"><ele>325.0</ele><time>2026-04-06T13:53:54.168Z</time></trkpt><trkpt lat="43.6335861" lon="12.6134456"><ele>325.3333333333333</ele><time>2026-04-06T13:53:55.168Z</time></trkpt><trkpt lat="43.6334174" lon="12.6133135"><ele>325.6666666666667</ele><time>2026-04-06T13:53:56.165Z</time></trkpt><trkpt lat="43.6332506" lon="12.6131824"><ele>326.0</ele><time>2026-04-06T13:53:57.167Z</time></trkpt><trkpt lat="43.6331246" lon="12.6130655"><ele>326.0</ele><time>2026-04-06T13:53:58.17Z</time></trkpt><trkpt lat="43.6330172" lon="12.612969"><ele>326.0</ele><time>2026-04-06T13:53:59.176Z</time></trkpt><trkpt lat="43.6329178" lon="12.6128742"><ele>326.0</ele><time>2026-04-06T13:54:00.166Z</time></trkpt><trkpt lat="43.6328153" lon="12.6128109"><ele>326.0</ele><time>2026-04-06T13:54:01.173Z</time></trkpt><trkpt lat="43.6327253" lon="12.6127902"><ele>329.20000000000005</ele><time>2026-04-06T13:54:02.177Z</time></trkpt><trkpt lat="43.6326414" lon="12.6128149"><ele>332.40000000000003</ele><time>2026-04-06T13:54:03.169Z</time></trkpt><trkpt lat="43.6325659" lon="12.6128815"><ele>335.6</ele><time>2026-04-06T13:54:04.173Z</time></trkpt><trkpt lat="43.6324815" lon="12.6130066"><ele>338.8</ele><time>2026-04-06T13:54:05.164Z</time></trkpt><trkpt lat="43.632406" lon="12.6131109"><ele>342.0</ele><time>2026-04-06T13:54:06.163Z</time></trkpt><trkpt lat="43.6323227" lon="12.6131695"><ele>342.0</ele><time>2026-04-06T13:54:07.17Z</time></trkpt><trkpt lat="43.6322438" lon="12.6131604"><ele>342.0</ele><time>2026-04-06T13:54:08.17Z</time></trkpt><trkpt lat="43.6321764" lon="12.6131164"><ele>342.0</ele><time>2026-04-06T13:54:09.164Z</time></trkpt><trkpt lat="43.6321276" lon="12.6130419"><ele>342.0</ele><time>2026-04-06T13:54:10.168Z</time></trkpt><trkpt lat="43.6320906" lon="12.6129385"><ele>342.0</ele><time>2026-04-06T13:54:11.167Z</time></trkpt><trkpt lat="43.6320349" lon="12.6127931"><ele>342.0</ele><time>2026-04-06T13:54:12.159Z</time></trkpt><trkpt lat="43.6319632" lon="12.6126294"><ele>347.3333333333333</ele><time>2026-04-06T13:54:13.154Z</time></trkpt><trkpt lat="43.6318709" lon="12.6124371"><ele>352.66666666666663</ele><time>2026-04-06T13:54:14.155Z</time></trkpt><trkpt lat="43.6317542" lon="12.6122094"><ele>358.0</ele><time>2026-04-06T13:54:15.17Z</time></trkpt><trkpt lat="43.6316395" lon="12.6119689"><ele>358.0</ele><time>2026-04-06T13:54:16.173Z</time></trkpt><trkpt lat="43.6315574" lon="12.6117196"><ele>358.0</ele><time>2026-04-06T13:54:17.172Z</time></trkpt><trkpt lat="43.6314774" lon="12.6114759"><ele>358.0</ele><time>2026-04-06T13:54:18.176Z</time></trkpt><trkpt lat="43.6313963" lon="12.611275"><ele>360.66666666666663</ele><time>2026-04-06T13:54:19.168Z</time></trkpt><trkpt lat="43.6313281" lon="12.6110931"><ele>363.3333333333333</ele><time>2026-04-06T13:54:20.176Z</time></trkpt><trkpt lat="43.6312484" lon="12.6109179"><ele>366.0</ele><time>2026-04-06T13:54:21.168Z</time></trkpt><trkpt lat="43.6311685" lon="12.6107262"><ele>366.6</ele><time>2026-04-06T13:54:22.175Z</time></trkpt><trkpt lat="43.6311108" lon="12.6105988"><ele>367.20000000000005</ele><time>2026-04-06T13:54:23.169Z</time></trkpt><trkpt lat="43.6310655" lon="12.610507"><ele>367.79999999999995</ele><time>2026-04-06T13:54:24.171Z</time></trkpt><trkpt lat="43.6310072" lon="12.6104188"><ele>368.4</ele><time>2026-04-06T13:54:26.174Z</time></trkpt><trkpt lat="43.6309258" lon="12.6103357"><ele>369.0</ele><time>2026-04-06T13:54:28.2Z</time></trkpt><trkpt lat="43.6308458" lon="12.6103043"><ele>369.0</ele><time>2026-04-06T13:54:29.18Z</time></trkpt><trkpt lat="43.6307337" lon="12.6102998"><ele>369.0</ele><time>2026-04-06T13:54:31.177Z</time></trkpt><trkpt lat="43.6306177" lon="12.6103219"><ele>369.0</ele><time>2026-04-06T13:54:33.17Z</time></trkpt><trkpt lat="43.6307127" lon="12.6103132"><ele>369.0</ele><time>2026-04-06T13:54:45.199Z</time></trkpt><trkpt lat="43.6307917" lon="12.6102899"><ele>369.0</ele><time>2026-04-06T13:54:46.179Z</time></trkpt><trkpt lat="43.6308728" lon="12.6102965"><ele>369.0</ele><time>2026-04-06T13:54:47.18Z</time></trkpt><trkpt lat="43.6309571" lon="12.6102749"><ele>369.0</ele><time>2026-04-06T13:54:48.195Z</time></trkpt><trkpt lat="43.6310108" lon="12.610185"><ele>369.0</ele><time>2026-04-06T13:54:50.208Z</time></trkpt><trkpt lat="43.6309108" lon="12.610113"><ele>369.0</ele><time>2026-04-06T13:54:52.191Z</time></trkpt><trkpt lat="43.6307861" lon="12.6100751"><ele>369.0</ele><time>2026-04-06T13:54:53.181Z</time></trkpt><trkpt lat="43.6306642" lon="12.6100236"><ele>369.0</ele><time>2026-04-06T13:54:54.192Z</time></trkpt><trkpt lat="43.6305415" lon="12.6099059"><ele>369.0</ele><time>2026-04-06T13:54:55.182Z</time></trkpt><trkpt lat="43.6304296" lon="12.6097168"><ele>369.0</ele><time>2026-04-06T13:54:56.179Z</time></trkpt><trkpt lat="43.6303196" lon="12.6095042"><ele>367.2</ele><time>2026-04-06T13:54:57.187Z</time></trkpt><trkpt lat="43.6302469" lon="12.6093667"><ele>365.4</ele><time>2026-04-06T13:54:58.172Z</time></trkpt><trkpt lat="43.6301854" lon="12.6092481"><ele>363.6</ele><time>2026-04-06T13:54:59.175Z</time></trkpt><trkpt lat="43.6301275" lon="12.6091348"><ele>361.8</ele><time>2026-04-06T13:55:00.182Z</time></trkpt><trkpt lat="43.6300747" lon="12.6090415"><ele>360.0</ele><time>2026-04-06T13:55:01.18Z</time></trkpt><trkpt lat="43.6300373" lon="12.6089518"><ele>360.0</ele><time>2026-04-06T13:55:02.176Z</time></trkpt><trkpt lat="43.6300173" lon="12.6088435"><ele>360.0</ele><time>2026-04-06T13:55:03.183Z</time></trkpt><trkpt lat="43.6300318" lon="12.608711"><ele>360.0</ele><time>2026-04-06T13:55:04.179Z</time></trkpt><trkpt lat="43.6300903" lon="12.6085582"><ele>360.0</ele><time>2026-04-06T13:55:05.18Z</time></trkpt><trkpt lat="43.6301837" lon="12.6084058"><ele>360.0</ele><time>2026-04-06T13:55:06.176Z</time></trkpt><trkpt lat="43.63028" lon="12.6082706"><ele>357.4</ele><time>2026-04-06T13:55:07.172Z</time></trkpt><trkpt lat="43.630355" lon="12.608148"><ele>354.8</ele><time>2026-04-06T13:55:08.173Z</time></trkpt><trkpt lat="43.6304202" lon="12.6080494"><ele>352.20000000000005</ele><time>2026-04-06T13:55:09.175Z</time></trkpt><trkpt lat="43.6304766" lon="12.6079753"><ele>349.6</ele><time>2026-04-06T13:55:10.18Z</time></trkpt><trkpt lat="43.6305538" lon="12.6078986"><ele>347.0</ele><time>2026-04-06T13:55:11.178Z</time></trkpt><trkpt lat="43.6306634" lon="12.6078133"><ele>345.5</ele><time>2026-04-06T13:55:12.175Z</time></trkpt><trkpt lat="43.6307737" lon="12.607723"><ele>344.0</ele><time>2026-04-06T13:55:13.176Z</time></trkpt><trkpt lat="43.6308822" lon="12.6076519"><ele>342.5</ele><time>2026-04-06T13:55:14.182Z</time></trkpt><trkpt lat="43.6309721" lon="12.6075754"><ele>341.0</ele><time>2026-04-06T13:55:15.186Z</time></trkpt><trkpt lat="43.6310533" lon="12.607485"><ele>341.0</ele><time>2026-04-06T13:55:16.183Z</time></trkpt><trkpt lat="43.6311248" lon="12.6073795"><ele>341.0</ele><time>2026-04-06T13:55:17.184Z</time></trkpt><trkpt lat="43.6311903" lon="12.6072205"><ele>341.0</ele><time>2026-04-06T13:55:18.188Z</time></trkpt><trkpt lat="43.6312583" lon="12.6070299"><ele>341.0</ele><time>2026-04-06T13:55:19.176Z</time></trkpt><trkpt lat="43.631306" lon="12.606863"><ele>337.4</ele><time>2026-04-06T13:55:20.179Z</time></trkpt><trkpt lat="43.6313583" lon="12.606724"><ele>333.8</ele><time>2026-04-06T13:55:21.178Z</time></trkpt><trkpt lat="43.6314078" lon="12.6065919"><ele>330.2</ele><time>2026-04-06T13:55:22.184Z</time></trkpt><trkpt lat="43.6314465" lon="12.6064599"><ele>326.59999999999997</ele><time>2026-04-06T13:55:23.18Z</time></trkpt><trkpt lat="43.631477" lon="12.6063409"><ele>323.0</ele><time>2026-04-06T13:55:24.189Z</time></trkpt><trkpt lat="43.6315191" lon="12.6062295"><ele>322.0</ele><time>2026-04-06T13:55:25.188Z</time></trkpt><trkpt lat="43.6315476" lon="12.6061518"><ele>321.0</ele><time>2026-04-06T13:55:26.186Z</time></trkpt><trkpt lat="43.6315753" lon="12.6060366"><ele>320.0</ele><time>2026-04-06T13:55:28.183Z</time></trkpt><trkpt lat="43.6315056" lon="12.6059366"><ele>319.0</ele><time>2026-04-06T13:55:31.197Z</time></trkpt><trkpt lat="43.6314376" lon="12.6059072"><ele>318.0</ele><time>2026-04-06T13:55:32.187Z</time></trkpt><trkpt lat="43.6313135" lon="12.6058812"><ele>317.0</ele><time>2026-04-06T13:55:33.182Z</time></trkpt><trkpt lat="43.6311767" lon="12.6058392"><ele>318.33333333333337</ele><time>2026-04-06T13:55:34.188Z</time></trkpt><trkpt lat="43.6310198" lon="12.6057841"><ele>319.6666666666667</ele><time>2026-04-06T13:55:35.179Z</time></trkpt><trkpt lat="43.6308176" lon="12.6057015"><ele>321.0</ele><time>2026-04-06T13:55:36.188Z</time></trkpt><trkpt lat="43.6306578" lon="12.6056293"><ele>321.0</ele><time>2026-04-06T13:55:37.182Z</time></trkpt><trkpt lat="43.6305031" lon="12.6055669"><ele>321.0</ele><time>2026-04-06T13:55:38.183Z</time></trkpt><trkpt lat="43.6303702" lon="12.605521"><ele>321.0</ele><time>2026-04-06T13:55:39.183Z</time></trkpt><trkpt lat="43.6302449" lon="12.6054821"><ele>321.0</ele><time>2026-04-06T13:55:40.186Z</time></trkpt><trkpt lat="43.6301347" lon="12.6054418"><ele>321.8</ele><time>2026-04-06T13:55:41.189Z</time></trkpt><trkpt lat="43.6300338" lon="12.6054063"><ele>322.6</ele><time>2026-04-06T13:55:42.19Z</time></trkpt><trkpt lat="43.6299279" lon="12.6053834"><ele>323.4</ele><time>2026-04-06T13:55:43.19Z</time></trkpt><trkpt lat="43.6298168" lon="12.6053826"><ele>324.2</ele><time>2026-04-06T13:55:44.186Z</time></trkpt><trkpt lat="43.6297089" lon="12.6053577"><ele>325.0</ele><time>2026-04-06T13:55:45.189Z</time></trkpt><trkpt lat="43.6296154" lon="12.6053066"><ele>324.3333333333333</ele><time>2026-04-06T13:55:46.182Z</time></trkpt><trkpt lat="43.6295257" lon="12.6052825"><ele>323.66666666666663</ele><time>2026-04-06T13:55:47.17Z</time></trkpt><trkpt lat="43.6294462" lon="12.6052795"><ele>323.0</ele><time>2026-04-06T13:55:48.186Z</time></trkpt><trkpt lat="43.6293451" lon="12.6052778"><ele>322.3333333333333</ele><time>2026-04-06T13:55:50.169Z</time></trkpt><trkpt lat="43.6292648" lon="12.605222"><ele>321.6666666666667</ele><time>2026-04-06T13:55:59.221Z</time></trkpt><trkpt lat="43.629244" lon="12.6051287"><ele>321.0</ele><time>2026-04-06T13:56:01.209Z</time></trkpt><trkpt lat="43.6292993" lon="12.6050028"><ele>321.0</ele><time>2026-04-06T13:56:02.19Z</time></trkpt><trkpt lat="43.6293856" lon="12.6048612"><ele>321.0</ele><time>2026-04-06T13:56:03.198Z</time></trkpt><trkpt lat="43.629458" lon="12.6046845"><ele>321.0</ele><time>2026-04-06T13:56:04.187Z</time></trkpt><trkpt lat="43.629511" lon="12.6044556"><ele>318.0</ele><time>2026-04-06T13:56:05.193Z</time></trkpt><trkpt lat="43.6296223" lon="12.604122"><ele>315.0</ele><time>2026-04-06T13:56:06.191Z</time></trkpt><trkpt lat="43.6296039" lon="12.6038238"><ele>315.3333333333333</ele><time>2026-04-06T13:56:07.182Z</time></trkpt><trkpt lat="43.6295745" lon="12.6035249"><ele>315.66666666666663</ele><time>2026-04-06T13:56:08.182Z</time></trkpt><trkpt lat="43.6295177" lon="12.6032593"><ele>316.0</ele><time>2026-04-06T13:56:09.175Z</time></trkpt><trkpt lat="43.6294727" lon="12.6030311"><ele>313.0</ele><time>2026-04-06T13:56:10.183Z</time></trkpt><trkpt lat="43.6294494" lon="12.6027892"><ele>310.0</ele><time>2026-04-06T13:56:11.186Z</time></trkpt><trkpt lat="43.6294328" lon="12.6025405"><ele>307.0</ele><time>2026-04-06T13:56:12.183Z</time></trkpt><trkpt lat="43.6294316" lon="12.6023151"><ele>307.0</ele><time>2026-04-06T13:56:13.195Z</time></trkpt><trkpt lat="43.629416" lon="12.6020793"><ele>307.0</ele><time>2026-04-06T13:56:14.182Z</time></trkpt><trkpt lat="43.6294138" lon="12.60185"><ele>307.0</ele><time>2026-04-06T13:56:15.187Z</time></trkpt><trkpt lat="43.6294149" lon="12.6015997"><ele>305.3333333333333</ele><time>2026-04-06T13:56:16.189Z</time></trkpt><trkpt lat="43.6294139" lon="12.6013495"><ele>303.6666666666667</ele><time>2026-04-06T13:56:17.194Z</time></trkpt><trkpt lat="43.6294177" lon="12.6011149"><ele>302.0</ele><time>2026-04-06T13:56:18.198Z</time></trkpt><trkpt lat="43.6294271" lon="12.6008753"><ele>302.0</ele><time>2026-04-06T13:56:19.19Z</time></trkpt><trkpt lat="43.6294178" lon="12.6006266"><ele>302.0</ele><time>2026-04-06T13:56:20.191Z</time></trkpt><trkpt lat="43.6294228" lon="12.6003822"><ele>302.0</ele><time>2026-04-06T13:56:21.191Z</time></trkpt><trkpt lat="43.6294249" lon="12.6001353"><ele>302.0</ele><time>2026-04-06T13:56:22.181Z</time></trkpt><trkpt lat="43.6294328" lon="12.5998762"><ele>302.0</ele><time>2026-04-06T13:56:23.186Z</time></trkpt><trkpt lat="43.629434" lon="12.599629"><ele>302.0</ele><time>2026-04-06T13:56:24.182Z</time></trkpt><trkpt lat="43.6294572" lon="12.5993644"><ele>303.0</ele><time>2026-04-06T13:56:25.181Z</time></trkpt><trkpt lat="43.6294677" lon="12.5991111"><ele>304.0</ele><time>2026-04-06T13:56:26.186Z</time></trkpt><trkpt lat="43.6294966" lon="12.5988436"><ele>305.0</ele><time>2026-04-06T13:56:27.187Z</time></trkpt><trkpt lat="43.6295202" lon="12.5985793"><ele>302.0</ele><time>2026-04-06T13:56:28.192Z</time></trkpt><trkpt lat="43.6295382" lon="12.5983181"><ele>299.0</ele><time>2026-04-06T13:56:29.189Z</time></trkpt><trkpt lat="43.6295506" lon="12.5980789"><ele>296.0</ele><time>2026-04-06T13:56:30.186Z</time></trkpt><trkpt lat="43.6295737" lon="12.5978496"><ele>296.5</ele><time>2026-04-06T13:56:31.187Z</time></trkpt><trkpt lat="43.6295816" lon="12.5976391"><ele>297.0</ele><time>2026-04-06T13:56:32.185Z</time></trkpt><trkpt lat="43.6295989" lon="12.5974261"><ele>297.5</ele><time>2026-04-06T13:56:33.182Z</time></trkpt><trkpt lat="43.629604" lon="12.5972358"><ele>298.0</ele><time>2026-04-06T13:56:34.183Z</time></trkpt><trkpt lat="43.6296117" lon="12.5970608"><ele>298.75</ele><time>2026-04-06T13:56:35.184Z</time></trkpt><trkpt lat="43.6296206" lon="12.5968828"><ele>299.5</ele><time>2026-04-06T13:56:36.18Z</time></trkpt><trkpt lat="43.6296018" lon="12.5967066"><ele>300.25</ele><time>2026-04-06T13:56:37.183Z</time></trkpt><trkpt lat="43.6296095" lon="12.596565"><ele>301.0</ele><time>2026-04-06T13:56:38.169Z</time></trkpt><trkpt lat="43.6295885" lon="12.5964105"><ele>301.0</ele><time>2026-04-06T13:56:39.173Z</time></trkpt><trkpt lat="43.6295946" lon="12.5962364"><ele>301.0</ele><time>2026-04-06T13:56:40.178Z</time></trkpt><trkpt lat="43.6296112" lon="12.5960652"><ele>301.0</ele><time>2026-04-06T13:56:41.179Z</time></trkpt><trkpt lat="43.6296328" lon="12.5958901"><ele>301.0</ele><time>2026-04-06T13:56:42.175Z</time></trkpt><trkpt lat="43.6296484" lon="12.5957163"><ele>300.0</ele><time>2026-04-06T13:56:43.18Z</time></trkpt><trkpt lat="43.629669" lon="12.5955556"><ele>299.0</ele><time>2026-04-06T13:56:44.179Z</time></trkpt><trkpt lat="43.6296959" lon="12.5953887"><ele>298.0</ele><time>2026-04-06T13:56:45.182Z</time></trkpt><trkpt lat="43.629724" lon="12.5952275"><ele>297.0</ele><time>2026-04-06T13:56:46.19Z</time></trkpt><trkpt lat="43.6297524" lon="12.5950734"><ele>296.5</ele><time>2026-04-06T13:56:47.186Z</time></trkpt><trkpt lat="43.6297896" lon="12.5949252"><ele>296.0</ele><time>2026-04-06T13:56:48.195Z</time></trkpt><trkpt lat="43.6298358" lon="12.5947783"><ele>295.5</ele><time>2026-04-06T13:56:49.188Z</time></trkpt><trkpt lat="43.6298789" lon="12.5946211"><ele>295.0</ele><time>2026-04-06T13:56:50.184Z</time></trkpt><trkpt lat="43.6299249" lon="12.5944676"><ele>293.0</ele><time>2026-04-06T13:56:51.19Z</time></trkpt><trkpt lat="43.6299669" lon="12.5943024"><ele>291.0</ele><time>2026-04-06T13:56:52.186Z</time></trkpt><trkpt lat="43.6300098" lon="12.5941307"><ele>289.0</ele><time>2026-04-06T13:56:53.191Z</time></trkpt><trkpt lat="43.6300525" lon="12.5939624"><ele>287.0</ele><time>2026-04-06T13:56:54.188Z</time></trkpt><trkpt lat="43.6300941" lon="12.5937831"><ele>285.25</ele><time>2026-04-06T13:56:55.196Z</time></trkpt><trkpt lat="43.6301368" lon="12.5936012"><ele>283.5</ele><time>2026-04-06T13:56:56.192Z</time></trkpt><trkpt lat="43.6301874" lon="12.593422"><ele>281.75</ele><time>2026-04-06T13:56:57.187Z</time></trkpt><trkpt lat="43.6302498" lon="12.5932494"><ele>280.0</ele><time>2026-04-06T13:56:58.186Z</time></trkpt><trkpt lat="43.630286" lon="12.5930615"><ele>281.3333333333333</ele><time>2026-04-06T13:56:59.182Z</time></trkpt><trkpt lat="43.6303463" lon="12.5928531"><ele>282.6666666666667</ele><time>2026-04-06T13:57:00.185Z</time></trkpt><trkpt lat="43.6304063" lon="12.5926693"><ele>284.0</ele><time>2026-04-06T13:57:01.178Z</time></trkpt><trkpt lat="43.6304551" lon="12.5924664"><ele>284.0</ele><time>2026-04-06T13:57:02.19Z</time></trkpt><trkpt lat="43.630505" lon="12.592263"><ele>284.0</ele><time>2026-04-06T13:57:03.187Z</time></trkpt><trkpt lat="43.6305581" lon="12.592064"><ele>284.0</ele><time>2026-04-06T13:57:04.187Z</time></trkpt><trkpt lat="43.630603" lon="12.5918463"><ele>282.5</ele><time>2026-04-06T13:57:05.188Z</time></trkpt><trkpt lat="43.6306403" lon="12.591633"><ele>281.0</ele><time>2026-04-06T13:57:06.187Z</time></trkpt><trkpt lat="43.630667" lon="12.5911886"><ele>280.0</ele><time>2026-04-06T13:57:08.182Z</time></trkpt><trkpt lat="43.6306667" lon="12.5909652"><ele>279.0</ele><time>2026-04-06T13:57:09.181Z</time></trkpt><trkpt lat="43.6306477" lon="12.5905208"><ele>278.3333333333333</ele><time>2026-04-06T13:57:11.185Z</time></trkpt><trkpt lat="43.6306533" lon="12.5902932"><ele>277.66666666666663</ele><time>2026-04-06T13:57:12.18Z</time></trkpt><trkpt lat="43.6306935" lon="12.5900738"><ele>277.0</ele><time>2026-04-06T13:57:13.177Z</time></trkpt><trkpt lat="43.6307735" lon="12.5898594"><ele>277.0</ele><time>2026-04-06T13:57:14.182Z</time></trkpt><trkpt lat="43.6308661" lon="12.5896577"><ele>277.0</ele><time>2026-04-06T13:57:15.184Z</time></trkpt><trkpt lat="43.6309719" lon="12.58947"><ele>277.0</ele><time>2026-04-06T13:57:16.183Z</time></trkpt><trkpt lat="43.6310761" lon="12.5892965"><ele>277.0</ele><time>2026-04-06T13:57:17.191Z</time></trkpt><trkpt lat="43.6311687" lon="12.5891198"><ele>277.0</ele><time>2026-04-06T13:57:18.199Z</time></trkpt><trkpt lat="43.6312564" lon="12.5889627"><ele>277.0</ele><time>2026-04-06T13:57:19.198Z</time></trkpt><trkpt lat="43.631356" lon="12.58882"><ele>277.0</ele><time>2026-04-06T13:57:20.192Z</time></trkpt><trkpt lat="43.6314508" lon="12.5886685"><ele>275.0</ele><time>2026-04-06T13:57:21.197Z</time></trkpt><trkpt lat="43.6315449" lon="12.5885259"><ele>273.0</ele><time>2026-04-06T13:57:22.194Z</time></trkpt><trkpt lat="43.631659" lon="12.5883494"><ele>271.0</ele><time>2026-04-06T13:57:23.196Z</time></trkpt><trkpt lat="43.6317403" lon="12.5881549"><ele>271.0</ele><time>2026-04-06T13:57:24.195Z</time></trkpt><trkpt lat="43.6318085" lon="12.587934"><ele>271.0</ele><time>2026-04-06T13:57:25.2Z</time></trkpt><trkpt lat="43.6318254" lon="12.5876932"><ele>271.0</ele><time>2026-04-06T13:57:26.198Z</time></trkpt><trkpt lat="43.6317879" lon="12.5874304"><ele>269.66666666666663</ele><time>2026-04-06T13:57:27.195Z</time></trkpt><trkpt lat="43.6317386" lon="12.5871791"><ele>268.3333333333333</ele><time>2026-04-06T13:57:28.194Z</time></trkpt><trkpt lat="43.6316979" lon="12.5869013"><ele>267.0</ele><time>2026-04-06T13:57:29.19Z</time></trkpt><trkpt lat="43.631657" lon="12.5866386"><ele>267.0</ele><time>2026-04-06T13:57:30.191Z</time></trkpt><trkpt lat="43.6316206" lon="12.5863933"><ele>267.0</ele><time>2026-04-06T13:57:31.188Z</time></trkpt><trkpt lat="43.6316171" lon="12.586188"><ele>267.0</ele><time>2026-04-06T13:57:32.196Z</time></trkpt><trkpt lat="43.6316086" lon="12.5860136"><ele>266.0</ele><time>2026-04-06T13:57:33.184Z</time></trkpt><trkpt lat="43.631617" lon="12.5858559"><ele>265.0</ele><time>2026-04-06T13:57:34.19Z</time></trkpt><trkpt lat="43.6316592" lon="12.5856975"><ele>264.0</ele><time>2026-04-06T13:57:35.193Z</time></trkpt><trkpt lat="43.6317048" lon="12.5855649"><ele>263.0</ele><time>2026-04-06T13:57:36.192Z</time></trkpt><trkpt lat="43.6317593" lon="12.5854395"><ele>262.0</ele><time>2026-04-06T13:57:37.185Z</time></trkpt><trkpt lat="43.6318361" lon="12.5853376"><ele>261.75</ele><time>2026-04-06T13:57:38.183Z</time></trkpt><trkpt lat="43.6319245" lon="12.5852443"><ele>261.5</ele><time>2026-04-06T13:57:39.19Z</time></trkpt><trkpt lat="43.6320211" lon="12.5851441"><ele>261.25</ele><time>2026-04-06T13:57:40.184Z</time></trkpt><trkpt lat="43.6321384" lon="12.5850374"><ele>261.0</ele><time>2026-04-06T13:57:41.19Z</time></trkpt><trkpt lat="43.6322647" lon="12.5849315"><ele>261.0</ele><time>2026-04-06T13:57:42.186Z</time></trkpt><trkpt lat="43.6324253" lon="12.584824"><ele>261.0</ele><time>2026-04-06T13:57:43.183Z</time></trkpt><trkpt lat="43.6325863" lon="12.5846856"><ele>261.0</ele><time>2026-04-06T13:57:44.183Z</time></trkpt><trkpt lat="43.6327466" lon="12.5845439"><ele>259.6666666666667</ele><time>2026-04-06T13:57:45.19Z</time></trkpt><trkpt lat="43.6329194" lon="12.5843986"><ele>258.33333333333337</ele><time>2026-04-06T13:57:46.18Z</time></trkpt><trkpt lat="43.6331063" lon="12.5842577"><ele>257.0</ele><time>2026-04-06T13:57:47.185Z</time></trkpt><trkpt lat="43.6332864" lon="12.5841067"><ele>257.0</ele><time>2026-04-06T13:57:48.191Z</time></trkpt><trkpt lat="43.6334701" lon="12.5839496"><ele>257.0</ele><time>2026-04-06T13:57:49.181Z</time></trkpt><trkpt lat="43.6336479" lon="12.5837932"><ele>257.0</ele><time>2026-04-06T13:57:50.183Z</time></trkpt><trkpt lat="43.6338244" lon="12.5836436"><ele>257.0</ele><time>2026-04-06T13:57:51.187Z</time></trkpt><trkpt lat="43.6340051" lon="12.5835126"><ele>257.0</ele><time>2026-04-06T13:57:52.186Z</time></trkpt><trkpt lat="43.6341974" lon="12.5834036"><ele>257.0</ele><time>2026-04-06T13:57:53.194Z</time></trkpt><trkpt lat="43.6344028" lon="12.583316"><ele>255.33333333333334</ele><time>2026-04-06T13:57:54.198Z</time></trkpt><trkpt lat="43.6345986" lon="12.5832267"><ele>253.66666666666669</ele><time>2026-04-06T13:57:55.197Z</time></trkpt><trkpt lat="43.6347989" lon="12.5831371"><ele>252.0</ele><time>2026-04-06T13:57:56.196Z</time></trkpt><trkpt lat="43.6349936" lon="12.5830511"><ele>252.0</ele><time>2026-04-06T13:57:57.191Z</time></trkpt><trkpt lat="43.6351802" lon="12.5829686"><ele>252.0</ele><time>2026-04-06T13:57:58.194Z</time></trkpt><trkpt lat="43.6353787" lon="12.5828792"><ele>252.0</ele><time>2026-04-06T13:57:59.195Z</time></trkpt><trkpt lat="43.6355714" lon="12.5827742"><ele>252.66666666666669</ele><time>2026-04-06T13:58:00.193Z</time></trkpt><trkpt lat="43.635767" lon="12.5826618"><ele>253.33333333333334</ele><time>2026-04-06T13:58:01.192Z</time></trkpt><trkpt lat="43.6359622" lon="12.5825137"><ele>254.0</ele><time>2026-04-06T13:58:02.194Z</time></trkpt><trkpt lat="43.6361487" lon="12.5823574"><ele>254.0</ele><time>2026-04-06T13:58:03.196Z</time></trkpt><trkpt lat="43.6363301" lon="12.5821976"><ele>254.0</ele><time>2026-04-06T13:58:04.191Z</time></trkpt><trkpt lat="43.6365097" lon="12.582038"><ele>254.0</ele><time>2026-04-06T13:58:05.195Z</time></trkpt><trkpt lat="43.6366892" lon="12.5818959"><ele>255.0</ele><time>2026-04-06T13:58:06.19Z</time></trkpt><trkpt lat="43.6368805" lon="12.5817487"><ele>256.0</ele><time>2026-04-06T13:58:07.182Z</time></trkpt><trkpt lat="43.6370832" lon="12.5815935"><ele>256.0</ele><time>2026-04-06T13:58:08.187Z</time></trkpt><trkpt lat="43.6372759" lon="12.5814511"><ele>256.0</ele><time>2026-04-06T13:58:09.19Z</time></trkpt><trkpt lat="43.6374748" lon="12.581303"><ele>256.0</ele><time>2026-04-06T13:58:10.196Z</time></trkpt><trkpt lat="43.6376783" lon="12.5811678"><ele>256.0</ele><time>2026-04-06T13:58:11.187Z</time></trkpt><trkpt lat="43.6378595" lon="12.5810295"><ele>256.0</ele><time>2026-04-06T13:58:12.194Z</time></trkpt><trkpt lat="43.6380575" lon="12.5809144"><ele>256.0</ele><time>2026-04-06T13:58:13.183Z</time></trkpt><trkpt lat="43.638239" lon="12.5807713"><ele>256.0</ele><time>2026-04-06T13:58:14.188Z</time></trkpt><trkpt lat="43.638405" lon="12.5806418"><ele>256.0</ele><time>2026-04-06T13:58:15.192Z</time></trkpt><trkpt lat="43.6385625" lon="12.5804963"><ele>256.0</ele><time>2026-04-06T13:58:16.198Z</time></trkpt><trkpt lat="43.6387025" lon="12.5803018"><ele>254.0</ele><time>2026-04-06T13:58:17.194Z</time></trkpt><trkpt lat="43.6387908" lon="12.5800519"><ele>252.0</ele><time>2026-04-06T13:58:18.198Z</time></trkpt><trkpt lat="43.6388655" lon="12.5797832"><ele>250.0</ele><time>2026-04-06T13:58:19.185Z</time></trkpt><trkpt lat="43.6389056" lon="12.5794905"><ele>250.0</ele><time>2026-04-06T13:58:20.181Z</time></trkpt><trkpt lat="43.6389269" lon="12.5791972"><ele>250.0</ele><time>2026-04-06T13:58:21.183Z</time></trkpt><trkpt lat="43.6389212" lon="12.5789038"><ele>250.0</ele><time>2026-04-06T13:58:22.183Z</time></trkpt><trkpt lat="43.6389287" lon="12.5786074"><ele>250.0</ele><time>2026-04-06T13:58:23.18Z</time></trkpt><trkpt lat="43.6389342" lon="12.5783284"><ele>250.0</ele><time>2026-04-06T13:58:24.19Z</time></trkpt><trkpt lat="43.6389501" lon="12.578052"><ele>250.0</ele><time>2026-04-06T13:58:25.185Z</time></trkpt><trkpt lat="43.6389788" lon="12.5777754"><ele>249.66666666666666</ele><time>2026-04-06T13:58:26.196Z</time></trkpt><trkpt lat="43.6390237" lon="12.577499"><ele>249.33333333333331</ele><time>2026-04-06T13:58:27.191Z</time></trkpt><trkpt lat="43.6390746" lon="12.5772336"><ele>249.0</ele><time>2026-04-06T13:58:28.186Z</time></trkpt><trkpt lat="43.6391453" lon="12.5769736"><ele>249.0</ele><time>2026-04-06T13:58:29.189Z</time></trkpt><trkpt lat="43.6392146" lon="12.5767204"><ele>249.0</ele><time>2026-04-06T13:58:30.193Z</time></trkpt><trkpt lat="43.6392837" lon="12.5764528"><ele>249.0</ele><time>2026-04-06T13:58:31.196Z</time></trkpt><trkpt lat="43.639351" lon="12.5761968"><ele>249.0</ele><time>2026-04-06T13:58:32.202Z</time></trkpt><trkpt lat="43.6394197" lon="12.5759359"><ele>249.0</ele><time>2026-04-06T13:58:33.194Z</time></trkpt><trkpt lat="43.6394899" lon="12.5756771"><ele>249.0</ele><time>2026-04-06T13:58:34.197Z</time></trkpt><trkpt lat="43.6395567" lon="12.5754141"><ele>249.0</ele><time>2026-04-06T13:58:35.197Z</time></trkpt><trkpt lat="43.6396227" lon="12.5751464"><ele>249.0</ele><time>2026-04-06T13:58:36.19Z</time></trkpt><trkpt lat="43.6396817" lon="12.5748714"><ele>249.0</ele><time>2026-04-06T13:58:37.196Z</time></trkpt><trkpt lat="43.6397484" lon="12.5746057"><ele>249.0</ele><time>2026-04-06T13:58:38.193Z</time></trkpt><trkpt lat="43.6398136" lon="12.5743468"><ele>249.0</ele><time>2026-04-06T13:58:39.195Z</time></trkpt><trkpt lat="43.6398881" lon="12.5740929"><ele>249.0</ele><time>2026-04-06T13:58:40.192Z</time></trkpt><trkpt lat="43.6399417" lon="12.573832"><ele>249.66666666666669</ele><time>2026-04-06T13:58:41.199Z</time></trkpt><trkpt lat="43.6400042" lon="12.5735744"><ele>250.33333333333334</ele><time>2026-04-06T13:58:42.199Z</time></trkpt><trkpt lat="43.6400644" lon="12.5733142"><ele>251.0</ele><time>2026-04-06T13:58:43.195Z</time></trkpt><trkpt lat="43.6401289" lon="12.5730744"><ele>251.33333333333334</ele><time>2026-04-06T13:58:44.195Z</time></trkpt><trkpt lat="43.6402094" lon="12.5728462"><ele>251.66666666666669</ele><time>2026-04-06T13:58:45.201Z</time></trkpt><trkpt lat="43.640278" lon="12.5725967"><ele>252.0</ele><time>2026-04-06T13:58:46.188Z</time></trkpt><trkpt lat="43.6403405" lon="12.5723523"><ele>251.33333333333331</ele><time>2026-04-06T13:58:47.187Z</time></trkpt><trkpt lat="43.640412" lon="12.5721199"><ele>250.66666666666666</ele><time>2026-04-06T13:58:48.192Z</time></trkpt><trkpt lat="43.6404863" lon="12.5718806"><ele>250.0</ele><time>2026-04-06T13:58:49.19Z</time></trkpt><trkpt lat="43.6405643" lon="12.5716677"><ele>250.0</ele><time>2026-04-06T13:58:50.179Z</time></trkpt><trkpt lat="43.6406466" lon="12.5714482"><ele>250.0</ele><time>2026-04-06T13:58:51.185Z</time></trkpt><trkpt lat="43.6407221" lon="12.5712391"><ele>250.0</ele><time>2026-04-06T13:58:52.184Z</time></trkpt><trkpt lat="43.6407972" lon="12.5710288"><ele>251.0</ele><time>2026-04-06T13:58:53.181Z</time></trkpt><trkpt lat="43.6408754" lon="12.5708256"><ele>252.0</ele><time>2026-04-06T13:58:54.185Z</time></trkpt><trkpt lat="43.6409509" lon="12.5706331"><ele>253.0</ele><time>2026-04-06T13:58:55.188Z</time></trkpt><trkpt lat="43.6410063" lon="12.5704446"><ele>252.8</ele><time>2026-04-06T13:58:56.192Z</time></trkpt><trkpt lat="43.6410666" lon="12.5702754"><ele>252.60000000000002</ele><time>2026-04-06T13:58:57.19Z</time></trkpt><trkpt lat="43.6411165" lon="12.5701346"><ele>252.39999999999998</ele><time>2026-04-06T13:58:58.185Z</time></trkpt><trkpt lat="43.6411521" lon="12.5700224"><ele>252.2</ele><time>2026-04-06T13:58:59.185Z</time></trkpt><trkpt lat="43.6411561" lon="12.5699193"><ele>252.0</ele><time>2026-04-06T13:59:00.187Z</time></trkpt><trkpt lat="43.6410603" lon="12.5697788"><ele>252.75</ele><time>2026-04-06T13:59:02.181Z</time></trkpt><trkpt lat="43.6409716" lon="12.5697191"><ele>253.5</ele><time>2026-04-06T13:59:03.18Z</time></trkpt><trkpt lat="43.6408564" lon="12.5696714"><ele>254.25</ele><time>2026-04-06T13:59:04.18Z</time></trkpt><trkpt lat="43.6407213" lon="12.5696185"><ele>255.0</ele><time>2026-04-06T13:59:05.18Z</time></trkpt><trkpt lat="43.6405692" lon="12.5695584"><ele>254.66666666666669</ele><time>2026-04-06T13:59:06.181Z</time></trkpt><trkpt lat="43.6403822" lon="12.5694894"><ele>254.33333333333334</ele><time>2026-04-06T13:59:07.187Z</time></trkpt><trkpt lat="43.6402033" lon="12.5694019"><ele>254.0</ele><time>2026-04-06T13:59:08.187Z</time></trkpt><trkpt lat="43.640003" lon="12.5693101"><ele>255.0</ele><time>2026-04-06T13:59:09.188Z</time></trkpt><trkpt lat="43.6398283" lon="12.5692281"><ele>256.0</ele><time>2026-04-06T13:59:10.187Z</time></trkpt><trkpt lat="43.639656" lon="12.5691637"><ele>257.0</ele><time>2026-04-06T13:59:11.188Z</time></trkpt><trkpt lat="43.6395031" lon="12.5690904"><ele>258.5</ele><time>2026-04-06T13:59:12.187Z</time></trkpt><trkpt lat="43.6393743" lon="12.5690281"><ele>260.0</ele><time>2026-04-06T13:59:13.187Z</time></trkpt><trkpt lat="43.639253" lon="12.5689519"><ele>261.5</ele><time>2026-04-06T13:59:14.186Z</time></trkpt><trkpt lat="43.639137" lon="12.5688851"><ele>263.0</ele><time>2026-04-06T13:59:15.187Z</time></trkpt><trkpt lat="43.639029" lon="12.5687884"><ele>262.6666666666667</ele><time>2026-04-06T13:59:16.18Z</time></trkpt><trkpt lat="43.6389076" lon="12.5686424"><ele>262.3333333333333</ele><time>2026-04-06T13:59:17.182Z</time></trkpt><trkpt lat="43.6387982" lon="12.5684659"><ele>262.0</ele><time>2026-04-06T13:59:18.186Z</time></trkpt><trkpt lat="43.6386787" lon="12.5683106"><ele>264.0</ele><time>2026-04-06T13:59:19.18Z</time></trkpt><trkpt lat="43.6385336" lon="12.5681856"><ele>266.0</ele><time>2026-04-06T13:59:20.183Z</time></trkpt><trkpt lat="43.6383657" lon="12.5681036"><ele>268.0</ele><time>2026-04-06T13:59:21.188Z</time></trkpt><trkpt lat="43.6381842" lon="12.5680389"><ele>268.0</ele><time>2026-04-06T13:59:22.179Z</time></trkpt><trkpt lat="43.6379749" lon="12.5680178"><ele>268.0</ele><time>2026-04-06T13:59:23.18Z</time></trkpt><trkpt lat="43.6377802" lon="12.5680407"><ele>268.0</ele><time>2026-04-06T13:59:24.187Z</time></trkpt><trkpt lat="43.6376014" lon="12.5680856"><ele>268.5</ele><time>2026-04-06T13:59:25.192Z</time></trkpt><trkpt lat="43.6374523" lon="12.5681567"><ele>269.0</ele><time>2026-04-06T13:59:26.184Z</time></trkpt><trkpt lat="43.6373099" lon="12.5681898"><ele>269.5</ele><time>2026-04-06T13:59:27.185Z</time></trkpt><trkpt lat="43.6371891" lon="12.568165"><ele>270.0</ele><time>2026-04-06T13:59:28.187Z</time></trkpt><trkpt lat="43.6371143" lon="12.5680922"><ele>270.0</ele><time>2026-04-06T13:59:29.191Z</time></trkpt><trkpt lat="43.6370669" lon="12.5679519"><ele>270.0</ele><time>2026-04-06T13:59:30.182Z</time></trkpt><trkpt lat="43.6369993" lon="12.5677954"><ele>270.0</ele><time>2026-04-06T13:59:31.18Z</time></trkpt><trkpt lat="43.6369355" lon="12.5676243"><ele>270.0</ele><time>2026-04-06T13:59:32.188Z</time></trkpt><trkpt lat="43.6368728" lon="12.5674353"><ele>272.6</ele><time>2026-04-06T13:59:33.189Z</time></trkpt><trkpt lat="43.6368103" lon="12.5672563"><ele>275.2</ele><time>2026-04-06T13:59:34.185Z</time></trkpt><trkpt lat="43.6367547" lon="12.5671115"><ele>277.8</ele><time>2026-04-06T13:59:35.175Z</time></trkpt><trkpt lat="43.6367253" lon="12.5670185"><ele>280.4</ele><time>2026-04-06T13:59:36.18Z</time></trkpt><trkpt lat="43.6366835" lon="12.5669365"><ele>283.0</ele><time>2026-04-06T13:59:39.197Z</time></trkpt><trkpt lat="43.6366217" lon="12.5668226"><ele>283.75</ele><time>2026-04-06T13:59:42.208Z</time></trkpt><trkpt lat="43.636598" lon="12.5667078"><ele>284.5</ele><time>2026-04-06T13:59:43.183Z</time></trkpt><trkpt lat="43.6365838" lon="12.5665649"><ele>285.25</ele><time>2026-04-06T13:59:44.18Z</time></trkpt><trkpt lat="43.6365739" lon="12.5663939"><ele>286.0</ele><time>2026-04-06T13:59:45.181Z</time></trkpt><trkpt lat="43.6365685" lon="12.5661856"><ele>284.0</ele><time>2026-04-06T13:59:46.175Z</time></trkpt><trkpt lat="43.6365718" lon="12.5659339"><ele>282.0</ele><time>2026-04-06T13:59:47.18Z</time></trkpt><trkpt lat="43.6365747" lon="12.5656779"><ele>280.0</ele><time>2026-04-06T13:59:48.183Z</time></trkpt><trkpt lat="43.6365748" lon="12.565448"><ele>280.0</ele><time>2026-04-06T13:59:49.178Z</time></trkpt><trkpt lat="43.6365689" lon="12.5652454"><ele>280.0</ele><time>2026-04-06T13:59:50.181Z</time></trkpt><trkpt lat="43.6365431" lon="12.5650499"><ele>280.0</ele><time>2026-04-06T13:59:51.179Z</time></trkpt><trkpt lat="43.6365145" lon="12.5648787"><ele>280.0</ele><time>2026-04-06T13:59:52.183Z</time></trkpt><trkpt lat="43.6364821" lon="12.5647049"><ele>280.0</ele><time>2026-04-06T13:59:53.175Z</time></trkpt><trkpt lat="43.6364114" lon="12.5645399"><ele>280.0</ele><time>2026-04-06T13:59:54.176Z</time></trkpt><trkpt lat="43.6363309" lon="12.5643844"><ele>280.0</ele><time>2026-04-06T13:59:55.178Z</time></trkpt><trkpt lat="43.6362008" lon="12.5642654"><ele>280.0</ele><time>2026-04-06T13:59:56.179Z</time></trkpt><trkpt lat="43.6360811" lon="12.5641574"><ele>280.75</ele><time>2026-04-06T13:59:57.172Z</time></trkpt><trkpt lat="43.6359745" lon="12.5640481"><ele>281.5</ele><time>2026-04-06T13:59:58.18Z</time></trkpt><trkpt lat="43.6358713" lon="12.5639398"><ele>282.25</ele><time>2026-04-06T13:59:59.179Z</time></trkpt><trkpt lat="43.6357992" lon="12.5638233"><ele>283.0</ele><time>2026-04-06T14:00:00.183Z</time></trkpt><trkpt lat="43.6357343" lon="12.5637228"><ele>283.6</ele><time>2026-04-06T14:00:01.18Z</time></trkpt><trkpt lat="43.6356911" lon="12.5636128"><ele>284.20000000000005</ele><time>2026-04-06T14:00:02.18Z</time></trkpt><trkpt lat="43.6356925" lon="12.5634967"><ele>284.8</ele><time>2026-04-06T14:00:03.168Z</time></trkpt><trkpt lat="43.6357612" lon="12.5633232"><ele>285.40000000000003</ele><time>2026-04-06T14:00:05.17Z</time></trkpt><trkpt lat="43.6358519" lon="12.5632814"><ele>286.0</ele><time>2026-04-06T14:00:06.158Z</time></trkpt><trkpt lat="43.6359506" lon="12.5632914"><ele>286.0</ele><time>2026-04-06T14:00:07.162Z</time></trkpt><trkpt lat="43.6360632" lon="12.563322"><ele>286.0</ele><time>2026-04-06T14:00:08.172Z</time></trkpt><trkpt lat="43.6361814" lon="12.5633624"><ele>286.0</ele><time>2026-04-06T14:00:09.167Z</time></trkpt><trkpt lat="43.6362833" lon="12.563404"><ele>286.0</ele><time>2026-04-06T14:00:10.167Z</time></trkpt><trkpt lat="43.6363742" lon="12.5634191"><ele>286.0</ele><time>2026-04-06T14:00:11.175Z</time></trkpt><trkpt lat="43.636432" lon="12.5633817"><ele>286.0</ele><time>2026-04-06T14:00:12.167Z</time></trkpt><trkpt lat="43.6364324" lon="12.5632411"><ele>286.0</ele><time>2026-04-06T14:00:14.159Z</time></trkpt><trkpt lat="43.6362892" lon="12.5631894"><ele>286.0</ele><time>2026-04-06T14:00:16.164Z</time></trkpt><trkpt lat="43.6361928" lon="12.5631476"><ele>286.0</ele><time>2026-04-06T14:00:17.167Z</time></trkpt><trkpt lat="43.6361008" lon="12.5630702"><ele>286.0</ele><time>2026-04-06T14:00:18.167Z</time></trkpt><trkpt lat="43.6360282" lon="12.5629505"><ele>286.0</ele><time>2026-04-06T14:00:19.167Z</time></trkpt><trkpt lat="43.6359582" lon="12.5628156"><ele>286.0</ele><time>2026-04-06T14:00:20.167Z</time></trkpt><trkpt lat="43.6358842" lon="12.5626543"><ele>286.0</ele><time>2026-04-06T14:00:21.169Z</time></trkpt><trkpt lat="43.635796" lon="12.5624919"><ele>291.3333333333333</ele><time>2026-04-06T14:00:22.166Z</time></trkpt><trkpt lat="43.635697" lon="12.5622782"><ele>296.6666666666667</ele><time>2026-04-06T14:00:23.174Z</time></trkpt><trkpt lat="43.6355963" lon="12.5620389"><ele>302.0</ele><time>2026-04-06T14:00:24.176Z</time></trkpt><trkpt lat="43.6354997" lon="12.5617965"><ele>300.6666666666667</ele><time>2026-04-06T14:00:25.182Z</time></trkpt><trkpt lat="43.6353791" lon="12.561536"><ele>299.3333333333333</ele><time>2026-04-06T14:00:26.166Z</time></trkpt><trkpt lat="43.6352617" lon="12.5612807"><ele>298.0</ele><time>2026-04-06T14:00:27.17Z</time></trkpt><trkpt lat="43.6351652" lon="12.5610537"><ele>303.66666666666663</ele><time>2026-04-06T14:00:28.178Z</time></trkpt><trkpt lat="43.6350574" lon="12.560825"><ele>309.3333333333333</ele><time>2026-04-06T14:00:29.174Z</time></trkpt><trkpt lat="43.6349306" lon="12.5606249"><ele>315.0</ele><time>2026-04-06T14:00:30.175Z</time></trkpt><trkpt lat="43.6348089" lon="12.5604389"><ele>316.6666666666667</ele><time>2026-04-06T14:00:31.179Z</time></trkpt><trkpt lat="43.6346799" lon="12.5602602"><ele>318.33333333333337</ele><time>2026-04-06T14:00:32.184Z</time></trkpt><trkpt lat="43.6345431" lon="12.5600976"><ele>320.0</ele><time>2026-04-06T14:00:33.179Z</time></trkpt><trkpt lat="43.6344211" lon="12.5599461"><ele>320.0</ele><time>2026-04-06T14:00:34.187Z</time></trkpt><trkpt lat="43.6343115" lon="12.5598317"><ele>320.0</ele><time>2026-04-06T14:00:35.184Z</time></trkpt><trkpt lat="43.6342355" lon="12.5597472"><ele>320.0</ele><time>2026-04-06T14:00:36.18Z</time></trkpt><trkpt lat="43.634158" lon="12.5596319"><ele>320.0</ele><time>2026-04-06T14:00:38.177Z</time></trkpt><trkpt lat="43.6341907" lon="12.5595221"><ele>320.0</ele><time>2026-04-06T14:00:40.216Z</time></trkpt><trkpt lat="43.6342977" lon="12.5594421"><ele>322.0</ele><time>2026-04-06T14:00:42.197Z</time></trkpt><trkpt lat="43.634356" lon="12.5593808"><ele>324.0</ele><time>2026-04-06T14:00:43.191Z</time></trkpt><trkpt lat="43.6343899" lon="12.5592786"><ele>326.0</ele><time>2026-04-06T14:00:44.188Z</time></trkpt><trkpt lat="43.6344065" lon="12.5591704"><ele>328.0</ele><time>2026-04-06T14:00:45.187Z</time></trkpt><trkpt lat="43.6344105" lon="12.5590511"><ele>330.0</ele><time>2026-04-06T14:00:47.194Z</time></trkpt><trkpt lat="43.6343135" lon="12.5590217"><ele>332.0</ele><time>2026-04-06T14:00:50.209Z</time></trkpt><trkpt lat="43.6342425" lon="12.5590241"><ele>332.0</ele><time>2026-04-06T14:00:51.181Z</time></trkpt><trkpt lat="43.6341452" lon="12.5590191"><ele>332.0</ele><time>2026-04-06T14:00:52.191Z</time></trkpt><trkpt lat="43.6340352" lon="12.5589888"><ele>332.0</ele><time>2026-04-06T14:00:53.181Z</time></trkpt><trkpt lat="43.6339149" lon="12.5589435"><ele>332.0</ele><time>2026-04-06T14:00:54.194Z</time></trkpt><trkpt lat="43.6337773" lon="12.5588874"><ele>332.5</ele><time>2026-04-06T14:00:55.188Z</time></trkpt><trkpt lat="43.6336299" lon="12.5588301"><ele>333.0</ele><time>2026-04-06T14:00:56.195Z</time></trkpt><trkpt lat="43.6334803" lon="12.5587627"><ele>333.5</ele><time>2026-04-06T14:00:57.191Z</time></trkpt><trkpt lat="43.6333568" lon="12.5587354"><ele>334.0</ele><time>2026-04-06T14:00:58.186Z</time></trkpt><trkpt lat="43.6332234" lon="12.5587308"><ele>334.0</ele><time>2026-04-06T14:00:59.193Z</time></trkpt><trkpt lat="43.6330825" lon="12.5587756"><ele>334.0</ele><time>2026-04-06T14:01:00.19Z</time></trkpt><trkpt lat="43.6329492" lon="12.5588548"><ele>334.0</ele><time>2026-04-06T14:01:01.186Z</time></trkpt><trkpt lat="43.6328289" lon="12.5589921"><ele>334.0</ele><time>2026-04-06T14:01:02.184Z</time></trkpt><trkpt lat="43.6327081" lon="12.5591427"><ele>337.25</ele><time>2026-04-06T14:01:03.187Z</time></trkpt><trkpt lat="43.6325966" lon="12.5592755"><ele>340.5</ele><time>2026-04-06T14:01:04.182Z</time></trkpt><trkpt lat="43.6324874" lon="12.5593792"><ele>343.75</ele><time>2026-04-06T14:01:05.178Z</time></trkpt><trkpt lat="43.6323515" lon="12.5594522"><ele>347.0</ele><time>2026-04-06T14:01:06.178Z</time></trkpt><trkpt lat="43.6322269" lon="12.5594999"><ele>343.33333333333337</ele><time>2026-04-06T14:01:07.18Z</time></trkpt><trkpt lat="43.6320938" lon="12.5595363"><ele>339.6666666666667</ele><time>2026-04-06T14:01:08.16Z</time></trkpt><trkpt lat="43.6319205" lon="12.5595679"><ele>336.0</ele><time>2026-04-06T14:01:09.168Z</time></trkpt><trkpt lat="43.6317337" lon="12.5595965"><ele>336.0</ele><time>2026-04-06T14:01:10.178Z</time></trkpt><trkpt lat="43.6315642" lon="12.559627"><ele>336.0</ele><time>2026-04-06T14:01:11.171Z</time></trkpt><trkpt lat="43.6314231" lon="12.5596492"><ele>336.0</ele><time>2026-04-06T14:01:12.168Z</time></trkpt><trkpt lat="43.6313002" lon="12.5596903"><ele>336.0</ele><time>2026-04-06T14:01:13.168Z</time></trkpt><trkpt lat="43.6311836" lon="12.5596956"><ele>336.0</ele><time>2026-04-06T14:01:14.168Z</time></trkpt><trkpt lat="43.6311034" lon="12.5596881"><ele>336.0</ele><time>2026-04-06T14:01:15.17Z</time></trkpt><trkpt lat="43.6310288" lon="12.5596639"><ele>336.0</ele><time>2026-04-06T14:01:16.17Z</time></trkpt><trkpt lat="43.6309579" lon="12.5595959"><ele>336.0</ele><time>2026-04-06T14:01:17.169Z</time></trkpt><trkpt lat="43.6308777" lon="12.5594956"><ele>336.0</ele><time>2026-04-06T14:01:18.165Z</time></trkpt><trkpt lat="43.630813" lon="12.5593425"><ele>340.75</ele><time>2026-04-06T14:01:19.166Z</time></trkpt><trkpt lat="43.6307689" lon="12.5591345"><ele>345.5</ele><time>2026-04-06T14:01:20.179Z</time></trkpt><trkpt lat="43.6307578" lon="12.5589504"><ele>350.25</ele><time>2026-04-06T14:01:21.171Z</time></trkpt><trkpt lat="43.6306671" lon="12.5588278"><ele>355.0</ele><time>2026-04-06T14:01:22.166Z</time></trkpt><trkpt lat="43.6305775" lon="12.5587253"><ele>354.0</ele><time>2026-04-06T14:01:23.164Z</time></trkpt><trkpt lat="43.6304271" lon="12.5585617"><ele>353.0</ele><time>2026-04-06T14:01:24.178Z</time></trkpt><trkpt lat="43.6302448" lon="12.5583511"><ele>352.0</ele><time>2026-04-06T14:01:25.171Z</time></trkpt><trkpt lat="43.6300927" lon="12.5581637"><ele>352.0</ele><time>2026-04-06T14:01:26.173Z</time></trkpt><trkpt lat="43.629939" lon="12.5580042"><ele>352.0</ele><time>2026-04-06T14:01:27.163Z</time></trkpt><trkpt lat="43.6298021" lon="12.5578623"><ele>352.0</ele><time>2026-04-06T14:01:28.171Z</time></trkpt><trkpt lat="43.6296788" lon="12.5576934"><ele>353.75</ele><time>2026-04-06T14:01:29.167Z</time></trkpt><trkpt lat="43.6295819" lon="12.5575633"><ele>355.5</ele><time>2026-04-06T14:01:30.168Z</time></trkpt><trkpt lat="43.6294658" lon="12.5574523"><ele>357.25</ele><time>2026-04-06T14:01:31.172Z</time></trkpt><trkpt lat="43.6293505" lon="12.557382"><ele>359.0</ele><time>2026-04-06T14:01:32.173Z</time></trkpt><trkpt lat="43.6292334" lon="12.5573171"><ele>359.0</ele><time>2026-04-06T14:01:33.173Z</time></trkpt><trkpt lat="43.6291121" lon="12.5572739"><ele>359.0</ele><time>2026-04-06T14:01:34.173Z</time></trkpt><trkpt lat="43.6290318" lon="12.5572005"><ele>359.0</ele><time>2026-04-06T14:01:35.178Z</time></trkpt><trkpt lat="43.62899" lon="12.5570988"><ele>359.0</ele><time>2026-04-06T14:01:36.171Z</time></trkpt><trkpt lat="43.6289836" lon="12.5569634"><ele>359.0</ele><time>2026-04-06T14:01:37.174Z</time></trkpt><trkpt lat="43.6289954" lon="12.5568201"><ele>361.5</ele><time>2026-04-06T14:01:38.175Z</time></trkpt><trkpt lat="43.6290176" lon="12.5566553"><ele>364.0</ele><time>2026-04-06T14:01:39.179Z</time></trkpt><trkpt lat="43.6290503" lon="12.5564738"><ele>366.5</ele><time>2026-04-06T14:01:40.174Z</time></trkpt><trkpt lat="43.6290911" lon="12.5563003"><ele>369.0</ele><time>2026-04-06T14:01:41.176Z</time></trkpt><trkpt lat="43.6291381" lon="12.5561595"><ele>369.8333333333333</ele><time>2026-04-06T14:01:42.18Z</time></trkpt><trkpt lat="43.6291773" lon="12.5560391"><ele>370.6666666666667</ele><time>2026-04-06T14:01:43.174Z</time></trkpt><trkpt lat="43.6291915" lon="12.5559348"><ele>371.5</ele><time>2026-04-06T14:01:44.169Z</time></trkpt><trkpt lat="43.6291861" lon="12.5558397"><ele>372.33333333333337</ele><time>2026-04-06T14:01:45.175Z</time></trkpt><trkpt lat="43.6291532" lon="12.5557404"><ele>373.1666666666667</ele><time>2026-04-06T14:01:46.171Z</time></trkpt><trkpt lat="43.6290873" lon="12.5556624"><ele>374.0</ele><time>2026-04-06T14:01:47.172Z</time></trkpt><trkpt lat="43.6289851" lon="12.5555988"><ele>374.0</ele><time>2026-04-06T14:01:48.178Z</time></trkpt><trkpt lat="43.628863" lon="12.5555544"><ele>374.0</ele><time>2026-04-06T14:01:49.17Z</time></trkpt><trkpt lat="43.628712" lon="12.5555336"><ele>374.0</ele><time>2026-04-06T14:01:50.18Z</time></trkpt><trkpt lat="43.6285208" lon="12.5555485"><ele>374.6666666666667</ele><time>2026-04-06T14:01:51.168Z</time></trkpt><trkpt lat="43.6282887" lon="12.5555994"><ele>375.3333333333333</ele><time>2026-04-06T14:01:52.167Z</time></trkpt><trkpt lat="43.6280977" lon="12.5556727"><ele>376.0</ele><time>2026-04-06T14:01:53.17Z</time></trkpt><trkpt lat="43.627945" lon="12.5557593"><ele>377.25</ele><time>2026-04-06T14:01:54.167Z</time></trkpt><trkpt lat="43.6277996" lon="12.5558316"><ele>378.5</ele><time>2026-04-06T14:01:55.171Z</time></trkpt><trkpt lat="43.6276677" lon="12.5558792"><ele>379.75</ele><time>2026-04-06T14:01:56.174Z</time></trkpt><trkpt lat="43.6275477" lon="12.5559295"><ele>381.0</ele><time>2026-04-06T14:01:57.18Z</time></trkpt><trkpt lat="43.6274354" lon="12.5559671"><ele>381.0</ele><time>2026-04-06T14:01:58.176Z</time></trkpt><trkpt lat="43.6273077" lon="12.5559584"><ele>381.0</ele><time>2026-04-06T14:01:59.178Z</time></trkpt><trkpt lat="43.6271716" lon="12.5559041"><ele>381.0</ele><time>2026-04-06T14:02:00.176Z</time></trkpt><trkpt lat="43.6270249" lon="12.5558624"><ele>381.0</ele><time>2026-04-06T14:02:01.169Z</time></trkpt><trkpt lat="43.6268368" lon="12.5558632"><ele>385.0</ele><time>2026-04-06T14:02:02.176Z</time></trkpt><trkpt lat="43.6266473" lon="12.5559167"><ele>389.0</ele><time>2026-04-06T14:02:03.172Z</time></trkpt><trkpt lat="43.6264896" lon="12.5559922"><ele>393.0</ele><time>2026-04-06T14:02:04.176Z</time></trkpt><trkpt lat="43.6263629" lon="12.5560316"><ele>393.0</ele><time>2026-04-06T14:02:05.172Z</time></trkpt><trkpt lat="43.6262403" lon="12.5560849"><ele>393.0</ele><time>2026-04-06T14:02:06.172Z</time></trkpt><trkpt lat="43.6261251" lon="12.556195"><ele>393.0</ele><time>2026-04-06T14:02:07.172Z</time></trkpt><trkpt lat="43.6260153" lon="12.5563688"><ele>393.0</ele><time>2026-04-06T14:02:08.172Z</time></trkpt><trkpt lat="43.6258995" lon="12.5565894"><ele>393.75</ele><time>2026-04-06T14:02:09.17Z</time></trkpt><trkpt lat="43.625825" lon="12.5567463"><ele>394.5</ele><time>2026-04-06T14:02:10.169Z</time></trkpt><trkpt lat="43.6257637" lon="12.5568902"><ele>395.25</ele><time>2026-04-06T14:02:11.178Z</time></trkpt><trkpt lat="43.6256847" lon="12.5570193"><ele>396.0</ele><time>2026-04-06T14:02:12.177Z</time></trkpt><trkpt lat="43.6255719" lon="12.5571207"><ele>396.0</ele><time>2026-04-06T14:02:13.193Z</time></trkpt><trkpt lat="43.6254684" lon="12.5571816"><ele>396.0</ele><time>2026-04-06T14:02:14.183Z</time></trkpt><trkpt lat="43.6253391" lon="12.5572282"><ele>396.0</ele><time>2026-04-06T14:02:15.182Z</time></trkpt><trkpt lat="43.6251899" lon="12.5572446"><ele>396.0</ele><time>2026-04-06T14:02:16.18Z</time></trkpt><trkpt lat="43.6250611" lon="12.5573017"><ele>401.33333333333337</ele><time>2026-04-06T14:02:17.182Z</time></trkpt><trkpt lat="43.6249323" lon="12.5574112"><ele>406.6666666666667</ele><time>2026-04-06T14:02:18.179Z</time></trkpt><trkpt lat="43.624781" lon="12.55757"><ele>412.0</ele><time>2026-04-06T14:02:19.177Z</time></trkpt><trkpt lat="43.6246013" lon="12.5577414"><ele>415.33333333333337</ele><time>2026-04-06T14:02:20.177Z</time></trkpt><trkpt lat="43.6244265" lon="12.5578992"><ele>418.66666666666663</ele><time>2026-04-06T14:02:21.179Z</time></trkpt><trkpt lat="43.624254" lon="12.558045"><ele>422.0</ele><time>2026-04-06T14:02:22.182Z</time></trkpt><trkpt lat="43.6240987" lon="12.5581863"><ele>422.0</ele><time>2026-04-06T14:02:23.183Z</time></trkpt><trkpt lat="43.6239547" lon="12.5583149"><ele>422.0</ele><time>2026-04-06T14:02:24.178Z</time></trkpt><trkpt lat="43.6238201" lon="12.5584281"><ele>422.0</ele><time>2026-04-06T14:02:25.181Z</time></trkpt><trkpt lat="43.6235992" lon="12.5586005"><ele>422.0</ele><time>2026-04-06T14:02:27.193Z</time></trkpt><trkpt lat="43.6235083" lon="12.5586438"><ele>422.0</ele><time>2026-04-06T14:02:28.193Z</time></trkpt><trkpt lat="43.6234471" lon="12.5586708"><ele>422.0</ele><time>2026-04-06T14:02:29.184Z</time></trkpt><trkpt lat="43.6233559" lon="12.5587513"><ele>422.0</ele><time>2026-04-06T14:02:31.195Z</time></trkpt><trkpt lat="43.6233049" lon="12.5588561"><ele>422.0</ele><time>2026-04-06T14:02:32.2Z</time></trkpt><trkpt lat="43.623262" lon="12.5589916"><ele>423.3333333333333</ele><time>2026-04-06T14:02:33.184Z</time></trkpt><trkpt lat="43.6232225" lon="12.559115"><ele>424.66666666666663</ele><time>2026-04-06T14:02:34.188Z</time></trkpt><trkpt lat="43.6232092" lon="12.5592482"><ele>426.0</ele><time>2026-04-06T14:02:36.18Z</time></trkpt><trkpt lat="43.623211" lon="12.5593395"><ele>427.33333333333337</ele><time>2026-04-06T14:02:43.227Z</time></trkpt><trkpt lat="43.6232289" lon="12.5594245"><ele>428.6666666666667</ele><time>2026-04-06T14:02:44.213Z</time></trkpt><trkpt lat="43.6232567" lon="12.5595402"><ele>430.0</ele><time>2026-04-06T14:02:45.197Z</time></trkpt><trkpt lat="43.6232899" lon="12.5596774"><ele>431.1666666666667</ele><time>2026-04-06T14:02:46.185Z</time></trkpt><trkpt lat="43.6233405" lon="12.5598022"><ele>432.33333333333337</ele><time>2026-04-06T14:02:47.2Z</time></trkpt><trkpt lat="43.6233914" lon="12.5598667"><ele>433.5</ele><time>2026-04-06T14:02:48.2Z</time></trkpt><trkpt lat="43.6234438" lon="12.5599695"><ele>434.66666666666663</ele><time>2026-04-06T14:02:51.207Z</time></trkpt><trkpt lat="43.6234214" lon="12.5601306"><ele>435.8333333333333</ele><time>2026-04-06T14:02:53.185Z</time></trkpt><trkpt lat="43.6234126" lon="12.5602209"><ele>437.0</ele><time>2026-04-06T14:02:54.19Z</time></trkpt><trkpt lat="43.6234042" lon="12.5603171"><ele>440.20000000000005</ele><time>2026-04-06T14:02:55.182Z</time></trkpt><trkpt lat="43.6233897" lon="12.5604271"><ele>443.40000000000003</ele><time>2026-04-06T14:02:56.175Z</time></trkpt><trkpt lat="43.6233562" lon="12.5605344"><ele>446.59999999999997</ele><time>2026-04-06T14:02:57.183Z</time></trkpt><trkpt lat="43.6232996" lon="12.5606466"><ele>449.79999999999995</ele><time>2026-04-06T14:02:58.178Z</time></trkpt><trkpt lat="43.6232359" lon="12.5607677"><ele>453.0</ele><time>2026-04-06T14:02:59.185Z</time></trkpt><trkpt lat="43.6231765" lon="12.560863"><ele>453.0</ele><time>2026-04-06T14:03:00.179Z</time></trkpt><trkpt lat="43.623112" lon="12.5609467"><ele>452.99999999999994</ele><time>2026-04-06T14:03:01.173Z</time></trkpt><trkpt lat="43.6230351" lon="12.5610121"><ele>452.99999999999994</ele><time>2026-04-06T14:03:02.179Z</time></trkpt><trkpt lat="43.6229365" lon="12.5610521"><ele>453.0</ele><time>2026-04-06T14:03:03.167Z</time></trkpt><trkpt lat="43.6228114" lon="12.5610903"><ele>453.0</ele><time>2026-04-06T14:03:04.173Z</time></trkpt><trkpt lat="43.6226705" lon="12.5611579"><ele>452.66666666666663</ele><time>2026-04-06T14:03:05.176Z</time></trkpt><trkpt lat="43.6225099" lon="12.5612375"><ele>452.3333333333333</ele><time>2026-04-06T14:03:06.166Z</time></trkpt><trkpt lat="43.6223558" lon="12.5613319"><ele>452.0</ele><time>2026-04-06T14:03:07.167Z</time></trkpt><trkpt lat="43.6222183" lon="12.5614239"><ele>451.99999999999994</ele><time>2026-04-06T14:03:08.17Z</time></trkpt><trkpt lat="43.6221284" lon="12.5615024"><ele>452.0</ele><time>2026-04-06T14:03:09.176Z</time></trkpt><trkpt lat="43.6220595" lon="12.5615773"><ele>452.0</ele><time>2026-04-06T14:03:10.175Z</time></trkpt><trkpt lat="43.6220037" lon="12.5616552"><ele>452.0</ele><time>2026-04-06T14:03:11.179Z</time></trkpt><trkpt lat="43.6219575" lon="12.5617249"><ele>451.99999999999994</ele><time>2026-04-06T14:03:12.179Z</time></trkpt><trkpt lat="43.6219151" lon="12.5617964"><ele>452.0</ele><time>2026-04-06T14:03:13.18Z</time></trkpt><trkpt lat="43.6218802" lon="12.5618801"><ele>446.8</ele><time>2026-04-06T14:03:14.183Z</time></trkpt><trkpt lat="43.6218523" lon="12.561974"><ele>441.6</ele><time>2026-04-06T14:03:15.172Z</time></trkpt><trkpt lat="43.6218471" lon="12.5620993"><ele>436.40000000000003</ele><time>2026-04-06T14:03:16.186Z</time></trkpt><trkpt lat="43.6218568" lon="12.5622613"><ele>431.20000000000005</ele><time>2026-04-06T14:03:17.181Z</time></trkpt><trkpt lat="43.6218697" lon="12.5624403"><ele>426.0</ele><time>2026-04-06T14:03:18.18Z</time></trkpt><trkpt lat="43.6218838" lon="12.5626062"><ele>425.8</ele><time>2026-04-06T14:03:19.185Z</time></trkpt><trkpt lat="43.6218917" lon="12.5627596"><ele>425.6</ele><time>2026-04-06T14:03:20.183Z</time></trkpt><trkpt lat="43.6219027" lon="12.5628971"><ele>425.4</ele><time>2026-04-06T14:03:21.188Z</time></trkpt><trkpt lat="43.6219157" lon="12.563031"><ele>425.2</ele><time>2026-04-06T14:03:22.18Z</time></trkpt><trkpt lat="43.6219351" lon="12.5631709"><ele>425.0</ele><time>2026-04-06T14:03:23.177Z</time></trkpt><trkpt lat="43.6219631" lon="12.5633128"><ele>430.5</ele><time>2026-04-06T14:03:24.176Z</time></trkpt><trkpt lat="43.6219936" lon="12.5634495"><ele>436.0</ele><time>2026-04-06T14:03:25.176Z</time></trkpt><trkpt lat="43.6220271" lon="12.5635893"><ele>441.5</ele><time>2026-04-06T14:03:26.187Z</time></trkpt><trkpt lat="43.622042" lon="12.5637501"><ele>447.0</ele><time>2026-04-06T14:03:27.177Z</time></trkpt><trkpt lat="43.6220321" lon="12.5639241"><ele>447.0</ele><time>2026-04-06T14:03:28.174Z</time></trkpt><trkpt lat="43.6220155" lon="12.5641093"><ele>447.0</ele><time>2026-04-06T14:03:29.188Z</time></trkpt><trkpt lat="43.6220015" lon="12.5642833"><ele>447.0</ele><time>2026-04-06T14:03:30.174Z</time></trkpt><trkpt lat="43.6219786" lon="12.5644307"><ele>447.0</ele><time>2026-04-06T14:03:31.188Z</time></trkpt><trkpt lat="43.6219497" lon="12.5645621"><ele>438.8</ele><time>2026-04-06T14:03:32.201Z</time></trkpt><trkpt lat="43.6219284" lon="12.5646768"><ele>430.6</ele><time>2026-04-06T14:03:33.188Z</time></trkpt><trkpt lat="43.6219158" lon="12.5647813"><ele>422.40000000000003</ele><time>2026-04-06T14:03:34.203Z</time></trkpt><trkpt lat="43.6218881" lon="12.5649193"><ele>414.20000000000005</ele><time>2026-04-06T14:03:36.195Z</time></trkpt><trkpt lat="43.6217865" lon="12.5649852"><ele>406.0</ele><time>2026-04-06T14:03:38.197Z</time></trkpt><trkpt lat="43.6216844" lon="12.5649745"><ele>406.0</ele><time>2026-04-06T14:03:40.187Z</time></trkpt><trkpt lat="43.6216393" lon="12.564846"><ele>406.0</ele><time>2026-04-06T14:03:42.212Z</time></trkpt><trkpt lat="43.6216365" lon="12.5647227"><ele>406.0</ele><time>2026-04-06T14:03:43.194Z</time></trkpt><trkpt lat="43.6216452" lon="12.5645815"><ele>406.0</ele><time>2026-04-06T14:03:44.187Z</time></trkpt><trkpt lat="43.6216434" lon="12.564457"><ele>406.0</ele><time>2026-04-06T14:03:45.192Z</time></trkpt><trkpt lat="43.6216308" lon="12.5643581"><ele>407.6</ele><time>2026-04-06T14:03:46.185Z</time></trkpt><trkpt lat="43.6215745" lon="12.564223"><ele>409.20000000000005</ele><time>2026-04-06T14:03:48.183Z</time></trkpt><trkpt lat="43.6215055" lon="12.5641578"><ele>410.79999999999995</ele><time>2026-04-06T14:03:50.2Z</time></trkpt><trkpt lat="43.6214156" lon="12.5641886"><ele>412.4</ele><time>2026-04-06T14:03:52.214Z</time></trkpt><trkpt lat="43.6213556" lon="12.5642584"><ele>414.0</ele><time>2026-04-06T14:03:53.183Z</time></trkpt><trkpt lat="43.6212792" lon="12.564349"><ele>414.0</ele><time>2026-04-06T14:03:54.185Z</time></trkpt><trkpt lat="43.6211898" lon="12.564443"><ele>414.0</ele><time>2026-04-06T14:03:55.194Z</time></trkpt><trkpt lat="43.6211087" lon="12.5645248"><ele>414.0</ele><time>2026-04-06T14:03:56.187Z</time></trkpt><trkpt lat="43.6210327" lon="12.564595"><ele>414.0</ele><time>2026-04-06T14:03:57.188Z</time></trkpt><trkpt lat="43.6209643" lon="12.5646624"><ele>414.0</ele><time>2026-04-06T14:03:58.186Z</time></trkpt><trkpt lat="43.620897" lon="12.5647285"><ele>408.6666666666667</ele><time>2026-04-06T14:03:59.187Z</time></trkpt><trkpt lat="43.6208331" lon="12.5647944"><ele>403.3333333333333</ele><time>2026-04-06T14:04:00.186Z</time></trkpt><trkpt lat="43.6207759" lon="12.5648553"><ele>398.0</ele><time>2026-04-06T14:04:01.186Z</time></trkpt><trkpt lat="43.6207232" lon="12.5649178"><ele>392.66666666666663</ele><time>2026-04-06T14:04:02.196Z</time></trkpt><trkpt lat="43.6206737" lon="12.56498"><ele>387.3333333333333</ele><time>2026-04-06T14:04:03.192Z</time></trkpt><trkpt lat="43.6206305" lon="12.5650477"><ele>382.0</ele><time>2026-04-06T14:04:04.185Z</time></trkpt><trkpt lat="43.6205824" lon="12.5652038"><ele>382.0</ele><time>2026-04-06T14:04:06.184Z</time></trkpt><trkpt lat="43.6205986" lon="12.5653602"><ele>382.0</ele><time>2026-04-06T14:04:08.182Z</time></trkpt><trkpt lat="43.6205897" lon="12.5654652"><ele>382.0</ele><time>2026-04-06T14:04:10.216Z</time></trkpt><trkpt lat="43.6204997" lon="12.5654944"><ele>382.0</ele><time>2026-04-06T14:04:12.21Z</time></trkpt><trkpt lat="43.6204003" lon="12.5654802"><ele>382.0</ele><time>2026-04-06T14:04:13.185Z</time></trkpt><trkpt lat="43.6202758" lon="12.565461"><ele>376.75</ele><time>2026-04-06T14:04:14.184Z</time></trkpt><trkpt lat="43.6201497" lon="12.5654432"><ele>371.5</ele><time>2026-04-06T14:04:15.184Z</time></trkpt><trkpt lat="43.620025" lon="12.5654182"><ele>366.25</ele><time>2026-04-06T14:04:16.198Z</time></trkpt><trkpt lat="43.6199049" lon="12.5653893"><ele>361.0</ele><time>2026-04-06T14:04:17.198Z</time></trkpt><trkpt lat="43.6197806" lon="12.5653616"><ele>361.0</ele><time>2026-04-06T14:04:18.195Z</time></trkpt><trkpt lat="43.6196692" lon="12.5653324"><ele>361.0</ele><time>2026-04-06T14:04:19.201Z</time></trkpt><trkpt lat="43.6195613" lon="12.5652914"><ele>361.0</ele><time>2026-04-06T14:04:20.185Z</time></trkpt><trkpt lat="43.6194596" lon="12.5652453"><ele>361.0</ele><time>2026-04-06T14:04:21.185Z</time></trkpt><trkpt lat="43.6193596" lon="12.5651794"><ele>361.0</ele><time>2026-04-06T14:04:22.189Z</time></trkpt><trkpt lat="43.619262" lon="12.5650984"><ele>359.20000000000005</ele><time>2026-04-06T14:04:23.194Z</time></trkpt><trkpt lat="43.6191801" lon="12.5649981"><ele>357.40000000000003</ele><time>2026-04-06T14:04:24.188Z</time></trkpt><trkpt lat="43.6191006" lon="12.5648868"><ele>355.6</ele><time>2026-04-06T14:04:25.19Z</time></trkpt><trkpt lat="43.6190365" lon="12.5647658"><ele>353.8</ele><time>2026-04-06T14:04:26.187Z</time></trkpt><trkpt lat="43.6189866" lon="12.5646787"><ele>352.0</ele><time>2026-04-06T14:04:27.187Z</time></trkpt><trkpt lat="43.6188897" lon="12.5645824"><ele>352.0</ele><time>2026-04-06T14:04:29.186Z</time></trkpt><trkpt lat="43.6187885" lon="12.5645414"><ele>352.0</ele><time>2026-04-06T14:04:30.187Z</time></trkpt><trkpt lat="43.6186674" lon="12.5645384"><ele>352.0</ele><time>2026-04-06T14:04:31.186Z</time></trkpt><trkpt lat="43.6185201" lon="12.5645728"><ele>352.0</ele><time>2026-04-06T14:04:32.172Z</time></trkpt><trkpt lat="43.6183555" lon="12.5646141"><ele>351.0</ele><time>2026-04-06T14:04:33.181Z</time></trkpt><trkpt lat="43.6181848" lon="12.564665"><ele>350.0</ele><time>2026-04-06T14:04:34.176Z</time></trkpt><trkpt lat="43.6180389" lon="12.5646752"><ele>349.0</ele><time>2026-04-06T14:04:35.184Z</time></trkpt><trkpt lat="43.6178937" lon="12.564687"><ele>348.0</ele><time>2026-04-06T14:04:36.184Z</time></trkpt><trkpt lat="43.6177604" lon="12.5646809"><ele>347.0</ele><time>2026-04-06T14:04:37.178Z</time></trkpt><trkpt lat="43.6176334" lon="12.5646531"><ele>346.0</ele><time>2026-04-06T14:04:38.185Z</time></trkpt><trkpt lat="43.6175168" lon="12.5646231"><ele>345.0</ele><time>2026-04-06T14:04:39.187Z</time></trkpt><trkpt lat="43.6173957" lon="12.564597"><ele>345.0</ele><time>2026-04-06T14:04:40.186Z</time></trkpt><trkpt lat="43.6172679" lon="12.5645455"><ele>345.0</ele><time>2026-04-06T14:04:41.183Z</time></trkpt><trkpt lat="43.6171321" lon="12.5644667"><ele>345.0</ele><time>2026-04-06T14:04:42.184Z</time></trkpt><trkpt lat="43.6169957" lon="12.5643446"><ele>345.0</ele><time>2026-04-06T14:04:43.183Z</time></trkpt><trkpt lat="43.616878" lon="12.5642131"><ele>344.0</ele><time>2026-04-06T14:04:44.166Z</time></trkpt><trkpt lat="43.6167617" lon="12.5641008"><ele>343.0</ele><time>2026-04-06T14:04:45.17Z</time></trkpt><trkpt lat="43.6166448" lon="12.5640158"><ele>342.0</ele><time>2026-04-06T14:04:46.166Z</time></trkpt><trkpt lat="43.6165514" lon="12.5639405"><ele>341.0</ele><time>2026-04-06T14:04:47.165Z</time></trkpt><trkpt lat="43.6164843" lon="12.563878"><ele>341.0</ele><time>2026-04-06T14:04:48.172Z</time></trkpt><trkpt lat="43.6164214" lon="12.5638074"><ele>341.0</ele><time>2026-04-06T14:04:50.164Z</time></trkpt><trkpt lat="43.6163652" lon="12.5637573"><ele>341.0</ele><time>2026-04-06T14:04:52.179Z</time></trkpt><trkpt lat="43.6162712" lon="12.5636892"><ele>341.0</ele><time>2026-04-06T14:04:55.196Z</time></trkpt><trkpt lat="43.6162144" lon="12.563646"><ele>341.0</ele><time>2026-04-06T14:05:11.194Z</time></trkpt><trkpt lat="43.6161609" lon="12.5635992"><ele>341.0</ele><time>2026-04-06T14:05:52.189Z</time></trkpt><trkpt lat="43.6160982" lon="12.563544"><ele>339.0</ele><time>2026-04-06T14:06:42.2Z</time></trkpt><trkpt lat="43.6160388" lon="12.563496"><ele>337.0</ele><time>2026-04-06T14:07:17.212Z</time></trkpt><trkpt lat="43.6159488" lon="12.563423"><ele>335.0</ele><time>2026-04-06T14:07:22.194Z</time></trkpt><trkpt lat="43.6158741" lon="12.5633607"><ele>333.0</ele><time>2026-04-06T14:07:23.171Z</time></trkpt><trkpt lat="43.6157928" lon="12.563296"><ele>331.0</ele><time>2026-04-06T14:07:24.183Z</time></trkpt><trkpt lat="43.6157143" lon="12.5632419"><ele>329.0</ele><time>2026-04-06T14:07:25.172Z</time></trkpt><trkpt lat="43.6156441" lon="12.5631846"><ele>329.0</ele><time>2026-04-06T14:07:26.171Z</time></trkpt><trkpt lat="43.6155894" lon="12.5631249"><ele>329.0</ele><time>2026-04-06T14:07:27.169Z</time></trkpt><trkpt lat="43.6154924" lon="12.563047"><ele>329.0</ele><time>2026-04-06T14:07:29.182Z</time></trkpt><trkpt lat="43.615428" lon="12.5630205"><ele>329.0</ele><time>2026-04-06T14:07:30.178Z</time></trkpt><trkpt lat="43.6153521" lon="12.5630091"><ele>329.0</ele><time>2026-04-06T14:07:31.18Z</time></trkpt><trkpt lat="43.6152649" lon="12.5630141"><ele>329.0</ele><time>2026-04-06T14:07:32.179Z</time></trkpt><trkpt lat="43.6151879" lon="12.5630149"><ele>327.83333333333337</ele><time>2026-04-06T14:07:33.169Z</time></trkpt><trkpt lat="43.615105" lon="12.5630227"><ele>326.6666666666667</ele><time>2026-04-06T14:07:34.186Z</time></trkpt><trkpt lat="43.6150241" lon="12.5630448"><ele>325.5</ele><time>2026-04-06T14:07:35.175Z</time></trkpt><trkpt lat="43.6149407" lon="12.5630696"><ele>324.3333333333333</ele><time>2026-04-06T14:07:36.179Z</time></trkpt><trkpt lat="43.6148527" lon="12.5631024"><ele>323.16666666666663</ele><time>2026-04-06T14:07:37.182Z</time></trkpt><trkpt lat="43.6147737" lon="12.5631273"><ele>322.0</ele><time>2026-04-06T14:07:38.179Z</time></trkpt><trkpt lat="43.6146901" lon="12.5631499"><ele>322.0</ele><time>2026-04-06T14:07:39.171Z</time></trkpt><trkpt lat="43.6145943" lon="12.5631875"><ele>322.0</ele><time>2026-04-06T14:07:40.176Z</time></trkpt><trkpt lat="43.614501" lon="12.5632299"><ele>322.0</ele><time>2026-04-06T14:07:41.179Z</time></trkpt><trkpt lat="43.6144112" lon="12.5632778"><ele>322.0</ele><time>2026-04-06T14:07:42.18Z</time></trkpt><trkpt lat="43.6143102" lon="12.5633324"><ele>322.0</ele><time>2026-04-06T14:07:43.18Z</time></trkpt><trkpt lat="43.6142111" lon="12.5633989"><ele>318.8</ele><time>2026-04-06T14:07:44.179Z</time></trkpt><trkpt lat="43.6141098" lon="12.5634655"><ele>315.6</ele><time>2026-04-06T14:07:45.181Z</time></trkpt><trkpt lat="43.6139994" lon="12.5635347"><ele>312.40000000000003</ele><time>2026-04-06T14:07:46.177Z</time></trkpt><trkpt lat="43.6139028" lon="12.563595"><ele>309.20000000000005</ele><time>2026-04-06T14:07:47.18Z</time></trkpt><trkpt lat="43.613817" lon="12.5636457"><ele>306.0</ele><time>2026-04-06T14:07:48.184Z</time></trkpt><trkpt lat="43.6137427" lon="12.5636889"><ele>306.2857142857143</ele><time>2026-04-06T14:07:49.178Z</time></trkpt><trkpt lat="43.6136544" lon="12.5637471"><ele>306.57142857142856</ele><time>2026-04-06T14:07:51.177Z</time></trkpt><trkpt lat="43.6135849" lon="12.5637395"><ele>306.8571428571429</ele><time>2026-04-06T14:07:55.201Z</time></trkpt><trkpt lat="43.6135649" lon="12.5636477"><ele>307.1428571428571</ele><time>2026-04-06T14:07:59.204Z</time></trkpt><trkpt lat="43.6135427" lon="12.5635613"><ele>307.42857142857144</ele><time>2026-04-06T14:08:02.204Z</time></trkpt><trkpt lat="43.6134945" lon="12.5634894"><ele>307.7142857142857</ele><time>2026-04-06T14:08:07.206Z</time></trkpt><trkpt lat="43.6134294" lon="12.5634719"><ele>308.0</ele><time>2026-04-06T14:08:09.2Z</time></trkpt><trkpt lat="43.6132736" lon="12.5635086"><ele>306.0</ele><time>2026-04-06T14:08:11.19Z</time></trkpt><trkpt lat="43.6131469" lon="12.5635509"><ele>304.0</ele><time>2026-04-06T14:08:12.178Z</time></trkpt><trkpt lat="43.6130177" lon="12.5635915"><ele>302.0</ele><time>2026-04-06T14:08:13.178Z</time></trkpt><trkpt lat="43.612864" lon="12.563643"><ele>300.0</ele><time>2026-04-06T14:08:14.177Z</time></trkpt><trkpt lat="43.6127049" lon="12.5636874"><ele>298.25</ele><time>2026-04-06T14:08:15.182Z</time></trkpt><trkpt lat="43.6125824" lon="12.5636982"><ele>296.5</ele><time>2026-04-06T14:08:16.177Z</time></trkpt><trkpt lat="43.6124555" lon="12.5637048"><ele>294.75</ele><time>2026-04-06T14:08:17.18Z</time></trkpt><trkpt lat="43.6123236" lon="12.5636932"><ele>293.0</ele><time>2026-04-06T14:08:18.181Z</time></trkpt><trkpt lat="43.612194" lon="12.5636677"><ele>293.0</ele><time>2026-04-06T14:08:19.19Z</time></trkpt><trkpt lat="43.6120579" lon="12.5636306"><ele>293.0</ele><time>2026-04-06T14:08:20.181Z</time></trkpt><trkpt lat="43.61195" lon="12.5635742"><ele>293.0</ele><time>2026-04-06T14:08:21.181Z</time></trkpt><trkpt lat="43.6118285" lon="12.5635181"><ele>293.0</ele><time>2026-04-06T14:08:22.18Z</time></trkpt><trkpt lat="43.6117074" lon="12.5634415"><ele>292.25</ele><time>2026-04-06T14:08:23.184Z</time></trkpt><trkpt lat="43.6115878" lon="12.5633423"><ele>291.5</ele><time>2026-04-06T14:08:24.184Z</time></trkpt><trkpt lat="43.6114815" lon="12.5632156"><ele>290.75</ele><time>2026-04-06T14:08:25.186Z</time></trkpt><trkpt lat="43.6113483" lon="12.563086"><ele>290.0</ele><time>2026-04-06T14:08:26.183Z</time></trkpt><trkpt lat="43.6112408" lon="12.5629565"><ele>288.25</ele><time>2026-04-06T14:08:27.191Z</time></trkpt><trkpt lat="43.6111277" lon="12.5628491"><ele>286.5</ele><time>2026-04-06T14:08:28.185Z</time></trkpt><trkpt lat="43.6110155" lon="12.5627434"><ele>284.75</ele><time>2026-04-06T14:08:29.191Z</time></trkpt><trkpt lat="43.6109215" lon="12.5626235"><ele>283.0</ele><time>2026-04-06T14:08:30.179Z</time></trkpt><trkpt lat="43.610847" lon="12.5625004"><ele>283.0</ele><time>2026-04-06T14:08:31.176Z</time></trkpt><trkpt lat="43.6107728" lon="12.5623994"><ele>283.0</ele><time>2026-04-06T14:08:32.184Z</time></trkpt><trkpt lat="43.6107264" lon="12.5622751"><ele>283.0</ele><time>2026-04-06T14:08:33.18Z</time></trkpt><trkpt lat="43.6106704" lon="12.5621441"><ele>283.0</ele><time>2026-04-06T14:08:34.18Z</time></trkpt><trkpt lat="43.6106415" lon="12.5619783"><ele>283.0</ele><time>2026-04-06T14:08:35.177Z</time></trkpt><trkpt lat="43.610621" lon="12.5618119"><ele>283.0</ele><time>2026-04-06T14:08:36.175Z</time></trkpt><trkpt lat="43.6106098" lon="12.5616352"><ele>283.0</ele><time>2026-04-06T14:08:37.179Z</time></trkpt><trkpt lat="43.6106155" lon="12.5614333"><ele>283.0</ele><time>2026-04-06T14:08:38.181Z</time></trkpt><trkpt lat="43.6106128" lon="12.5612085"><ele>283.0</ele><time>2026-04-06T14:08:39.178Z</time></trkpt><trkpt lat="43.6106118" lon="12.561006"><ele>283.5</ele><time>2026-04-06T14:08:40.18Z</time></trkpt><trkpt lat="43.6106056" lon="12.5608029"><ele>284.0</ele><time>2026-04-06T14:08:41.178Z</time></trkpt><trkpt lat="43.6106039" lon="12.5606134"><ele>284.5</ele><time>2026-04-06T14:08:42.178Z</time></trkpt><trkpt lat="43.6105984" lon="12.560436"><ele>285.0</ele><time>2026-04-06T14:08:43.179Z</time></trkpt><trkpt lat="43.6106131" lon="12.5602774"><ele>287.0</ele><time>2026-04-06T14:08:44.177Z</time></trkpt><trkpt lat="43.6106121" lon="12.5601109"><ele>289.0</ele><time>2026-04-06T14:08:45.178Z</time></trkpt><trkpt lat="43.6106395" lon="12.559965"><ele>291.0</ele><time>2026-04-06T14:08:46.174Z</time></trkpt><trkpt lat="43.6106786" lon="12.5597935"><ele>293.0</ele><time>2026-04-06T14:08:47.167Z</time></trkpt><trkpt lat="43.6107294" lon="12.5596361"><ele>292.5</ele><time>2026-04-06T14:08:48.171Z</time></trkpt><trkpt lat="43.6107797" lon="12.5594793"><ele>292.0</ele><time>2026-04-06T14:08:49.178Z</time></trkpt><trkpt lat="43.6108211" lon="12.559328"><ele>291.5</ele><time>2026-04-06T14:08:50.177Z</time></trkpt><trkpt lat="43.6108684" lon="12.5591808"><ele>291.0</ele><time>2026-04-06T14:08:51.172Z</time></trkpt><trkpt lat="43.6109036" lon="12.5590523"><ele>291.0</ele><time>2026-04-06T14:08:52.167Z</time></trkpt><trkpt lat="43.6109104" lon="12.5589568"><ele>291.0</ele><time>2026-04-06T14:08:53.169Z</time></trkpt><trkpt lat="43.610859" lon="12.5589062"><ele>291.0</ele><time>2026-04-06T14:08:54.16Z</time></trkpt><trkpt lat="43.6107453" lon="12.5589393"><ele>291.0</ele><time>2026-04-06T14:08:56.17Z</time></trkpt><trkpt lat="43.6106682" lon="12.559048"><ele>291.0</ele><time>2026-04-06T14:08:57.173Z</time></trkpt><trkpt lat="43.6106128" lon="12.5591677"><ele>291.0</ele><time>2026-04-06T14:08:58.167Z</time></trkpt><trkpt lat="43.6105401" lon="12.5593237"><ele>291.0</ele><time>2026-04-06T14:08:59.165Z</time></trkpt><trkpt lat="43.6104586" lon="12.5594858"><ele>291.0</ele><time>2026-04-06T14:09:00.16Z</time></trkpt><trkpt lat="43.610368" lon="12.5595928"><ele>291.0</ele><time>2026-04-06T14:09:01.167Z</time></trkpt><trkpt lat="43.6102678" lon="12.5596792"><ele>290.0</ele><time>2026-04-06T14:09:02.167Z</time></trkpt><trkpt lat="43.6101809" lon="12.5597208"><ele>289.0</ele><time>2026-04-06T14:09:03.163Z</time></trkpt><trkpt lat="43.6100697" lon="12.5597114"><ele>288.0</ele><time>2026-04-06T14:09:04.167Z</time></trkpt><trkpt lat="43.609971" lon="12.5596423"><ele>287.0</ele><time>2026-04-06T14:09:05.165Z</time></trkpt><trkpt lat="43.6098887" lon="12.5595499"><ele>286.0</ele><time>2026-04-06T14:09:06.175Z</time></trkpt><trkpt lat="43.6098107" lon="12.5594141"><ele>286.0</ele><time>2026-04-06T14:09:07.168Z</time></trkpt><trkpt lat="43.6097229" lon="12.5592842"><ele>286.0</ele><time>2026-04-06T14:09:08.165Z</time></trkpt><trkpt lat="43.6096294" lon="12.5591631"><ele>286.0</ele><time>2026-04-06T14:09:09.166Z</time></trkpt><trkpt lat="43.6095258" lon="12.5590564"><ele>286.0</ele><time>2026-04-06T14:09:10.167Z</time></trkpt><trkpt lat="43.609424" lon="12.5589583"><ele>286.0</ele><time>2026-04-06T14:09:11.165Z</time></trkpt><trkpt lat="43.609315" lon="12.5588547"><ele>286.0</ele><time>2026-04-06T14:09:12.17Z</time></trkpt><trkpt lat="43.6092014" lon="12.5587697"><ele>286.0</ele><time>2026-04-06T14:09:13.172Z</time></trkpt><trkpt lat="43.609082" lon="12.558705"><ele>286.0</ele><time>2026-04-06T14:09:14.165Z</time></trkpt><trkpt lat="43.6089547" lon="12.5586452"><ele>286.0</ele><time>2026-04-06T14:09:15.172Z</time></trkpt><trkpt lat="43.6088205" lon="12.5585992"><ele>286.0</ele><time>2026-04-06T14:09:16.171Z</time></trkpt><trkpt lat="43.6086879" lon="12.5585573"><ele>286.0</ele><time>2026-04-06T14:09:17.17Z</time></trkpt><trkpt lat="43.6085616" lon="12.5585184"><ele>286.0</ele><time>2026-04-06T14:09:18.169Z</time></trkpt><trkpt lat="43.6084441" lon="12.5584806"><ele>285.25</ele><time>2026-04-06T14:09:19.172Z</time></trkpt><trkpt lat="43.6083103" lon="12.5584359"><ele>284.5</ele><time>2026-04-06T14:09:20.172Z</time></trkpt><trkpt lat="43.6081603" lon="12.5584161"><ele>283.75</ele><time>2026-04-06T14:09:21.17Z</time></trkpt><trkpt lat="43.6080169" lon="12.5583778"><ele>283.0</ele><time>2026-04-06T14:09:22.168Z</time></trkpt><trkpt lat="43.6078877" lon="12.5583282"><ele>282.75</ele><time>2026-04-06T14:09:23.168Z</time></trkpt><trkpt lat="43.6077612" lon="12.5582741"><ele>282.5</ele><time>2026-04-06T14:09:24.167Z</time></trkpt><trkpt lat="43.6076148" lon="12.5582107"><ele>282.25</ele><time>2026-04-06T14:09:25.167Z</time></trkpt><trkpt lat="43.6074749" lon="12.5581635"><ele>282.0</ele><time>2026-04-06T14:09:26.169Z</time></trkpt><trkpt lat="43.6073215" lon="12.5581239"><ele>282.0</ele><time>2026-04-06T14:09:27.18Z</time></trkpt><trkpt lat="43.6071752" lon="12.5580753"><ele>282.0</ele><time>2026-04-06T14:09:28.176Z</time></trkpt><trkpt lat="43.6070321" lon="12.558018"><ele>282.0</ele><time>2026-04-06T14:09:29.173Z</time></trkpt><trkpt lat="43.6068825" lon="12.5579834"><ele>281.6666666666667</ele><time>2026-04-06T14:09:30.173Z</time></trkpt><trkpt lat="43.606727" lon="12.5579643"><ele>281.33333333333337</ele><time>2026-04-06T14:09:31.17Z</time></trkpt><trkpt lat="43.6065531" lon="12.5579556"><ele>281.0</ele><time>2026-04-06T14:09:32.174Z</time></trkpt><trkpt lat="43.6063954" lon="12.5579482"><ele>281.0</ele><time>2026-04-06T14:09:33.166Z</time></trkpt><trkpt lat="43.6062706" lon="12.5579448"><ele>281.0</ele><time>2026-04-06T14:09:34.169Z</time></trkpt><trkpt lat="43.6061519" lon="12.5579507"><ele>281.0</ele><time>2026-04-06T14:09:35.166Z</time></trkpt><trkpt lat="43.6060425" lon="12.5579396"><ele>281.0</ele><time>2026-04-06T14:09:36.163Z</time></trkpt><trkpt lat="43.6059318" lon="12.5578995"><ele>281.0</ele><time>2026-04-06T14:09:37.159Z</time></trkpt><trkpt lat="43.6058204" lon="12.5578679"><ele>281.0</ele><time>2026-04-06T14:09:38.178Z</time></trkpt><trkpt lat="43.6057171" lon="12.5578628"><ele>281.0</ele><time>2026-04-06T14:09:39.172Z</time></trkpt><trkpt lat="43.6056401" lon="12.5579188"><ele>281.0</ele><time>2026-04-06T14:09:40.173Z</time></trkpt><trkpt lat="43.6055401" lon="12.5580033"><ele>281.0</ele><time>2026-04-06T14:09:41.165Z</time></trkpt><trkpt lat="43.6054427" lon="12.5580613"><ele>281.0</ele><time>2026-04-06T14:09:42.174Z</time></trkpt><trkpt lat="43.6053443" lon="12.5580717"><ele>281.0</ele><time>2026-04-06T14:09:43.175Z</time></trkpt><trkpt lat="43.6052475" lon="12.5580629"><ele>281.0</ele><time>2026-04-06T14:09:44.177Z</time></trkpt><trkpt lat="43.6051539" lon="12.5580428"><ele>281.0</ele><time>2026-04-06T14:09:45.174Z</time></trkpt><trkpt lat="43.6050794" lon="12.5580236"><ele>281.0</ele><time>2026-04-06T14:09:46.175Z</time></trkpt><trkpt lat="43.6050078" lon="12.5579946"><ele>281.0</ele><time>2026-04-06T14:09:48.178Z</time></trkpt><trkpt lat="43.6049217" lon="12.5579213"><ele>283.2</ele><time>2026-04-06T14:09:50.174Z</time></trkpt><trkpt lat="43.6048598" lon="12.5578407"><ele>285.40000000000003</ele><time>2026-04-06T14:09:51.178Z</time></trkpt><trkpt lat="43.6047956" lon="12.5577527"><ele>287.6</ele><time>2026-04-06T14:09:52.179Z</time></trkpt><trkpt lat="43.6047104" lon="12.5576606"><ele>289.8</ele><time>2026-04-06T14:09:53.188Z</time></trkpt><trkpt lat="43.6046098" lon="12.5575551"><ele>292.0</ele><time>2026-04-06T14:09:54.178Z</time></trkpt><trkpt lat="43.6045005" lon="12.5574582"><ele>290.66666666666663</ele><time>2026-04-06T14:09:55.17Z</time></trkpt><trkpt lat="43.6043693" lon="12.5573697"><ele>289.3333333333333</ele><time>2026-04-06T14:09:56.179Z</time></trkpt><trkpt lat="43.6041869" lon="12.557276"><ele>288.0</ele><time>2026-04-06T14:09:57.175Z</time></trkpt><trkpt lat="43.6040025" lon="12.5571974"><ele>288.0</ele><time>2026-04-06T14:09:58.179Z</time></trkpt><trkpt lat="43.6038408" lon="12.5571092"><ele>288.0</ele><time>2026-04-06T14:09:59.176Z</time></trkpt><trkpt lat="43.603704" lon="12.5570186"><ele>288.0</ele><time>2026-04-06T14:10:00.167Z</time></trkpt><trkpt lat="43.6035557" lon="12.5569388"><ele>288.6666666666667</ele><time>2026-04-06T14:10:01.17Z</time></trkpt><trkpt lat="43.6033925" lon="12.5568407"><ele>289.33333333333337</ele><time>2026-04-06T14:10:02.174Z</time></trkpt><trkpt lat="43.6032552" lon="12.5567166"><ele>290.0</ele><time>2026-04-06T14:10:03.175Z</time></trkpt><trkpt lat="43.6031397" lon="12.5565759"><ele>290.0</ele><time>2026-04-06T14:10:04.171Z</time></trkpt><trkpt lat="43.6030014" lon="12.55644"><ele>290.0</ele><time>2026-04-06T14:10:05.176Z</time></trkpt><trkpt lat="43.6028543" lon="12.5562893"><ele>290.0</ele><time>2026-04-06T14:10:06.178Z</time></trkpt><trkpt lat="43.6027176" lon="12.5561465"><ele>289.6666666666667</ele><time>2026-04-06T14:10:07.178Z</time></trkpt><trkpt lat="43.6025902" lon="12.5559938"><ele>289.3333333333333</ele><time>2026-04-06T14:10:08.174Z</time></trkpt><trkpt lat="43.6024604" lon="12.5558432"><ele>289.0</ele><time>2026-04-06T14:10:09.177Z</time></trkpt><trkpt lat="43.6023353" lon="12.5556989"><ele>289.0</ele><time>2026-04-06T14:10:10.176Z</time></trkpt><trkpt lat="43.6022081" lon="12.5555606"><ele>289.0</ele><time>2026-04-06T14:10:11.174Z</time></trkpt><trkpt lat="43.6020754" lon="12.55542"><ele>289.0</ele><time>2026-04-06T14:10:12.174Z</time></trkpt><trkpt lat="43.6019515" lon="12.5552835"><ele>288.5</ele><time>2026-04-06T14:10:13.173Z</time></trkpt><trkpt lat="43.601848" lon="12.5551492"><ele>288.0</ele><time>2026-04-06T14:10:14.18Z</time></trkpt><trkpt lat="43.6017448" lon="12.5550249"><ele>287.5</ele><time>2026-04-06T14:10:15.169Z</time></trkpt><trkpt lat="43.6016534" lon="12.5549262"><ele>287.0</ele><time>2026-04-06T14:10:16.171Z</time></trkpt><trkpt lat="43.6015746" lon="12.5548522"><ele>287.0</ele><time>2026-04-06T14:10:17.171Z</time></trkpt><trkpt lat="43.6015201" lon="12.5547647"><ele>287.0</ele><time>2026-04-06T14:10:18.169Z</time></trkpt><trkpt lat="43.6014855" lon="12.5546555"><ele>287.0</ele><time>2026-04-06T14:10:19.173Z</time></trkpt><trkpt lat="43.6014622" lon="12.5545512"><ele>287.0</ele><time>2026-04-06T14:10:20.171Z</time></trkpt><trkpt lat="43.6014615" lon="12.5544425"><ele>287.0</ele><time>2026-04-06T14:10:21.168Z</time></trkpt><trkpt lat="43.6014747" lon="12.5543357"><ele>287.0</ele><time>2026-04-06T14:10:22.169Z</time></trkpt><trkpt lat="43.6014977" lon="12.5542148"><ele>289.5</ele><time>2026-04-06T14:10:23.175Z</time></trkpt><trkpt lat="43.6015431" lon="12.554066"><ele>292.0</ele><time>2026-04-06T14:10:24.166Z</time></trkpt><trkpt lat="43.601605" lon="12.5539075"><ele>294.5</ele><time>2026-04-06T14:10:25.175Z</time></trkpt><trkpt lat="43.6016816" lon="12.5537395"><ele>297.0</ele><time>2026-04-06T14:10:26.181Z</time></trkpt><trkpt lat="43.6017604" lon="12.55358"><ele>299.0</ele><time>2026-04-06T14:10:27.176Z</time></trkpt><trkpt lat="43.601829" lon="12.5534254"><ele>301.0</ele><time>2026-04-06T14:10:28.166Z</time></trkpt><trkpt lat="43.6018887" lon="12.5532584"><ele>303.0</ele><time>2026-04-06T14:10:29.17Z</time></trkpt><trkpt lat="43.6019482" lon="12.5530714"><ele>305.0</ele><time>2026-04-06T14:10:30.159Z</time></trkpt><trkpt lat="43.6020071" lon="12.552795"><ele>312.33333333333337</ele><time>2026-04-06T14:10:31.169Z</time></trkpt><trkpt lat="43.6020543" lon="12.5525629"><ele>319.6666666666667</ele><time>2026-04-06T14:10:32.166Z</time></trkpt><trkpt lat="43.6021094" lon="12.5523656"><ele>327.0</ele><time>2026-04-06T14:10:33.167Z</time></trkpt><trkpt lat="43.602163" lon="12.552192"><ele>325.5</ele><time>2026-04-06T14:10:34.167Z</time></trkpt><trkpt lat="43.6021975" lon="12.5520218"><ele>324.0</ele><time>2026-04-06T14:10:35.161Z</time></trkpt><trkpt lat="43.6022401" lon="12.5518649"><ele>322.5</ele><time>2026-04-06T14:10:36.165Z</time></trkpt><trkpt lat="43.602296" lon="12.5516958"><ele>321.0</ele><time>2026-04-06T14:10:37.167Z</time></trkpt><trkpt lat="43.6023476" lon="12.55153"><ele>321.0</ele><time>2026-04-06T14:10:38.166Z</time></trkpt><trkpt lat="43.6024" lon="12.5513601"><ele>321.0</ele><time>2026-04-06T14:10:39.161Z</time></trkpt><trkpt lat="43.6024396" lon="12.5512223"><ele>321.0</ele><time>2026-04-06T14:10:40.165Z</time></trkpt><trkpt lat="43.6024851" lon="12.5510913"><ele>321.0</ele><time>2026-04-06T14:10:41.162Z</time></trkpt><trkpt lat="43.6025088" lon="12.5509457"><ele>320.25</ele><time>2026-04-06T14:10:42.161Z</time></trkpt><trkpt lat="43.6025182" lon="12.5507939"><ele>319.5</ele><time>2026-04-06T14:10:43.166Z</time></trkpt><trkpt lat="43.6025458" lon="12.55063"><ele>318.75</ele><time>2026-04-06T14:10:44.163Z</time></trkpt><trkpt lat="43.6025925" lon="12.5504581"><ele>318.0</ele><time>2026-04-06T14:10:45.164Z</time></trkpt><trkpt lat="43.6026518" lon="12.5502837"><ele>319.5</ele><time>2026-04-06T14:10:46.161Z</time></trkpt><trkpt lat="43.6027506" lon="12.5501121"><ele>321.0</ele><time>2026-04-06T14:10:47.164Z</time></trkpt><trkpt lat="43.6028297" lon="12.5499467"><ele>322.5</ele><time>2026-04-06T14:10:48.165Z</time></trkpt><trkpt lat="43.602927" lon="12.549836"><ele>324.0</ele><time>2026-04-06T14:10:49.164Z</time></trkpt><trkpt lat="43.6029791" lon="12.5496804"><ele>323.5</ele><time>2026-04-06T14:10:50.16Z</time></trkpt><trkpt lat="43.6030399" lon="12.5495243"><ele>323.0</ele><time>2026-04-06T14:10:51.153Z</time></trkpt><trkpt lat="43.6030825" lon="12.5493873"><ele>322.5</ele><time>2026-04-06T14:10:52.162Z</time></trkpt><trkpt lat="43.6031601" lon="12.5492809"><ele>322.0</ele><time>2026-04-06T14:10:53.167Z</time></trkpt><trkpt lat="43.6032651" lon="12.5491582"><ele>322.0</ele><time>2026-04-06T14:10:54.165Z</time></trkpt><trkpt lat="43.6033808" lon="12.5490181"><ele>322.0</ele><time>2026-04-06T14:10:55.165Z</time></trkpt><trkpt lat="43.6034755" lon="12.548854"><ele>322.0</ele><time>2026-04-06T14:10:56.165Z</time></trkpt><trkpt lat="43.6035711" lon="12.5487355"><ele>322.0</ele><time>2026-04-06T14:10:57.169Z</time></trkpt><trkpt lat="43.6036229" lon="12.5486205"><ele>325.25</ele><time>2026-04-06T14:10:58.164Z</time></trkpt><trkpt lat="43.6036667" lon="12.5484823"><ele>328.5</ele><time>2026-04-06T14:10:59.165Z</time></trkpt><trkpt lat="43.6037166" lon="12.548337"><ele>331.75</ele><time>2026-04-06T14:11:00.163Z</time></trkpt><trkpt lat="43.6037586" lon="12.548185"><ele>335.0</ele><time>2026-04-06T14:11:01.165Z</time></trkpt><trkpt lat="43.6038028" lon="12.5480386"><ele>335.0</ele><time>2026-04-06T14:11:02.162Z</time></trkpt><trkpt lat="43.6038723" lon="12.5478863"><ele>335.0</ele><time>2026-04-06T14:11:03.165Z</time></trkpt><trkpt lat="43.6039527" lon="12.5477321"><ele>335.0</ele><time>2026-04-06T14:11:04.165Z</time></trkpt><trkpt lat="43.6040296" lon="12.5475838"><ele>335.0</ele><time>2026-04-06T14:11:05.163Z</time></trkpt><trkpt lat="43.604125" lon="12.547465"><ele>333.5</ele><time>2026-04-06T14:11:06.162Z</time></trkpt><trkpt lat="43.6042322" lon="12.5473576"><ele>332.0</ele><time>2026-04-06T14:11:07.163Z</time></trkpt><trkpt lat="43.6043416" lon="12.547254"><ele>330.5</ele><time>2026-04-06T14:11:08.166Z</time></trkpt><trkpt lat="43.6044571" lon="12.5471487"><ele>329.0</ele><time>2026-04-06T14:11:09.162Z</time></trkpt><trkpt lat="43.6045719" lon="12.5470454"><ele>331.25</ele><time>2026-04-06T14:11:10.166Z</time></trkpt><trkpt lat="43.6046754" lon="12.5469328"><ele>333.5</ele><time>2026-04-06T14:11:11.162Z</time></trkpt><trkpt lat="43.60477" lon="12.5468002"><ele>335.75</ele><time>2026-04-06T14:11:12.15Z</time></trkpt><trkpt lat="43.6048537" lon="12.5466663"><ele>338.0</ele><time>2026-04-06T14:11:13.158Z</time></trkpt><trkpt lat="43.6049268" lon="12.5465576"><ele>338.0</ele><time>2026-04-06T14:11:14.161Z</time></trkpt><trkpt lat="43.605011" lon="12.5464712"><ele>338.0</ele><time>2026-04-06T14:11:15.168Z</time></trkpt><trkpt lat="43.605096" lon="12.5463929"><ele>338.0</ele><time>2026-04-06T14:11:16.162Z</time></trkpt><trkpt lat="43.6051597" lon="12.5463063"><ele>338.0</ele><time>2026-04-06T14:11:17.165Z</time></trkpt><trkpt lat="43.6051941" lon="12.5462031"><ele>338.0</ele><time>2026-04-06T14:11:18.165Z</time></trkpt><trkpt lat="43.6052087" lon="12.5460966"><ele>337.59999999999997</ele><time>2026-04-06T14:11:19.165Z</time></trkpt><trkpt lat="43.605202" lon="12.5459816"><ele>337.2</ele><time>2026-04-06T14:11:20.166Z</time></trkpt><trkpt lat="43.6051805" lon="12.5458325"><ele>336.8</ele><time>2026-04-06T14:11:21.154Z</time></trkpt><trkpt lat="43.6051464" lon="12.5456726"><ele>336.4</ele><time>2026-04-06T14:11:22.162Z</time></trkpt><trkpt lat="43.6051168" lon="12.5455222"><ele>336.0</ele><time>2026-04-06T14:11:23.16Z</time></trkpt><trkpt lat="43.6051031" lon="12.5453655"><ele>340.25</ele><time>2026-04-06T14:11:24.158Z</time></trkpt><trkpt lat="43.6051118" lon="12.5451987"><ele>344.5</ele><time>2026-04-06T14:11:25.153Z</time></trkpt><trkpt lat="43.6051435" lon="12.5450139"><ele>348.75</ele><time>2026-04-06T14:11:26.161Z</time></trkpt><trkpt lat="43.6051827" lon="12.5448254"><ele>353.0</ele><time>2026-04-06T14:11:27.16Z</time></trkpt><trkpt lat="43.605222" lon="12.544675"><ele>354.25</ele><time>2026-04-06T14:11:28.151Z</time></trkpt><trkpt lat="43.6052617" lon="12.5445265"><ele>355.5</ele><time>2026-04-06T14:11:29.155Z</time></trkpt><trkpt lat="43.6053344" lon="12.5444072"><ele>356.75</ele><time>2026-04-06T14:11:30.15Z</time></trkpt><trkpt lat="43.6054167" lon="12.5442891"><ele>358.0</ele><time>2026-04-06T14:11:31.149Z</time></trkpt><trkpt lat="43.6055336" lon="12.5441691"><ele>358.0</ele><time>2026-04-06T14:11:32.151Z</time></trkpt><trkpt lat="43.6056625" lon="12.5440111"><ele>358.0</ele><time>2026-04-06T14:11:33.152Z</time></trkpt><trkpt lat="43.6057783" lon="12.5438601"><ele>358.0</ele><time>2026-04-06T14:11:34.152Z</time></trkpt><trkpt lat="43.6058639" lon="12.5437409"><ele>358.0</ele><time>2026-04-06T14:11:35.149Z</time></trkpt><trkpt lat="43.6059506" lon="12.5436355"><ele>358.0</ele><time>2026-04-06T14:11:36.15Z</time></trkpt><trkpt lat="43.6060353" lon="12.543512"><ele>358.0</ele><time>2026-04-06T14:11:37.155Z</time></trkpt><trkpt lat="43.6061116" lon="12.5433471"><ele>358.0</ele><time>2026-04-06T14:11:38.154Z</time></trkpt><trkpt lat="43.606196" lon="12.5431568"><ele>362.66666666666663</ele><time>2026-04-06T14:11:39.153Z</time></trkpt><trkpt lat="43.6062774" lon="12.5429303"><ele>367.3333333333333</ele><time>2026-04-06T14:11:40.153Z</time></trkpt><trkpt lat="43.6063598" lon="12.5426834"><ele>372.0</ele><time>2026-04-06T14:11:41.154Z</time></trkpt><trkpt lat="43.6064425" lon="12.5424299"><ele>372.0</ele><time>2026-04-06T14:11:42.156Z</time></trkpt><trkpt lat="43.6065153" lon="12.5422197"><ele>372.0</ele><time>2026-04-06T14:11:43.147Z</time></trkpt><trkpt lat="43.6065799" lon="12.5420392"><ele>372.0</ele><time>2026-04-06T14:11:44.153Z</time></trkpt><trkpt lat="43.6066414" lon="12.5418593"><ele>373.6666666666667</ele><time>2026-04-06T14:11:45.153Z</time></trkpt><trkpt lat="43.6067117" lon="12.5416873"><ele>375.33333333333337</ele><time>2026-04-06T14:11:46.153Z</time></trkpt><trkpt lat="43.6068099" lon="12.5415213"><ele>377.0</ele><time>2026-04-06T14:11:47.155Z</time></trkpt><trkpt lat="43.6069232" lon="12.5413747"><ele>383.0</ele><time>2026-04-06T14:11:48.157Z</time></trkpt><trkpt lat="43.6070519" lon="12.5412552"><ele>389.0</ele><time>2026-04-06T14:11:49.15Z</time></trkpt><trkpt lat="43.6072572" lon="12.5410413"><ele>395.0</ele><time>2026-04-06T14:11:51.154Z</time></trkpt><trkpt lat="43.6073251" lon="12.5409444"><ele>395.0</ele><time>2026-04-06T14:11:52.15Z</time></trkpt><trkpt lat="43.6073927" lon="12.5406368"><ele>395.0</ele><time>2026-04-06T14:11:54.15Z</time></trkpt><trkpt lat="43.6073995" lon="12.5404367"><ele>395.0</ele><time>2026-04-06T14:11:55.146Z</time></trkpt><trkpt lat="43.6074112" lon="12.540222"><ele>395.5</ele><time>2026-04-06T14:11:56.158Z</time></trkpt><trkpt lat="43.607434" lon="12.5400429"><ele>396.0</ele><time>2026-04-06T14:11:57.153Z</time></trkpt><trkpt lat="43.6074692" lon="12.539899"><ele>396.5</ele><time>2026-04-06T14:11:58.149Z</time></trkpt><trkpt lat="43.6074876" lon="12.5397572"><ele>397.0</ele><time>2026-04-06T14:11:59.152Z</time></trkpt><trkpt lat="43.6074958" lon="12.5396042"><ele>400.25</ele><time>2026-04-06T14:12:00.15Z</time></trkpt><trkpt lat="43.6075084" lon="12.5392878"><ele>403.5</ele><time>2026-04-06T14:12:02.152Z</time></trkpt><trkpt lat="43.6075166" lon="12.5391608"><ele>406.75</ele><time>2026-04-06T14:12:03.144Z</time></trkpt><trkpt lat="43.6075348" lon="12.5390657"><ele>410.0</ele><time>2026-04-06T14:12:04.152Z</time></trkpt><trkpt lat="43.6075789" lon="12.538963"><ele>409.99999999999994</ele><time>2026-04-06T14:12:06.142Z</time></trkpt><trkpt lat="43.607613" lon="12.53888"><ele>410.0</ele><time>2026-04-06T14:12:08.166Z</time></trkpt><trkpt lat="43.6076489" lon="12.5387792"><ele>410.0</ele><time>2026-04-06T14:12:10.169Z</time></trkpt><trkpt lat="43.6076234" lon="12.5386825"><ele>410.0</ele><time>2026-04-06T14:12:25.176Z</time></trkpt><trkpt lat="43.6075892" lon="12.5385754"><ele>409.99999999999994</ele><time>2026-04-06T14:12:28.177Z</time></trkpt><trkpt lat="43.6075017" lon="12.5386522"><ele>410.0</ele><time>2026-04-06T14:12:30.154Z</time></trkpt><trkpt lat="43.6074558" lon="12.5387354"><ele>409.99999999999994</ele><time>2026-04-06T14:12:31.151Z</time></trkpt><trkpt lat="43.6074307" lon="12.5388156"><ele>410.0</ele><time>2026-04-06T14:12:32.156Z</time></trkpt><trkpt lat="43.6073758" lon="12.5388913"><ele>410.0</ele><time>2026-04-06T14:12:34.173Z</time></trkpt><trkpt lat="43.6073126" lon="12.5388984"><ele>410.0</ele><time>2026-04-06T14:12:36.168Z</time></trkpt><trkpt lat="43.6072791" lon="12.5388244"><ele>409.99999999999994</ele><time>2026-04-06T14:12:39.167Z</time></trkpt><trkpt lat="43.6073487" lon="12.5386217"><ele>410.0</ele><time>2026-04-06T14:12:42.152Z</time></trkpt><trkpt lat="43.607368" lon="12.5384967"><ele>412.16666666666663</ele><time>2026-04-06T14:12:44.166Z</time></trkpt><trkpt lat="43.6073123" lon="12.538438"><ele>414.3333333333333</ele><time>2026-04-06T14:12:46.169Z</time></trkpt><trkpt lat="43.6072196" lon="12.5384782"><ele>416.5</ele><time>2026-04-06T14:12:48.171Z</time></trkpt><trkpt lat="43.6071334" lon="12.5385737"><ele>418.66666666666663</ele><time>2026-04-06T14:12:50.153Z</time></trkpt><trkpt lat="43.607064" lon="12.538585"><ele>420.8333333333333</ele><time>2026-04-06T14:12:52.178Z</time></trkpt><trkpt lat="43.607012" lon="12.5385143"><ele>423.0</ele><time>2026-04-06T14:12:55.177Z</time></trkpt><trkpt lat="43.6070291" lon="12.5384221"><ele>423.0</ele><time>2026-04-06T14:12:57.179Z</time></trkpt><trkpt lat="43.6070944" lon="12.5383349"><ele>423.0</ele><time>2026-04-06T14:12:59.173Z</time></trkpt><trkpt lat="43.6071507" lon="12.5382841"><ele>423.0</ele><time>2026-04-06T14:13:00.158Z</time></trkpt><trkpt lat="43.6072182" lon="12.5382547"><ele>423.0</ele><time>2026-04-06T14:13:01.156Z</time></trkpt><trkpt lat="43.6072873" lon="12.5382421"><ele>423.0</ele><time>2026-04-06T14:13:02.157Z</time></trkpt><trkpt lat="43.6073768" lon="12.5381982"><ele>423.0</ele><time>2026-04-06T14:13:04.173Z</time></trkpt><trkpt lat="43.6074373" lon="12.5381131"><ele>423.0</ele><time>2026-04-06T14:13:05.153Z</time></trkpt><trkpt lat="43.6074917" lon="12.5380004"><ele>423.0</ele><time>2026-04-06T14:13:06.154Z</time></trkpt><trkpt lat="43.607525" lon="12.537856"><ele>423.0</ele><time>2026-04-06T14:13:07.154Z</time></trkpt><trkpt lat="43.6075581" lon="12.5377012"><ele>423.0</ele><time>2026-04-06T14:13:08.151Z</time></trkpt><trkpt lat="43.6076061" lon="12.5375603"><ele>423.0</ele><time>2026-04-06T14:13:09.149Z</time></trkpt><trkpt lat="43.6076667" lon="12.5374331"><ele>429.2</ele><time>2026-04-06T14:13:10.153Z</time></trkpt><trkpt lat="43.6077368" lon="12.5373267"><ele>435.4</ele><time>2026-04-06T14:13:11.154Z</time></trkpt><trkpt lat="43.6078816" lon="12.537184"><ele>441.59999999999997</ele><time>2026-04-06T14:13:13.155Z</time></trkpt><trkpt lat="43.6079461" lon="12.5371317"><ele>447.79999999999995</ele><time>2026-04-06T14:13:14.154Z</time></trkpt><trkpt lat="43.608003" lon="12.5370865"><ele>454.0</ele><time>2026-04-06T14:13:15.151Z</time></trkpt><trkpt lat="43.6080574" lon="12.5369953"><ele>454.0</ele><time>2026-04-06T14:13:17.155Z</time></trkpt><trkpt lat="43.6079628" lon="12.5369512"><ele>454.0</ele><time>2026-04-06T14:13:20.168Z</time></trkpt><trkpt lat="43.6078364" lon="12.5370374"><ele>454.0</ele><time>2026-04-06T14:13:22.15Z</time></trkpt><trkpt lat="43.6077402" lon="12.5371164"><ele>454.0</ele><time>2026-04-06T14:13:23.156Z</time></trkpt><trkpt lat="43.6076304" lon="12.5371981"><ele>454.00000000000006</ele><time>2026-04-06T14:13:24.152Z</time></trkpt><trkpt lat="43.6075461" lon="12.5372663"><ele>454.0</ele><time>2026-04-06T14:13:25.152Z</time></trkpt><trkpt lat="43.6074888" lon="12.5373277"><ele>454.0</ele><time>2026-04-06T14:13:26.157Z</time></trkpt><trkpt lat="43.607435" lon="12.5373743"><ele>454.0</ele><time>2026-04-06T14:13:27.161Z</time></trkpt><trkpt lat="43.6073675" lon="12.5374057"><ele>454.00000000000006</ele><time>2026-04-06T14:13:28.159Z</time></trkpt><trkpt lat="43.6072841" lon="12.5374249"><ele>454.0</ele><time>2026-04-06T14:13:29.161Z</time></trkpt><trkpt lat="43.6071941" lon="12.5374344"><ele>454.0</ele><time>2026-04-06T14:13:30.154Z</time></trkpt><trkpt lat="43.6070891" lon="12.5374506"><ele>454.0</ele><time>2026-04-06T14:13:31.159Z</time></trkpt><trkpt lat="43.6069705" lon="12.5374887"><ele>454.0</ele><time>2026-04-06T14:13:32.158Z</time></trkpt><trkpt lat="43.606873" lon="12.5375306"><ele>454.0</ele><time>2026-04-06T14:13:33.156Z</time></trkpt><trkpt lat="43.6067917" lon="12.537565"><ele>454.0</ele><time>2026-04-06T14:13:34.158Z</time></trkpt><trkpt lat="43.6067161" lon="12.5375701"><ele>456.83333333333337</ele><time>2026-04-06T14:13:35.161Z</time></trkpt><trkpt lat="43.606633" lon="12.5375488"><ele>459.6666666666667</ele><time>2026-04-06T14:13:36.157Z</time></trkpt><trkpt lat="43.6065555" lon="12.5375031"><ele>462.5</ele><time>2026-04-06T14:13:37.153Z</time></trkpt><trkpt lat="43.6064777" lon="12.5374259"><ele>465.33333333333337</ele><time>2026-04-06T14:13:38.154Z</time></trkpt><trkpt lat="43.6064239" lon="12.5373603"><ele>468.1666666666667</ele><time>2026-04-06T14:13:39.153Z</time></trkpt><trkpt lat="43.6064101" lon="12.5372377"><ele>471.0</ele><time>2026-04-06T14:13:41.171Z</time></trkpt><trkpt lat="43.6065574" lon="12.5370869"><ele>471.0</ele><time>2026-04-06T14:13:44.16Z</time></trkpt><trkpt lat="43.6066413" lon="12.5370647"><ele>471.0</ele><time>2026-04-06T14:13:45.157Z</time></trkpt><trkpt lat="43.6067332" lon="12.5369626"><ele>471.0</ele><time>2026-04-06T14:13:47.159Z</time></trkpt><trkpt lat="43.6067107" lon="12.5368748"><ele>471.0</ele><time>2026-04-06T14:13:49.161Z</time></trkpt><trkpt lat="43.6064351" lon="12.5368446"><ele>475.20000000000005</ele><time>2026-04-06T14:13:52.151Z</time></trkpt><trkpt lat="43.6062999" lon="12.5368038"><ele>479.40000000000003</ele><time>2026-04-06T14:13:53.159Z</time></trkpt><trkpt lat="43.6061836" lon="12.5367699"><ele>483.6</ele><time>2026-04-06T14:13:54.158Z</time></trkpt><trkpt lat="43.6060946" lon="12.5367609"><ele>487.8</ele><time>2026-04-06T14:13:55.158Z</time></trkpt><trkpt lat="43.6060289" lon="12.5367472"><ele>492.0</ele><time>2026-04-06T14:13:56.158Z</time></trkpt><trkpt lat="43.6060016" lon="12.5366441"><ele>492.0</ele><time>2026-04-06T14:13:58.175Z</time></trkpt><trkpt lat="43.606073" lon="12.5365235"><ele>492.0</ele><time>2026-04-06T14:14:00.18Z</time></trkpt><trkpt lat="43.606147" lon="12.5364616"><ele>492.0</ele><time>2026-04-06T14:14:01.158Z</time></trkpt><trkpt lat="43.6062577" lon="12.5364156"><ele>492.0</ele><time>2026-04-06T14:14:02.16Z</time></trkpt><trkpt lat="43.6063955" lon="12.5363613"><ele>497.25</ele><time>2026-04-06T14:14:03.156Z</time></trkpt><trkpt lat="43.6066331" lon="12.5362021"><ele>502.5</ele><time>2026-04-06T14:14:05.155Z</time></trkpt><trkpt lat="43.6067105" lon="12.5361316"><ele>507.75</ele><time>2026-04-06T14:14:06.153Z</time></trkpt><trkpt lat="43.6067505" lon="12.5360394"><ele>513.0</ele><time>2026-04-06T14:14:08.152Z</time></trkpt><trkpt lat="43.6065909" lon="12.5359544"><ele>513.0</ele><time>2026-04-06T14:14:11.151Z</time></trkpt><trkpt lat="43.606512" lon="12.5359493"><ele>513.0</ele><time>2026-04-06T14:14:12.16Z</time></trkpt><trkpt lat="43.6064243" lon="12.5359689"><ele>513.0</ele><time>2026-04-06T14:14:13.162Z</time></trkpt><trkpt lat="43.6063509" lon="12.5359351"><ele>513.0</ele><time>2026-04-06T14:14:15.18Z</time></trkpt><trkpt lat="43.6063784" lon="12.535823"><ele>513.0</ele><time>2026-04-06T14:14:17.179Z</time></trkpt><trkpt lat="43.6064937" lon="12.5357278"><ele>513.0</ele><time>2026-04-06T14:14:19.164Z</time></trkpt><trkpt lat="43.606588" lon="12.5356942"><ele>513.0</ele><time>2026-04-06T14:14:20.16Z</time></trkpt><trkpt lat="43.6066863" lon="12.5356817"><ele>513.0</ele><time>2026-04-06T14:14:21.159Z</time></trkpt><trkpt lat="43.6067489" lon="12.5356628"><ele>513.0</ele><time>2026-04-06T14:14:22.161Z</time></trkpt><trkpt lat="43.6067869" lon="12.5355816"><ele>513.0</ele><time>2026-04-06T14:14:24.18Z</time></trkpt><trkpt lat="43.6067216" lon="12.5354934"><ele>513.0</ele><time>2026-04-06T14:14:26.175Z</time></trkpt><trkpt lat="43.6065805" lon="12.5353247"><ele>520.0</ele><time>2026-04-06T14:14:28.153Z</time></trkpt><trkpt lat="43.6065185" lon="12.5351979"><ele>527.0</ele><time>2026-04-06T14:14:29.16Z</time></trkpt><trkpt lat="43.6064507" lon="12.5350416"><ele>534.0</ele><time>2026-04-06T14:14:30.155Z</time></trkpt><trkpt lat="43.606375" lon="12.5348965"><ele>541.0</ele><time>2026-04-06T14:14:31.159Z</time></trkpt><trkpt lat="43.6062587" lon="12.5347396"><ele>541.0</ele><time>2026-04-06T14:14:33.156Z</time></trkpt><trkpt lat="43.6061877" lon="12.5347243"><ele>541.0</ele><time>2026-04-06T14:14:34.155Z</time></trkpt><trkpt lat="43.6061093" lon="12.5347193"><ele>541.0</ele><time>2026-04-06T14:14:35.156Z</time></trkpt><trkpt lat="43.6060128" lon="12.5347452"><ele>541.0</ele><time>2026-04-06T14:14:36.153Z</time></trkpt><trkpt lat="43.6058349" lon="12.5348103"><ele>541.0</ele><time>2026-04-06T14:14:38.155Z</time></trkpt><trkpt lat="43.6057547" lon="12.534811"><ele>541.6</ele><time>2026-04-06T14:14:39.146Z</time></trkpt><trkpt lat="43.6057254" lon="12.5347195"><ele>542.2</ele><time>2026-04-06T14:14:41.172Z</time></trkpt><trkpt lat="43.6057471" lon="12.5346262"><ele>542.8</ele><time>2026-04-06T14:14:42.173Z</time></trkpt><trkpt lat="43.6057897" lon="12.5345405"><ele>543.4</ele><time>2026-04-06T14:14:43.147Z</time></trkpt><trkpt lat="43.6057663" lon="12.5344364"><ele>544.0</ele><time>2026-04-06T14:14:45.154Z</time></trkpt><trkpt lat="43.6055599" lon="12.5345295"><ele>544.0</ele><time>2026-04-06T14:14:48.152Z</time></trkpt><trkpt lat="43.6054156" lon="12.5346802"><ele>544.0</ele><time>2026-04-06T14:14:50.157Z</time></trkpt><trkpt lat="43.6053449" lon="12.5346775"><ele>544.0</ele><time>2026-04-06T14:14:51.151Z</time></trkpt><trkpt lat="43.6052781" lon="12.5346462"><ele>544.0</ele><time>2026-04-06T14:14:52.15Z</time></trkpt><trkpt lat="43.6051888" lon="12.5346005"><ele>544.0</ele><time>2026-04-06T14:14:53.16Z</time></trkpt><trkpt lat="43.6050831" lon="12.5345534"><ele>553.6666666666667</ele><time>2026-04-06T14:14:54.153Z</time></trkpt><trkpt lat="43.6049533" lon="12.5345517"><ele>563.3333333333334</ele><time>2026-04-06T14:14:55.155Z</time></trkpt><trkpt lat="43.6048389" lon="12.5345506"><ele>573.0</ele><time>2026-04-06T14:14:56.162Z</time></trkpt><trkpt lat="43.6046029" lon="12.534425"><ele>573.0</ele><time>2026-04-06T14:14:58.159Z</time></trkpt><trkpt lat="43.6045138" lon="12.5343272"><ele>573.0</ele><time>2026-04-06T14:14:59.16Z</time></trkpt><trkpt lat="43.6044485" lon="12.5342635"><ele>573.0</ele><time>2026-04-06T14:15:00.158Z</time></trkpt><trkpt lat="43.6043529" lon="12.534294"><ele>573.0</ele><time>2026-04-06T14:15:02.158Z</time></trkpt><trkpt lat="43.6043119" lon="12.5343829"><ele>573.0</ele><time>2026-04-06T14:15:03.16Z</time></trkpt><trkpt lat="43.6042669" lon="12.5345272"><ele>574.1999999999999</ele><time>2026-04-06T14:15:04.159Z</time></trkpt><trkpt lat="43.6042095" lon="12.5346563"><ele>575.4</ele><time>2026-04-06T14:15:05.155Z</time></trkpt><trkpt lat="43.6041488" lon="12.5347393"><ele>576.5999999999999</ele><time>2026-04-06T14:15:06.155Z</time></trkpt><trkpt lat="43.6040853" lon="12.5348135"><ele>577.8</ele><time>2026-04-06T14:15:07.157Z</time></trkpt><trkpt lat="43.6040116" lon="12.5348848"><ele>579.0</ele><time>2026-04-06T14:15:09.158Z</time></trkpt><trkpt lat="43.6039296" lon="12.5348413"><ele>579.0</ele><time>2026-04-06T14:15:12.183Z</time></trkpt><trkpt lat="43.603924" lon="12.5347122"><ele>579.0</ele><time>2026-04-06T14:15:14.18Z</time></trkpt><trkpt lat="43.6039257" lon="12.5346218"><ele>579.0</ele><time>2026-04-06T14:15:15.157Z</time></trkpt><trkpt lat="43.6039292" lon="12.5344966"><ele>579.0</ele><time>2026-04-06T14:15:16.159Z</time></trkpt><trkpt lat="43.6039249" lon="12.5343259"><ele>579.0</ele><time>2026-04-06T14:15:17.153Z</time></trkpt><trkpt lat="43.6039387" lon="12.5341518"><ele>581.5</ele><time>2026-04-06T14:15:18.163Z</time></trkpt><trkpt lat="43.6039673" lon="12.5340047"><ele>584.0</ele><time>2026-04-06T14:15:19.151Z</time></trkpt><trkpt lat="43.6040041" lon="12.5338858"><ele>586.5</ele><time>2026-04-06T14:15:20.153Z</time></trkpt><trkpt lat="43.6040345" lon="12.5337871"><ele>589.0</ele><time>2026-04-06T14:15:21.155Z</time></trkpt><trkpt lat="43.6040447" lon="12.5336771"><ele>591.5</ele><time>2026-04-06T14:15:24.17Z</time></trkpt><trkpt lat="43.6039754" lon="12.5337001"><ele>594.0</ele><time>2026-04-06T14:15:26.175Z</time></trkpt><trkpt lat="43.6038608" lon="12.533825"><ele>594.0</ele><time>2026-04-06T14:15:28.153Z</time></trkpt><trkpt lat="43.6037985" lon="12.5339494"><ele>594.0</ele><time>2026-04-06T14:15:29.156Z</time></trkpt><trkpt lat="43.6037214" lon="12.5340453"><ele>594.0</ele><time>2026-04-06T14:15:30.151Z</time></trkpt><trkpt lat="43.6036355" lon="12.5341096"><ele>594.0</ele><time>2026-04-06T14:15:31.15Z</time></trkpt><trkpt lat="43.6035421" lon="12.5341569"><ele>594.0</ele><time>2026-04-06T14:15:32.148Z</time></trkpt><trkpt lat="43.603455" lon="12.5342146"><ele>599.75</ele><time>2026-04-06T14:15:33.16Z</time></trkpt><trkpt lat="43.6033933" lon="12.5343125"><ele>605.5</ele><time>2026-04-06T14:15:34.154Z</time></trkpt><trkpt lat="43.6033513" lon="12.5344452"><ele>611.25</ele><time>2026-04-06T14:15:35.155Z</time></trkpt><trkpt lat="43.6032994" lon="12.5346133"><ele>617.0</ele><time>2026-04-06T14:15:36.156Z</time></trkpt><trkpt lat="43.6032173" lon="12.534806"><ele>617.0</ele><time>2026-04-06T14:15:37.156Z</time></trkpt><trkpt lat="43.603136" lon="12.5349992"><ele>617.0</ele><time>2026-04-06T14:15:38.154Z</time></trkpt><trkpt lat="43.6030656" lon="12.5351673"><ele>617.0</ele><time>2026-04-06T14:15:39.154Z</time></trkpt><trkpt lat="43.6030022" lon="12.5353163"><ele>617.0</ele><time>2026-04-06T14:15:40.157Z</time></trkpt><trkpt lat="43.602942" lon="12.5354531"><ele>613.0</ele><time>2026-04-06T14:15:41.152Z</time></trkpt><trkpt lat="43.6028818" lon="12.5355605"><ele>609.0</ele><time>2026-04-06T14:15:42.153Z</time></trkpt><trkpt lat="43.602798" lon="12.5356248"><ele>605.0</ele><time>2026-04-06T14:15:43.154Z</time></trkpt><trkpt lat="43.6026807" lon="12.5356702"><ele>601.0</ele><time>2026-04-06T14:15:44.157Z</time></trkpt><trkpt lat="43.6025347" lon="12.5357077"><ele>608.2</ele><time>2026-04-06T14:15:45.153Z</time></trkpt><trkpt lat="43.602408" lon="12.5357473"><ele>615.4000000000001</ele><time>2026-04-06T14:15:46.147Z</time></trkpt><trkpt lat="43.6023241" lon="12.5358113"><ele>622.6</ele><time>2026-04-06T14:15:47.161Z</time></trkpt><trkpt lat="43.6022859" lon="12.5359093"><ele>629.8000000000001</ele><time>2026-04-06T14:15:48.149Z</time></trkpt><trkpt lat="43.602252" lon="12.5360348"><ele>637.0</ele><time>2026-04-06T14:15:49.155Z</time></trkpt><trkpt lat="43.6022128" lon="12.5361707"><ele>632.75</ele><time>2026-04-06T14:15:50.155Z</time></trkpt><trkpt lat="43.6021496" lon="12.5362941"><ele>628.5</ele><time>2026-04-06T14:15:51.148Z</time></trkpt><trkpt lat="43.6020491" lon="12.5364367"><ele>624.25</ele><time>2026-04-06T14:15:52.161Z</time></trkpt><trkpt lat="43.6019393" lon="12.5366103"><ele>620.0</ele><time>2026-04-06T14:15:53.16Z</time></trkpt><trkpt lat="43.6018349" lon="12.536801"><ele>627.5</ele><time>2026-04-06T14:15:54.157Z</time></trkpt><trkpt lat="43.6017526" lon="12.5369646"><ele>635.0</ele><time>2026-04-06T14:15:55.16Z</time></trkpt><trkpt lat="43.6016788" lon="12.5371029"><ele>642.5</ele><time>2026-04-06T14:15:56.167Z</time></trkpt><trkpt lat="43.6016135" lon="12.5372348"><ele>650.0</ele><time>2026-04-06T14:15:57.156Z</time></trkpt><trkpt lat="43.6015495" lon="12.5373459"><ele>650.0</ele><time>2026-04-06T14:15:58.156Z</time></trkpt><trkpt lat="43.6015063" lon="12.5374275"><ele>650.0</ele><time>2026-04-06T14:15:59.163Z</time></trkpt><trkpt lat="43.6014873" lon="12.5375458"><ele>650.0</ele><time>2026-04-06T14:16:02.194Z</time></trkpt><trkpt lat="43.6014636" lon="12.5376366"><ele>650.0</ele><time>2026-04-06T14:16:04.189Z</time></trkpt><trkpt lat="43.6013981" lon="12.5377119"><ele>650.0</ele><time>2026-04-06T14:16:07.184Z</time></trkpt><trkpt lat="43.6013436" lon="12.5377572"><ele>650.0</ele><time>2026-04-06T14:16:10.182Z</time></trkpt><trkpt lat="43.6012946" lon="12.5378172"><ele>650.0</ele><time>2026-04-06T14:16:16.202Z</time></trkpt><trkpt lat="43.6012273" lon="12.5378281"><ele>650.0</ele><time>2026-04-06T14:16:18.192Z</time></trkpt><trkpt lat="43.6011715" lon="12.5377625"><ele>650.0</ele><time>2026-04-06T14:16:20.196Z</time></trkpt><trkpt lat="43.6011055" lon="12.5377083"><ele>650.0</ele><time>2026-04-06T14:16:23.2Z</time></trkpt><trkpt lat="43.6010314" lon="12.5377363"><ele>650.0</ele><time>2026-04-06T14:16:25.205Z</time></trkpt><trkpt lat="43.6009654" lon="12.537771"><ele>650.0</ele><time>2026-04-06T14:17:36.208Z</time></trkpt><trkpt lat="43.6009063" lon="12.5378034"><ele>650.0</ele><time>2026-04-06T14:17:38.199Z</time></trkpt><trkpt lat="43.6008134" lon="12.5378412"><ele>650.1666666666666</ele><time>2026-04-06T14:17:40.174Z</time></trkpt><trkpt lat="43.600716" lon="12.5378885"><ele>650.3333333333333</ele><time>2026-04-06T14:17:43.172Z</time></trkpt><trkpt lat="43.6006342" lon="12.5379387"><ele>650.5</ele><time>2026-04-06T14:17:45.173Z</time></trkpt><trkpt lat="43.6005445" lon="12.5379696"><ele>650.6666666666666</ele><time>2026-04-06T14:17:47.173Z</time></trkpt><trkpt lat="43.6004752" lon="12.5379398"><ele>650.8333333333334</ele><time>2026-04-06T14:17:49.202Z</time></trkpt><trkpt lat="43.6005587" lon="12.5379797"><ele>651.0</ele><time>2026-04-06T14:17:55.197Z</time></trkpt><trkpt lat="43.6006241" lon="12.5379371"><ele>651.0</ele><time>2026-04-06T14:17:56.186Z</time></trkpt><trkpt lat="43.6006866" lon="12.5378935"><ele>651.0</ele><time>2026-04-06T14:17:57.184Z</time></trkpt><trkpt lat="43.600785" lon="12.5378366"><ele>651.0</ele><time>2026-04-06T14:17:59.187Z</time></trkpt><trkpt lat="43.600888" lon="12.5377879"><ele>651.0</ele><time>2026-04-06T14:18:01.181Z</time></trkpt><trkpt lat="43.6010103" lon="12.5377473"><ele>651.0</ele><time>2026-04-06T14:18:03.177Z</time></trkpt><trkpt lat="43.6011307" lon="12.537693"><ele>650.8333333333334</ele><time>2026-04-06T14:18:05.175Z</time></trkpt><trkpt lat="43.6012192" lon="12.53765"><ele>650.6666666666666</ele><time>2026-04-06T14:18:07.18Z</time></trkpt><trkpt lat="43.6012811" lon="12.5376181"><ele>650.5</ele><time>2026-04-06T14:18:14.199Z</time></trkpt><trkpt lat="43.6013544" lon="12.5376846"><ele>650.3333333333333</ele><time>2026-04-06T14:18:17.203Z</time></trkpt><trkpt lat="43.6014057" lon="12.5377641"><ele>650.1666666666666</ele><time>2026-04-06T14:18:19.2Z</time></trkpt><trkpt lat="43.6014744" lon="12.5376804"><ele>650.0</ele><time>2026-04-06T14:18:25.203Z</time></trkpt><trkpt lat="43.6015227" lon="12.5375892"><ele>650.0</ele><time>2026-04-06T14:18:27.204Z</time></trkpt><trkpt lat="43.6015425" lon="12.5374764"><ele>650.0</ele><time>2026-04-06T14:18:29.205Z</time></trkpt><trkpt lat="43.6015673" lon="12.5373309"><ele>650.0</ele><time>2026-04-06T14:18:31.181Z</time></trkpt><trkpt lat="43.6015887" lon="12.5372466"><ele>650.0</ele><time>2026-04-06T14:18:32.178Z</time></trkpt><trkpt lat="43.6016561" lon="12.5371018"><ele>650.0</ele><time>2026-04-06T14:18:34.178Z</time></trkpt><trkpt lat="43.6016963" lon="12.5370268"><ele>650.0</ele><time>2026-04-06T14:18:35.176Z</time></trkpt><trkpt lat="43.6017261" lon="12.5369373"><ele>652.5</ele><time>2026-04-06T14:18:36.176Z</time></trkpt><trkpt lat="43.6017632" lon="12.5368465"><ele>655.0</ele><time>2026-04-06T14:18:37.18Z</time></trkpt><trkpt lat="43.6018006" lon="12.5367625"><ele>657.5</ele><time>2026-04-06T14:18:38.177Z</time></trkpt><trkpt lat="43.6018448" lon="12.5366849"><ele>660.0</ele><time>2026-04-06T14:18:39.168Z</time></trkpt><trkpt lat="43.6018906" lon="12.5366013"><ele>662.5</ele><time>2026-04-06T14:18:40.178Z</time></trkpt><trkpt lat="43.6019309" lon="12.5365126"><ele>665.0</ele><time>2026-04-06T14:18:41.179Z</time></trkpt><trkpt lat="43.6019749" lon="12.5364195"><ele>660.3333333333333</ele><time>2026-04-06T14:18:42.175Z</time></trkpt><trkpt lat="43.6020199" lon="12.5363443"><ele>655.6666666666666</ele><time>2026-04-06T14:18:43.183Z</time></trkpt><trkpt lat="43.6020667" lon="12.5362775"><ele>651.0</ele><time>2026-04-06T14:18:44.18Z</time></trkpt><trkpt lat="43.6021399" lon="12.5361808"><ele>646.3333333333334</ele><time>2026-04-06T14:18:46.175Z</time></trkpt><trkpt lat="43.60221" lon="12.5360597"><ele>641.6666666666667</ele><time>2026-04-06T14:18:48.189Z</time></trkpt><trkpt lat="43.6022438" lon="12.5359747"><ele>637.0</ele><time>2026-04-06T14:18:49.184Z</time></trkpt><trkpt lat="43.6022732" lon="12.5358948"><ele>637.0</ele><time>2026-04-06T14:18:50.184Z</time></trkpt><trkpt lat="43.6023065" lon="12.5358095"><ele>637.0</ele><time>2026-04-06T14:18:51.191Z</time></trkpt><trkpt lat="43.6023456" lon="12.5357324"><ele>637.0</ele><time>2026-04-06T14:18:52.183Z</time></trkpt><trkpt lat="43.6023991" lon="12.5356669"><ele>637.0</ele><time>2026-04-06T14:18:53.18Z</time></trkpt><trkpt lat="43.6024553" lon="12.5356116"><ele>637.0</ele><time>2026-04-06T14:18:54.178Z</time></trkpt><trkpt lat="43.6025328" lon="12.5355837"><ele>637.0</ele><time>2026-04-06T14:18:55.191Z</time></trkpt><trkpt lat="43.6026152" lon="12.5355719"><ele>637.0</ele><time>2026-04-06T14:18:56.188Z</time></trkpt><trkpt lat="43.602681" lon="12.535565"><ele>637.0</ele><time>2026-04-06T14:18:57.195Z</time></trkpt><trkpt lat="43.6027484" lon="12.535542"><ele>637.0</ele><time>2026-04-06T14:18:58.183Z</time></trkpt><trkpt lat="43.6028117" lon="12.535507"><ele>637.0</ele><time>2026-04-06T14:18:59.194Z</time></trkpt><trkpt lat="43.602868" lon="12.535455"><ele>637.0</ele><time>2026-04-06T14:19:00.18Z</time></trkpt><trkpt lat="43.602929" lon="12.5353934"><ele>637.0</ele><time>2026-04-06T14:19:01.183Z</time></trkpt><trkpt lat="43.6029826" lon="12.5352978"><ele>637.0</ele><time>2026-04-06T14:19:02.181Z</time></trkpt><trkpt lat="43.6030309" lon="12.5352007"><ele>633.6666666666667</ele><time>2026-04-06T14:19:03.176Z</time></trkpt><trkpt lat="43.6030734" lon="12.5351048"><ele>630.3333333333334</ele><time>2026-04-06T14:19:04.188Z</time></trkpt><trkpt lat="43.6031103" lon="12.5350099"><ele>627.0</ele><time>2026-04-06T14:19:05.18Z</time></trkpt><trkpt lat="43.6031482" lon="12.5349156"><ele>623.6666666666666</ele><time>2026-04-06T14:19:06.184Z</time></trkpt><trkpt lat="43.6031832" lon="12.5348256"><ele>620.3333333333333</ele><time>2026-04-06T14:19:07.18Z</time></trkpt><trkpt lat="43.603218" lon="12.5347266"><ele>617.0</ele><time>2026-04-06T14:19:08.175Z</time></trkpt><trkpt lat="43.6032533" lon="12.5346277"><ele>621.1666666666666</ele><time>2026-04-06T14:19:09.183Z</time></trkpt><trkpt lat="43.6032892" lon="12.5345313"><ele>625.3333333333333</ele><time>2026-04-06T14:19:10.185Z</time></trkpt><trkpt lat="43.6033323" lon="12.5344362"><ele>629.5</ele><time>2026-04-06T14:19:11.186Z</time></trkpt><trkpt lat="43.6033676" lon="12.5343432"><ele>633.6666666666666</ele><time>2026-04-06T14:19:12.184Z</time></trkpt><trkpt lat="43.6034003" lon="12.5342445"><ele>637.8333333333334</ele><time>2026-04-06T14:19:13.186Z</time></trkpt><trkpt lat="43.6034375" lon="12.5341594"><ele>642.0</ele><time>2026-04-06T14:19:14.181Z</time></trkpt><trkpt lat="43.6034712" lon="12.5340848"><ele>642.0</ele><time>2026-04-06T14:19:15.193Z</time></trkpt><trkpt lat="43.6035811" lon="12.534014"><ele>642.0</ele><time>2026-04-06T14:19:17.188Z</time></trkpt><trkpt lat="43.6036487" lon="12.5339868"><ele>642.0</ele><time>2026-04-06T14:19:18.181Z</time></trkpt><trkpt lat="43.6037128" lon="12.5339411"><ele>642.0</ele><time>2026-04-06T14:19:19.173Z</time></trkpt><trkpt lat="43.6037671" lon="12.533875"><ele>642.0</ele><time>2026-04-06T14:19:20.174Z</time></trkpt><trkpt lat="43.6038131" lon="12.5337928"><ele>642.0</ele><time>2026-04-06T14:19:21.176Z</time></trkpt><trkpt lat="43.6038553" lon="12.5337118"><ele>637.6</ele><time>2026-04-06T14:19:22.17Z</time></trkpt><trkpt lat="43.6039368" lon="12.5336329"><ele>633.2</ele><time>2026-04-06T14:19:24.169Z</time></trkpt><trkpt lat="43.6040144" lon="12.5336547"><ele>628.8</ele><time>2026-04-06T14:19:28.19Z</time></trkpt><trkpt lat="43.6040069" lon="12.5337925"><ele>624.4</ele><time>2026-04-06T14:19:31.183Z</time></trkpt><trkpt lat="43.6039545" lon="12.5339819"><ele>620.0</ele><time>2026-04-06T14:19:33.178Z</time></trkpt><trkpt lat="43.6039299" lon="12.5340997"><ele>615.6666666666666</ele><time>2026-04-06T14:19:34.172Z</time></trkpt><trkpt lat="43.6039128" lon="12.5342155"><ele>611.3333333333333</ele><time>2026-04-06T14:19:35.17Z</time></trkpt><trkpt lat="43.60391" lon="12.5343303"><ele>607.0</ele><time>2026-04-06T14:19:36.166Z</time></trkpt><trkpt lat="43.6039094" lon="12.5344287"><ele>602.6666666666666</ele><time>2026-04-06T14:19:37.168Z</time></trkpt><trkpt lat="43.6039275" lon="12.5345908"><ele>598.3333333333334</ele><time>2026-04-06T14:19:39.17Z</time></trkpt><trkpt lat="43.6039246" lon="12.5347123"><ele>594.0</ele><time>2026-04-06T14:19:41.199Z</time></trkpt><trkpt lat="43.6039923" lon="12.5347668"><ele>594.0</ele><time>2026-04-06T14:19:46.197Z</time></trkpt><trkpt lat="43.6040693" lon="12.5346953"><ele>594.0</ele><time>2026-04-06T14:19:49.096Z</time></trkpt><trkpt lat="43.6041397" lon="12.5346597"><ele>594.0</ele><time>2026-04-06T14:19:50.162Z</time></trkpt><trkpt lat="43.6041958" lon="12.5346159"><ele>594.0</ele><time>2026-04-06T14:19:51.158Z</time></trkpt><trkpt lat="43.6042673" lon="12.5344591"><ele>594.0</ele><time>2026-04-06T14:19:53.175Z</time></trkpt><trkpt lat="43.6042968" lon="12.53436"><ele>594.0</ele><time>2026-04-06T14:19:54.162Z</time></trkpt><trkpt lat="43.6043233" lon="12.5342742"><ele>594.0</ele><time>2026-04-06T14:19:55.17Z</time></trkpt><trkpt lat="43.604397" lon="12.5341928"><ele>594.0</ele><time>2026-04-06T14:19:57.172Z</time></trkpt><trkpt lat="43.6045169" lon="12.5342856"><ele>594.0</ele><time>2026-04-06T14:19:59.172Z</time></trkpt><trkpt lat="43.6045948" lon="12.5343539"><ele>594.0</ele><time>2026-04-06T14:20:00.169Z</time></trkpt><trkpt lat="43.604676" lon="12.5344066"><ele>594.0</ele><time>2026-04-06T14:20:01.171Z</time></trkpt><trkpt lat="43.6047558" lon="12.5344515"><ele>590.5</ele><time>2026-04-06T14:20:02.168Z</time></trkpt><trkpt lat="43.6048371" lon="12.5344866"><ele>587.0</ele><time>2026-04-06T14:20:03.176Z</time></trkpt><trkpt lat="43.6049204" lon="12.5345073"><ele>583.5</ele><time>2026-04-06T14:20:04.17Z</time></trkpt><trkpt lat="43.604999" lon="12.5345081"><ele>580.0</ele><time>2026-04-06T14:20:05.171Z</time></trkpt><trkpt lat="43.6050746" lon="12.5344982"><ele>576.5</ele><time>2026-04-06T14:20:06.172Z</time></trkpt><trkpt lat="43.6051442" lon="12.5344984"><ele>573.0</ele><time>2026-04-06T14:20:07.172Z</time></trkpt><trkpt lat="43.6052098" lon="12.5345228"><ele>570.8</ele><time>2026-04-06T14:20:08.172Z</time></trkpt><trkpt lat="43.6052755" lon="12.5345676"><ele>568.5999999999999</ele><time>2026-04-06T14:20:09.169Z</time></trkpt><trkpt lat="43.60538" lon="12.5345967"><ele>566.4000000000001</ele><time>2026-04-06T14:20:11.167Z</time></trkpt><trkpt lat="43.6054893" lon="12.5345201"><ele>564.2</ele><time>2026-04-06T14:20:13.166Z</time></trkpt><trkpt lat="43.6055706" lon="12.5343915"><ele>562.0</ele><time>2026-04-06T14:20:15.17Z</time></trkpt><trkpt lat="43.6056561" lon="12.53433"><ele>562.0</ele><time>2026-04-06T14:20:17.175Z</time></trkpt><trkpt lat="43.6057241" lon="12.5343876"><ele>562.0</ele><time>2026-04-06T14:20:19.195Z</time></trkpt><trkpt lat="43.6057472" lon="12.5345236"><ele>562.0</ele><time>2026-04-06T14:20:21.198Z</time></trkpt><trkpt lat="43.6057392" lon="12.5346479"><ele>562.0</ele><time>2026-04-06T14:20:23.198Z</time></trkpt><trkpt lat="43.605784" lon="12.5347183"><ele>562.0</ele><time>2026-04-06T14:20:25.193Z</time></trkpt><trkpt lat="43.6058898" lon="12.5347463"><ele>562.0</ele><time>2026-04-06T14:20:27.17Z</time></trkpt><trkpt lat="43.6059626" lon="12.5347315"><ele>559.0</ele><time>2026-04-06T14:20:28.167Z</time></trkpt><trkpt lat="43.6060359" lon="12.5347097"><ele>556.0</ele><time>2026-04-06T14:20:29.179Z</time></trkpt><trkpt lat="43.6061037" lon="12.5346958"><ele>553.0</ele><time>2026-04-06T14:20:30.171Z</time></trkpt><trkpt lat="43.6062096" lon="12.5346948"><ele>550.0</ele><time>2026-04-06T14:20:32.16Z</time></trkpt><trkpt lat="43.6063118" lon="12.5347618"><ele>547.0</ele><time>2026-04-06T14:20:34.173Z</time></trkpt><trkpt lat="43.6063597" lon="12.5348266"><ele>544.0</ele><time>2026-04-06T14:20:35.173Z</time></trkpt><trkpt lat="43.6064015" lon="12.5349112"><ele>543.5</ele><time>2026-04-06T14:20:36.177Z</time></trkpt><trkpt lat="43.6064331" lon="12.5350015"><ele>543.0</ele><time>2026-04-06T14:20:37.176Z</time></trkpt><trkpt lat="43.6064647" lon="12.5350816"><ele>542.5</ele><time>2026-04-06T14:20:38.175Z</time></trkpt><trkpt lat="43.6065107" lon="12.5352175"><ele>542.0</ele><time>2026-04-06T14:20:40.168Z</time></trkpt><trkpt lat="43.6065773" lon="12.5353267"><ele>541.5</ele><time>2026-04-06T14:20:42.169Z</time></trkpt><trkpt lat="43.6066385" lon="12.5353916"><ele>541.0</ele><time>2026-04-06T14:20:44.198Z</time></trkpt><trkpt lat="43.6066993" lon="12.535435"><ele>535.4</ele><time>2026-04-06T14:20:46.192Z</time></trkpt><trkpt lat="43.6067609" lon="12.5355132"><ele>529.8</ele><time>2026-04-06T14:20:49.195Z</time></trkpt><trkpt lat="43.6067078" lon="12.5356142"><ele>524.1999999999999</ele><time>2026-04-06T14:20:52.189Z</time></trkpt><trkpt lat="43.606643" lon="12.5356527"><ele>518.6</ele><time>2026-04-06T14:20:53.164Z</time></trkpt><trkpt lat="43.6064986" lon="12.535699"><ele>513.0</ele><time>2026-04-06T14:20:55.174Z</time></trkpt><trkpt lat="43.6063961" lon="12.5357648"><ele>513.0</ele><time>2026-04-06T14:20:57.182Z</time></trkpt><trkpt lat="43.6063505" lon="12.5358363"><ele>513.0</ele><time>2026-04-06T14:20:59.194Z</time></trkpt><trkpt lat="43.6064124" lon="12.535925"><ele>513.0</ele><time>2026-04-06T14:21:02.188Z</time></trkpt><trkpt lat="43.6064866" lon="12.5359457"><ele>513.0</ele><time>2026-04-06T14:21:03.168Z</time></trkpt><trkpt lat="43.6065637" lon="12.535926"><ele>513.0</ele><time>2026-04-06T14:21:04.164Z</time></trkpt><trkpt lat="43.606664" lon="12.5359351"><ele>513.0</ele><time>2026-04-06T14:21:06.165Z</time></trkpt><trkpt lat="43.6067307" lon="12.5359873"><ele>513.0</ele><time>2026-04-06T14:21:08.191Z</time></trkpt><trkpt lat="43.6067242" lon="12.5360746"><ele>513.0</ele><time>2026-04-06T14:21:10.186Z</time></trkpt><trkpt lat="43.606681" lon="12.5361414"><ele>513.0</ele><time>2026-04-06T14:21:11.19Z</time></trkpt><trkpt lat="43.6066096" lon="12.5362169"><ele>513.0</ele><time>2026-04-06T14:21:12.168Z</time></trkpt><trkpt lat="43.6065224" lon="12.5362884"><ele>513.0</ele><time>2026-04-06T14:21:13.168Z</time></trkpt><trkpt lat="43.6064257" lon="12.536336"><ele>513.0</ele><time>2026-04-06T14:21:14.167Z</time></trkpt><trkpt lat="43.6063384" lon="12.5363711"><ele>511.0</ele><time>2026-04-06T14:21:15.175Z</time></trkpt><trkpt lat="43.6062576" lon="12.536404"><ele>509.0</ele><time>2026-04-06T14:21:16.171Z</time></trkpt><trkpt lat="43.6061757" lon="12.5364404"><ele>507.0</ele><time>2026-04-06T14:21:17.169Z</time></trkpt><trkpt lat="43.6061096" lon="12.5364825"><ele>505.0</ele><time>2026-04-06T14:21:18.169Z</time></trkpt><trkpt lat="43.6060361" lon="12.5365531"><ele>503.0</ele><time>2026-04-06T14:21:20.171Z</time></trkpt><trkpt lat="43.6060745" lon="12.5366677"><ele>501.0</ele><time>2026-04-06T14:21:24.191Z</time></trkpt><trkpt lat="43.6061496" lon="12.5366969"><ele>499.20000000000005</ele><time>2026-04-06T14:21:25.172Z</time></trkpt><trkpt lat="43.6062594" lon="12.5367307"><ele>497.40000000000003</ele><time>2026-04-06T14:21:26.175Z</time></trkpt><trkpt lat="43.6063601" lon="12.5367622"><ele>495.6</ele><time>2026-04-06T14:21:27.169Z</time></trkpt><trkpt lat="43.6064299" lon="12.5368011"><ele>493.8</ele><time>2026-04-06T14:21:28.161Z</time></trkpt><trkpt lat="43.6064989" lon="12.5368292"><ele>492.0</ele><time>2026-04-06T14:21:29.161Z</time></trkpt><trkpt lat="43.6066034" lon="12.536827"><ele>492.0</ele><time>2026-04-06T14:21:31.155Z</time></trkpt><trkpt lat="43.606694" lon="12.5368551"><ele>492.00000000000006</ele><time>2026-04-06T14:21:33.192Z</time></trkpt><trkpt lat="43.6067072" lon="12.5369815"><ele>492.00000000000006</ele><time>2026-04-06T14:21:36.185Z</time></trkpt><trkpt lat="43.6066327" lon="12.5370555"><ele>492.0</ele><time>2026-04-06T14:21:38.194Z</time></trkpt><trkpt lat="43.6065682" lon="12.537087"><ele>492.0</ele><time>2026-04-06T14:21:39.166Z</time></trkpt><trkpt lat="43.6064638" lon="12.5371357"><ele>488.5</ele><time>2026-04-06T14:21:41.166Z</time></trkpt><trkpt lat="43.6064091" lon="12.5372181"><ele>485.0</ele><time>2026-04-06T14:21:43.19Z</time></trkpt><trkpt lat="43.6064669" lon="12.537351"><ele>481.5</ele><time>2026-04-06T14:21:45.165Z</time></trkpt><trkpt lat="43.6065403" lon="12.5374286"><ele>478.0</ele><time>2026-04-06T14:21:46.174Z</time></trkpt><trkpt lat="43.6066072" lon="12.537475"><ele>474.5</ele><time>2026-04-06T14:21:47.171Z</time></trkpt><trkpt lat="43.6066706" lon="12.5375118"><ele>471.0</ele><time>2026-04-06T14:21:48.154Z</time></trkpt><trkpt lat="43.6067349" lon="12.5375173"><ele>471.0</ele><time>2026-04-06T14:21:49.166Z</time></trkpt><trkpt lat="43.6068204" lon="12.5374968"><ele>471.0</ele><time>2026-04-06T14:21:50.161Z</time></trkpt><trkpt lat="43.6069192" lon="12.5374579"><ele>471.0</ele><time>2026-04-06T14:21:51.156Z</time></trkpt><trkpt lat="43.6070209" lon="12.5374182"><ele>471.0</ele><time>2026-04-06T14:21:52.155Z</time></trkpt><trkpt lat="43.6071244" lon="12.537386"><ele>471.0</ele><time>2026-04-06T14:21:53.16Z</time></trkpt><trkpt lat="43.6072283" lon="12.5373638"><ele>467.6</ele><time>2026-04-06T14:21:54.155Z</time></trkpt><trkpt lat="43.6073318" lon="12.5373342"><ele>464.20000000000005</ele><time>2026-04-06T14:21:55.154Z</time></trkpt><trkpt lat="43.6074307" lon="12.5372838"><ele>460.79999999999995</ele><time>2026-04-06T14:21:56.159Z</time></trkpt><trkpt lat="43.6075153" lon="12.5372317"><ele>457.4</ele><time>2026-04-06T14:21:57.162Z</time></trkpt><trkpt lat="43.6075917" lon="12.5371761"><ele>454.0</ele><time>2026-04-06T14:21:58.162Z</time></trkpt><trkpt lat="43.6076769" lon="12.5371316"><ele>454.00000000000006</ele><time>2026-04-06T14:21:59.159Z</time></trkpt><trkpt lat="43.6077587" lon="12.5370848"><ele>454.0</ele><time>2026-04-06T14:22:00.16Z</time></trkpt><trkpt lat="43.6078326" lon="12.5370357"><ele>454.0</ele><time>2026-04-06T14:22:01.156Z</time></trkpt><trkpt lat="43.607885" lon="12.5369815"><ele>454.0</ele><time>2026-04-06T14:22:02.151Z</time></trkpt><trkpt lat="43.6079819" lon="12.5369231"><ele>454.00000000000006</ele><time>2026-04-06T14:22:04.152Z</time></trkpt><trkpt lat="43.6080401" lon="12.5369736"><ele>454.0</ele><time>2026-04-06T14:22:06.171Z</time></trkpt><trkpt lat="43.6080154" lon="12.5370983"><ele>454.0</ele><time>2026-04-06T14:22:08.168Z</time></trkpt><trkpt lat="43.6079573" lon="12.5371707"><ele>454.0</ele><time>2026-04-06T14:22:09.156Z</time></trkpt><trkpt lat="43.6078618" lon="12.5372546"><ele>454.0</ele><time>2026-04-06T14:22:10.153Z</time></trkpt><trkpt lat="43.6077733" lon="12.537349"><ele>454.0</ele><time>2026-04-06T14:22:11.155Z</time></trkpt><trkpt lat="43.6076946" lon="12.5374603"><ele>454.0</ele><time>2026-04-06T14:22:12.154Z</time></trkpt><trkpt lat="43.6076222" lon="12.5375958"><ele>454.00000000000006</ele><time>2026-04-06T14:22:13.155Z</time></trkpt><trkpt lat="43.6075734" lon="12.5377199"><ele>454.0</ele><time>2026-04-06T14:22:14.155Z</time></trkpt><trkpt lat="43.6075375" lon="12.5378385"><ele>454.0</ele><time>2026-04-06T14:22:15.159Z</time></trkpt><trkpt lat="43.607511" lon="12.5379525"><ele>454.0</ele><time>2026-04-06T14:22:16.153Z</time></trkpt><trkpt lat="43.6074933" lon="12.5380511"><ele>454.00000000000006</ele><time>2026-04-06T14:22:17.157Z</time></trkpt><trkpt lat="43.6074705" lon="12.5381413"><ele>454.0</ele><time>2026-04-06T14:22:18.149Z</time></trkpt><trkpt lat="43.6073915" lon="12.5382687"><ele>447.79999999999995</ele><time>2026-04-06T14:22:20.167Z</time></trkpt><trkpt lat="43.6072485" lon="12.5383166"><ele>441.59999999999997</ele><time>2026-04-06T14:22:22.161Z</time></trkpt><trkpt lat="43.6071785" lon="12.538358"><ele>435.4</ele><time>2026-04-06T14:22:23.165Z</time></trkpt><trkpt lat="43.6070961" lon="12.5384178"><ele>429.2</ele><time>2026-04-06T14:22:25.165Z</time></trkpt><trkpt lat="43.6070445" lon="12.5385023"><ele>423.0</ele><time>2026-04-06T14:22:28.183Z</time></trkpt><trkpt lat="43.6070924" lon="12.5385623"><ele>423.0</ele><time>2026-04-06T14:22:31.181Z</time></trkpt><trkpt lat="43.6072049" lon="12.5385513"><ele>423.0</ele><time>2026-04-06T14:22:33.18Z</time></trkpt><trkpt lat="43.6072677" lon="12.5385167"><ele>423.0</ele><time>2026-04-06T14:22:34.16Z</time></trkpt><trkpt lat="43.6073544" lon="12.5385019"><ele>423.0</ele><time>2026-04-06T14:22:36.181Z</time></trkpt><trkpt lat="43.6073883" lon="12.5385865"><ele>423.0</ele><time>2026-04-06T14:22:39.18Z</time></trkpt><trkpt lat="43.607363" lon="12.5386717"><ele>423.0</ele><time>2026-04-06T14:22:41.182Z</time></trkpt><trkpt lat="43.6073183" lon="12.5387867"><ele>423.0</ele><time>2026-04-06T14:22:43.159Z</time></trkpt><trkpt lat="43.6072998" lon="12.5388936"><ele>423.0</ele><time>2026-04-06T14:22:45.174Z</time></trkpt><trkpt lat="43.6073676" lon="12.5389606"><ele>423.0</ele><time>2026-04-06T14:22:48.178Z</time></trkpt><trkpt lat="43.6074733" lon="12.5388769"><ele>423.0</ele><time>2026-04-06T14:22:51.184Z</time></trkpt><trkpt lat="43.6075422" lon="12.5387554"><ele>423.0</ele><time>2026-04-06T14:22:53.162Z</time></trkpt><trkpt lat="43.6076066" lon="12.538717"><ele>420.8333333333333</ele><time>2026-04-06T14:22:55.175Z</time></trkpt><trkpt lat="43.6076565" lon="12.5388251"><ele>418.66666666666663</ele><time>2026-04-06T14:22:58.176Z</time></trkpt><trkpt lat="43.6076374" lon="12.5389214"><ele>416.5</ele><time>2026-04-06T14:23:00.178Z</time></trkpt><trkpt lat="43.6076212" lon="12.5390104"><ele>414.3333333333333</ele><time>2026-04-06T14:23:01.16Z</time></trkpt><trkpt lat="43.6075954" lon="12.5391431"><ele>412.16666666666663</ele><time>2026-04-06T14:23:02.166Z</time></trkpt><trkpt lat="43.6075667" lon="12.5392877"><ele>410.0</ele><time>2026-04-06T14:23:03.154Z</time></trkpt><trkpt lat="43.6075467" lon="12.5394261"><ele>410.0</ele><time>2026-04-06T14:23:04.165Z</time></trkpt><trkpt lat="43.6075341" lon="12.5395481"><ele>410.0</ele><time>2026-04-06T14:23:05.161Z</time></trkpt><trkpt lat="43.607531" lon="12.539669"><ele>410.0</ele><time>2026-04-06T14:23:06.16Z</time></trkpt><trkpt lat="43.6075205" lon="12.5397937"><ele>410.0</ele><time>2026-04-06T14:23:07.161Z</time></trkpt><trkpt lat="43.6075088" lon="12.5399265"><ele>410.0</ele><time>2026-04-06T14:23:08.156Z</time></trkpt><trkpt lat="43.6074856" lon="12.5400852"><ele>406.75</ele><time>2026-04-06T14:23:09.157Z</time></trkpt><trkpt lat="43.6074526" lon="12.5402623"><ele>403.5</ele><time>2026-04-06T14:23:10.165Z</time></trkpt><trkpt lat="43.6074191" lon="12.5404589"><ele>400.25</ele><time>2026-04-06T14:23:11.169Z</time></trkpt><trkpt lat="43.607388" lon="12.5406701"><ele>397.0</ele><time>2026-04-06T14:23:12.164Z</time></trkpt><trkpt lat="43.6073519" lon="12.5408239"><ele>396.6</ele><time>2026-04-06T14:23:13.161Z</time></trkpt><trkpt lat="43.6073474" lon="12.540935"><ele>396.20000000000005</ele><time>2026-04-06T14:23:14.163Z</time></trkpt><trkpt lat="43.6072867" lon="12.5410543"><ele>395.8</ele><time>2026-04-06T14:23:15.167Z</time></trkpt><trkpt lat="43.6071882" lon="12.541164"><ele>395.4</ele><time>2026-04-06T14:23:16.165Z</time></trkpt><trkpt lat="43.6070717" lon="12.5412627"><ele>395.0</ele><time>2026-04-06T14:23:17.174Z</time></trkpt><trkpt lat="43.6069837" lon="12.5413539"><ele>390.5</ele><time>2026-04-06T14:23:18.171Z</time></trkpt><trkpt lat="43.606892" lon="12.5414582"><ele>386.0</ele><time>2026-04-06T14:23:19.167Z</time></trkpt><trkpt lat="43.6067969" lon="12.5415714"><ele>381.5</ele><time>2026-04-06T14:23:20.17Z</time></trkpt><trkpt lat="43.6067129" lon="12.5417178"><ele>377.0</ele><time>2026-04-06T14:23:21.165Z</time></trkpt><trkpt lat="43.6066357" lon="12.5418925"><ele>375.33333333333337</ele><time>2026-04-06T14:23:22.171Z</time></trkpt><trkpt lat="43.6065627" lon="12.5421259"><ele>373.6666666666667</ele><time>2026-04-06T14:23:23.17Z</time></trkpt><trkpt lat="43.6064825" lon="12.5423253"><ele>372.0</ele><time>2026-04-06T14:23:24.165Z</time></trkpt><trkpt lat="43.6064178" lon="12.5425126"><ele>372.0</ele><time>2026-04-06T14:23:25.17Z</time></trkpt><trkpt lat="43.6063393" lon="12.5427104"><ele>372.0</ele><time>2026-04-06T14:23:26.172Z</time></trkpt><trkpt lat="43.6062728" lon="12.5429158"><ele>372.0</ele><time>2026-04-06T14:23:27.173Z</time></trkpt><trkpt lat="43.6062086" lon="12.5431248"><ele>368.5</ele><time>2026-04-06T14:23:28.165Z</time></trkpt><trkpt lat="43.6061306" lon="12.5432968"><ele>365.0</ele><time>2026-04-06T14:23:29.166Z</time></trkpt><trkpt lat="43.606054" lon="12.5434424"><ele>361.5</ele><time>2026-04-06T14:23:30.157Z</time></trkpt><trkpt lat="43.605984" lon="12.5435814"><ele>358.0</ele><time>2026-04-06T14:23:31.16Z</time></trkpt><trkpt lat="43.6058882" lon="12.5437263"><ele>358.0</ele><time>2026-04-06T14:23:32.173Z</time></trkpt><trkpt lat="43.6058128" lon="12.5438435"><ele>358.0</ele><time>2026-04-06T14:23:33.168Z</time></trkpt><trkpt lat="43.6057185" lon="12.5439623"><ele>358.0</ele><time>2026-04-06T14:23:34.171Z</time></trkpt><trkpt lat="43.6056065" lon="12.5440965"><ele>358.0</ele><time>2026-04-06T14:23:35.172Z</time></trkpt><trkpt lat="43.6055147" lon="12.5442212"><ele>358.0</ele><time>2026-04-06T14:23:36.169Z</time></trkpt><trkpt lat="43.6054491" lon="12.5443254"><ele>358.0</ele><time>2026-04-06T14:23:37.173Z</time></trkpt><trkpt lat="43.6053692" lon="12.5444179"><ele>358.0</ele><time>2026-04-06T14:23:38.172Z</time></trkpt><trkpt lat="43.6052931" lon="12.5445076"><ele>358.0</ele><time>2026-04-06T14:23:39.177Z</time></trkpt><trkpt lat="43.6052237" lon="12.5446254"><ele>358.0</ele><time>2026-04-06T14:23:40.177Z</time></trkpt><trkpt lat="43.6051766" lon="12.5447768"><ele>357.0</ele><time>2026-04-06T14:23:41.17Z</time></trkpt><trkpt lat="43.6051389" lon="12.5449359"><ele>356.0</ele><time>2026-04-06T14:23:42.177Z</time></trkpt><trkpt lat="43.6051131" lon="12.5450699"><ele>355.0</ele><time>2026-04-06T14:23:43.162Z</time></trkpt><trkpt lat="43.6050898" lon="12.5451918"><ele>354.0</ele><time>2026-04-06T14:23:44.173Z</time></trkpt><trkpt lat="43.6050786" lon="12.5453132"><ele>353.0</ele><time>2026-04-06T14:23:45.169Z</time></trkpt><trkpt lat="43.6050707" lon="12.5454321"><ele>349.59999999999997</ele><time>2026-04-06T14:23:46.164Z</time></trkpt><trkpt lat="43.6050746" lon="12.5455583"><ele>346.2</ele><time>2026-04-06T14:23:47.171Z</time></trkpt><trkpt lat="43.6050937" lon="12.5457087"><ele>342.8</ele><time>2026-04-06T14:23:48.163Z</time></trkpt><trkpt lat="43.6051311" lon="12.5458607"><ele>339.4</ele><time>2026-04-06T14:23:49.174Z</time></trkpt><trkpt lat="43.605153" lon="12.5459982"><ele>336.0</ele><time>2026-04-06T14:23:50.167Z</time></trkpt><trkpt lat="43.605153" lon="12.5461271"><ele>336.4</ele><time>2026-04-06T14:23:51.169Z</time></trkpt><trkpt lat="43.6051337" lon="12.5462492"><ele>336.8</ele><time>2026-04-06T14:23:52.171Z</time></trkpt><trkpt lat="43.6050985" lon="12.5463354"><ele>337.2</ele><time>2026-04-06T14:23:53.167Z</time></trkpt><trkpt lat="43.6050425" lon="12.5464305"><ele>337.59999999999997</ele><time>2026-04-06T14:23:54.169Z</time></trkpt><trkpt lat="43.6049638" lon="12.5465302"><ele>338.0</ele><time>2026-04-06T14:23:55.172Z</time></trkpt><trkpt lat="43.6048699" lon="12.5466134"><ele>338.0</ele><time>2026-04-06T14:23:56.178Z</time></trkpt><trkpt lat="43.6047826" lon="12.5466975"><ele>338.0</ele><time>2026-04-06T14:23:57.174Z</time></trkpt><trkpt lat="43.6047117" lon="12.5468233"><ele>338.0</ele><time>2026-04-06T14:23:58.166Z</time></trkpt><trkpt lat="43.6046353" lon="12.5469635"><ele>338.0</ele><time>2026-04-06T14:23:59.171Z</time></trkpt><trkpt lat="43.6045497" lon="12.5470932"><ele>335.75</ele><time>2026-04-06T14:24:00.168Z</time></trkpt><trkpt lat="43.6044434" lon="12.54722"><ele>333.5</ele><time>2026-04-06T14:24:01.171Z</time></trkpt><trkpt lat="43.6043127" lon="12.5473317"><ele>331.25</ele><time>2026-04-06T14:24:02.169Z</time></trkpt><trkpt lat="43.604223" lon="12.5474132"><ele>329.0</ele><time>2026-04-06T14:24:03.169Z</time></trkpt><trkpt lat="43.604152" lon="12.5474954"><ele>329.0</ele><time>2026-04-06T14:24:04.165Z</time></trkpt><trkpt lat="43.604064" lon="12.5475856"><ele>329.0</ele><time>2026-04-06T14:24:05.167Z</time></trkpt><trkpt lat="43.6039967" lon="12.5477085"><ele>329.0</ele><time>2026-04-06T14:24:06.171Z</time></trkpt><trkpt lat="43.6039391" lon="12.5478522"><ele>329.0</ele><time>2026-04-06T14:24:07.172Z</time></trkpt><trkpt lat="43.6038757" lon="12.5479805"><ele>330.5</ele><time>2026-04-06T14:24:08.168Z</time></trkpt><trkpt lat="43.6038157" lon="12.5481045"><ele>332.0</ele><time>2026-04-06T14:24:09.172Z</time></trkpt><trkpt lat="43.6037613" lon="12.5482487"><ele>333.5</ele><time>2026-04-06T14:24:10.18Z</time></trkpt><trkpt lat="43.6037185" lon="12.5484039"><ele>335.0</ele><time>2026-04-06T14:24:11.179Z</time></trkpt><trkpt lat="43.6036767" lon="12.548547"><ele>333.5</ele><time>2026-04-06T14:24:12.169Z</time></trkpt><trkpt lat="43.6036106" lon="12.5486924"><ele>332.0</ele><time>2026-04-06T14:24:13.17Z</time></trkpt><trkpt lat="43.603527" lon="12.5488407"><ele>330.5</ele><time>2026-04-06T14:24:14.174Z</time></trkpt><trkpt lat="43.6034259" lon="12.5489977"><ele>329.0</ele><time>2026-04-06T14:24:15.174Z</time></trkpt><trkpt lat="43.6033259" lon="12.5491221"><ele>328.4</ele><time>2026-04-06T14:24:16.177Z</time></trkpt><trkpt lat="43.6032363" lon="12.549215"><ele>327.79999999999995</ele><time>2026-04-06T14:24:17.175Z</time></trkpt><trkpt lat="43.6031571" lon="12.5492985"><ele>327.20000000000005</ele><time>2026-04-06T14:24:18.177Z</time></trkpt><trkpt lat="43.6030955" lon="12.5493818"><ele>326.6</ele><time>2026-04-06T14:24:19.179Z</time></trkpt><trkpt lat="43.6030377" lon="12.54949"><ele>326.0</ele><time>2026-04-06T14:24:20.173Z</time></trkpt><trkpt lat="43.6029941" lon="12.5496237"><ele>326.0</ele><time>2026-04-06T14:24:21.169Z</time></trkpt><trkpt lat="43.6029579" lon="12.5497652"><ele>326.0</ele><time>2026-04-06T14:24:22.172Z</time></trkpt><trkpt lat="43.6029017" lon="12.5498995"><ele>326.0</ele><time>2026-04-06T14:24:23.172Z</time></trkpt><trkpt lat="43.6028356" lon="12.5500361"><ele>326.0</ele><time>2026-04-06T14:24:24.171Z</time></trkpt><trkpt lat="43.6027567" lon="12.5501614"><ele>325.5</ele><time>2026-04-06T14:24:25.168Z</time></trkpt><trkpt lat="43.6026821" lon="12.5502904"><ele>325.0</ele><time>2026-04-06T14:24:26.173Z</time></trkpt><trkpt lat="43.6026235" lon="12.5504389"><ele>324.5</ele><time>2026-04-06T14:24:27.175Z</time></trkpt><trkpt lat="43.6025661" lon="12.5505895"><ele>324.0</ele><time>2026-04-06T14:24:28.172Z</time></trkpt><trkpt lat="43.6025266" lon="12.5507468"><ele>323.25</ele><time>2026-04-06T14:24:29.174Z</time></trkpt><trkpt lat="43.602498" lon="12.5509296"><ele>322.5</ele><time>2026-04-06T14:24:30.178Z</time></trkpt><trkpt lat="43.6024792" lon="12.5511118"><ele>321.75</ele><time>2026-04-06T14:24:31.179Z</time></trkpt><trkpt lat="43.6024458" lon="12.5512859"><ele>321.0</ele><time>2026-04-06T14:24:32.174Z</time></trkpt><trkpt lat="43.6023953" lon="12.5514685"><ele>321.0</ele><time>2026-04-06T14:24:33.179Z</time></trkpt><trkpt lat="43.6023288" lon="12.5516357"><ele>321.0</ele><time>2026-04-06T14:24:34.174Z</time></trkpt><trkpt lat="43.602258" lon="12.5518043"><ele>321.0</ele><time>2026-04-06T14:24:35.175Z</time></trkpt><trkpt lat="43.6022063" lon="12.5520387"><ele>323.0</ele><time>2026-04-06T14:24:36.176Z</time></trkpt><trkpt lat="43.6021335" lon="12.5522679"><ele>325.0</ele><time>2026-04-06T14:24:37.175Z</time></trkpt><trkpt lat="43.6020923" lon="12.5524773"><ele>327.0</ele><time>2026-04-06T14:24:38.175Z</time></trkpt><trkpt lat="43.6020413" lon="12.5526791"><ele>327.0</ele><time>2026-04-06T14:24:39.176Z</time></trkpt><trkpt lat="43.6020015" lon="12.5528627"><ele>327.0</ele><time>2026-04-06T14:24:40.178Z</time></trkpt><trkpt lat="43.6019636" lon="12.5530429"><ele>327.0</ele><time>2026-04-06T14:24:41.179Z</time></trkpt><trkpt lat="43.6019193" lon="12.5532185"><ele>327.0</ele><time>2026-04-06T14:24:42.174Z</time></trkpt><trkpt lat="43.6018597" lon="12.5533933"><ele>321.5</ele><time>2026-04-06T14:24:43.173Z</time></trkpt><trkpt lat="43.6017888" lon="12.5535567"><ele>316.0</ele><time>2026-04-06T14:24:44.175Z</time></trkpt><trkpt lat="43.6017145" lon="12.5537183"><ele>310.5</ele><time>2026-04-06T14:24:45.178Z</time></trkpt><trkpt lat="43.6016386" lon="12.5538729"><ele>305.0</ele><time>2026-04-06T14:24:46.175Z</time></trkpt><trkpt lat="43.6015863" lon="12.5540086"><ele>303.6666666666667</ele><time>2026-04-06T14:24:47.176Z</time></trkpt><trkpt lat="43.6015497" lon="12.5541312"><ele>302.33333333333337</ele><time>2026-04-06T14:24:48.18Z</time></trkpt><trkpt lat="43.6015121" lon="12.5542451"><ele>301.0</ele><time>2026-04-06T14:24:49.183Z</time></trkpt><trkpt lat="43.6014776" lon="12.5543572"><ele>299.6666666666667</ele><time>2026-04-06T14:24:50.184Z</time></trkpt><trkpt lat="43.6014638" lon="12.5544497"><ele>298.3333333333333</ele><time>2026-04-06T14:24:51.18Z</time></trkpt><trkpt lat="43.6014494" lon="12.5545741"><ele>297.0</ele><time>2026-04-06T14:24:53.186Z</time></trkpt><trkpt lat="43.6014573" lon="12.5546813"><ele>295.0</ele><time>2026-04-06T14:25:03.211Z</time></trkpt><trkpt lat="43.6014646" lon="12.5548201"><ele>293.0</ele><time>2026-04-06T14:25:05.214Z</time></trkpt><trkpt lat="43.6015081" lon="12.5549087"><ele>291.0</ele><time>2026-04-06T14:25:06.187Z</time></trkpt><trkpt lat="43.6015916" lon="12.5549947"><ele>289.0</ele><time>2026-04-06T14:25:07.185Z</time></trkpt><trkpt lat="43.6017033" lon="12.5551013"><ele>287.0</ele><time>2026-04-06T14:25:08.187Z</time></trkpt><trkpt lat="43.6018313" lon="12.5552359"><ele>287.6666666666667</ele><time>2026-04-06T14:25:09.191Z</time></trkpt><trkpt lat="43.6019983" lon="12.5553921"><ele>288.3333333333333</ele><time>2026-04-06T14:25:10.185Z</time></trkpt><trkpt lat="43.6021583" lon="12.5555675"><ele>289.0</ele><time>2026-04-06T14:25:11.192Z</time></trkpt><trkpt lat="43.6023225" lon="12.5557504"><ele>289.0</ele><time>2026-04-06T14:25:12.197Z</time></trkpt><trkpt lat="43.6024935" lon="12.5559495"><ele>289.0</ele><time>2026-04-06T14:25:13.199Z</time></trkpt><trkpt lat="43.6026674" lon="12.556133"><ele>289.0</ele><time>2026-04-06T14:25:14.2Z</time></trkpt><trkpt lat="43.6028385" lon="12.5563155"><ele>289.3333333333333</ele><time>2026-04-06T14:25:15.2Z</time></trkpt><trkpt lat="43.6030064" lon="12.5564941"><ele>289.6666666666667</ele><time>2026-04-06T14:25:16.194Z</time></trkpt><trkpt lat="43.6031668" lon="12.5566616"><ele>290.0</ele><time>2026-04-06T14:25:17.199Z</time></trkpt><trkpt lat="43.6033525" lon="12.5568181"><ele>290.0</ele><time>2026-04-06T14:25:18.195Z</time></trkpt><trkpt lat="43.6035421" lon="12.5569725"><ele>290.0</ele><time>2026-04-06T14:25:19.196Z</time></trkpt><trkpt lat="43.603728" lon="12.557085"><ele>290.0</ele><time>2026-04-06T14:25:20.194Z</time></trkpt><trkpt lat="43.6039364" lon="12.5571942"><ele>289.33333333333337</ele><time>2026-04-06T14:25:21.196Z</time></trkpt><trkpt lat="43.60414" lon="12.5572919"><ele>288.6666666666667</ele><time>2026-04-06T14:25:22.193Z</time></trkpt><trkpt lat="43.6043355" lon="12.5574041"><ele>288.0</ele><time>2026-04-06T14:25:23.202Z</time></trkpt><trkpt lat="43.6045181" lon="12.5575254"><ele>289.3333333333333</ele><time>2026-04-06T14:25:24.192Z</time></trkpt><trkpt lat="43.6046947" lon="12.5576772"><ele>290.66666666666663</ele><time>2026-04-06T14:25:25.192Z</time></trkpt><trkpt lat="43.6048528" lon="12.5578379"><ele>292.0</ele><time>2026-04-06T14:25:26.193Z</time></trkpt><trkpt lat="43.6049771" lon="12.5580267"><ele>289.3333333333333</ele><time>2026-04-06T14:25:27.194Z</time></trkpt><trkpt lat="43.6050887" lon="12.5582206"><ele>286.6666666666667</ele><time>2026-04-06T14:25:28.192Z</time></trkpt><trkpt lat="43.6051886" lon="12.5584535"><ele>284.0</ele><time>2026-04-06T14:25:29.191Z</time></trkpt><trkpt lat="43.6053031" lon="12.5587078"><ele>286.0</ele><time>2026-04-06T14:25:30.192Z</time></trkpt><trkpt lat="43.6054403" lon="12.5589604"><ele>288.0</ele><time>2026-04-06T14:25:31.194Z</time></trkpt><trkpt lat="43.605578" lon="12.5592237"><ele>288.0</ele><time>2026-04-06T14:25:32.191Z</time></trkpt><trkpt lat="43.6057357" lon="12.5595113"><ele>288.0</ele><time>2026-04-06T14:25:33.186Z</time></trkpt><trkpt lat="43.6058769" lon="12.5598014"><ele>289.5</ele><time>2026-04-06T14:25:34.189Z</time></trkpt><trkpt lat="43.6060267" lon="12.5600898"><ele>291.0</ele><time>2026-04-06T14:25:35.187Z</time></trkpt><trkpt lat="43.6061518" lon="12.5604096"><ele>289.5</ele><time>2026-04-06T14:25:36.178Z</time></trkpt><trkpt lat="43.6062679" lon="12.560747"><ele>288.0</ele><time>2026-04-06T14:25:37.184Z</time></trkpt><trkpt lat="43.6063726" lon="12.5610892"><ele>289.0</ele><time>2026-04-06T14:25:38.183Z</time></trkpt><trkpt lat="43.6064782" lon="12.561451"><ele>290.0</ele><time>2026-04-06T14:25:39.182Z</time></trkpt><trkpt lat="43.6065845" lon="12.5618329"><ele>291.5</ele><time>2026-04-06T14:25:40.184Z</time></trkpt><trkpt lat="43.6067062" lon="12.562192"><ele>293.0</ele><time>2026-04-06T14:25:41.191Z</time></trkpt><trkpt lat="43.6068253" lon="12.5625531"><ele>295.0</ele><time>2026-04-06T14:25:42.185Z</time></trkpt><trkpt lat="43.6069488" lon="12.5629188"><ele>297.0</ele><time>2026-04-06T14:25:43.187Z</time></trkpt><trkpt lat="43.6070578" lon="12.5632775"><ele>293.0</ele><time>2026-04-06T14:25:44.189Z</time></trkpt><trkpt lat="43.607169" lon="12.5636405"><ele>289.0</ele><time>2026-04-06T14:25:45.194Z</time></trkpt><trkpt lat="43.6072894" lon="12.5640169"><ele>289.0</ele><time>2026-04-06T14:25:46.191Z</time></trkpt><trkpt lat="43.6073991" lon="12.5643989"><ele>289.0</ele><time>2026-04-06T14:25:47.191Z</time></trkpt><trkpt lat="43.6075161" lon="12.5647779"><ele>291.0</ele><time>2026-04-06T14:25:48.192Z</time></trkpt><trkpt lat="43.6076098" lon="12.5651558"><ele>293.0</ele><time>2026-04-06T14:25:49.185Z</time></trkpt><trkpt lat="43.6077235" lon="12.5655026"><ele>294.0</ele><time>2026-04-06T14:25:50.183Z</time></trkpt><trkpt lat="43.6078248" lon="12.5658452"><ele>295.0</ele><time>2026-04-06T14:25:51.19Z</time></trkpt><trkpt lat="43.607949" lon="12.5661652"><ele>292.0</ele><time>2026-04-06T14:25:52.18Z</time></trkpt><trkpt lat="43.6081041" lon="12.5664781"><ele>289.0</ele><time>2026-04-06T14:25:53.189Z</time></trkpt><trkpt lat="43.60828" lon="12.5667858"><ele>290.5</ele><time>2026-04-06T14:25:54.188Z</time></trkpt><trkpt lat="43.6084769" lon="12.5671169"><ele>292.0</ele><time>2026-04-06T14:25:55.191Z</time></trkpt><trkpt lat="43.6086829" lon="12.5674498"><ele>289.0</ele><time>2026-04-06T14:25:56.188Z</time></trkpt><trkpt lat="43.6088746" lon="12.567784"><ele>286.0</ele><time>2026-04-06T14:25:57.191Z</time></trkpt><trkpt lat="43.6090458" lon="12.5680831"><ele>286.0</ele><time>2026-04-06T14:25:58.179Z</time></trkpt><trkpt lat="43.6092046" lon="12.5683668"><ele>286.0</ele><time>2026-04-06T14:25:59.18Z</time></trkpt><trkpt lat="43.6093624" lon="12.5686393"><ele>283.5</ele><time>2026-04-06T14:26:00.18Z</time></trkpt><trkpt lat="43.6095003" lon="12.568913"><ele>281.0</ele><time>2026-04-06T14:26:01.18Z</time></trkpt><trkpt lat="43.609632" lon="12.5691719"><ele>281.0</ele><time>2026-04-06T14:26:02.181Z</time></trkpt><trkpt lat="43.6097516" lon="12.5694149"><ele>281.0</ele><time>2026-04-06T14:26:03.175Z</time></trkpt><trkpt lat="43.6098409" lon="12.5696908"><ele>281.0</ele><time>2026-04-06T14:26:04.173Z</time></trkpt><trkpt lat="43.6098872" lon="12.5700305"><ele>281.0</ele><time>2026-04-06T14:26:05.169Z</time></trkpt><trkpt lat="43.6099128" lon="12.5703956"><ele>281.0</ele><time>2026-04-06T14:26:06.176Z</time></trkpt><trkpt lat="43.6099292" lon="12.5707844"><ele>281.0</ele><time>2026-04-06T14:26:07.175Z</time></trkpt><trkpt lat="43.609958" lon="12.5711852"><ele>281.0</ele><time>2026-04-06T14:26:08.178Z</time></trkpt><trkpt lat="43.6099884" lon="12.5715692"><ele>280.5</ele><time>2026-04-06T14:26:09.179Z</time></trkpt><trkpt lat="43.6100215" lon="12.57196"><ele>280.0</ele><time>2026-04-06T14:26:10.177Z</time></trkpt><trkpt lat="43.610049" lon="12.5723562"><ele>280.0</ele><time>2026-04-06T14:26:11.177Z</time></trkpt><trkpt lat="43.6100896" lon="12.5727534"><ele>280.0</ele><time>2026-04-06T14:26:12.176Z</time></trkpt><trkpt lat="43.610114" lon="12.5731645"><ele>280.5</ele><time>2026-04-06T14:26:13.175Z</time></trkpt><trkpt lat="43.6101486" lon="12.573578"><ele>281.0</ele><time>2026-04-06T14:26:14.18Z</time></trkpt><trkpt lat="43.6101799" lon="12.5739963"><ele>283.0</ele><time>2026-04-06T14:26:15.183Z</time></trkpt><trkpt lat="43.610201" lon="12.5743695"><ele>285.0</ele><time>2026-04-06T14:26:16.171Z</time></trkpt><trkpt lat="43.610217" lon="12.5747158"><ele>285.0</ele><time>2026-04-06T14:26:17.181Z</time></trkpt><trkpt lat="43.6102345" lon="12.5750612"><ele>285.0</ele><time>2026-04-06T14:26:18.187Z</time></trkpt><trkpt lat="43.6102499" lon="12.5754062"><ele>282.0</ele><time>2026-04-06T14:26:19.18Z</time></trkpt><trkpt lat="43.6102276" lon="12.5757707"><ele>279.0</ele><time>2026-04-06T14:26:20.172Z</time></trkpt><trkpt lat="43.6101935" lon="12.5761286"><ele>278.0</ele><time>2026-04-06T14:26:21.171Z</time></trkpt><trkpt lat="43.6100981" lon="12.5764675"><ele>277.0</ele><time>2026-04-06T14:26:22.175Z</time></trkpt><trkpt lat="43.6100105" lon="12.5767629"><ele>276.0</ele><time>2026-04-06T14:26:23.183Z</time></trkpt><trkpt lat="43.6099205" lon="12.5770417"><ele>275.0</ele><time>2026-04-06T14:26:24.179Z</time></trkpt><trkpt lat="43.6098386" lon="12.5772894"><ele>274.0</ele><time>2026-04-06T14:26:25.186Z</time></trkpt><trkpt lat="43.6096882" lon="12.5777132"><ele>274.3333333333333</ele><time>2026-04-06T14:26:27.197Z</time></trkpt><trkpt lat="43.60961" lon="12.5779338"><ele>274.6666666666667</ele><time>2026-04-06T14:26:28.191Z</time></trkpt><trkpt lat="43.609529" lon="12.5781488"><ele>275.0</ele><time>2026-04-06T14:26:29.192Z</time></trkpt><trkpt lat="43.6094349" lon="12.5783609"><ele>276.6666666666667</ele><time>2026-04-06T14:26:30.184Z</time></trkpt><trkpt lat="43.609311" lon="12.5785584"><ele>278.3333333333333</ele><time>2026-04-06T14:26:31.185Z</time></trkpt><trkpt lat="43.6091839" lon="12.5787303"><ele>280.0</ele><time>2026-04-06T14:26:32.186Z</time></trkpt><trkpt lat="43.60888" lon="12.5789823"><ele>275.0</ele><time>2026-04-06T14:26:34.177Z</time></trkpt><trkpt lat="43.6083639" lon="12.5792036"><ele>275.0</ele><time>2026-04-06T14:26:37.183Z</time></trkpt><trkpt lat="43.6081418" lon="12.5792564"><ele>275.0</ele><time>2026-04-06T14:26:38.18Z</time></trkpt><trkpt lat="43.6078937" lon="12.5792916"><ele>274.0</ele><time>2026-04-06T14:26:39.183Z</time></trkpt><trkpt lat="43.6076393" lon="12.5793028"><ele>273.0</ele><time>2026-04-06T14:26:40.182Z</time></trkpt><trkpt lat="43.6073597" lon="12.5793071"><ele>273.0</ele><time>2026-04-06T14:26:41.183Z</time></trkpt><trkpt lat="43.6070546" lon="12.5793226"><ele>273.0</ele><time>2026-04-06T14:26:42.185Z</time></trkpt><trkpt lat="43.6067449" lon="12.5793491"><ele>275.0</ele><time>2026-04-06T14:26:43.18Z</time></trkpt><trkpt lat="43.6064442" lon="12.5793782"><ele>277.0</ele><time>2026-04-06T14:26:44.178Z</time></trkpt><trkpt lat="43.6061671" lon="12.5794055"><ele>276.5</ele><time>2026-04-06T14:26:45.185Z</time></trkpt><trkpt lat="43.6059079" lon="12.5794446"><ele>276.0</ele><time>2026-04-06T14:26:46.181Z</time></trkpt><trkpt lat="43.6056525" lon="12.5794797"><ele>269.5</ele><time>2026-04-06T14:26:47.179Z</time></trkpt><trkpt lat="43.6054053" lon="12.5795225"><ele>263.0</ele><time>2026-04-06T14:26:48.181Z</time></trkpt><trkpt lat="43.6051752" lon="12.5795669"><ele>263.0</ele><time>2026-04-06T14:26:49.175Z</time></trkpt><trkpt lat="43.6049659" lon="12.5796147"><ele>263.0</ele><time>2026-04-06T14:26:50.171Z</time></trkpt><trkpt lat="43.6047438" lon="12.5797129"><ele>263.0</ele><time>2026-04-06T14:26:51.177Z</time></trkpt><trkpt lat="43.6045717" lon="12.5798501"><ele>264.5</ele><time>2026-04-06T14:26:52.177Z</time></trkpt><trkpt lat="43.6042253" lon="12.5802346"><ele>266.0</ele><time>2026-04-06T14:26:54.178Z</time></trkpt><trkpt lat="43.604063" lon="12.5804891"><ele>266.0</ele><time>2026-04-06T14:26:55.178Z</time></trkpt><trkpt lat="43.6038889" lon="12.5807717"><ele>266.0</ele><time>2026-04-06T14:26:56.183Z</time></trkpt><trkpt lat="43.6037218" lon="12.5810393"><ele>267.0</ele><time>2026-04-06T14:26:57.187Z</time></trkpt><trkpt lat="43.6035661" lon="12.5812689"><ele>268.0</ele><time>2026-04-06T14:26:58.175Z</time></trkpt><trkpt lat="43.6034112" lon="12.5815054"><ele>268.0</ele><time>2026-04-06T14:26:59.182Z</time></trkpt><trkpt lat="43.6032567" lon="12.581757"><ele>268.0</ele><time>2026-04-06T14:27:00.174Z</time></trkpt><trkpt lat="43.6031003" lon="12.5820318"><ele>273.3333333333333</ele><time>2026-04-06T14:27:01.178Z</time></trkpt><trkpt lat="43.6029607" lon="12.5823061"><ele>278.6666666666667</ele><time>2026-04-06T14:27:02.179Z</time></trkpt><trkpt lat="43.6028551" lon="12.5825496"><ele>284.0</ele><time>2026-04-06T14:27:03.172Z</time></trkpt><trkpt lat="43.6027434" lon="12.5827827"><ele>276.0</ele><time>2026-04-06T14:27:04.177Z</time></trkpt><trkpt lat="43.6026546" lon="12.5830078"><ele>268.0</ele><time>2026-04-06T14:27:05.176Z</time></trkpt><trkpt lat="43.6025514" lon="12.5832483"><ele>260.0</ele><time>2026-04-06T14:27:06.176Z</time></trkpt><trkpt lat="43.6024538" lon="12.5834904"><ele>264.6666666666667</ele><time>2026-04-06T14:27:07.173Z</time></trkpt><trkpt lat="43.6023631" lon="12.583721"><ele>269.3333333333333</ele><time>2026-04-06T14:27:08.176Z</time></trkpt><trkpt lat="43.6022724" lon="12.5839699"><ele>274.0</ele><time>2026-04-06T14:27:09.173Z</time></trkpt><trkpt lat="43.602149" lon="12.5842393"><ele>274.0</ele><time>2026-04-06T14:27:10.176Z</time></trkpt><trkpt lat="43.6020109" lon="12.584512"><ele>274.0</ele><time>2026-04-06T14:27:11.177Z</time></trkpt><trkpt lat="43.6018922" lon="12.5847507"><ele>269.0</ele><time>2026-04-06T14:27:12.175Z</time></trkpt><trkpt lat="43.6018062" lon="12.5849723"><ele>264.0</ele><time>2026-04-06T14:27:13.179Z</time></trkpt><trkpt lat="43.6017099" lon="12.5851858"><ele>259.0</ele><time>2026-04-06T14:27:14.177Z</time></trkpt><trkpt lat="43.6016192" lon="12.5853839"><ele>259.0</ele><time>2026-04-06T14:27:15.183Z</time></trkpt><trkpt lat="43.6015363" lon="12.5855687"><ele>259.0</ele><time>2026-04-06T14:27:16.181Z</time></trkpt><trkpt lat="43.6014779" lon="12.5857347"><ele>259.0</ele><time>2026-04-06T14:27:17.181Z</time></trkpt><trkpt lat="43.6014294" lon="12.5859051"><ele>259.0</ele><time>2026-04-06T14:27:18.18Z</time></trkpt><trkpt lat="43.6014276" lon="12.5860567"><ele>260.25</ele><time>2026-04-06T14:27:19.184Z</time></trkpt><trkpt lat="43.6014897" lon="12.586203"><ele>261.5</ele><time>2026-04-06T14:27:20.187Z</time></trkpt><trkpt lat="43.6015817" lon="12.58636"><ele>262.75</ele><time>2026-04-06T14:27:21.184Z</time></trkpt><trkpt lat="43.6016761" lon="12.5865259"><ele>264.0</ele><time>2026-04-06T14:27:22.177Z</time></trkpt><trkpt lat="43.6017519" lon="12.5866956"><ele>264.0</ele><time>2026-04-06T14:27:23.188Z</time></trkpt><trkpt lat="43.6018295" lon="12.5868634"><ele>264.0</ele><time>2026-04-06T14:27:24.184Z</time></trkpt><trkpt lat="43.6018782" lon="12.5870373"><ele>264.0</ele><time>2026-04-06T14:27:25.18Z</time></trkpt><trkpt lat="43.6019059" lon="12.5872311"><ele>264.0</ele><time>2026-04-06T14:27:26.182Z</time></trkpt><trkpt lat="43.601939" lon="12.587425"><ele>266.0</ele><time>2026-04-06T14:27:27.192Z</time></trkpt><trkpt lat="43.6019512" lon="12.5876218"><ele>268.0</ele><time>2026-04-06T14:27:28.181Z</time></trkpt><trkpt lat="43.6019562" lon="12.5878124"><ele>270.0</ele><time>2026-04-06T14:27:29.186Z</time></trkpt><trkpt lat="43.6019806" lon="12.587992"><ele>272.0</ele><time>2026-04-06T14:27:30.185Z</time></trkpt><trkpt lat="43.6020031" lon="12.5881665"><ele>265.6666666666667</ele><time>2026-04-06T14:27:31.183Z</time></trkpt><trkpt lat="43.6020563" lon="12.5883423"><ele>259.3333333333333</ele><time>2026-04-06T14:27:32.181Z</time></trkpt><trkpt lat="43.602128" lon="12.5885321"><ele>253.0</ele><time>2026-04-06T14:27:33.186Z</time></trkpt><trkpt lat="43.6022306" lon="12.5887495"><ele>253.0</ele><time>2026-04-06T14:27:34.182Z</time></trkpt><trkpt lat="43.6023372" lon="12.5890141"><ele>253.0</ele><time>2026-04-06T14:27:35.188Z</time></trkpt><trkpt lat="43.6024654" lon="12.5892982"><ele>260.0</ele><time>2026-04-06T14:27:36.188Z</time></trkpt><trkpt lat="43.6025866" lon="12.5896242"><ele>267.0</ele><time>2026-04-06T14:27:37.178Z</time></trkpt><trkpt lat="43.6027143" lon="12.5899449"><ele>263.0</ele><time>2026-04-06T14:27:38.181Z</time></trkpt><trkpt lat="43.6028562" lon="12.5902857"><ele>259.0</ele><time>2026-04-06T14:27:39.182Z</time></trkpt><trkpt lat="43.6029719" lon="12.5905984"><ele>259.0</ele><time>2026-04-06T14:27:40.181Z</time></trkpt><trkpt lat="43.6030484" lon="12.5908387"><ele>259.0</ele><time>2026-04-06T14:27:41.18Z</time></trkpt><trkpt lat="43.6031346" lon="12.5910644"><ele>259.0</ele><time>2026-04-06T14:27:42.18Z</time></trkpt><trkpt lat="43.6032225" lon="12.5912862"><ele>261.66666666666663</ele><time>2026-04-06T14:27:43.184Z</time></trkpt><trkpt lat="43.6033063" lon="12.591488"><ele>264.3333333333333</ele><time>2026-04-06T14:27:44.184Z</time></trkpt><trkpt lat="43.6033846" lon="12.5916678"><ele>267.0</ele><time>2026-04-06T14:27:45.18Z</time></trkpt><trkpt lat="43.6034512" lon="12.5918343"><ele>266.0</ele><time>2026-04-06T14:27:46.183Z</time></trkpt><trkpt lat="43.6035169" lon="12.5920081"><ele>265.0</ele><time>2026-04-06T14:27:47.185Z</time></trkpt><trkpt lat="43.6037299" lon="12.5925317"><ele>265.0</ele><time>2026-04-06T14:27:50.182Z</time></trkpt><trkpt lat="43.6037928" lon="12.5927064"><ele>265.0</ele><time>2026-04-06T14:27:51.186Z</time></trkpt><trkpt lat="43.6038596" lon="12.592874"><ele>265.0</ele><time>2026-04-06T14:27:52.185Z</time></trkpt><trkpt lat="43.6039233" lon="12.5930508"><ele>265.0</ele><time>2026-04-06T14:27:53.188Z</time></trkpt><trkpt lat="43.6040066" lon="12.5932438"><ele>263.5</ele><time>2026-04-06T14:27:54.183Z</time></trkpt><trkpt lat="43.6042318" lon="12.5937369"><ele>262.0</ele><time>2026-04-06T14:27:56.191Z</time></trkpt><trkpt lat="43.6044722" lon="12.5943569"><ele>260.5</ele><time>2026-04-06T14:27:58.187Z</time></trkpt><trkpt lat="43.6045841" lon="12.5946779"><ele>259.0</ele><time>2026-04-06T14:27:59.189Z</time></trkpt><trkpt lat="43.6046959" lon="12.5949592"><ele>259.0</ele><time>2026-04-06T14:28:00.188Z</time></trkpt><trkpt lat="43.6047924" lon="12.5952299"><ele>259.0</ele><time>2026-04-06T14:28:01.185Z</time></trkpt><trkpt lat="43.6051582" lon="12.5960817"><ele>258.5</ele><time>2026-04-06T14:28:04.18Z</time></trkpt><trkpt lat="43.6052871" lon="12.5964283"><ele>258.0</ele><time>2026-04-06T14:28:05.178Z</time></trkpt><trkpt lat="43.6054044" lon="12.5967954"><ele>259.0</ele><time>2026-04-06T14:28:06.177Z</time></trkpt><trkpt lat="43.6055431" lon="12.5971683"><ele>260.0</ele><time>2026-04-06T14:28:07.181Z</time></trkpt><trkpt lat="43.6057014" lon="12.5975424"><ele>259.5</ele><time>2026-04-06T14:28:08.182Z</time></trkpt><trkpt lat="43.6058464" lon="12.5979094"><ele>259.0</ele><time>2026-04-06T14:28:09.183Z</time></trkpt><trkpt lat="43.6059973" lon="12.5982654"><ele>259.0</ele><time>2026-04-06T14:28:10.184Z</time></trkpt><trkpt lat="43.6061439" lon="12.5986318"><ele>259.0</ele><time>2026-04-06T14:28:11.183Z</time></trkpt><trkpt lat="43.6062949" lon="12.5990008"><ele>258.0</ele><time>2026-04-06T14:28:12.188Z</time></trkpt><trkpt lat="43.6064457" lon="12.5993638"><ele>257.0</ele><time>2026-04-06T14:28:13.188Z</time></trkpt><trkpt lat="43.6065853" lon="12.5997443"><ele>257.0</ele><time>2026-04-06T14:28:14.191Z</time></trkpt><trkpt lat="43.6067405" lon="12.6001057"><ele>257.0</ele><time>2026-04-06T14:28:15.187Z</time></trkpt><trkpt lat="43.6068616" lon="12.6004303"><ele>256.0</ele><time>2026-04-06T14:28:16.191Z</time></trkpt><trkpt lat="43.6069658" lon="12.6007445"><ele>255.0</ele><time>2026-04-06T14:28:17.19Z</time></trkpt><trkpt lat="43.6070777" lon="12.6010477"><ele>250.0</ele><time>2026-04-06T14:28:18.191Z</time></trkpt><trkpt lat="43.6071715" lon="12.6013411"><ele>245.0</ele><time>2026-04-06T14:28:19.202Z</time></trkpt><trkpt lat="43.6072834" lon="12.6016288"><ele>246.0</ele><time>2026-04-06T14:28:20.189Z</time></trkpt><trkpt lat="43.6074687" lon="12.6021769"><ele>247.0</ele><time>2026-04-06T14:28:22.191Z</time></trkpt><trkpt lat="43.6075481" lon="12.6024592"><ele>247.0</ele><time>2026-04-06T14:28:23.194Z</time></trkpt><trkpt lat="43.6076484" lon="12.6027455"><ele>247.0</ele><time>2026-04-06T14:28:24.194Z</time></trkpt><trkpt lat="43.6077449" lon="12.6030297"><ele>244.0</ele><time>2026-04-06T14:28:25.194Z</time></trkpt><trkpt lat="43.6078482" lon="12.6033134"><ele>241.0</ele><time>2026-04-06T14:28:26.202Z</time></trkpt><trkpt lat="43.6079292" lon="12.6036094"><ele>237.0</ele><time>2026-04-06T14:28:27.197Z</time></trkpt><trkpt lat="43.6080206" lon="12.6039057"><ele>233.0</ele><time>2026-04-06T14:28:28.187Z</time></trkpt><trkpt lat="43.6081183" lon="12.6041878"><ele>233.0</ele><time>2026-04-06T14:28:29.202Z</time></trkpt><trkpt lat="43.6082139" lon="12.6044787"><ele>233.0</ele><time>2026-04-06T14:28:30.2Z</time></trkpt><trkpt lat="43.6083064" lon="12.604767"><ele>232.5</ele><time>2026-04-06T14:28:31.198Z</time></trkpt><trkpt lat="43.6084158" lon="12.6050627"><ele>232.0</ele><time>2026-04-06T14:28:32.197Z</time></trkpt><trkpt lat="43.6085198" lon="12.6053612"><ele>232.0</ele><time>2026-04-06T14:28:33.189Z</time></trkpt><trkpt lat="43.6086283" lon="12.6056657"><ele>232.0</ele><time>2026-04-06T14:28:34.188Z</time></trkpt><trkpt lat="43.6087275" lon="12.6059533"><ele>230.0</ele><time>2026-04-06T14:28:35.192Z</time></trkpt><trkpt lat="43.6088147" lon="12.6062522"><ele>228.0</ele><time>2026-04-06T14:28:36.188Z</time></trkpt><trkpt lat="43.60891" lon="12.6065485"><ele>228.0</ele><time>2026-04-06T14:28:37.192Z</time></trkpt><trkpt lat="43.6089925" lon="12.6068519"><ele>228.0</ele><time>2026-04-06T14:28:38.19Z</time></trkpt><trkpt lat="43.6090824" lon="12.6071421"><ele>232.0</ele><time>2026-04-06T14:28:39.189Z</time></trkpt><trkpt lat="43.6091777" lon="12.6074355"><ele>236.0</ele><time>2026-04-06T14:28:40.191Z</time></trkpt><trkpt lat="43.6092888" lon="12.6077346"><ele>238.0</ele><time>2026-04-06T14:28:41.189Z</time></trkpt><trkpt lat="43.609394" lon="12.608027"><ele>240.0</ele><time>2026-04-06T14:28:42.189Z</time></trkpt><trkpt lat="43.609494" lon="12.6083256"><ele>237.5</ele><time>2026-04-06T14:28:43.193Z</time></trkpt><trkpt lat="43.6095984" lon="12.6086198"><ele>235.0</ele><time>2026-04-06T14:28:44.194Z</time></trkpt><trkpt lat="43.6097876" lon="12.6091526"><ele>235.0</ele><time>2026-04-06T14:28:46.18Z</time></trkpt><trkpt lat="43.609941" lon="12.6096373"><ele>235.0</ele><time>2026-04-06T14:28:48.181Z</time></trkpt><trkpt lat="43.6100182" lon="12.6098667"><ele>231.5</ele><time>2026-04-06T14:28:49.179Z</time></trkpt><trkpt lat="43.6101924" lon="12.6103819"><ele>228.0</ele><time>2026-04-06T14:28:51.179Z</time></trkpt><trkpt lat="43.6102799" lon="12.6106583"><ele>227.66666666666669</ele><time>2026-04-06T14:28:52.183Z</time></trkpt><trkpt lat="43.6103365" lon="12.6109508"><ele>227.33333333333334</ele><time>2026-04-06T14:28:53.186Z</time></trkpt><trkpt lat="43.6103739" lon="12.6112034"><ele>227.0</ele><time>2026-04-06T14:28:54.182Z</time></trkpt><trkpt lat="43.6103881" lon="12.6114297"><ele>226.0</ele><time>2026-04-06T14:28:55.191Z</time></trkpt><trkpt lat="43.6104092" lon="12.6116684"><ele>225.0</ele><time>2026-04-06T14:28:56.191Z</time></trkpt><trkpt lat="43.6104502" lon="12.6119383"><ele>224.0</ele><time>2026-04-06T14:28:57.193Z</time></trkpt><trkpt lat="43.6104945" lon="12.6122332"><ele>223.66666666666669</ele><time>2026-04-06T14:28:58.179Z</time></trkpt><trkpt lat="43.6105318" lon="12.6125451"><ele>223.33333333333331</ele><time>2026-04-06T14:28:59.189Z</time></trkpt><trkpt lat="43.6105594" lon="12.6128129"><ele>223.0</ele><time>2026-04-06T14:29:00.192Z</time></trkpt><trkpt lat="43.6105892" lon="12.6130477"><ele>224.66666666666666</ele><time>2026-04-06T14:29:01.182Z</time></trkpt><trkpt lat="43.610587" lon="12.613278"><ele>226.33333333333331</ele><time>2026-04-06T14:29:02.192Z</time></trkpt><trkpt lat="43.6105557" lon="12.6134808"><ele>228.0</ele><time>2026-04-06T14:29:03.186Z</time></trkpt><trkpt lat="43.6105038" lon="12.6136652"><ele>228.0</ele><time>2026-04-06T14:29:04.19Z</time></trkpt><trkpt lat="43.6104475" lon="12.6138452"><ele>228.0</ele><time>2026-04-06T14:29:05.189Z</time></trkpt><trkpt lat="43.6103835" lon="12.6140164"><ele>228.0</ele><time>2026-04-06T14:29:06.189Z</time></trkpt><trkpt lat="43.6103039" lon="12.6142292"><ele>228.0</ele><time>2026-04-06T14:29:07.19Z</time></trkpt><trkpt lat="43.6102143" lon="12.6144682"><ele>228.0</ele><time>2026-04-06T14:29:08.177Z</time></trkpt><trkpt lat="43.6100906" lon="12.6147154"><ele>228.0</ele><time>2026-04-06T14:29:09.186Z</time></trkpt><trkpt lat="43.6099601" lon="12.6149375"><ele>228.66666666666669</ele><time>2026-04-06T14:29:10.187Z</time></trkpt><trkpt lat="43.6098736" lon="12.615154"><ele>229.33333333333334</ele><time>2026-04-06T14:29:11.189Z</time></trkpt><trkpt lat="43.6098195" lon="12.6153597"><ele>230.0</ele><time>2026-04-06T14:29:12.176Z</time></trkpt><trkpt lat="43.6098051" lon="12.6155532"><ele>230.0</ele><time>2026-04-06T14:29:13.179Z</time></trkpt><trkpt lat="43.6098223" lon="12.6157102"><ele>230.0</ele><time>2026-04-06T14:29:14.182Z</time></trkpt><trkpt lat="43.6098889" lon="12.6158623"><ele>230.0</ele><time>2026-04-06T14:29:15.189Z</time></trkpt><trkpt lat="43.6100044" lon="12.6159917"><ele>230.0</ele><time>2026-04-06T14:29:16.186Z</time></trkpt><trkpt lat="43.6101755" lon="12.6161438"><ele>230.5</ele><time>2026-04-06T14:29:17.178Z</time></trkpt><trkpt lat="43.6103834" lon="12.6163051"><ele>231.0</ele><time>2026-04-06T14:29:18.173Z</time></trkpt><trkpt lat="43.6105966" lon="12.6164907"><ele>231.0</ele><time>2026-04-06T14:29:19.179Z</time></trkpt><trkpt lat="43.6108092" lon="12.616707"><ele>231.0</ele><time>2026-04-06T14:29:20.171Z</time></trkpt><trkpt lat="43.6109991" lon="12.6169701"><ele>231.0</ele><time>2026-04-06T14:29:21.18Z</time></trkpt><trkpt lat="43.6111773" lon="12.6172788"><ele>231.0</ele><time>2026-04-06T14:29:22.18Z</time></trkpt><trkpt lat="43.6113472" lon="12.617585"><ele>230.0</ele><time>2026-04-06T14:29:23.186Z</time></trkpt><trkpt lat="43.6115073" lon="12.6178716"><ele>229.0</ele><time>2026-04-06T14:29:24.181Z</time></trkpt><trkpt lat="43.6116546" lon="12.6181421"><ele>229.0</ele><time>2026-04-06T14:29:25.177Z</time></trkpt><trkpt lat="43.6117891" lon="12.6184539"><ele>229.0</ele><time>2026-04-06T14:29:26.192Z</time></trkpt><trkpt lat="43.6118904" lon="12.6187809"><ele>235.0</ele><time>2026-04-06T14:29:27.192Z</time></trkpt><trkpt lat="43.6120241" lon="12.6193766"><ele>235.5</ele><time>2026-04-06T14:29:29.187Z</time></trkpt><trkpt lat="43.6121018" lon="12.6196771"><ele>236.0</ele><time>2026-04-06T14:29:30.187Z</time></trkpt><trkpt lat="43.612164" lon="12.6199763"><ele>236.0</ele><time>2026-04-06T14:29:31.192Z</time></trkpt><trkpt lat="43.6122299" lon="12.6202404"><ele>236.0</ele><time>2026-04-06T14:29:32.199Z</time></trkpt><trkpt lat="43.6122867" lon="12.6205059"><ele>236.0</ele><time>2026-04-06T14:29:33.19Z</time></trkpt><trkpt lat="43.6123128" lon="12.6207695"><ele>236.33333333333334</ele><time>2026-04-06T14:29:34.186Z</time></trkpt><trkpt lat="43.612329" lon="12.6210198"><ele>236.66666666666669</ele><time>2026-04-06T14:29:35.184Z</time></trkpt><trkpt lat="43.6123306" lon="12.6212432"><ele>237.0</ele><time>2026-04-06T14:29:36.192Z</time></trkpt><trkpt lat="43.6123239" lon="12.6214972"><ele>237.33333333333331</ele><time>2026-04-06T14:29:37.19Z</time></trkpt><trkpt lat="43.612315" lon="12.621766"><ele>237.66666666666666</ele><time>2026-04-06T14:29:38.188Z</time></trkpt><trkpt lat="43.6122943" lon="12.6219887"><ele>238.0</ele><time>2026-04-06T14:29:39.19Z</time></trkpt><trkpt lat="43.612257" lon="12.6221985"><ele>237.33333333333331</ele><time>2026-04-06T14:29:40.19Z</time></trkpt><trkpt lat="43.6122433" lon="12.622395"><ele>236.66666666666669</ele><time>2026-04-06T14:29:41.189Z</time></trkpt><trkpt lat="43.6122341" lon="12.6226439"><ele>236.0</ele><time>2026-04-06T14:29:42.193Z</time></trkpt><trkpt lat="43.612205" lon="12.6229039"><ele>235.66666666666669</ele><time>2026-04-06T14:29:43.189Z</time></trkpt><trkpt lat="43.6121838" lon="12.6231484"><ele>235.33333333333331</ele><time>2026-04-06T14:29:44.188Z</time></trkpt><trkpt lat="43.6121725" lon="12.6233549"><ele>235.0</ele><time>2026-04-06T14:29:45.188Z</time></trkpt><trkpt lat="43.6121785" lon="12.6235535"><ele>235.0</ele><time>2026-04-06T14:29:46.196Z</time></trkpt><trkpt lat="43.6121896" lon="12.6237667"><ele>235.0</ele><time>2026-04-06T14:29:47.198Z</time></trkpt><trkpt lat="43.6122167" lon="12.6239762"><ele>235.0</ele><time>2026-04-06T14:29:48.188Z</time></trkpt><trkpt lat="43.6122646" lon="12.6241643"><ele>235.0</ele><time>2026-04-06T14:29:49.197Z</time></trkpt><trkpt lat="43.6123305" lon="12.6243239"><ele>235.0</ele><time>2026-04-06T14:29:50.197Z</time></trkpt><trkpt lat="43.6124395" lon="12.6245223"><ele>235.0</ele><time>2026-04-06T14:29:51.191Z</time></trkpt><trkpt lat="43.6125834" lon="12.6247346"><ele>232.0</ele><time>2026-04-06T14:29:52.186Z</time></trkpt><trkpt lat="43.6127584" lon="12.6249497"><ele>229.0</ele><time>2026-04-06T14:29:53.185Z</time></trkpt><trkpt lat="43.6129497" lon="12.6251535"><ele>228.0</ele><time>2026-04-06T14:29:54.187Z</time></trkpt><trkpt lat="43.6131143" lon="12.6253468"><ele>227.0</ele><time>2026-04-06T14:29:55.18Z</time></trkpt><trkpt lat="43.6132582" lon="12.6255074"><ele>226.0</ele><time>2026-04-06T14:29:56.19Z</time></trkpt><trkpt lat="43.6133978" lon="12.625659"><ele>226.0</ele><time>2026-04-06T14:29:57.185Z</time></trkpt><trkpt lat="43.6135192" lon="12.6258085"><ele>226.0</ele><time>2026-04-06T14:29:58.188Z</time></trkpt><trkpt lat="43.6136082" lon="12.6259885"><ele>226.0</ele><time>2026-04-06T14:29:59.189Z</time></trkpt><trkpt lat="43.6136672" lon="12.6261873"><ele>225.66666666666666</ele><time>2026-04-06T14:30:00.184Z</time></trkpt><trkpt lat="43.6136604" lon="12.6264014"><ele>225.33333333333331</ele><time>2026-04-06T14:30:01.185Z</time></trkpt><trkpt lat="43.6136204" lon="12.6266206"><ele>225.0</ele><time>2026-04-06T14:30:02.191Z</time></trkpt><trkpt lat="43.6135384" lon="12.6268723"><ele>228.5</ele><time>2026-04-06T14:30:03.181Z</time></trkpt><trkpt lat="43.6134464" lon="12.627151"><ele>232.0</ele><time>2026-04-06T14:30:04.188Z</time></trkpt><trkpt lat="43.6133463" lon="12.6274393"><ele>232.0</ele><time>2026-04-06T14:30:05.188Z</time></trkpt><trkpt lat="43.6132391" lon="12.6276836"><ele>232.0</ele><time>2026-04-06T14:30:06.191Z</time></trkpt><trkpt lat="43.6131213" lon="12.6278913"><ele>232.0</ele><time>2026-04-06T14:30:07.197Z</time></trkpt><trkpt lat="43.6129967" lon="12.6280538"><ele>231.75</ele><time>2026-04-06T14:30:08.189Z</time></trkpt><trkpt lat="43.612887" lon="12.6281934"><ele>231.5</ele><time>2026-04-06T14:30:09.187Z</time></trkpt><trkpt lat="43.6128118" lon="12.6283552"><ele>231.25</ele><time>2026-04-06T14:30:10.197Z</time></trkpt><trkpt lat="43.6127825" lon="12.6285517"><ele>231.0</ele><time>2026-04-06T14:30:11.194Z</time></trkpt><trkpt lat="43.6127991" lon="12.6287846"><ele>233.33333333333331</ele><time>2026-04-06T14:30:12.194Z</time></trkpt><trkpt lat="43.6128257" lon="12.6290316"><ele>235.66666666666666</ele><time>2026-04-06T14:30:13.193Z</time></trkpt><trkpt lat="43.6128512" lon="12.6293149"><ele>238.0</ele><time>2026-04-06T14:30:14.186Z</time></trkpt><trkpt lat="43.6128824" lon="12.6296171"><ele>238.5</ele><time>2026-04-06T14:30:15.192Z</time></trkpt><trkpt lat="43.6129256" lon="12.6299285"><ele>239.0</ele><time>2026-04-06T14:30:16.189Z</time></trkpt><trkpt lat="43.6129589" lon="12.6302491"><ele>239.33333333333334</ele><time>2026-04-06T14:30:17.188Z</time></trkpt><trkpt lat="43.6129997" lon="12.6305507"><ele>239.66666666666669</ele><time>2026-04-06T14:30:18.192Z</time></trkpt><trkpt lat="43.6130437" lon="12.6308559"><ele>240.0</ele><time>2026-04-06T14:30:19.195Z</time></trkpt><trkpt lat="43.6130874" lon="12.6311575"><ele>240.0</ele><time>2026-04-06T14:30:20.194Z</time></trkpt><trkpt lat="43.6131141" lon="12.6314655"><ele>240.0</ele><time>2026-04-06T14:30:21.191Z</time></trkpt><trkpt lat="43.6131474" lon="12.6317729"><ele>239.66666666666669</ele><time>2026-04-06T14:30:22.191Z</time></trkpt><trkpt lat="43.6131812" lon="12.6320717"><ele>239.33333333333334</ele><time>2026-04-06T14:30:23.194Z</time></trkpt><trkpt lat="43.6132136" lon="12.6323728"><ele>239.0</ele><time>2026-04-06T14:30:24.19Z</time></trkpt><trkpt lat="43.6132425" lon="12.632668"><ele>237.66666666666669</ele><time>2026-04-06T14:30:25.198Z</time></trkpt><trkpt lat="43.6132712" lon="12.6329513"><ele>236.33333333333331</ele><time>2026-04-06T14:30:26.203Z</time></trkpt><trkpt lat="43.6132849" lon="12.6332391"><ele>235.0</ele><time>2026-04-06T14:30:27.203Z</time></trkpt><trkpt lat="43.6133091" lon="12.6335064"><ele>234.33333333333331</ele><time>2026-04-06T14:30:28.191Z</time></trkpt><trkpt lat="43.6133415" lon="12.6337658"><ele>233.66666666666669</ele><time>2026-04-06T14:30:29.196Z</time></trkpt><trkpt lat="43.613376" lon="12.6340048"><ele>233.0</ele><time>2026-04-06T14:30:30.192Z</time></trkpt><trkpt lat="43.6133904" lon="12.6342389"><ele>233.33333333333334</ele><time>2026-04-06T14:30:31.189Z</time></trkpt><trkpt lat="43.6134039" lon="12.6344801"><ele>233.66666666666669</ele><time>2026-04-06T14:30:32.194Z</time></trkpt><trkpt lat="43.6134325" lon="12.6347336"><ele>234.0</ele><time>2026-04-06T14:30:33.188Z</time></trkpt><trkpt lat="43.6134448" lon="12.6349786"><ele>234.0</ele><time>2026-04-06T14:30:34.19Z</time></trkpt><trkpt lat="43.6134564" lon="12.6352244"><ele>234.0</ele><time>2026-04-06T14:30:35.191Z</time></trkpt><trkpt lat="43.613485" lon="12.6354635"><ele>234.0</ele><time>2026-04-06T14:30:36.196Z</time></trkpt><trkpt lat="43.6135027" lon="12.6357087"><ele>233.33333333333331</ele><time>2026-04-06T14:30:37.198Z</time></trkpt><trkpt lat="43.6135278" lon="12.6359641"><ele>232.66666666666666</ele><time>2026-04-06T14:30:38.192Z</time></trkpt><trkpt lat="43.6135474" lon="12.636204"><ele>232.0</ele><time>2026-04-06T14:30:39.19Z</time></trkpt><trkpt lat="43.6135647" lon="12.6364404"><ele>231.0</ele><time>2026-04-06T14:30:40.227Z</time></trkpt><trkpt lat="43.6135881" lon="12.6366904"><ele>230.0</ele><time>2026-04-06T14:30:41.202Z</time></trkpt><trkpt lat="43.613603" lon="12.6369462"><ele>229.0</ele><time>2026-04-06T14:30:42.197Z</time></trkpt><trkpt lat="43.6136256" lon="12.6372004"><ele>229.66666666666666</ele><time>2026-04-06T14:30:43.2Z</time></trkpt><trkpt lat="43.6136697" lon="12.6374546"><ele>230.33333333333331</ele><time>2026-04-06T14:30:44.197Z</time></trkpt><trkpt lat="43.6136958" lon="12.6377016"><ele>231.0</ele><time>2026-04-06T14:30:45.201Z</time></trkpt><trkpt lat="43.613716" lon="12.6379505"><ele>231.0</ele><time>2026-04-06T14:30:46.194Z</time></trkpt><trkpt lat="43.6137379" lon="12.6381929"><ele>231.0</ele><time>2026-04-06T14:30:47.192Z</time></trkpt><trkpt lat="43.6137667" lon="12.6384339"><ele>231.0</ele><time>2026-04-06T14:30:48.199Z</time></trkpt><trkpt lat="43.6137914" lon="12.6386895"><ele>231.0</ele><time>2026-04-06T14:30:49.199Z</time></trkpt><trkpt lat="43.6138195" lon="12.6389328"><ele>231.0</ele><time>2026-04-06T14:30:50.203Z</time></trkpt><trkpt lat="43.6138371" lon="12.639182"><ele>231.0</ele><time>2026-04-06T14:30:51.201Z</time></trkpt></trkseg></trk></gpx>